<?xml version="1.0" encoding="UTF-8" standalone="no" ?>
<gpx xmlns="http://www.topografix.com/GPX/1/1" xmlns:xsi="http://www.w3.org/2001/XMLSchema-instance" xsi:schemaLocation="http://www.topografix.com/GPX/1/1 http://www.topografix.com/GPX/1/1/gpx.xsd" version="1.1" creator="VisuGPX - https://www.visugpx.com">
  <metadata>
    <name>19/07/2020 09:42:56</name>
    <desc><![CDATA[boucle au départ du col du soulor jusqu'au col de couraduque et retour]]></desc>
  </metadata>
  <trk>
    <name><![CDATA[19/07/2020 09:42:56]]></name>
    <trkseg>
      <trkpt lat="42.96093" lon="-0.26106">
        <ele>1364</ele>
        <time>2020-07-19T07:42:56Z</time>
      </trkpt>
      <trkpt lat="42.96092" lon="-0.26104">
        <ele>1364</ele>
        <time>2020-07-19T07:42:59Z</time>
      </trkpt>
      <trkpt lat="42.96092" lon="-0.26105">
        <ele>1364.1999511719</ele>
        <time>2020-07-19T07:43:00Z</time>
      </trkpt>
      <trkpt lat="42.96096" lon="-0.26102">
        <ele>1364.1999511719</ele>
        <time>2020-07-19T07:43:08Z</time>
      </trkpt>
      <trkpt lat="42.96097" lon="-0.26102">
        <ele>1364.1999511719</ele>
        <time>2020-07-19T07:43:24Z</time>
      </trkpt>
      <trkpt lat="42.96095" lon="-0.26103">
        <ele>1364.1999511719</ele>
        <time>2020-07-19T07:43:32Z</time>
      </trkpt>
      <trkpt lat="42.96095" lon="-0.26104">
        <ele>1364.1999511719</ele>
        <time>2020-07-19T07:43:33Z</time>
      </trkpt>
      <trkpt lat="42.9609" lon="-0.26111">
        <ele>1364.1999511719</ele>
        <time>2020-07-19T07:43:37Z</time>
      </trkpt>
      <trkpt lat="42.96089" lon="-0.26114">
        <ele>1364.1999511719</ele>
        <time>2020-07-19T07:43:38Z</time>
      </trkpt>
      <trkpt lat="42.96081" lon="-0.26127">
        <ele>1364.1999511719</ele>
        <time>2020-07-19T07:43:42Z</time>
      </trkpt>
      <trkpt lat="42.96071" lon="-0.26135">
        <ele>1364.1999511719</ele>
        <time>2020-07-19T07:43:47Z</time>
      </trkpt>
      <trkpt lat="42.96069" lon="-0.26134">
        <ele>1364.1999511719</ele>
        <time>2020-07-19T07:43:48Z</time>
      </trkpt>
      <trkpt lat="42.96064" lon="-0.2613">
        <ele>1364.1999511719</ele>
        <time>2020-07-19T07:43:50Z</time>
      </trkpt>
      <trkpt lat="42.9606" lon="-0.26113">
        <ele>1364.1999511719</ele>
        <time>2020-07-19T07:43:54Z</time>
      </trkpt>
      <trkpt lat="42.9606" lon="-0.26098">
        <ele>1364.1999511719</ele>
        <time>2020-07-19T07:43:57Z</time>
      </trkpt>
      <trkpt lat="42.9606" lon="-0.26085">
        <ele>1364.1999511719</ele>
        <time>2020-07-19T07:43:59Z</time>
      </trkpt>
      <trkpt lat="42.9606" lon="-0.26053">
        <ele>1364.1999511719</ele>
        <time>2020-07-19T07:44:03Z</time>
      </trkpt>
      <trkpt lat="42.96059" lon="-0.26033">
        <ele>1364.1999511719</ele>
        <time>2020-07-19T07:44:05Z</time>
      </trkpt>
      <trkpt lat="42.96057" lon="-0.26023">
        <ele>1363.8000488281</ele>
        <time>2020-07-19T07:44:06Z</time>
      </trkpt>
      <trkpt lat="42.96054" lon="-0.26014">
        <ele>1363.4000244141</ele>
        <time>2020-07-19T07:44:07Z</time>
      </trkpt>
      <trkpt lat="42.96049" lon="-0.26006">
        <ele>1362.8000488281</ele>
        <time>2020-07-19T07:44:08Z</time>
      </trkpt>
      <trkpt lat="42.96043" lon="-0.25995">
        <ele>1362.1999511719</ele>
        <time>2020-07-19T07:44:09Z</time>
      </trkpt>
      <trkpt lat="42.9604" lon="-0.25984">
        <ele>1361.5999755859</ele>
        <time>2020-07-19T07:44:10Z</time>
      </trkpt>
      <trkpt lat="42.96038" lon="-0.25971">
        <ele>1361</ele>
        <time>2020-07-19T07:44:11Z</time>
      </trkpt>
      <trkpt lat="42.96036" lon="-0.25958">
        <ele>1360.4000244141</ele>
        <time>2020-07-19T07:44:12Z</time>
      </trkpt>
      <trkpt lat="42.96036" lon="-0.25944">
        <ele>1359.8000488281</ele>
        <time>2020-07-19T07:44:13Z</time>
      </trkpt>
      <trkpt lat="42.96037" lon="-0.2593">
        <ele>1359</ele>
        <time>2020-07-19T07:44:14Z</time>
      </trkpt>
      <trkpt lat="42.96044" lon="-0.259">
        <ele>1357.5999755859</ele>
        <time>2020-07-19T07:44:15Z</time>
      </trkpt>
      <trkpt lat="42.96044" lon="-0.259">
        <ele>1357.5999755859</ele>
        <time>2020-07-19T07:44:16Z</time>
      </trkpt>
      <trkpt lat="42.96049" lon="-0.25886">
        <ele>1357</ele>
        <time>2020-07-19T07:44:17Z</time>
      </trkpt>
      <trkpt lat="42.96053" lon="-0.25871">
        <ele>1356.4000244141</ele>
        <time>2020-07-19T07:44:18Z</time>
      </trkpt>
      <trkpt lat="42.96058" lon="-0.25856">
        <ele>1355.4000244141</ele>
        <time>2020-07-19T07:44:19Z</time>
      </trkpt>
      <trkpt lat="42.96063" lon="-0.2584">
        <ele>1354.5999755859</ele>
        <time>2020-07-19T07:44:20Z</time>
      </trkpt>
      <trkpt lat="42.96067" lon="-0.25824">
        <ele>1352.8000488281</ele>
        <time>2020-07-19T07:44:21Z</time>
      </trkpt>
      <trkpt lat="42.96071" lon="-0.25807">
        <ele>1352</ele>
        <time>2020-07-19T07:44:22Z</time>
      </trkpt>
      <trkpt lat="42.96075" lon="-0.25791">
        <ele>1351</ele>
        <time>2020-07-19T07:44:23Z</time>
      </trkpt>
      <trkpt lat="42.96078" lon="-0.25774">
        <ele>1350.1999511719</ele>
        <time>2020-07-19T07:44:24Z</time>
      </trkpt>
      <trkpt lat="42.96081" lon="-0.25758">
        <ele>1349.1999511719</ele>
        <time>2020-07-19T07:44:25Z</time>
      </trkpt>
      <trkpt lat="42.96082" lon="-0.25743">
        <ele>1348.1999511719</ele>
        <time>2020-07-19T07:44:26Z</time>
      </trkpt>
      <trkpt lat="42.96083" lon="-0.25728">
        <ele>1347.1999511719</ele>
        <time>2020-07-19T07:44:27Z</time>
      </trkpt>
      <trkpt lat="42.96082" lon="-0.25713">
        <ele>1346.1999511719</ele>
        <time>2020-07-19T07:44:28Z</time>
      </trkpt>
      <trkpt lat="42.96082" lon="-0.25698">
        <ele>1345.1999511719</ele>
        <time>2020-07-19T07:44:29Z</time>
      </trkpt>
      <trkpt lat="42.96082" lon="-0.25685">
        <ele>1344.1999511719</ele>
        <time>2020-07-19T07:44:30Z</time>
      </trkpt>
      <trkpt lat="42.96082" lon="-0.25673">
        <ele>1343</ele>
        <time>2020-07-19T07:44:31Z</time>
      </trkpt>
      <trkpt lat="42.96084" lon="-0.25662">
        <ele>1342</ele>
        <time>2020-07-19T07:44:32Z</time>
      </trkpt>
      <trkpt lat="42.96088" lon="-0.25652">
        <ele>1341</ele>
        <time>2020-07-19T07:44:33Z</time>
      </trkpt>
      <trkpt lat="42.96092" lon="-0.25642">
        <ele>1340</ele>
        <time>2020-07-19T07:44:34Z</time>
      </trkpt>
      <trkpt lat="42.96095" lon="-0.25631">
        <ele>1339.1999511719</ele>
        <time>2020-07-19T07:44:35Z</time>
      </trkpt>
      <trkpt lat="42.96097" lon="-0.2562">
        <ele>1338.4000244141</ele>
        <time>2020-07-19T07:44:36Z</time>
      </trkpt>
      <trkpt lat="42.96099" lon="-0.2561">
        <ele>1337.4000244141</ele>
        <time>2020-07-19T07:44:37Z</time>
      </trkpt>
      <trkpt lat="42.96102" lon="-0.25601">
        <ele>1336.8000488281</ele>
        <time>2020-07-19T07:44:38Z</time>
      </trkpt>
      <trkpt lat="42.96104" lon="-0.25594">
        <ele>1336.1999511719</ele>
        <time>2020-07-19T07:44:39Z</time>
      </trkpt>
      <trkpt lat="42.96107" lon="-0.2559">
        <ele>1335.5999755859</ele>
        <time>2020-07-19T07:44:40Z</time>
      </trkpt>
      <trkpt lat="42.9611" lon="-0.25588">
        <ele>1335</ele>
        <time>2020-07-19T07:44:41Z</time>
      </trkpt>
      <trkpt lat="42.96113" lon="-0.25589">
        <ele>1334.4000244141</ele>
        <time>2020-07-19T07:44:42Z</time>
      </trkpt>
      <trkpt lat="42.96114" lon="-0.25591">
        <ele>1334.4000244141</ele>
        <time>2020-07-19T07:44:43Z</time>
      </trkpt>
      <trkpt lat="42.96119" lon="-0.25586">
        <ele>1334.4000244141</ele>
        <time>2020-07-19T07:44:46Z</time>
      </trkpt>
      <trkpt lat="42.96124" lon="-0.25573">
        <ele>1334</ele>
        <time>2020-07-19T07:44:49Z</time>
      </trkpt>
      <trkpt lat="42.96126" lon="-0.25568">
        <ele>1333.5999755859</ele>
        <time>2020-07-19T07:44:50Z</time>
      </trkpt>
      <trkpt lat="42.96129" lon="-0.25564">
        <ele>1333.1999511719</ele>
        <time>2020-07-19T07:44:51Z</time>
      </trkpt>
      <trkpt lat="42.96132" lon="-0.25559">
        <ele>1332.8000488281</ele>
        <time>2020-07-19T07:44:52Z</time>
      </trkpt>
      <trkpt lat="42.96134" lon="-0.25553">
        <ele>1332.4000244141</ele>
        <time>2020-07-19T07:44:53Z</time>
      </trkpt>
      <trkpt lat="42.96144" lon="-0.25535">
        <ele>1332.4000244141</ele>
        <time>2020-07-19T07:44:57Z</time>
      </trkpt>
      <trkpt lat="42.96153" lon="-0.25531">
        <ele>1332.4000244141</ele>
        <time>2020-07-19T07:45:00Z</time>
      </trkpt>
      <trkpt lat="42.96156" lon="-0.25532">
        <ele>1332.4000244141</ele>
        <time>2020-07-19T07:45:01Z</time>
      </trkpt>
      <trkpt lat="42.96163" lon="-0.25539">
        <ele>1332.4000244141</ele>
        <time>2020-07-19T07:45:04Z</time>
      </trkpt>
      <trkpt lat="42.96166" lon="-0.25546">
        <ele>1332.4000244141</ele>
        <time>2020-07-19T07:45:06Z</time>
      </trkpt>
      <trkpt lat="42.96171" lon="-0.25565">
        <ele>1332.4000244141</ele>
        <time>2020-07-19T07:45:11Z</time>
      </trkpt>
      <trkpt lat="42.9617" lon="-0.25578">
        <ele>1332.8000488281</ele>
        <time>2020-07-19T07:45:15Z</time>
      </trkpt>
      <trkpt lat="42.96169" lon="-0.25581">
        <ele>1333.1999511719</ele>
        <time>2020-07-19T07:45:16Z</time>
      </trkpt>
      <trkpt lat="42.96169" lon="-0.25584">
        <ele>1333.8000488281</ele>
        <time>2020-07-19T07:45:17Z</time>
      </trkpt>
      <trkpt lat="42.96168" lon="-0.25587">
        <ele>1334.1999511719</ele>
        <time>2020-07-19T07:45:18Z</time>
      </trkpt>
      <trkpt lat="42.96167" lon="-0.2559">
        <ele>1334.5999755859</ele>
        <time>2020-07-19T07:45:19Z</time>
      </trkpt>
      <trkpt lat="42.96167" lon="-0.25596">
        <ele>1335</ele>
        <time>2020-07-19T07:45:21Z</time>
      </trkpt>
      <trkpt lat="42.96166" lon="-0.25598">
        <ele>1335.4000244141</ele>
        <time>2020-07-19T07:45:22Z</time>
      </trkpt>
      <trkpt lat="42.96165" lon="-0.256">
        <ele>1335.8000488281</ele>
        <time>2020-07-19T07:45:23Z</time>
      </trkpt>
      <trkpt lat="42.96164" lon="-0.25603">
        <ele>1336.1999511719</ele>
        <time>2020-07-19T07:45:24Z</time>
      </trkpt>
      <trkpt lat="42.96163" lon="-0.25605">
        <ele>1336.8000488281</ele>
        <time>2020-07-19T07:45:25Z</time>
      </trkpt>
      <trkpt lat="42.96161" lon="-0.25612">
        <ele>1337.1999511719</ele>
        <time>2020-07-19T07:45:28Z</time>
      </trkpt>
      <trkpt lat="42.96161" lon="-0.25615">
        <ele>1337.5999755859</ele>
        <time>2020-07-19T07:45:29Z</time>
      </trkpt>
      <trkpt lat="42.96161" lon="-0.25618">
        <ele>1338</ele>
        <time>2020-07-19T07:45:30Z</time>
      </trkpt>
      <trkpt lat="42.96161" lon="-0.2562">
        <ele>1338.4000244141</ele>
        <time>2020-07-19T07:45:31Z</time>
      </trkpt>
      <trkpt lat="42.96161" lon="-0.25623">
        <ele>1338.8000488281</ele>
        <time>2020-07-19T07:45:32Z</time>
      </trkpt>
      <trkpt lat="42.96161" lon="-0.25631">
        <ele>1339.5999755859</ele>
        <time>2020-07-19T07:45:35Z</time>
      </trkpt>
      <trkpt lat="42.96162" lon="-0.25634">
        <ele>1340</ele>
        <time>2020-07-19T07:45:36Z</time>
      </trkpt>
      <trkpt lat="42.96162" lon="-0.25636">
        <ele>1340.5999755859</ele>
        <time>2020-07-19T07:45:37Z</time>
      </trkpt>
      <trkpt lat="42.96163" lon="-0.25639">
        <ele>1341</ele>
        <time>2020-07-19T07:45:38Z</time>
      </trkpt>
      <trkpt lat="42.96165" lon="-0.25644">
        <ele>1341</ele>
        <time>2020-07-19T07:45:40Z</time>
      </trkpt>
      <trkpt lat="42.96173" lon="-0.25652">
        <ele>1341</ele>
        <time>2020-07-19T07:45:45Z</time>
      </trkpt>
      <trkpt lat="42.9618" lon="-0.25655">
        <ele>1341.4000244141</ele>
        <time>2020-07-19T07:45:48Z</time>
      </trkpt>
      <trkpt lat="42.96183" lon="-0.25655">
        <ele>1341.8000488281</ele>
        <time>2020-07-19T07:45:49Z</time>
      </trkpt>
      <trkpt lat="42.96185" lon="-0.25655">
        <ele>1342.1999511719</ele>
        <time>2020-07-19T07:45:50Z</time>
      </trkpt>
      <trkpt lat="42.96188" lon="-0.25654">
        <ele>1342.5999755859</ele>
        <time>2020-07-19T07:45:51Z</time>
      </trkpt>
      <trkpt lat="42.96191" lon="-0.25654">
        <ele>1343</ele>
        <time>2020-07-19T07:45:52Z</time>
      </trkpt>
      <trkpt lat="42.96204" lon="-0.25646">
        <ele>1343</ele>
        <time>2020-07-19T07:45:57Z</time>
      </trkpt>
      <trkpt lat="42.96215" lon="-0.25634">
        <ele>1343</ele>
        <time>2020-07-19T07:46:02Z</time>
      </trkpt>
      <trkpt lat="42.96219" lon="-0.25626">
        <ele>1343.4000244141</ele>
        <time>2020-07-19T07:46:05Z</time>
      </trkpt>
      <trkpt lat="42.96221" lon="-0.25623">
        <ele>1343.8000488281</ele>
        <time>2020-07-19T07:46:06Z</time>
      </trkpt>
      <trkpt lat="42.96222" lon="-0.2562">
        <ele>1344.4000244141</ele>
        <time>2020-07-19T07:46:07Z</time>
      </trkpt>
      <trkpt lat="42.96223" lon="-0.25618">
        <ele>1344.8000488281</ele>
        <time>2020-07-19T07:46:08Z</time>
      </trkpt>
      <trkpt lat="42.96224" lon="-0.25615">
        <ele>1345.1999511719</ele>
        <time>2020-07-19T07:46:09Z</time>
      </trkpt>
      <trkpt lat="42.96229" lon="-0.25604">
        <ele>1345.5999755859</ele>
        <time>2020-07-19T07:46:13Z</time>
      </trkpt>
      <trkpt lat="42.96231" lon="-0.256">
        <ele>1346</ele>
        <time>2020-07-19T07:46:14Z</time>
      </trkpt>
      <trkpt lat="42.96232" lon="-0.25597">
        <ele>1346.4000244141</ele>
        <time>2020-07-19T07:46:15Z</time>
      </trkpt>
      <trkpt lat="42.96233" lon="-0.25594">
        <ele>1346.8000488281</ele>
        <time>2020-07-19T07:46:16Z</time>
      </trkpt>
      <trkpt lat="42.96234" lon="-0.2559">
        <ele>1347.1999511719</ele>
        <time>2020-07-19T07:46:17Z</time>
      </trkpt>
      <trkpt lat="42.96238" lon="-0.25575">
        <ele>1347.1999511719</ele>
        <time>2020-07-19T07:46:21Z</time>
      </trkpt>
      <trkpt lat="42.96245" lon="-0.25552">
        <ele>1347.1999511719</ele>
        <time>2020-07-19T07:46:26Z</time>
      </trkpt>
      <trkpt lat="42.96248" lon="-0.25547">
        <ele>1347.1999511719</ele>
        <time>2020-07-19T07:46:27Z</time>
      </trkpt>
      <trkpt lat="42.96264" lon="-0.25514">
        <ele>1347.1999511719</ele>
        <time>2020-07-19T07:46:33Z</time>
      </trkpt>
      <trkpt lat="42.96266" lon="-0.25508">
        <ele>1347.1999511719</ele>
        <time>2020-07-19T07:46:34Z</time>
      </trkpt>
      <trkpt lat="42.96266" lon="-0.25489">
        <ele>1347.1999511719</ele>
        <time>2020-07-19T07:46:37Z</time>
      </trkpt>
      <trkpt lat="42.96262" lon="-0.25471">
        <ele>1347.1999511719</ele>
        <time>2020-07-19T07:46:41Z</time>
      </trkpt>
      <trkpt lat="42.96261" lon="-0.25467">
        <ele>1347.1999511719</ele>
        <time>2020-07-19T07:46:42Z</time>
      </trkpt>
      <trkpt lat="42.96261" lon="-0.25445">
        <ele>1347.1999511719</ele>
        <time>2020-07-19T07:46:48Z</time>
      </trkpt>
      <trkpt lat="42.96261" lon="-0.25442">
        <ele>1347.5999755859</ele>
        <time>2020-07-19T07:46:49Z</time>
      </trkpt>
      <trkpt lat="42.96262" lon="-0.25439">
        <ele>1348</ele>
        <time>2020-07-19T07:46:50Z</time>
      </trkpt>
      <trkpt lat="42.96262" lon="-0.25436">
        <ele>1348.4000244141</ele>
        <time>2020-07-19T07:46:51Z</time>
      </trkpt>
      <trkpt lat="42.96263" lon="-0.25432">
        <ele>1349</ele>
        <time>2020-07-19T07:46:52Z</time>
      </trkpt>
      <trkpt lat="42.96264" lon="-0.25428">
        <ele>1349.4000244141</ele>
        <time>2020-07-19T07:46:53Z</time>
      </trkpt>
      <trkpt lat="42.96265" lon="-0.25425">
        <ele>1349.4000244141</ele>
        <time>2020-07-19T07:46:54Z</time>
      </trkpt>
      <trkpt lat="42.96278" lon="-0.25396">
        <ele>1349.4000244141</ele>
        <time>2020-07-19T07:47:02Z</time>
      </trkpt>
      <trkpt lat="42.96287" lon="-0.25377">
        <ele>1349.4000244141</ele>
        <time>2020-07-19T07:47:08Z</time>
      </trkpt>
      <trkpt lat="42.96292" lon="-0.25367">
        <ele>1349.8000488281</ele>
        <time>2020-07-19T07:47:12Z</time>
      </trkpt>
      <trkpt lat="42.96293" lon="-0.25365">
        <ele>1350.1999511719</ele>
        <time>2020-07-19T07:47:13Z</time>
      </trkpt>
      <trkpt lat="42.96295" lon="-0.25364">
        <ele>1351.1999511719</ele>
        <time>2020-07-19T07:47:14Z</time>
      </trkpt>
      <trkpt lat="42.96297" lon="-0.25365">
        <ele>1351.5999755859</ele>
        <time>2020-07-19T07:47:15Z</time>
      </trkpt>
      <trkpt lat="42.963" lon="-0.2537">
        <ele>1351.5999755859</ele>
        <time>2020-07-19T07:47:17Z</time>
      </trkpt>
      <trkpt lat="42.96299" lon="-0.25379">
        <ele>1352</ele>
        <time>2020-07-19T07:47:20Z</time>
      </trkpt>
      <trkpt lat="42.96299" lon="-0.25382">
        <ele>1352.4000244141</ele>
        <time>2020-07-19T07:47:21Z</time>
      </trkpt>
      <trkpt lat="42.96298" lon="-0.25386">
        <ele>1352.8000488281</ele>
        <time>2020-07-19T07:47:22Z</time>
      </trkpt>
      <trkpt lat="42.96298" lon="-0.25389">
        <ele>1353.1999511719</ele>
        <time>2020-07-19T07:47:23Z</time>
      </trkpt>
      <trkpt lat="42.96297" lon="-0.25392">
        <ele>1353.5999755859</ele>
        <time>2020-07-19T07:47:24Z</time>
      </trkpt>
      <trkpt lat="42.96294" lon="-0.25401">
        <ele>1353.5999755859</ele>
        <time>2020-07-19T07:47:27Z</time>
      </trkpt>
      <trkpt lat="42.9629" lon="-0.25415">
        <ele>1354</ele>
        <time>2020-07-19T07:47:32Z</time>
      </trkpt>
      <trkpt lat="42.9629" lon="-0.25417">
        <ele>1354.5999755859</ele>
        <time>2020-07-19T07:47:33Z</time>
      </trkpt>
      <trkpt lat="42.96289" lon="-0.2542">
        <ele>1355</ele>
        <time>2020-07-19T07:47:34Z</time>
      </trkpt>
      <trkpt lat="42.96289" lon="-0.25422">
        <ele>1355.4000244141</ele>
        <time>2020-07-19T07:47:35Z</time>
      </trkpt>
      <trkpt lat="42.96288" lon="-0.25425">
        <ele>1355.8000488281</ele>
        <time>2020-07-19T07:47:36Z</time>
      </trkpt>
      <trkpt lat="42.96288" lon="-0.25434">
        <ele>1355.8000488281</ele>
        <time>2020-07-19T07:47:39Z</time>
      </trkpt>
      <trkpt lat="42.96287" lon="-0.25436">
        <ele>1356.1999511719</ele>
        <time>2020-07-19T07:47:40Z</time>
      </trkpt>
      <trkpt lat="42.96287" lon="-0.25439">
        <ele>1356.8000488281</ele>
        <time>2020-07-19T07:47:41Z</time>
      </trkpt>
      <trkpt lat="42.96288" lon="-0.25441">
        <ele>1357.1999511719</ele>
        <time>2020-07-19T07:47:42Z</time>
      </trkpt>
      <trkpt lat="42.96288" lon="-0.25444">
        <ele>1357.5999755859</ele>
        <time>2020-07-19T07:47:43Z</time>
      </trkpt>
      <trkpt lat="42.96288" lon="-0.25446">
        <ele>1358.1999511719</ele>
        <time>2020-07-19T07:47:44Z</time>
      </trkpt>
      <trkpt lat="42.9629" lon="-0.25451">
        <ele>1358.1999511719</ele>
        <time>2020-07-19T07:47:46Z</time>
      </trkpt>
      <trkpt lat="42.96298" lon="-0.25448">
        <ele>1358.1999511719</ele>
        <time>2020-07-19T07:47:50Z</time>
      </trkpt>
      <trkpt lat="42.963" lon="-0.25442">
        <ele>1358.5999755859</ele>
        <time>2020-07-19T07:47:52Z</time>
      </trkpt>
      <trkpt lat="42.96301" lon="-0.25439">
        <ele>1359</ele>
        <time>2020-07-19T07:47:53Z</time>
      </trkpt>
      <trkpt lat="42.96301" lon="-0.25435">
        <ele>1359.4000244141</ele>
        <time>2020-07-19T07:47:54Z</time>
      </trkpt>
      <trkpt lat="42.96302" lon="-0.25432">
        <ele>1359.8000488281</ele>
        <time>2020-07-19T07:47:55Z</time>
      </trkpt>
      <trkpt lat="42.96303" lon="-0.25428">
        <ele>1360.1999511719</ele>
        <time>2020-07-19T07:47:56Z</time>
      </trkpt>
      <trkpt lat="42.96307" lon="-0.25412">
        <ele>1360.1999511719</ele>
        <time>2020-07-19T07:48:00Z</time>
      </trkpt>
      <trkpt lat="42.96315" lon="-0.25387">
        <ele>1360.1999511719</ele>
        <time>2020-07-19T07:48:06Z</time>
      </trkpt>
      <trkpt lat="42.96326" lon="-0.2536">
        <ele>1360.1999511719</ele>
        <time>2020-07-19T07:48:13Z</time>
      </trkpt>
      <trkpt lat="42.96329" lon="-0.25347">
        <ele>1360.8000488281</ele>
        <time>2020-07-19T07:48:17Z</time>
      </trkpt>
      <trkpt lat="42.9633" lon="-0.25344">
        <ele>1361.1999511719</ele>
        <time>2020-07-19T07:48:18Z</time>
      </trkpt>
      <trkpt lat="42.96332" lon="-0.25341">
        <ele>1361.5999755859</ele>
        <time>2020-07-19T07:48:19Z</time>
      </trkpt>
      <trkpt lat="42.96334" lon="-0.25338">
        <ele>1362</ele>
        <time>2020-07-19T07:48:20Z</time>
      </trkpt>
      <trkpt lat="42.96336" lon="-0.25335">
        <ele>1362.4000244141</ele>
        <time>2020-07-19T07:48:21Z</time>
      </trkpt>
      <trkpt lat="42.9634" lon="-0.25329">
        <ele>1362.4000244141</ele>
        <time>2020-07-19T07:48:23Z</time>
      </trkpt>
      <trkpt lat="42.96352" lon="-0.25317">
        <ele>1363.1999511719</ele>
        <time>2020-07-19T07:48:28Z</time>
      </trkpt>
      <trkpt lat="42.96354" lon="-0.25315">
        <ele>1363.5999755859</ele>
        <time>2020-07-19T07:48:29Z</time>
      </trkpt>
      <trkpt lat="42.96356" lon="-0.25313">
        <ele>1364.1999511719</ele>
        <time>2020-07-19T07:48:30Z</time>
      </trkpt>
      <trkpt lat="42.96358" lon="-0.25311">
        <ele>1364.5999755859</ele>
        <time>2020-07-19T07:48:31Z</time>
      </trkpt>
      <trkpt lat="42.96366" lon="-0.25294">
        <ele>1364.5999755859</ele>
        <time>2020-07-19T07:48:36Z</time>
      </trkpt>
      <trkpt lat="42.96374" lon="-0.25265">
        <ele>1364.5999755859</ele>
        <time>2020-07-19T07:48:42Z</time>
      </trkpt>
      <trkpt lat="42.96379" lon="-0.25246">
        <ele>1364.5999755859</ele>
        <time>2020-07-19T07:48:45Z</time>
      </trkpt>
      <trkpt lat="42.96385" lon="-0.25234">
        <ele>1364.5999755859</ele>
        <time>2020-07-19T07:48:47Z</time>
      </trkpt>
      <trkpt lat="42.96388" lon="-0.2523">
        <ele>1364.5999755859</ele>
        <time>2020-07-19T07:48:48Z</time>
      </trkpt>
      <trkpt lat="42.96393" lon="-0.25226">
        <ele>1364.5999755859</ele>
        <time>2020-07-19T07:48:50Z</time>
      </trkpt>
      <trkpt lat="42.96405" lon="-0.25227">
        <ele>1364.5999755859</ele>
        <time>2020-07-19T07:48:54Z</time>
      </trkpt>
      <trkpt lat="42.96412" lon="-0.25233">
        <ele>1365</ele>
        <time>2020-07-19T07:48:57Z</time>
      </trkpt>
      <trkpt lat="42.96413" lon="-0.25236">
        <ele>1365.4000244141</ele>
        <time>2020-07-19T07:48:58Z</time>
      </trkpt>
      <trkpt lat="42.96414" lon="-0.25239">
        <ele>1365.8000488281</ele>
        <time>2020-07-19T07:48:59Z</time>
      </trkpt>
      <trkpt lat="42.96415" lon="-0.25242">
        <ele>1366.1999511719</ele>
        <time>2020-07-19T07:49:00Z</time>
      </trkpt>
      <trkpt lat="42.96415" lon="-0.25245">
        <ele>1366.5999755859</ele>
        <time>2020-07-19T07:49:01Z</time>
      </trkpt>
      <trkpt lat="42.96412" lon="-0.25254">
        <ele>1366.5999755859</ele>
        <time>2020-07-19T07:49:04Z</time>
      </trkpt>
      <trkpt lat="42.9641" lon="-0.25255">
        <ele>1367</ele>
        <time>2020-07-19T07:49:05Z</time>
      </trkpt>
      <trkpt lat="42.96408" lon="-0.25257">
        <ele>1367.4000244141</ele>
        <time>2020-07-19T07:49:06Z</time>
      </trkpt>
      <trkpt lat="42.96406" lon="-0.25258">
        <ele>1367.8000488281</ele>
        <time>2020-07-19T07:49:07Z</time>
      </trkpt>
      <trkpt lat="42.96404" lon="-0.25259">
        <ele>1368.1999511719</ele>
        <time>2020-07-19T07:49:08Z</time>
      </trkpt>
      <trkpt lat="42.96402" lon="-0.25259">
        <ele>1368.5999755859</ele>
        <time>2020-07-19T07:49:09Z</time>
      </trkpt>
      <trkpt lat="42.96396" lon="-0.25263">
        <ele>1369</ele>
        <time>2020-07-19T07:49:12Z</time>
      </trkpt>
      <trkpt lat="42.96394" lon="-0.25264">
        <ele>1369.4000244141</ele>
        <time>2020-07-19T07:49:13Z</time>
      </trkpt>
      <trkpt lat="42.96393" lon="-0.25266">
        <ele>1370</ele>
        <time>2020-07-19T07:49:14Z</time>
      </trkpt>
      <trkpt lat="42.96392" lon="-0.25269">
        <ele>1370.4000244141</ele>
        <time>2020-07-19T07:49:15Z</time>
      </trkpt>
      <trkpt lat="42.96391" lon="-0.25271">
        <ele>1370.8000488281</ele>
        <time>2020-07-19T07:49:16Z</time>
      </trkpt>
      <trkpt lat="42.96391" lon="-0.25274">
        <ele>1370.8000488281</ele>
        <time>2020-07-19T07:49:17Z</time>
      </trkpt>
      <trkpt lat="42.96392" lon="-0.25279">
        <ele>1371.1999511719</ele>
        <time>2020-07-19T07:49:19Z</time>
      </trkpt>
      <trkpt lat="42.96393" lon="-0.25282">
        <ele>1371.8000488281</ele>
        <time>2020-07-19T07:49:20Z</time>
      </trkpt>
      <trkpt lat="42.96394" lon="-0.25284">
        <ele>1372.1999511719</ele>
        <time>2020-07-19T07:49:21Z</time>
      </trkpt>
      <trkpt lat="42.96395" lon="-0.25286">
        <ele>1372.5999755859</ele>
        <time>2020-07-19T07:49:22Z</time>
      </trkpt>
      <trkpt lat="42.96397" lon="-0.25288">
        <ele>1373</ele>
        <time>2020-07-19T07:49:23Z</time>
      </trkpt>
      <trkpt lat="42.96403" lon="-0.25292">
        <ele>1373</ele>
        <time>2020-07-19T07:49:26Z</time>
      </trkpt>
      <trkpt lat="42.96416" lon="-0.25297">
        <ele>1373.5999755859</ele>
        <time>2020-07-19T07:49:32Z</time>
      </trkpt>
      <trkpt lat="42.96418" lon="-0.25298">
        <ele>1374</ele>
        <time>2020-07-19T07:49:33Z</time>
      </trkpt>
      <trkpt lat="42.9642" lon="-0.25299">
        <ele>1374.4000244141</ele>
        <time>2020-07-19T07:49:34Z</time>
      </trkpt>
      <trkpt lat="42.96423" lon="-0.25301">
        <ele>1374.8000488281</ele>
        <time>2020-07-19T07:49:35Z</time>
      </trkpt>
      <trkpt lat="42.96425" lon="-0.25303">
        <ele>1375.1999511719</ele>
        <time>2020-07-19T07:49:36Z</time>
      </trkpt>
      <trkpt lat="42.96433" lon="-0.25308">
        <ele>1375.1999511719</ele>
        <time>2020-07-19T07:49:40Z</time>
      </trkpt>
      <trkpt lat="42.96435" lon="-0.25309">
        <ele>1375.5999755859</ele>
        <time>2020-07-19T07:49:41Z</time>
      </trkpt>
      <trkpt lat="42.96437" lon="-0.2531">
        <ele>1376.5999755859</ele>
        <time>2020-07-19T07:49:42Z</time>
      </trkpt>
      <trkpt lat="42.96439" lon="-0.2531">
        <ele>1377</ele>
        <time>2020-07-19T07:49:43Z</time>
      </trkpt>
      <trkpt lat="42.96441" lon="-0.2531">
        <ele>1377.4000244141</ele>
        <time>2020-07-19T07:49:44Z</time>
      </trkpt>
      <trkpt lat="42.96445" lon="-0.25311">
        <ele>1377.4000244141</ele>
        <time>2020-07-19T07:49:46Z</time>
      </trkpt>
      <trkpt lat="42.96462" lon="-0.25308">
        <ele>1377.4000244141</ele>
        <time>2020-07-19T07:49:53Z</time>
      </trkpt>
      <trkpt lat="42.96468" lon="-0.25306">
        <ele>1377.8000488281</ele>
        <time>2020-07-19T07:49:55Z</time>
      </trkpt>
      <trkpt lat="42.96471" lon="-0.25304">
        <ele>1378.1999511719</ele>
        <time>2020-07-19T07:49:56Z</time>
      </trkpt>
      <trkpt lat="42.96473" lon="-0.25303">
        <ele>1378.5999755859</ele>
        <time>2020-07-19T07:49:57Z</time>
      </trkpt>
      <trkpt lat="42.96476" lon="-0.25302">
        <ele>1379</ele>
        <time>2020-07-19T07:49:58Z</time>
      </trkpt>
      <trkpt lat="42.96479" lon="-0.25301">
        <ele>1379.4000244141</ele>
        <time>2020-07-19T07:49:59Z</time>
      </trkpt>
      <trkpt lat="42.96485" lon="-0.25299">
        <ele>1379.4000244141</ele>
        <time>2020-07-19T07:50:01Z</time>
      </trkpt>
      <trkpt lat="42.965" lon="-0.25296">
        <ele>1379.4000244141</ele>
        <time>2020-07-19T07:50:07Z</time>
      </trkpt>
      <trkpt lat="42.96511" lon="-0.25291">
        <ele>1379.8000488281</ele>
        <time>2020-07-19T07:50:12Z</time>
      </trkpt>
      <trkpt lat="42.96514" lon="-0.2529">
        <ele>1380.1999511719</ele>
        <time>2020-07-19T07:50:13Z</time>
      </trkpt>
      <trkpt lat="42.96516" lon="-0.25289">
        <ele>1380.5999755859</ele>
        <time>2020-07-19T07:50:14Z</time>
      </trkpt>
      <trkpt lat="42.96518" lon="-0.25288">
        <ele>1381.1999511719</ele>
        <time>2020-07-19T07:50:15Z</time>
      </trkpt>
      <trkpt lat="42.96521" lon="-0.25287">
        <ele>1381.5999755859</ele>
        <time>2020-07-19T07:50:16Z</time>
      </trkpt>
      <trkpt lat="42.96532" lon="-0.25281">
        <ele>1381.5999755859</ele>
        <time>2020-07-19T07:50:20Z</time>
      </trkpt>
      <trkpt lat="42.9655" lon="-0.2527">
        <ele>1381.5999755859</ele>
        <time>2020-07-19T07:50:26Z</time>
      </trkpt>
      <trkpt lat="42.96562" lon="-0.25264">
        <ele>1381.5999755859</ele>
        <time>2020-07-19T07:50:29Z</time>
      </trkpt>
      <trkpt lat="42.96576" lon="-0.25258">
        <ele>1381.5999755859</ele>
        <time>2020-07-19T07:50:33Z</time>
      </trkpt>
      <trkpt lat="42.9659" lon="-0.25242">
        <ele>1381.5999755859</ele>
        <time>2020-07-19T07:50:39Z</time>
      </trkpt>
      <trkpt lat="42.96594" lon="-0.25216">
        <ele>1381.5999755859</ele>
        <time>2020-07-19T07:50:45Z</time>
      </trkpt>
      <trkpt lat="42.96595" lon="-0.252">
        <ele>1382</ele>
        <time>2020-07-19T07:50:49Z</time>
      </trkpt>
      <trkpt lat="42.96595" lon="-0.25196">
        <ele>1382.4000244141</ele>
        <time>2020-07-19T07:50:50Z</time>
      </trkpt>
      <trkpt lat="42.96596" lon="-0.25193">
        <ele>1382.8000488281</ele>
        <time>2020-07-19T07:50:51Z</time>
      </trkpt>
      <trkpt lat="42.96596" lon="-0.25189">
        <ele>1383.1999511719</ele>
        <time>2020-07-19T07:50:52Z</time>
      </trkpt>
      <trkpt lat="42.96597" lon="-0.25185">
        <ele>1383.5999755859</ele>
        <time>2020-07-19T07:50:53Z</time>
      </trkpt>
      <trkpt lat="42.966" lon="-0.25173">
        <ele>1383.5999755859</ele>
        <time>2020-07-19T07:50:56Z</time>
      </trkpt>
      <trkpt lat="42.96603" lon="-0.25144">
        <ele>1383.5999755859</ele>
        <time>2020-07-19T07:51:03Z</time>
      </trkpt>
      <trkpt lat="42.96604" lon="-0.25128">
        <ele>1383.5999755859</ele>
        <time>2020-07-19T07:51:06Z</time>
      </trkpt>
      <trkpt lat="42.96602" lon="-0.25117">
        <ele>1383.5999755859</ele>
        <time>2020-07-19T07:51:08Z</time>
      </trkpt>
      <trkpt lat="42.96598" lon="-0.25094">
        <ele>1383.5999755859</ele>
        <time>2020-07-19T07:51:13Z</time>
      </trkpt>
      <trkpt lat="42.96599" lon="-0.25083">
        <ele>1383.5999755859</ele>
        <time>2020-07-19T07:51:15Z</time>
      </trkpt>
      <trkpt lat="42.96603" lon="-0.25064">
        <ele>1383.5999755859</ele>
        <time>2020-07-19T07:51:18Z</time>
      </trkpt>
      <trkpt lat="42.96608" lon="-0.25045">
        <ele>1383.1999511719</ele>
        <time>2020-07-19T07:51:21Z</time>
      </trkpt>
      <trkpt lat="42.9661" lon="-0.25039">
        <ele>1382.8000488281</ele>
        <time>2020-07-19T07:51:22Z</time>
      </trkpt>
      <trkpt lat="42.96611" lon="-0.25034">
        <ele>1382.4000244141</ele>
        <time>2020-07-19T07:51:23Z</time>
      </trkpt>
      <trkpt lat="42.96612" lon="-0.25029">
        <ele>1381.8000488281</ele>
        <time>2020-07-19T07:51:24Z</time>
      </trkpt>
      <trkpt lat="42.96614" lon="-0.25025">
        <ele>1381.4000244141</ele>
        <time>2020-07-19T07:51:25Z</time>
      </trkpt>
      <trkpt lat="42.96625" lon="-0.25006">
        <ele>1381.4000244141</ele>
        <time>2020-07-19T07:51:30Z</time>
      </trkpt>
      <trkpt lat="42.96644" lon="-0.24986">
        <ele>1381.4000244141</ele>
        <time>2020-07-19T07:51:37Z</time>
      </trkpt>
      <trkpt lat="42.96666" lon="-0.24969">
        <ele>1381.8000488281</ele>
        <time>2020-07-19T07:51:45Z</time>
      </trkpt>
      <trkpt lat="42.96669" lon="-0.24967">
        <ele>1382.1999511719</ele>
        <time>2020-07-19T07:51:46Z</time>
      </trkpt>
      <trkpt lat="42.96672" lon="-0.24965">
        <ele>1382.8000488281</ele>
        <time>2020-07-19T07:51:47Z</time>
      </trkpt>
      <trkpt lat="42.96675" lon="-0.24963">
        <ele>1383.1999511719</ele>
        <time>2020-07-19T07:51:48Z</time>
      </trkpt>
      <trkpt lat="42.96678" lon="-0.24961">
        <ele>1383.5999755859</ele>
        <time>2020-07-19T07:51:49Z</time>
      </trkpt>
      <trkpt lat="42.967" lon="-0.24951">
        <ele>1383.5999755859</ele>
        <time>2020-07-19T07:51:55Z</time>
      </trkpt>
      <trkpt lat="42.96704" lon="-0.24949">
        <ele>1383.5999755859</ele>
        <time>2020-07-19T07:51:56Z</time>
      </trkpt>
      <trkpt lat="42.96725" lon="-0.24938">
        <ele>1383.5999755859</ele>
        <time>2020-07-19T07:52:02Z</time>
      </trkpt>
      <trkpt lat="42.96728" lon="-0.24935">
        <ele>1383.5999755859</ele>
        <time>2020-07-19T07:52:03Z</time>
      </trkpt>
      <trkpt lat="42.96738" lon="-0.24916">
        <ele>1383.5999755859</ele>
        <time>2020-07-19T07:52:07Z</time>
      </trkpt>
      <trkpt lat="42.9674" lon="-0.24911">
        <ele>1383.5999755859</ele>
        <time>2020-07-19T07:52:08Z</time>
      </trkpt>
      <trkpt lat="42.96746" lon="-0.24883">
        <ele>1383.5999755859</ele>
        <time>2020-07-19T07:52:13Z</time>
      </trkpt>
      <trkpt lat="42.96755" lon="-0.24847">
        <ele>1383.5999755859</ele>
        <time>2020-07-19T07:52:19Z</time>
      </trkpt>
      <trkpt lat="42.96757" lon="-0.24841">
        <ele>1383.5999755859</ele>
        <time>2020-07-19T07:52:20Z</time>
      </trkpt>
      <trkpt lat="42.96762" lon="-0.2483">
        <ele>1383.5999755859</ele>
        <time>2020-07-19T07:52:22Z</time>
      </trkpt>
      <trkpt lat="42.96772" lon="-0.24817">
        <ele>1383.5999755859</ele>
        <time>2020-07-19T07:52:25Z</time>
      </trkpt>
      <trkpt lat="42.96786" lon="-0.24807">
        <ele>1383.5999755859</ele>
        <time>2020-07-19T07:52:30Z</time>
      </trkpt>
      <trkpt lat="42.96802" lon="-0.24816">
        <ele>1383.5999755859</ele>
        <time>2020-07-19T07:52:35Z</time>
      </trkpt>
      <trkpt lat="42.96807" lon="-0.24821">
        <ele>1384</ele>
        <time>2020-07-19T07:52:37Z</time>
      </trkpt>
      <trkpt lat="42.9681" lon="-0.24822">
        <ele>1384.4000244141</ele>
        <time>2020-07-19T07:52:38Z</time>
      </trkpt>
      <trkpt lat="42.96814" lon="-0.24825">
        <ele>1384.8000488281</ele>
        <time>2020-07-19T07:52:39Z</time>
      </trkpt>
      <trkpt lat="42.96816" lon="-0.24827">
        <ele>1385.1999511719</ele>
        <time>2020-07-19T07:52:40Z</time>
      </trkpt>
      <trkpt lat="42.96819" lon="-0.2483">
        <ele>1385.5999755859</ele>
        <time>2020-07-19T07:52:41Z</time>
      </trkpt>
      <trkpt lat="42.96842" lon="-0.24842">
        <ele>1385.5999755859</ele>
        <time>2020-07-19T07:52:49Z</time>
      </trkpt>
      <trkpt lat="42.96856" lon="-0.24844">
        <ele>1386</ele>
        <time>2020-07-19T07:52:54Z</time>
      </trkpt>
      <trkpt lat="42.96859" lon="-0.24845">
        <ele>1386.4000244141</ele>
        <time>2020-07-19T07:52:55Z</time>
      </trkpt>
      <trkpt lat="42.96862" lon="-0.24846">
        <ele>1387</ele>
        <time>2020-07-19T07:52:56Z</time>
      </trkpt>
      <trkpt lat="42.96865" lon="-0.24847">
        <ele>1387.4000244141</ele>
        <time>2020-07-19T07:52:57Z</time>
      </trkpt>
      <trkpt lat="42.96867" lon="-0.24849">
        <ele>1387.8000488281</ele>
        <time>2020-07-19T07:52:58Z</time>
      </trkpt>
      <trkpt lat="42.96874" lon="-0.24858">
        <ele>1387.8000488281</ele>
        <time>2020-07-19T07:53:01Z</time>
      </trkpt>
      <trkpt lat="42.96884" lon="-0.24868">
        <ele>1388.1999511719</ele>
        <time>2020-07-19T07:53:05Z</time>
      </trkpt>
      <trkpt lat="42.96887" lon="-0.24871">
        <ele>1388.5999755859</ele>
        <time>2020-07-19T07:53:06Z</time>
      </trkpt>
      <trkpt lat="42.9689" lon="-0.24873">
        <ele>1389</ele>
        <time>2020-07-19T07:53:07Z</time>
      </trkpt>
      <trkpt lat="42.96892" lon="-0.24876">
        <ele>1389.4000244141</ele>
        <time>2020-07-19T07:53:08Z</time>
      </trkpt>
      <trkpt lat="42.96895" lon="-0.24878">
        <ele>1389.8000488281</ele>
        <time>2020-07-19T07:53:09Z</time>
      </trkpt>
      <trkpt lat="42.96911" lon="-0.24885">
        <ele>1389.8000488281</ele>
        <time>2020-07-19T07:53:14Z</time>
      </trkpt>
      <trkpt lat="42.96927" lon="-0.24879">
        <ele>1389.8000488281</ele>
        <time>2020-07-19T07:53:20Z</time>
      </trkpt>
      <trkpt lat="42.96929" lon="-0.24876">
        <ele>1390.1999511719</ele>
        <time>2020-07-19T07:53:21Z</time>
      </trkpt>
      <trkpt lat="42.96931" lon="-0.24874">
        <ele>1390.8000488281</ele>
        <time>2020-07-19T07:53:22Z</time>
      </trkpt>
      <trkpt lat="42.96934" lon="-0.24872">
        <ele>1391.1999511719</ele>
        <time>2020-07-19T07:53:23Z</time>
      </trkpt>
      <trkpt lat="42.96936" lon="-0.2487">
        <ele>1392</ele>
        <time>2020-07-19T07:53:24Z</time>
      </trkpt>
      <trkpt lat="42.96941" lon="-0.24866">
        <ele>1392</ele>
        <time>2020-07-19T07:53:26Z</time>
      </trkpt>
      <trkpt lat="42.96959" lon="-0.24851">
        <ele>1392</ele>
        <time>2020-07-19T07:53:32Z</time>
      </trkpt>
      <trkpt lat="42.96974" lon="-0.24836">
        <ele>1392</ele>
        <time>2020-07-19T07:53:37Z</time>
      </trkpt>
      <trkpt lat="42.96983" lon="-0.24813">
        <ele>1392.4000244141</ele>
        <time>2020-07-19T07:53:42Z</time>
      </trkpt>
      <trkpt lat="42.96985" lon="-0.24809">
        <ele>1392.8000488281</ele>
        <time>2020-07-19T07:53:43Z</time>
      </trkpt>
      <trkpt lat="42.96987" lon="-0.24804">
        <ele>1393.1999511719</ele>
        <time>2020-07-19T07:53:44Z</time>
      </trkpt>
      <trkpt lat="42.96988" lon="-0.24799">
        <ele>1393.5999755859</ele>
        <time>2020-07-19T07:53:45Z</time>
      </trkpt>
      <trkpt lat="42.9699" lon="-0.24794">
        <ele>1394</ele>
        <time>2020-07-19T07:53:46Z</time>
      </trkpt>
      <trkpt lat="42.96994" lon="-0.24777">
        <ele>1394</ele>
        <time>2020-07-19T07:53:49Z</time>
      </trkpt>
      <trkpt lat="42.97002" lon="-0.24752">
        <ele>1394</ele>
        <time>2020-07-19T07:53:55Z</time>
      </trkpt>
      <trkpt lat="42.97004" lon="-0.2475">
        <ele>1394.5999755859</ele>
        <time>2020-07-19T07:53:56Z</time>
      </trkpt>
      <trkpt lat="42.97007" lon="-0.24747">
        <ele>1395</ele>
        <time>2020-07-19T07:53:57Z</time>
      </trkpt>
      <trkpt lat="42.9701" lon="-0.24745">
        <ele>1395.4000244141</ele>
        <time>2020-07-19T07:53:58Z</time>
      </trkpt>
      <trkpt lat="42.97012" lon="-0.24743">
        <ele>1395.8000488281</ele>
        <time>2020-07-19T07:53:59Z</time>
      </trkpt>
      <trkpt lat="42.97015" lon="-0.24741">
        <ele>1396.1999511719</ele>
        <time>2020-07-19T07:54:00Z</time>
      </trkpt>
      <trkpt lat="42.97017" lon="-0.2474">
        <ele>1396.1999511719</ele>
        <time>2020-07-19T07:54:01Z</time>
      </trkpt>
      <trkpt lat="42.97025" lon="-0.24735">
        <ele>1396.8000488281</ele>
        <time>2020-07-19T07:54:04Z</time>
      </trkpt>
      <trkpt lat="42.97028" lon="-0.24733">
        <ele>1397.1999511719</ele>
        <time>2020-07-19T07:54:05Z</time>
      </trkpt>
      <trkpt lat="42.9703" lon="-0.24732">
        <ele>1397.5999755859</ele>
        <time>2020-07-19T07:54:06Z</time>
      </trkpt>
      <trkpt lat="42.97033" lon="-0.2473">
        <ele>1398</ele>
        <time>2020-07-19T07:54:07Z</time>
      </trkpt>
      <trkpt lat="42.97036" lon="-0.24728">
        <ele>1398.4000244141</ele>
        <time>2020-07-19T07:54:08Z</time>
      </trkpt>
      <trkpt lat="42.97053" lon="-0.24717">
        <ele>1398.8000488281</ele>
        <time>2020-07-19T07:54:14Z</time>
      </trkpt>
      <trkpt lat="42.97056" lon="-0.24715">
        <ele>1399.1999511719</ele>
        <time>2020-07-19T07:54:15Z</time>
      </trkpt>
      <trkpt lat="42.97058" lon="-0.24712">
        <ele>1399.5999755859</ele>
        <time>2020-07-19T07:54:16Z</time>
      </trkpt>
      <trkpt lat="42.97061" lon="-0.2471">
        <ele>1400</ele>
        <time>2020-07-19T07:54:17Z</time>
      </trkpt>
      <trkpt lat="42.97064" lon="-0.24706">
        <ele>1400.4000244141</ele>
        <time>2020-07-19T07:54:18Z</time>
      </trkpt>
      <trkpt lat="42.97069" lon="-0.24699">
        <ele>1400.4000244141</ele>
        <time>2020-07-19T07:54:20Z</time>
      </trkpt>
      <trkpt lat="42.97071" lon="-0.24688">
        <ele>1400.4000244141</ele>
        <time>2020-07-19T07:54:22Z</time>
      </trkpt>
      <trkpt lat="42.97071" lon="-0.24676">
        <ele>1400.4000244141</ele>
        <time>2020-07-19T07:54:24Z</time>
      </trkpt>
      <trkpt lat="42.9707" lon="-0.24656">
        <ele>1400.4000244141</ele>
        <time>2020-07-19T07:54:27Z</time>
      </trkpt>
      <trkpt lat="42.97063" lon="-0.24618">
        <ele>1400.4000244141</ele>
        <time>2020-07-19T07:54:33Z</time>
      </trkpt>
      <trkpt lat="42.97056" lon="-0.24595">
        <ele>1400.4000244141</ele>
        <time>2020-07-19T07:54:37Z</time>
      </trkpt>
      <trkpt lat="42.97055" lon="-0.24582">
        <ele>1400.4000244141</ele>
        <time>2020-07-19T07:54:39Z</time>
      </trkpt>
      <trkpt lat="42.97062" lon="-0.2455">
        <ele>1400.4000244141</ele>
        <time>2020-07-19T07:54:44Z</time>
      </trkpt>
      <trkpt lat="42.97073" lon="-0.24532">
        <ele>1400.4000244141</ele>
        <time>2020-07-19T07:54:47Z</time>
      </trkpt>
      <trkpt lat="42.97077" lon="-0.24526">
        <ele>1400.4000244141</ele>
        <time>2020-07-19T07:54:48Z</time>
      </trkpt>
      <trkpt lat="42.9708" lon="-0.24519">
        <ele>1400.4000244141</ele>
        <time>2020-07-19T07:54:49Z</time>
      </trkpt>
      <trkpt lat="42.97084" lon="-0.245">
        <ele>1400.4000244141</ele>
        <time>2020-07-19T07:54:52Z</time>
      </trkpt>
      <trkpt lat="42.97085" lon="-0.24494">
        <ele>1400.4000244141</ele>
        <time>2020-07-19T07:54:53Z</time>
      </trkpt>
      <trkpt lat="42.97086" lon="-0.24487">
        <ele>1400.4000244141</ele>
        <time>2020-07-19T07:54:54Z</time>
      </trkpt>
      <trkpt lat="42.97091" lon="-0.24465">
        <ele>1400.4000244141</ele>
        <time>2020-07-19T07:54:58Z</time>
      </trkpt>
      <trkpt lat="42.97095" lon="-0.24442">
        <ele>1400.4000244141</ele>
        <time>2020-07-19T07:55:03Z</time>
      </trkpt>
      <trkpt lat="42.97096" lon="-0.24429">
        <ele>1400.8000488281</ele>
        <time>2020-07-19T07:55:06Z</time>
      </trkpt>
      <trkpt lat="42.97097" lon="-0.24425">
        <ele>1401.1999511719</ele>
        <time>2020-07-19T07:55:07Z</time>
      </trkpt>
      <trkpt lat="42.97097" lon="-0.2442">
        <ele>1401.8000488281</ele>
        <time>2020-07-19T07:55:08Z</time>
      </trkpt>
      <trkpt lat="42.97098" lon="-0.24416">
        <ele>1402.1999511719</ele>
        <time>2020-07-19T07:55:09Z</time>
      </trkpt>
      <trkpt lat="42.97099" lon="-0.24412">
        <ele>1402.5999755859</ele>
        <time>2020-07-19T07:55:10Z</time>
      </trkpt>
      <trkpt lat="42.97105" lon="-0.24381">
        <ele>1402.5999755859</ele>
        <time>2020-07-19T07:55:16Z</time>
      </trkpt>
      <trkpt lat="42.97108" lon="-0.24376">
        <ele>1402.5999755859</ele>
        <time>2020-07-19T07:55:17Z</time>
      </trkpt>
      <trkpt lat="42.97112" lon="-0.24361">
        <ele>1402.5999755859</ele>
        <time>2020-07-19T07:55:20Z</time>
      </trkpt>
      <trkpt lat="42.97114" lon="-0.24355">
        <ele>1402.5999755859</ele>
        <time>2020-07-19T07:55:21Z</time>
      </trkpt>
      <trkpt lat="42.97117" lon="-0.24346">
        <ele>1403</ele>
        <time>2020-07-19T07:55:23Z</time>
      </trkpt>
      <trkpt lat="42.97119" lon="-0.24342">
        <ele>1403.4000244141</ele>
        <time>2020-07-19T07:55:24Z</time>
      </trkpt>
      <trkpt lat="42.97121" lon="-0.24338">
        <ele>1403.8000488281</ele>
        <time>2020-07-19T07:55:25Z</time>
      </trkpt>
      <trkpt lat="42.97123" lon="-0.24335">
        <ele>1404.1999511719</ele>
        <time>2020-07-19T07:55:26Z</time>
      </trkpt>
      <trkpt lat="42.97126" lon="-0.24332">
        <ele>1404.5999755859</ele>
        <time>2020-07-19T07:55:27Z</time>
      </trkpt>
      <trkpt lat="42.97139" lon="-0.24328">
        <ele>1404.5999755859</ele>
        <time>2020-07-19T07:55:31Z</time>
      </trkpt>
      <trkpt lat="42.97151" lon="-0.2434">
        <ele>1404.5999755859</ele>
        <time>2020-07-19T07:55:35Z</time>
      </trkpt>
      <trkpt lat="42.97157" lon="-0.24352">
        <ele>1405</ele>
        <time>2020-07-19T07:55:38Z</time>
      </trkpt>
      <trkpt lat="42.97159" lon="-0.24357">
        <ele>1405.5999755859</ele>
        <time>2020-07-19T07:55:39Z</time>
      </trkpt>
      <trkpt lat="42.9716" lon="-0.24361">
        <ele>1406</ele>
        <time>2020-07-19T07:55:40Z</time>
      </trkpt>
      <trkpt lat="42.97162" lon="-0.24365">
        <ele>1406.5999755859</ele>
        <time>2020-07-19T07:55:41Z</time>
      </trkpt>
      <trkpt lat="42.97163" lon="-0.2437">
        <ele>1407</ele>
        <time>2020-07-19T07:55:42Z</time>
      </trkpt>
      <trkpt lat="42.97167" lon="-0.24381">
        <ele>1407</ele>
        <time>2020-07-19T07:55:45Z</time>
      </trkpt>
      <trkpt lat="42.9717" lon="-0.24384">
        <ele>1407</ele>
        <time>2020-07-19T07:55:46Z</time>
      </trkpt>
      <trkpt lat="42.97182" lon="-0.24385">
        <ele>1407</ele>
        <time>2020-07-19T07:55:50Z</time>
      </trkpt>
      <trkpt lat="42.97184" lon="-0.24384">
        <ele>1407.4000244141</ele>
        <time>2020-07-19T07:55:51Z</time>
      </trkpt>
      <trkpt lat="42.97186" lon="-0.24382">
        <ele>1407.8000488281</ele>
        <time>2020-07-19T07:55:52Z</time>
      </trkpt>
      <trkpt lat="42.97189" lon="-0.2438">
        <ele>1408.8000488281</ele>
        <time>2020-07-19T07:55:53Z</time>
      </trkpt>
      <trkpt lat="42.97191" lon="-0.24378">
        <ele>1409.1999511719</ele>
        <time>2020-07-19T07:55:54Z</time>
      </trkpt>
      <trkpt lat="42.97193" lon="-0.24375">
        <ele>1409.1999511719</ele>
        <time>2020-07-19T07:55:55Z</time>
      </trkpt>
      <trkpt lat="42.97195" lon="-0.24372">
        <ele>1409.5999755859</ele>
        <time>2020-07-19T07:55:56Z</time>
      </trkpt>
      <trkpt lat="42.97197" lon="-0.24368">
        <ele>1410</ele>
        <time>2020-07-19T07:55:57Z</time>
      </trkpt>
      <trkpt lat="42.97198" lon="-0.24364">
        <ele>1410.4000244141</ele>
        <time>2020-07-19T07:55:58Z</time>
      </trkpt>
      <trkpt lat="42.97199" lon="-0.24361">
        <ele>1410.8000488281</ele>
        <time>2020-07-19T07:55:59Z</time>
      </trkpt>
      <trkpt lat="42.972" lon="-0.24357">
        <ele>1411.1999511719</ele>
        <time>2020-07-19T07:56:00Z</time>
      </trkpt>
      <trkpt lat="42.97201" lon="-0.24354">
        <ele>1411.1999511719</ele>
        <time>2020-07-19T07:56:01Z</time>
      </trkpt>
      <trkpt lat="42.97208" lon="-0.24333">
        <ele>1411.5999755859</ele>
        <time>2020-07-19T07:56:07Z</time>
      </trkpt>
      <trkpt lat="42.97209" lon="-0.2433">
        <ele>1412</ele>
        <time>2020-07-19T07:56:08Z</time>
      </trkpt>
      <trkpt lat="42.97211" lon="-0.24328">
        <ele>1412.5999755859</ele>
        <time>2020-07-19T07:56:09Z</time>
      </trkpt>
      <trkpt lat="42.97213" lon="-0.24326">
        <ele>1413</ele>
        <time>2020-07-19T07:56:10Z</time>
      </trkpt>
      <trkpt lat="42.97216" lon="-0.24325">
        <ele>1413.4000244141</ele>
        <time>2020-07-19T07:56:11Z</time>
      </trkpt>
      <trkpt lat="42.97218" lon="-0.24324">
        <ele>1413.4000244141</ele>
        <time>2020-07-19T07:56:12Z</time>
      </trkpt>
      <trkpt lat="42.9723" lon="-0.24322">
        <ele>1414.1999511719</ele>
        <time>2020-07-19T07:56:17Z</time>
      </trkpt>
      <trkpt lat="42.97233" lon="-0.24322">
        <ele>1414.5999755859</ele>
        <time>2020-07-19T07:56:18Z</time>
      </trkpt>
      <trkpt lat="42.97236" lon="-0.24323">
        <ele>1415</ele>
        <time>2020-07-19T07:56:19Z</time>
      </trkpt>
      <trkpt lat="42.97238" lon="-0.24323">
        <ele>1415.4000244141</ele>
        <time>2020-07-19T07:56:20Z</time>
      </trkpt>
      <trkpt lat="42.97246" lon="-0.24321">
        <ele>1415.4000244141</ele>
        <time>2020-07-19T07:56:23Z</time>
      </trkpt>
      <trkpt lat="42.97266" lon="-0.24323">
        <ele>1415.4000244141</ele>
        <time>2020-07-19T07:56:30Z</time>
      </trkpt>
      <trkpt lat="42.9727" lon="-0.24326">
        <ele>1415.4000244141</ele>
        <time>2020-07-19T07:56:31Z</time>
      </trkpt>
      <trkpt lat="42.97282" lon="-0.24343">
        <ele>1415.4000244141</ele>
        <time>2020-07-19T07:56:34Z</time>
      </trkpt>
      <trkpt lat="42.97306" lon="-0.24373">
        <ele>1415.4000244141</ele>
        <time>2020-07-19T07:56:38Z</time>
      </trkpt>
      <trkpt lat="42.97313" lon="-0.2438">
        <ele>1414.8000488281</ele>
        <time>2020-07-19T07:56:39Z</time>
      </trkpt>
      <trkpt lat="42.97321" lon="-0.24384">
        <ele>1414.4000244141</ele>
        <time>2020-07-19T07:56:40Z</time>
      </trkpt>
      <trkpt lat="42.9733" lon="-0.24387">
        <ele>1413.1999511719</ele>
        <time>2020-07-19T07:56:41Z</time>
      </trkpt>
      <trkpt lat="42.97338" lon="-0.24391">
        <ele>1412.4000244141</ele>
        <time>2020-07-19T07:56:42Z</time>
      </trkpt>
      <trkpt lat="42.97347" lon="-0.24396">
        <ele>1411.8000488281</ele>
        <time>2020-07-19T07:56:43Z</time>
      </trkpt>
      <trkpt lat="42.97354" lon="-0.244">
        <ele>1411.1999511719</ele>
        <time>2020-07-19T07:56:44Z</time>
      </trkpt>
      <trkpt lat="42.97362" lon="-0.24403">
        <ele>1410.4000244141</ele>
        <time>2020-07-19T07:56:45Z</time>
      </trkpt>
      <trkpt lat="42.97369" lon="-0.24407">
        <ele>1410.4000244141</ele>
        <time>2020-07-19T07:56:46Z</time>
      </trkpt>
      <trkpt lat="42.97379" lon="-0.24415">
        <ele>1410.4000244141</ele>
        <time>2020-07-19T07:56:48Z</time>
      </trkpt>
      <trkpt lat="42.97382" lon="-0.2442">
        <ele>1410.4000244141</ele>
        <time>2020-07-19T07:56:49Z</time>
      </trkpt>
      <trkpt lat="42.97383" lon="-0.24437">
        <ele>1410.4000244141</ele>
        <time>2020-07-19T07:56:52Z</time>
      </trkpt>
      <trkpt lat="42.97383" lon="-0.24449">
        <ele>1410.4000244141</ele>
        <time>2020-07-19T07:56:56Z</time>
      </trkpt>
      <trkpt lat="42.97383" lon="-0.24449">
        <ele>1410.4000244141</ele>
        <time>2020-07-19T07:57:01Z</time>
      </trkpt>
      <trkpt lat="42.97385" lon="-0.24449">
        <ele>1410.4000244141</ele>
        <time>2020-07-19T07:57:03Z</time>
      </trkpt>
      <trkpt lat="42.97387" lon="-0.24449">
        <ele>1410</ele>
        <time>2020-07-19T07:57:04Z</time>
      </trkpt>
      <trkpt lat="42.97389" lon="-0.24451">
        <ele>1409.5999755859</ele>
        <time>2020-07-19T07:57:05Z</time>
      </trkpt>
      <trkpt lat="42.9739" lon="-0.24454">
        <ele>1408.8000488281</ele>
        <time>2020-07-19T07:57:06Z</time>
      </trkpt>
      <trkpt lat="42.97392" lon="-0.24456">
        <ele>1408.4000244141</ele>
        <time>2020-07-19T07:57:07Z</time>
      </trkpt>
      <trkpt lat="42.97399" lon="-0.24461">
        <ele>1408.4000244141</ele>
        <time>2020-07-19T07:57:11Z</time>
      </trkpt>
      <trkpt lat="42.97411" lon="-0.24459">
        <ele>1408.4000244141</ele>
        <time>2020-07-19T07:57:16Z</time>
      </trkpt>
      <trkpt lat="42.97425" lon="-0.24453">
        <ele>1408.4000244141</ele>
        <time>2020-07-19T07:57:22Z</time>
      </trkpt>
      <trkpt lat="42.97442" lon="-0.24443">
        <ele>1408.4000244141</ele>
        <time>2020-07-19T07:57:28Z</time>
      </trkpt>
      <trkpt lat="42.97466" lon="-0.24438">
        <ele>1408.4000244141</ele>
        <time>2020-07-19T07:57:35Z</time>
      </trkpt>
      <trkpt lat="42.97486" lon="-0.24435">
        <ele>1408.4000244141</ele>
        <time>2020-07-19T07:57:40Z</time>
      </trkpt>
      <trkpt lat="42.9749" lon="-0.24435">
        <ele>1408.4000244141</ele>
        <time>2020-07-19T07:57:41Z</time>
      </trkpt>
      <trkpt lat="42.97507" lon="-0.24427">
        <ele>1408.4000244141</ele>
        <time>2020-07-19T07:57:46Z</time>
      </trkpt>
      <trkpt lat="42.97511" lon="-0.24424">
        <ele>1408.4000244141</ele>
        <time>2020-07-19T07:57:47Z</time>
      </trkpt>
      <trkpt lat="42.97525" lon="-0.24406">
        <ele>1408.4000244141</ele>
        <time>2020-07-19T07:57:52Z</time>
      </trkpt>
      <trkpt lat="42.97546" lon="-0.24389">
        <ele>1408.4000244141</ele>
        <time>2020-07-19T07:57:58Z</time>
      </trkpt>
      <trkpt lat="42.97558" lon="-0.24382">
        <ele>1408.4000244141</ele>
        <time>2020-07-19T07:58:01Z</time>
      </trkpt>
      <trkpt lat="42.97569" lon="-0.24375">
        <ele>1408.4000244141</ele>
        <time>2020-07-19T07:58:04Z</time>
      </trkpt>
      <trkpt lat="42.97593" lon="-0.24353">
        <ele>1408.4000244141</ele>
        <time>2020-07-19T07:58:11Z</time>
      </trkpt>
      <trkpt lat="42.9761" lon="-0.24339">
        <ele>1408.4000244141</ele>
        <time>2020-07-19T07:58:16Z</time>
      </trkpt>
      <trkpt lat="42.97618" lon="-0.24335">
        <ele>1408.4000244141</ele>
        <time>2020-07-19T07:58:18Z</time>
      </trkpt>
      <trkpt lat="42.97638" lon="-0.24317">
        <ele>1408.4000244141</ele>
        <time>2020-07-19T07:58:23Z</time>
      </trkpt>
      <trkpt lat="42.97665" lon="-0.24295">
        <ele>1408.4000244141</ele>
        <time>2020-07-19T07:58:31Z</time>
      </trkpt>
      <trkpt lat="42.97682" lon="-0.24277">
        <ele>1408.4000244141</ele>
        <time>2020-07-19T07:58:37Z</time>
      </trkpt>
      <trkpt lat="42.97695" lon="-0.24263">
        <ele>1408.4000244141</ele>
        <time>2020-07-19T07:58:42Z</time>
      </trkpt>
      <trkpt lat="42.97711" lon="-0.24263">
        <ele>1408.4000244141</ele>
        <time>2020-07-19T07:58:46Z</time>
      </trkpt>
      <trkpt lat="42.97724" lon="-0.24261">
        <ele>1408.4000244141</ele>
        <time>2020-07-19T07:58:49Z</time>
      </trkpt>
      <trkpt lat="42.97737" lon="-0.24257">
        <ele>1408.4000244141</ele>
        <time>2020-07-19T07:58:52Z</time>
      </trkpt>
      <trkpt lat="42.97741" lon="-0.24256">
        <ele>1408.4000244141</ele>
        <time>2020-07-19T07:58:53Z</time>
      </trkpt>
      <trkpt lat="42.97757" lon="-0.24256">
        <ele>1408.4000244141</ele>
        <time>2020-07-19T07:58:57Z</time>
      </trkpt>
      <trkpt lat="42.97762" lon="-0.24257">
        <ele>1408.4000244141</ele>
        <time>2020-07-19T07:58:58Z</time>
      </trkpt>
      <trkpt lat="42.9778" lon="-0.24268">
        <ele>1408.4000244141</ele>
        <time>2020-07-19T07:59:02Z</time>
      </trkpt>
      <trkpt lat="42.97792" lon="-0.24264">
        <ele>1408.4000244141</ele>
        <time>2020-07-19T07:59:05Z</time>
      </trkpt>
      <trkpt lat="42.97805" lon="-0.2425">
        <ele>1408.4000244141</ele>
        <time>2020-07-19T07:59:09Z</time>
      </trkpt>
      <trkpt lat="42.97807" lon="-0.24245">
        <ele>1408.4000244141</ele>
        <time>2020-07-19T07:59:10Z</time>
      </trkpt>
      <trkpt lat="42.97819" lon="-0.24217">
        <ele>1408.4000244141</ele>
        <time>2020-07-19T07:59:16Z</time>
      </trkpt>
      <trkpt lat="42.97824" lon="-0.24191">
        <ele>1408.4000244141</ele>
        <time>2020-07-19T07:59:21Z</time>
      </trkpt>
      <trkpt lat="42.97828" lon="-0.24182">
        <ele>1408.4000244141</ele>
        <time>2020-07-19T07:59:23Z</time>
      </trkpt>
      <trkpt lat="42.97831" lon="-0.24179">
        <ele>1408.8000488281</ele>
        <time>2020-07-19T07:59:24Z</time>
      </trkpt>
      <trkpt lat="42.97834" lon="-0.24177">
        <ele>1409.1999511719</ele>
        <time>2020-07-19T07:59:25Z</time>
      </trkpt>
      <trkpt lat="42.97838" lon="-0.24175">
        <ele>1409.5999755859</ele>
        <time>2020-07-19T07:59:26Z</time>
      </trkpt>
      <trkpt lat="42.97841" lon="-0.24174">
        <ele>1410</ele>
        <time>2020-07-19T07:59:27Z</time>
      </trkpt>
      <trkpt lat="42.97844" lon="-0.24173">
        <ele>1410.4000244141</ele>
        <time>2020-07-19T07:59:28Z</time>
      </trkpt>
      <trkpt lat="42.9785" lon="-0.24172">
        <ele>1410.4000244141</ele>
        <time>2020-07-19T07:59:30Z</time>
      </trkpt>
      <trkpt lat="42.97858" lon="-0.24168">
        <ele>1410.4000244141</ele>
        <time>2020-07-19T07:59:33Z</time>
      </trkpt>
      <trkpt lat="42.97867" lon="-0.24162">
        <ele>1410.8000488281</ele>
        <time>2020-07-19T07:59:36Z</time>
      </trkpt>
      <trkpt lat="42.9787" lon="-0.24161">
        <ele>1411.4000244141</ele>
        <time>2020-07-19T07:59:37Z</time>
      </trkpt>
      <trkpt lat="42.97873" lon="-0.24161">
        <ele>1411.8000488281</ele>
        <time>2020-07-19T07:59:38Z</time>
      </trkpt>
      <trkpt lat="42.97876" lon="-0.24161">
        <ele>1412.1999511719</ele>
        <time>2020-07-19T07:59:39Z</time>
      </trkpt>
      <trkpt lat="42.97879" lon="-0.24161">
        <ele>1412.5999755859</ele>
        <time>2020-07-19T07:59:40Z</time>
      </trkpt>
      <trkpt lat="42.97898" lon="-0.24161">
        <ele>1412.5999755859</ele>
        <time>2020-07-19T07:59:46Z</time>
      </trkpt>
      <trkpt lat="42.97923" lon="-0.24163">
        <ele>1412.5999755859</ele>
        <time>2020-07-19T07:59:53Z</time>
      </trkpt>
      <trkpt lat="42.97939" lon="-0.24152">
        <ele>1412.5999755859</ele>
        <time>2020-07-19T07:59:58Z</time>
      </trkpt>
      <trkpt lat="42.97945" lon="-0.24147">
        <ele>1413</ele>
        <time>2020-07-19T08:00:00Z</time>
      </trkpt>
      <trkpt lat="42.97948" lon="-0.24145">
        <ele>1413.4000244141</ele>
        <time>2020-07-19T08:00:01Z</time>
      </trkpt>
      <trkpt lat="42.97952" lon="-0.24144">
        <ele>1413.8000488281</ele>
        <time>2020-07-19T08:00:02Z</time>
      </trkpt>
      <trkpt lat="42.97955" lon="-0.24142">
        <ele>1414.1999511719</ele>
        <time>2020-07-19T08:00:03Z</time>
      </trkpt>
      <trkpt lat="42.97958" lon="-0.24142">
        <ele>1414.5999755859</ele>
        <time>2020-07-19T08:00:04Z</time>
      </trkpt>
      <trkpt lat="42.97979" lon="-0.24146">
        <ele>1414.5999755859</ele>
        <time>2020-07-19T08:00:09Z</time>
      </trkpt>
      <trkpt lat="42.97997" lon="-0.24146">
        <ele>1414.5999755859</ele>
        <time>2020-07-19T08:00:14Z</time>
      </trkpt>
      <trkpt lat="42.98019" lon="-0.24143">
        <ele>1415</ele>
        <time>2020-07-19T08:00:20Z</time>
      </trkpt>
      <trkpt lat="42.98023" lon="-0.24142">
        <ele>1415.4000244141</ele>
        <time>2020-07-19T08:00:21Z</time>
      </trkpt>
      <trkpt lat="42.98027" lon="-0.2414">
        <ele>1416</ele>
        <time>2020-07-19T08:00:22Z</time>
      </trkpt>
      <trkpt lat="42.98031" lon="-0.24138">
        <ele>1416.8000488281</ele>
        <time>2020-07-19T08:00:23Z</time>
      </trkpt>
      <trkpt lat="42.98037" lon="-0.24131">
        <ele>1416.8000488281</ele>
        <time>2020-07-19T08:00:25Z</time>
      </trkpt>
      <trkpt lat="42.98046" lon="-0.24114">
        <ele>1416.8000488281</ele>
        <time>2020-07-19T08:00:30Z</time>
      </trkpt>
      <trkpt lat="42.98057" lon="-0.24101">
        <ele>1416.8000488281</ele>
        <time>2020-07-19T08:00:34Z</time>
      </trkpt>
      <trkpt lat="42.98061" lon="-0.24099">
        <ele>1416.8000488281</ele>
        <time>2020-07-19T08:00:35Z</time>
      </trkpt>
      <trkpt lat="42.98083" lon="-0.24095">
        <ele>1416.8000488281</ele>
        <time>2020-07-19T08:00:40Z</time>
      </trkpt>
      <trkpt lat="42.98096" lon="-0.24091">
        <ele>1416.8000488281</ele>
        <time>2020-07-19T08:00:43Z</time>
      </trkpt>
      <trkpt lat="42.98099" lon="-0.24087">
        <ele>1416.8000488281</ele>
        <time>2020-07-19T08:00:44Z</time>
      </trkpt>
      <trkpt lat="42.98107" lon="-0.24067">
        <ele>1416.8000488281</ele>
        <time>2020-07-19T08:00:48Z</time>
      </trkpt>
      <trkpt lat="42.98118" lon="-0.24044">
        <ele>1416.8000488281</ele>
        <time>2020-07-19T08:00:53Z</time>
      </trkpt>
      <trkpt lat="42.98121" lon="-0.2404">
        <ele>1417.1999511719</ele>
        <time>2020-07-19T08:00:54Z</time>
      </trkpt>
      <trkpt lat="42.98123" lon="-0.24035">
        <ele>1417.5999755859</ele>
        <time>2020-07-19T08:00:55Z</time>
      </trkpt>
      <trkpt lat="42.98127" lon="-0.2403">
        <ele>1418.1999511719</ele>
        <time>2020-07-19T08:00:56Z</time>
      </trkpt>
      <trkpt lat="42.9813" lon="-0.24026">
        <ele>1418.5999755859</ele>
        <time>2020-07-19T08:00:57Z</time>
      </trkpt>
      <trkpt lat="42.98132" lon="-0.24021">
        <ele>1419</ele>
        <time>2020-07-19T08:00:58Z</time>
      </trkpt>
      <trkpt lat="42.98135" lon="-0.24016">
        <ele>1419</ele>
        <time>2020-07-19T08:00:59Z</time>
      </trkpt>
      <trkpt lat="42.98138" lon="-0.24012">
        <ele>1419</ele>
        <time>2020-07-19T08:01:00Z</time>
      </trkpt>
      <trkpt lat="42.9815" lon="-0.23999">
        <ele>1419</ele>
        <time>2020-07-19T08:01:04Z</time>
      </trkpt>
      <trkpt lat="42.98161" lon="-0.23995">
        <ele>1419</ele>
        <time>2020-07-19T08:01:07Z</time>
      </trkpt>
      <trkpt lat="42.98165" lon="-0.23995">
        <ele>1419</ele>
        <time>2020-07-19T08:01:08Z</time>
      </trkpt>
      <trkpt lat="42.98172" lon="-0.24007">
        <ele>1419</ele>
        <time>2020-07-19T08:01:11Z</time>
      </trkpt>
      <trkpt lat="42.98173" lon="-0.24011">
        <ele>1419</ele>
        <time>2020-07-19T08:01:12Z</time>
      </trkpt>
      <trkpt lat="42.98185" lon="-0.24031">
        <ele>1419</ele>
        <time>2020-07-19T08:01:17Z</time>
      </trkpt>
      <trkpt lat="42.98196" lon="-0.2403">
        <ele>1419</ele>
        <time>2020-07-19T08:01:20Z</time>
      </trkpt>
      <trkpt lat="42.98199" lon="-0.24027">
        <ele>1419.4000244141</ele>
        <time>2020-07-19T08:01:21Z</time>
      </trkpt>
      <trkpt lat="42.98202" lon="-0.24024">
        <ele>1419.8000488281</ele>
        <time>2020-07-19T08:01:22Z</time>
      </trkpt>
      <trkpt lat="42.98205" lon="-0.24022">
        <ele>1420.1999511719</ele>
        <time>2020-07-19T08:01:23Z</time>
      </trkpt>
      <trkpt lat="42.98208" lon="-0.24019">
        <ele>1420.5999755859</ele>
        <time>2020-07-19T08:01:24Z</time>
      </trkpt>
      <trkpt lat="42.98211" lon="-0.24015">
        <ele>1421</ele>
        <time>2020-07-19T08:01:25Z</time>
      </trkpt>
      <trkpt lat="42.98231" lon="-0.23998">
        <ele>1421</ele>
        <time>2020-07-19T08:01:31Z</time>
      </trkpt>
      <trkpt lat="42.98249" lon="-0.23997">
        <ele>1421</ele>
        <time>2020-07-19T08:01:37Z</time>
      </trkpt>
      <trkpt lat="42.98252" lon="-0.23997">
        <ele>1421</ele>
        <time>2020-07-19T08:01:41Z</time>
      </trkpt>
      <trkpt lat="42.98252" lon="-0.23997">
        <ele>1421</ele>
        <time>2020-07-19T08:01:51Z</time>
      </trkpt>
      <trkpt lat="42.98254" lon="-0.23998">
        <ele>1421</ele>
        <time>2020-07-19T08:02:00Z</time>
      </trkpt>
      <trkpt lat="42.98256" lon="-0.24">
        <ele>1421</ele>
        <time>2020-07-19T08:02:07Z</time>
      </trkpt>
      <trkpt lat="42.98263" lon="-0.24008">
        <ele>1421</ele>
        <time>2020-07-19T08:02:12Z</time>
      </trkpt>
      <trkpt lat="42.98264" lon="-0.2401">
        <ele>1421.4000244141</ele>
        <time>2020-07-19T08:02:13Z</time>
      </trkpt>
      <trkpt lat="42.98264" lon="-0.24012">
        <ele>1421.8000488281</ele>
        <time>2020-07-19T08:02:14Z</time>
      </trkpt>
      <trkpt lat="42.98265" lon="-0.24015">
        <ele>1422.1999511719</ele>
        <time>2020-07-19T08:02:15Z</time>
      </trkpt>
      <trkpt lat="42.98266" lon="-0.24018">
        <ele>1422.5999755859</ele>
        <time>2020-07-19T08:02:16Z</time>
      </trkpt>
      <trkpt lat="42.98267" lon="-0.24021">
        <ele>1423</ele>
        <time>2020-07-19T08:02:17Z</time>
      </trkpt>
      <trkpt lat="42.98269" lon="-0.24037">
        <ele>1423</ele>
        <time>2020-07-19T08:02:23Z</time>
      </trkpt>
      <trkpt lat="42.98269" lon="-0.24044">
        <ele>1423.4000244141</ele>
        <time>2020-07-19T08:02:25Z</time>
      </trkpt>
      <trkpt lat="42.9827" lon="-0.24047">
        <ele>1423.8000488281</ele>
        <time>2020-07-19T08:02:26Z</time>
      </trkpt>
      <trkpt lat="42.9827" lon="-0.2405">
        <ele>1424.8000488281</ele>
        <time>2020-07-19T08:02:27Z</time>
      </trkpt>
      <trkpt lat="42.98271" lon="-0.24054">
        <ele>1425.1999511719</ele>
        <time>2020-07-19T08:02:28Z</time>
      </trkpt>
      <trkpt lat="42.98271" lon="-0.24057">
        <ele>1425.1999511719</ele>
        <time>2020-07-19T08:02:29Z</time>
      </trkpt>
      <trkpt lat="42.98275" lon="-0.24079">
        <ele>1425.1999511719</ele>
        <time>2020-07-19T08:02:36Z</time>
      </trkpt>
      <trkpt lat="42.98279" lon="-0.2409">
        <ele>1425.5999755859</ele>
        <time>2020-07-19T08:02:40Z</time>
      </trkpt>
      <trkpt lat="42.98279" lon="-0.24093">
        <ele>1426</ele>
        <time>2020-07-19T08:02:41Z</time>
      </trkpt>
      <trkpt lat="42.98279" lon="-0.24095">
        <ele>1426.4000244141</ele>
        <time>2020-07-19T08:02:42Z</time>
      </trkpt>
      <trkpt lat="42.98279" lon="-0.24098">
        <ele>1426.8000488281</ele>
        <time>2020-07-19T08:02:43Z</time>
      </trkpt>
      <trkpt lat="42.98279" lon="-0.24101">
        <ele>1427.1999511719</ele>
        <time>2020-07-19T08:02:44Z</time>
      </trkpt>
      <trkpt lat="42.98279" lon="-0.24111">
        <ele>1427.1999511719</ele>
        <time>2020-07-19T08:02:49Z</time>
      </trkpt>
      <trkpt lat="42.98278" lon="-0.24118">
        <ele>1427.1999511719</ele>
        <time>2020-07-19T08:02:55Z</time>
      </trkpt>
      <trkpt lat="42.98278" lon="-0.24118">
        <ele>1427.1999511719</ele>
        <time>2020-07-19T08:03:09Z</time>
      </trkpt>
      <trkpt lat="42.98278" lon="-0.24118">
        <ele>1427.1999511719</ele>
        <time>2020-07-19T08:03:27Z</time>
      </trkpt>
      <trkpt lat="42.98279" lon="-0.24118">
        <ele>1427.1999511719</ele>
        <time>2020-07-19T08:03:39Z</time>
      </trkpt>
      <trkpt lat="42.98279" lon="-0.24118">
        <ele>1427.1999511719</ele>
        <time>2020-07-19T08:03:53Z</time>
      </trkpt>
      <trkpt lat="42.98279" lon="-0.24119">
        <ele>1427.1999511719</ele>
        <time>2020-07-19T08:04:02Z</time>
      </trkpt>
      <trkpt lat="42.98279" lon="-0.24121">
        <ele>1427.1999511719</ele>
        <time>2020-07-19T08:04:03Z</time>
      </trkpt>
      <trkpt lat="42.98279" lon="-0.24129">
        <ele>1427.1999511719</ele>
        <time>2020-07-19T08:04:05Z</time>
      </trkpt>
      <trkpt lat="42.98267" lon="-0.24152">
        <ele>1427.1999511719</ele>
        <time>2020-07-19T08:04:09Z</time>
      </trkpt>
      <trkpt lat="42.98264" lon="-0.2416">
        <ele>1427.1999511719</ele>
        <time>2020-07-19T08:04:10Z</time>
      </trkpt>
      <trkpt lat="42.98258" lon="-0.24177">
        <ele>1426.8000488281</ele>
        <time>2020-07-19T08:04:12Z</time>
      </trkpt>
      <trkpt lat="42.98254" lon="-0.24184">
        <ele>1426.4000244141</ele>
        <time>2020-07-19T08:04:13Z</time>
      </trkpt>
      <trkpt lat="42.98251" lon="-0.24191">
        <ele>1426</ele>
        <time>2020-07-19T08:04:14Z</time>
      </trkpt>
      <trkpt lat="42.98249" lon="-0.24197">
        <ele>1425.5999755859</ele>
        <time>2020-07-19T08:04:15Z</time>
      </trkpt>
      <trkpt lat="42.98246" lon="-0.24203">
        <ele>1425</ele>
        <time>2020-07-19T08:04:16Z</time>
      </trkpt>
      <trkpt lat="42.98243" lon="-0.2421">
        <ele>1424.5999755859</ele>
        <time>2020-07-19T08:04:17Z</time>
      </trkpt>
      <trkpt lat="42.9824" lon="-0.24217">
        <ele>1424</ele>
        <time>2020-07-19T08:04:18Z</time>
      </trkpt>
      <trkpt lat="42.98238" lon="-0.24225">
        <ele>1423.5999755859</ele>
        <time>2020-07-19T08:04:19Z</time>
      </trkpt>
      <trkpt lat="42.98237" lon="-0.24234">
        <ele>1423</ele>
        <time>2020-07-19T08:04:20Z</time>
      </trkpt>
      <trkpt lat="42.98232" lon="-0.24252">
        <ele>1422.5999755859</ele>
        <time>2020-07-19T08:04:22Z</time>
      </trkpt>
      <trkpt lat="42.98231" lon="-0.24262">
        <ele>1422.1999511719</ele>
        <time>2020-07-19T08:04:23Z</time>
      </trkpt>
      <trkpt lat="42.98229" lon="-0.24271">
        <ele>1421.5999755859</ele>
        <time>2020-07-19T08:04:24Z</time>
      </trkpt>
      <trkpt lat="42.98226" lon="-0.2428">
        <ele>1421.1999511719</ele>
        <time>2020-07-19T08:04:25Z</time>
      </trkpt>
      <trkpt lat="42.98222" lon="-0.24289">
        <ele>1420.8000488281</ele>
        <time>2020-07-19T08:04:26Z</time>
      </trkpt>
      <trkpt lat="42.98218" lon="-0.24296">
        <ele>1420.1999511719</ele>
        <time>2020-07-19T08:04:27Z</time>
      </trkpt>
      <trkpt lat="42.98213" lon="-0.24303">
        <ele>1419.8000488281</ele>
        <time>2020-07-19T08:04:28Z</time>
      </trkpt>
      <trkpt lat="42.98208" lon="-0.2431">
        <ele>1419.4000244141</ele>
        <time>2020-07-19T08:04:29Z</time>
      </trkpt>
      <trkpt lat="42.98201" lon="-0.24316">
        <ele>1419</ele>
        <time>2020-07-19T08:04:30Z</time>
      </trkpt>
      <trkpt lat="42.98195" lon="-0.24322">
        <ele>1418.4000244141</ele>
        <time>2020-07-19T08:04:31Z</time>
      </trkpt>
      <trkpt lat="42.98188" lon="-0.24328">
        <ele>1418</ele>
        <time>2020-07-19T08:04:32Z</time>
      </trkpt>
      <trkpt lat="42.98181" lon="-0.24334">
        <ele>1417.5999755859</ele>
        <time>2020-07-19T08:04:33Z</time>
      </trkpt>
      <trkpt lat="42.98173" lon="-0.2434">
        <ele>1417.1999511719</ele>
        <time>2020-07-19T08:04:34Z</time>
      </trkpt>
      <trkpt lat="42.98166" lon="-0.24349">
        <ele>1416.5999755859</ele>
        <time>2020-07-19T08:04:35Z</time>
      </trkpt>
      <trkpt lat="42.9816" lon="-0.24358">
        <ele>1416.1999511719</ele>
        <time>2020-07-19T08:04:36Z</time>
      </trkpt>
      <trkpt lat="42.98154" lon="-0.24367">
        <ele>1415.8000488281</ele>
        <time>2020-07-19T08:04:37Z</time>
      </trkpt>
      <trkpt lat="42.98148" lon="-0.24376">
        <ele>1415.1999511719</ele>
        <time>2020-07-19T08:04:38Z</time>
      </trkpt>
      <trkpt lat="42.98144" lon="-0.24385">
        <ele>1414.8000488281</ele>
        <time>2020-07-19T08:04:39Z</time>
      </trkpt>
      <trkpt lat="42.98142" lon="-0.24395">
        <ele>1414.1999511719</ele>
        <time>2020-07-19T08:04:40Z</time>
      </trkpt>
      <trkpt lat="42.98143" lon="-0.24405">
        <ele>1413.5999755859</ele>
        <time>2020-07-19T08:04:41Z</time>
      </trkpt>
      <trkpt lat="42.98143" lon="-0.24414">
        <ele>1413</ele>
        <time>2020-07-19T08:04:42Z</time>
      </trkpt>
      <trkpt lat="42.98141" lon="-0.24423">
        <ele>1412.4000244141</ele>
        <time>2020-07-19T08:04:43Z</time>
      </trkpt>
      <trkpt lat="42.98137" lon="-0.2443">
        <ele>1411.8000488281</ele>
        <time>2020-07-19T08:04:44Z</time>
      </trkpt>
      <trkpt lat="42.98132" lon="-0.24436">
        <ele>1411.8000488281</ele>
        <time>2020-07-19T08:04:45Z</time>
      </trkpt>
      <trkpt lat="42.98126" lon="-0.2444">
        <ele>1411.1999511719</ele>
        <time>2020-07-19T08:04:46Z</time>
      </trkpt>
      <trkpt lat="42.9812" lon="-0.24443">
        <ele>1410.8000488281</ele>
        <time>2020-07-19T08:04:47Z</time>
      </trkpt>
      <trkpt lat="42.98113" lon="-0.24446">
        <ele>1410.4000244141</ele>
        <time>2020-07-19T08:04:48Z</time>
      </trkpt>
      <trkpt lat="42.98104" lon="-0.2445">
        <ele>1409.8000488281</ele>
        <time>2020-07-19T08:04:49Z</time>
      </trkpt>
      <trkpt lat="42.98096" lon="-0.24454">
        <ele>1409.4000244141</ele>
        <time>2020-07-19T08:04:50Z</time>
      </trkpt>
      <trkpt lat="42.98088" lon="-0.24458">
        <ele>1408.8000488281</ele>
        <time>2020-07-19T08:04:51Z</time>
      </trkpt>
      <trkpt lat="42.9808" lon="-0.24463">
        <ele>1408.1999511719</ele>
        <time>2020-07-19T08:04:52Z</time>
      </trkpt>
      <trkpt lat="42.98072" lon="-0.24468">
        <ele>1407.4000244141</ele>
        <time>2020-07-19T08:04:53Z</time>
      </trkpt>
      <trkpt lat="42.98066" lon="-0.24475">
        <ele>1406.8000488281</ele>
        <time>2020-07-19T08:04:54Z</time>
      </trkpt>
      <trkpt lat="42.98061" lon="-0.24483">
        <ele>1405.4000244141</ele>
        <time>2020-07-19T08:04:55Z</time>
      </trkpt>
      <trkpt lat="42.98058" lon="-0.24493">
        <ele>1405</ele>
        <time>2020-07-19T08:04:56Z</time>
      </trkpt>
      <trkpt lat="42.98058" lon="-0.24503">
        <ele>1404.4000244141</ele>
        <time>2020-07-19T08:04:57Z</time>
      </trkpt>
      <trkpt lat="42.98061" lon="-0.24513">
        <ele>1403.8000488281</ele>
        <time>2020-07-19T08:04:58Z</time>
      </trkpt>
      <trkpt lat="42.98065" lon="-0.24522">
        <ele>1403.4000244141</ele>
        <time>2020-07-19T08:04:59Z</time>
      </trkpt>
      <trkpt lat="42.98067" lon="-0.24532">
        <ele>1402.8000488281</ele>
        <time>2020-07-19T08:05:00Z</time>
      </trkpt>
      <trkpt lat="42.98068" lon="-0.24541">
        <ele>1402.1999511719</ele>
        <time>2020-07-19T08:05:01Z</time>
      </trkpt>
      <trkpt lat="42.98067" lon="-0.24551">
        <ele>1401.8000488281</ele>
        <time>2020-07-19T08:05:02Z</time>
      </trkpt>
      <trkpt lat="42.98064" lon="-0.24559">
        <ele>1401.1999511719</ele>
        <time>2020-07-19T08:05:03Z</time>
      </trkpt>
      <trkpt lat="42.9806" lon="-0.24568">
        <ele>1400.8000488281</ele>
        <time>2020-07-19T08:05:04Z</time>
      </trkpt>
      <trkpt lat="42.98057" lon="-0.24577">
        <ele>1400.1999511719</ele>
        <time>2020-07-19T08:05:05Z</time>
      </trkpt>
      <trkpt lat="42.98053" lon="-0.24587">
        <ele>1399.8000488281</ele>
        <time>2020-07-19T08:05:06Z</time>
      </trkpt>
      <trkpt lat="42.98051" lon="-0.24597">
        <ele>1399.1999511719</ele>
        <time>2020-07-19T08:05:07Z</time>
      </trkpt>
      <trkpt lat="42.98049" lon="-0.24607">
        <ele>1398.8000488281</ele>
        <time>2020-07-19T08:05:08Z</time>
      </trkpt>
      <trkpt lat="42.98048" lon="-0.24617">
        <ele>1398.4000244141</ele>
        <time>2020-07-19T08:05:09Z</time>
      </trkpt>
      <trkpt lat="42.98047" lon="-0.24628">
        <ele>1397.8000488281</ele>
        <time>2020-07-19T08:05:10Z</time>
      </trkpt>
      <trkpt lat="42.98051" lon="-0.24662">
        <ele>1397.4000244141</ele>
        <time>2020-07-19T08:05:13Z</time>
      </trkpt>
      <trkpt lat="42.98054" lon="-0.24672">
        <ele>1397</ele>
        <time>2020-07-19T08:05:14Z</time>
      </trkpt>
      <trkpt lat="42.98055" lon="-0.24681">
        <ele>1396.5999755859</ele>
        <time>2020-07-19T08:05:15Z</time>
      </trkpt>
      <trkpt lat="42.98056" lon="-0.2469">
        <ele>1396</ele>
        <time>2020-07-19T08:05:16Z</time>
      </trkpt>
      <trkpt lat="42.98056" lon="-0.24698">
        <ele>1395.4000244141</ele>
        <time>2020-07-19T08:05:17Z</time>
      </trkpt>
      <trkpt lat="42.98057" lon="-0.24705">
        <ele>1394.8000488281</ele>
        <time>2020-07-19T08:05:18Z</time>
      </trkpt>
      <trkpt lat="42.98059" lon="-0.24709">
        <ele>1394.1999511719</ele>
        <time>2020-07-19T08:05:19Z</time>
      </trkpt>
      <trkpt lat="42.98063" lon="-0.24709">
        <ele>1392.8000488281</ele>
        <time>2020-07-19T08:05:20Z</time>
      </trkpt>
      <trkpt lat="42.98066" lon="-0.24704">
        <ele>1392.1999511719</ele>
        <time>2020-07-19T08:05:21Z</time>
      </trkpt>
      <trkpt lat="42.98068" lon="-0.24698">
        <ele>1391.5999755859</ele>
        <time>2020-07-19T08:05:22Z</time>
      </trkpt>
      <trkpt lat="42.98067" lon="-0.24691">
        <ele>1391</ele>
        <time>2020-07-19T08:05:23Z</time>
      </trkpt>
      <trkpt lat="42.98065" lon="-0.24685">
        <ele>1390.4000244141</ele>
        <time>2020-07-19T08:05:24Z</time>
      </trkpt>
      <trkpt lat="42.98065" lon="-0.24678">
        <ele>1389.8000488281</ele>
        <time>2020-07-19T08:05:25Z</time>
      </trkpt>
      <trkpt lat="42.98065" lon="-0.24669">
        <ele>1389.1999511719</ele>
        <time>2020-07-19T08:05:26Z</time>
      </trkpt>
      <trkpt lat="42.98067" lon="-0.24661">
        <ele>1388.8000488281</ele>
        <time>2020-07-19T08:05:27Z</time>
      </trkpt>
      <trkpt lat="42.98068" lon="-0.24651">
        <ele>1388.1999511719</ele>
        <time>2020-07-19T08:05:28Z</time>
      </trkpt>
      <trkpt lat="42.98068" lon="-0.24643">
        <ele>1387.8000488281</ele>
        <time>2020-07-19T08:05:29Z</time>
      </trkpt>
      <trkpt lat="42.98069" lon="-0.24635">
        <ele>1387</ele>
        <time>2020-07-19T08:05:30Z</time>
      </trkpt>
      <trkpt lat="42.9807" lon="-0.24628">
        <ele>1386.4000244141</ele>
        <time>2020-07-19T08:05:31Z</time>
      </trkpt>
      <trkpt lat="42.98072" lon="-0.24622">
        <ele>1385.8000488281</ele>
        <time>2020-07-19T08:05:32Z</time>
      </trkpt>
      <trkpt lat="42.98074" lon="-0.24616">
        <ele>1385.1999511719</ele>
        <time>2020-07-19T08:05:33Z</time>
      </trkpt>
      <trkpt lat="42.98077" lon="-0.2461">
        <ele>1384.5999755859</ele>
        <time>2020-07-19T08:05:34Z</time>
      </trkpt>
      <trkpt lat="42.9808" lon="-0.24603">
        <ele>1384.1999511719</ele>
        <time>2020-07-19T08:05:35Z</time>
      </trkpt>
      <trkpt lat="42.98083" lon="-0.24596">
        <ele>1383.5999755859</ele>
        <time>2020-07-19T08:05:36Z</time>
      </trkpt>
      <trkpt lat="42.98087" lon="-0.24591">
        <ele>1383.1999511719</ele>
        <time>2020-07-19T08:05:37Z</time>
      </trkpt>
      <trkpt lat="42.98091" lon="-0.24585">
        <ele>1382.5999755859</ele>
        <time>2020-07-19T08:05:38Z</time>
      </trkpt>
      <trkpt lat="42.98096" lon="-0.24579">
        <ele>1382.1999511719</ele>
        <time>2020-07-19T08:05:39Z</time>
      </trkpt>
      <trkpt lat="42.9811" lon="-0.24557">
        <ele>1381.8000488281</ele>
        <time>2020-07-19T08:05:42Z</time>
      </trkpt>
      <trkpt lat="42.98115" lon="-0.24548">
        <ele>1381.4000244141</ele>
        <time>2020-07-19T08:05:43Z</time>
      </trkpt>
      <trkpt lat="42.9812" lon="-0.2454">
        <ele>1381</ele>
        <time>2020-07-19T08:05:44Z</time>
      </trkpt>
      <trkpt lat="42.98125" lon="-0.24532">
        <ele>1380.1999511719</ele>
        <time>2020-07-19T08:05:45Z</time>
      </trkpt>
      <trkpt lat="42.98131" lon="-0.24524">
        <ele>1379.5999755859</ele>
        <time>2020-07-19T08:05:46Z</time>
      </trkpt>
      <trkpt lat="42.98137" lon="-0.24517">
        <ele>1379.1999511719</ele>
        <time>2020-07-19T08:05:47Z</time>
      </trkpt>
      <trkpt lat="42.98145" lon="-0.2451">
        <ele>1378.8000488281</ele>
        <time>2020-07-19T08:05:48Z</time>
      </trkpt>
      <trkpt lat="42.98153" lon="-0.24504">
        <ele>1378.4000244141</ele>
        <time>2020-07-19T08:05:49Z</time>
      </trkpt>
      <trkpt lat="42.98161" lon="-0.24501">
        <ele>1378</ele>
        <time>2020-07-19T08:05:50Z</time>
      </trkpt>
      <trkpt lat="42.98169" lon="-0.24498">
        <ele>1377.4000244141</ele>
        <time>2020-07-19T08:05:51Z</time>
      </trkpt>
      <trkpt lat="42.98177" lon="-0.24494">
        <ele>1376.8000488281</ele>
        <time>2020-07-19T08:05:52Z</time>
      </trkpt>
      <trkpt lat="42.98184" lon="-0.2449">
        <ele>1376.4000244141</ele>
        <time>2020-07-19T08:05:53Z</time>
      </trkpt>
      <trkpt lat="42.98191" lon="-0.24485">
        <ele>1375.8000488281</ele>
        <time>2020-07-19T08:05:54Z</time>
      </trkpt>
      <trkpt lat="42.98198" lon="-0.24481">
        <ele>1375.4000244141</ele>
        <time>2020-07-19T08:05:55Z</time>
      </trkpt>
      <trkpt lat="42.98206" lon="-0.24478">
        <ele>1375</ele>
        <time>2020-07-19T08:05:56Z</time>
      </trkpt>
      <trkpt lat="42.98215" lon="-0.24474">
        <ele>1374.4000244141</ele>
        <time>2020-07-19T08:05:57Z</time>
      </trkpt>
      <trkpt lat="42.98223" lon="-0.24473">
        <ele>1374</ele>
        <time>2020-07-19T08:05:58Z</time>
      </trkpt>
      <trkpt lat="42.98232" lon="-0.24473">
        <ele>1373.5999755859</ele>
        <time>2020-07-19T08:05:59Z</time>
      </trkpt>
      <trkpt lat="42.98241" lon="-0.24475">
        <ele>1373.1999511719</ele>
        <time>2020-07-19T08:06:00Z</time>
      </trkpt>
      <trkpt lat="42.98247" lon="-0.24474">
        <ele>1372.8000488281</ele>
        <time>2020-07-19T08:06:01Z</time>
      </trkpt>
      <trkpt lat="42.98253" lon="-0.24469">
        <ele>1372.4000244141</ele>
        <time>2020-07-19T08:06:02Z</time>
      </trkpt>
      <trkpt lat="42.98259" lon="-0.24461">
        <ele>1371.8000488281</ele>
        <time>2020-07-19T08:06:03Z</time>
      </trkpt>
      <trkpt lat="42.98263" lon="-0.24453">
        <ele>1371.4000244141</ele>
        <time>2020-07-19T08:06:04Z</time>
      </trkpt>
      <trkpt lat="42.98269" lon="-0.24446">
        <ele>1371</ele>
        <time>2020-07-19T08:06:05Z</time>
      </trkpt>
      <trkpt lat="42.98273" lon="-0.24438">
        <ele>1370.5999755859</ele>
        <time>2020-07-19T08:06:06Z</time>
      </trkpt>
      <trkpt lat="42.98277" lon="-0.2443">
        <ele>1370.1999511719</ele>
        <time>2020-07-19T08:06:07Z</time>
      </trkpt>
      <trkpt lat="42.98281" lon="-0.24423">
        <ele>1369.8000488281</ele>
        <time>2020-07-19T08:06:08Z</time>
      </trkpt>
      <trkpt lat="42.98285" lon="-0.24419">
        <ele>1369</ele>
        <time>2020-07-19T08:06:09Z</time>
      </trkpt>
      <trkpt lat="42.98291" lon="-0.24418">
        <ele>1368.5999755859</ele>
        <time>2020-07-19T08:06:10Z</time>
      </trkpt>
      <trkpt lat="42.98296" lon="-0.2442">
        <ele>1368.1999511719</ele>
        <time>2020-07-19T08:06:11Z</time>
      </trkpt>
      <trkpt lat="42.98302" lon="-0.24424">
        <ele>1367.5999755859</ele>
        <time>2020-07-19T08:06:12Z</time>
      </trkpt>
      <trkpt lat="42.98307" lon="-0.24429">
        <ele>1367.1999511719</ele>
        <time>2020-07-19T08:06:13Z</time>
      </trkpt>
      <trkpt lat="42.98311" lon="-0.24435">
        <ele>1367.1999511719</ele>
        <time>2020-07-19T08:06:14Z</time>
      </trkpt>
      <trkpt lat="42.98326" lon="-0.24449">
        <ele>1367.1999511719</ele>
        <time>2020-07-19T08:06:18Z</time>
      </trkpt>
      <trkpt lat="42.98349" lon="-0.24446">
        <ele>1367.1999511719</ele>
        <time>2020-07-19T08:06:22Z</time>
      </trkpt>
      <trkpt lat="42.98374" lon="-0.24452">
        <ele>1366.8000488281</ele>
        <time>2020-07-19T08:06:26Z</time>
      </trkpt>
      <trkpt lat="42.98381" lon="-0.24454">
        <ele>1366.4000244141</ele>
        <time>2020-07-19T08:06:27Z</time>
      </trkpt>
      <trkpt lat="42.98387" lon="-0.24454">
        <ele>1366</ele>
        <time>2020-07-19T08:06:28Z</time>
      </trkpt>
      <trkpt lat="42.98393" lon="-0.24456">
        <ele>1365.5999755859</ele>
        <time>2020-07-19T08:06:29Z</time>
      </trkpt>
      <trkpt lat="42.98399" lon="-0.24458">
        <ele>1365</ele>
        <time>2020-07-19T08:06:30Z</time>
      </trkpt>
      <trkpt lat="42.98404" lon="-0.2446">
        <ele>1365</ele>
        <time>2020-07-19T08:06:31Z</time>
      </trkpt>
      <trkpt lat="42.9841" lon="-0.24463">
        <ele>1365</ele>
        <time>2020-07-19T08:06:32Z</time>
      </trkpt>
      <trkpt lat="42.98434" lon="-0.24475">
        <ele>1364.5999755859</ele>
        <time>2020-07-19T08:06:36Z</time>
      </trkpt>
      <trkpt lat="42.98439" lon="-0.2448">
        <ele>1364.1999511719</ele>
        <time>2020-07-19T08:06:37Z</time>
      </trkpt>
      <trkpt lat="42.98444" lon="-0.24485">
        <ele>1363.8000488281</ele>
        <time>2020-07-19T08:06:38Z</time>
      </trkpt>
      <trkpt lat="42.98449" lon="-0.2449">
        <ele>1363.4000244141</ele>
        <time>2020-07-19T08:06:39Z</time>
      </trkpt>
      <trkpt lat="42.98454" lon="-0.24495">
        <ele>1363</ele>
        <time>2020-07-19T08:06:40Z</time>
      </trkpt>
      <trkpt lat="42.9849" lon="-0.24533">
        <ele>1362.4000244141</ele>
        <time>2020-07-19T08:06:47Z</time>
      </trkpt>
      <trkpt lat="42.98495" lon="-0.2454">
        <ele>1362</ele>
        <time>2020-07-19T08:06:48Z</time>
      </trkpt>
      <trkpt lat="42.98501" lon="-0.24546">
        <ele>1361.5999755859</ele>
        <time>2020-07-19T08:06:49Z</time>
      </trkpt>
      <trkpt lat="42.98506" lon="-0.24554">
        <ele>1361.1999511719</ele>
        <time>2020-07-19T08:06:50Z</time>
      </trkpt>
      <trkpt lat="42.9851" lon="-0.24562">
        <ele>1360.5999755859</ele>
        <time>2020-07-19T08:06:51Z</time>
      </trkpt>
      <trkpt lat="42.98515" lon="-0.2457">
        <ele>1360.1999511719</ele>
        <time>2020-07-19T08:06:52Z</time>
      </trkpt>
      <trkpt lat="42.98521" lon="-0.24579">
        <ele>1359.5999755859</ele>
        <time>2020-07-19T08:06:53Z</time>
      </trkpt>
      <trkpt lat="42.98527" lon="-0.24587">
        <ele>1359.1999511719</ele>
        <time>2020-07-19T08:06:54Z</time>
      </trkpt>
      <trkpt lat="42.98533" lon="-0.24595">
        <ele>1358.5999755859</ele>
        <time>2020-07-19T08:06:55Z</time>
      </trkpt>
      <trkpt lat="42.9854" lon="-0.24601">
        <ele>1358</ele>
        <time>2020-07-19T08:06:56Z</time>
      </trkpt>
      <trkpt lat="42.98549" lon="-0.24605">
        <ele>1357.4000244141</ele>
        <time>2020-07-19T08:06:57Z</time>
      </trkpt>
      <trkpt lat="42.98557" lon="-0.24605">
        <ele>1356.8000488281</ele>
        <time>2020-07-19T08:06:58Z</time>
      </trkpt>
      <trkpt lat="42.98566" lon="-0.24605">
        <ele>1355.1999511719</ele>
        <time>2020-07-19T08:06:59Z</time>
      </trkpt>
      <trkpt lat="42.98575" lon="-0.24604">
        <ele>1354.5999755859</ele>
        <time>2020-07-19T08:07:00Z</time>
      </trkpt>
      <trkpt lat="42.98583" lon="-0.24602">
        <ele>1353.8000488281</ele>
        <time>2020-07-19T08:07:01Z</time>
      </trkpt>
      <trkpt lat="42.98592" lon="-0.246">
        <ele>1353</ele>
        <time>2020-07-19T08:07:02Z</time>
      </trkpt>
      <trkpt lat="42.98601" lon="-0.24598">
        <ele>1352.4000244141</ele>
        <time>2020-07-19T08:07:03Z</time>
      </trkpt>
      <trkpt lat="42.9861" lon="-0.24597">
        <ele>1352</ele>
        <time>2020-07-19T08:07:04Z</time>
      </trkpt>
      <trkpt lat="42.98618" lon="-0.24594">
        <ele>1351.4000244141</ele>
        <time>2020-07-19T08:07:05Z</time>
      </trkpt>
      <trkpt lat="42.98625" lon="-0.24588">
        <ele>1351</ele>
        <time>2020-07-19T08:07:06Z</time>
      </trkpt>
      <trkpt lat="42.98629" lon="-0.2458">
        <ele>1350.4000244141</ele>
        <time>2020-07-19T08:07:07Z</time>
      </trkpt>
      <trkpt lat="42.98632" lon="-0.24572">
        <ele>1350</ele>
        <time>2020-07-19T08:07:08Z</time>
      </trkpt>
      <trkpt lat="42.98634" lon="-0.24562">
        <ele>1349.4000244141</ele>
        <time>2020-07-19T08:07:09Z</time>
      </trkpt>
      <trkpt lat="42.98634" lon="-0.24552">
        <ele>1349</ele>
        <time>2020-07-19T08:07:10Z</time>
      </trkpt>
      <trkpt lat="42.98634" lon="-0.24542">
        <ele>1348.4000244141</ele>
        <time>2020-07-19T08:07:11Z</time>
      </trkpt>
      <trkpt lat="42.98634" lon="-0.24531">
        <ele>1347.8000488281</ele>
        <time>2020-07-19T08:07:12Z</time>
      </trkpt>
      <trkpt lat="42.98633" lon="-0.24521">
        <ele>1347.1999511719</ele>
        <time>2020-07-19T08:07:13Z</time>
      </trkpt>
      <trkpt lat="42.9863" lon="-0.2451">
        <ele>1346.5999755859</ele>
        <time>2020-07-19T08:07:14Z</time>
      </trkpt>
      <trkpt lat="42.98629" lon="-0.245">
        <ele>1346</ele>
        <time>2020-07-19T08:07:15Z</time>
      </trkpt>
      <trkpt lat="42.98627" lon="-0.24479">
        <ele>1345.5999755859</ele>
        <time>2020-07-19T08:07:17Z</time>
      </trkpt>
      <trkpt lat="42.98626" lon="-0.24469">
        <ele>1345.1999511719</ele>
        <time>2020-07-19T08:07:18Z</time>
      </trkpt>
      <trkpt lat="42.98626" lon="-0.24458">
        <ele>1344.5999755859</ele>
        <time>2020-07-19T08:07:19Z</time>
      </trkpt>
      <trkpt lat="42.98625" lon="-0.24448">
        <ele>1344.1999511719</ele>
        <time>2020-07-19T08:07:20Z</time>
      </trkpt>
      <trkpt lat="42.98625" lon="-0.24437">
        <ele>1343.8000488281</ele>
        <time>2020-07-19T08:07:21Z</time>
      </trkpt>
      <trkpt lat="42.98622" lon="-0.24396">
        <ele>1343.4000244141</ele>
        <time>2020-07-19T08:07:25Z</time>
      </trkpt>
      <trkpt lat="42.98622" lon="-0.24386">
        <ele>1343</ele>
        <time>2020-07-19T08:07:26Z</time>
      </trkpt>
      <trkpt lat="42.98622" lon="-0.24378">
        <ele>1342.5999755859</ele>
        <time>2020-07-19T08:07:27Z</time>
      </trkpt>
      <trkpt lat="42.98622" lon="-0.24369">
        <ele>1342.1999511719</ele>
        <time>2020-07-19T08:07:28Z</time>
      </trkpt>
      <trkpt lat="42.98622" lon="-0.24361">
        <ele>1341.5999755859</ele>
        <time>2020-07-19T08:07:29Z</time>
      </trkpt>
      <trkpt lat="42.98621" lon="-0.24348">
        <ele>1341.5999755859</ele>
        <time>2020-07-19T08:07:31Z</time>
      </trkpt>
      <trkpt lat="42.98621" lon="-0.24319">
        <ele>1341.5999755859</ele>
        <time>2020-07-19T08:07:36Z</time>
      </trkpt>
      <trkpt lat="42.98622" lon="-0.24295">
        <ele>1342.1999511719</ele>
        <time>2020-07-19T08:07:41Z</time>
      </trkpt>
      <trkpt lat="42.98622" lon="-0.24291">
        <ele>1342.5999755859</ele>
        <time>2020-07-19T08:07:42Z</time>
      </trkpt>
      <trkpt lat="42.98623" lon="-0.24286">
        <ele>1343</ele>
        <time>2020-07-19T08:07:43Z</time>
      </trkpt>
      <trkpt lat="42.98623" lon="-0.24281">
        <ele>1343.4000244141</ele>
        <time>2020-07-19T08:07:44Z</time>
      </trkpt>
      <trkpt lat="42.98624" lon="-0.24276">
        <ele>1343.8000488281</ele>
        <time>2020-07-19T08:07:45Z</time>
      </trkpt>
      <trkpt lat="42.98624" lon="-0.24263">
        <ele>1343.8000488281</ele>
        <time>2020-07-19T08:07:48Z</time>
      </trkpt>
      <trkpt lat="42.98625" lon="-0.24259">
        <ele>1344.1999511719</ele>
        <time>2020-07-19T08:07:49Z</time>
      </trkpt>
      <trkpt lat="42.98624" lon="-0.24254">
        <ele>1344.8000488281</ele>
        <time>2020-07-19T08:07:50Z</time>
      </trkpt>
      <trkpt lat="42.98624" lon="-0.2425">
        <ele>1345.1999511719</ele>
        <time>2020-07-19T08:07:51Z</time>
      </trkpt>
      <trkpt lat="42.98623" lon="-0.24246">
        <ele>1345.5999755859</ele>
        <time>2020-07-19T08:07:52Z</time>
      </trkpt>
      <trkpt lat="42.98623" lon="-0.24242">
        <ele>1346</ele>
        <time>2020-07-19T08:07:53Z</time>
      </trkpt>
      <trkpt lat="42.98623" lon="-0.24238">
        <ele>1346</ele>
        <time>2020-07-19T08:07:54Z</time>
      </trkpt>
      <trkpt lat="42.98623" lon="-0.24227">
        <ele>1346.4000244141</ele>
        <time>2020-07-19T08:07:57Z</time>
      </trkpt>
      <trkpt lat="42.98623" lon="-0.24223">
        <ele>1346.8000488281</ele>
        <time>2020-07-19T08:07:58Z</time>
      </trkpt>
      <trkpt lat="42.98623" lon="-0.24219">
        <ele>1347.1999511719</ele>
        <time>2020-07-19T08:07:59Z</time>
      </trkpt>
      <trkpt lat="42.98623" lon="-0.24215">
        <ele>1347.5999755859</ele>
        <time>2020-07-19T08:08:00Z</time>
      </trkpt>
      <trkpt lat="42.98623" lon="-0.24211">
        <ele>1348</ele>
        <time>2020-07-19T08:08:01Z</time>
      </trkpt>
      <trkpt lat="42.98626" lon="-0.24193">
        <ele>1348</ele>
        <time>2020-07-19T08:08:05Z</time>
      </trkpt>
      <trkpt lat="42.98628" lon="-0.24181">
        <ele>1348.4000244141</ele>
        <time>2020-07-19T08:08:08Z</time>
      </trkpt>
      <trkpt lat="42.98629" lon="-0.24176">
        <ele>1348.8000488281</ele>
        <time>2020-07-19T08:08:09Z</time>
      </trkpt>
      <trkpt lat="42.9863" lon="-0.24172">
        <ele>1349.4000244141</ele>
        <time>2020-07-19T08:08:10Z</time>
      </trkpt>
      <trkpt lat="42.9863" lon="-0.24168">
        <ele>1349.8000488281</ele>
        <time>2020-07-19T08:08:11Z</time>
      </trkpt>
      <trkpt lat="42.98631" lon="-0.24165">
        <ele>1350.1999511719</ele>
        <time>2020-07-19T08:08:12Z</time>
      </trkpt>
      <trkpt lat="42.98632" lon="-0.24149">
        <ele>1350.5999755859</ele>
        <time>2020-07-19T08:08:16Z</time>
      </trkpt>
      <trkpt lat="42.98632" lon="-0.24146">
        <ele>1351</ele>
        <time>2020-07-19T08:08:17Z</time>
      </trkpt>
      <trkpt lat="42.98632" lon="-0.24142">
        <ele>1351.4000244141</ele>
        <time>2020-07-19T08:08:18Z</time>
      </trkpt>
      <trkpt lat="42.98633" lon="-0.24138">
        <ele>1352</ele>
        <time>2020-07-19T08:08:19Z</time>
      </trkpt>
      <trkpt lat="42.98633" lon="-0.24135">
        <ele>1352.4000244141</ele>
        <time>2020-07-19T08:08:20Z</time>
      </trkpt>
      <trkpt lat="42.98632" lon="-0.24125">
        <ele>1352.4000244141</ele>
        <time>2020-07-19T08:08:23Z</time>
      </trkpt>
      <trkpt lat="42.98632" lon="-0.24118">
        <ele>1352.8000488281</ele>
        <time>2020-07-19T08:08:25Z</time>
      </trkpt>
      <trkpt lat="42.98633" lon="-0.24114">
        <ele>1353.1999511719</ele>
        <time>2020-07-19T08:08:26Z</time>
      </trkpt>
      <trkpt lat="42.98633" lon="-0.24111">
        <ele>1353.5999755859</ele>
        <time>2020-07-19T08:08:27Z</time>
      </trkpt>
      <trkpt lat="42.98633" lon="-0.24107">
        <ele>1354</ele>
        <time>2020-07-19T08:08:28Z</time>
      </trkpt>
      <trkpt lat="42.98634" lon="-0.24103">
        <ele>1354.4000244141</ele>
        <time>2020-07-19T08:08:29Z</time>
      </trkpt>
      <trkpt lat="42.98638" lon="-0.24086">
        <ele>1354.4000244141</ele>
        <time>2020-07-19T08:08:35Z</time>
      </trkpt>
      <trkpt lat="42.98638" lon="-0.24084">
        <ele>1354.8000488281</ele>
        <time>2020-07-19T08:08:36Z</time>
      </trkpt>
      <trkpt lat="42.9864" lon="-0.24081">
        <ele>1355.4000244141</ele>
        <time>2020-07-19T08:08:37Z</time>
      </trkpt>
      <trkpt lat="42.98641" lon="-0.24078">
        <ele>1356.1999511719</ele>
        <time>2020-07-19T08:08:38Z</time>
      </trkpt>
      <trkpt lat="42.98642" lon="-0.24075">
        <ele>1356.5999755859</ele>
        <time>2020-07-19T08:08:39Z</time>
      </trkpt>
      <trkpt lat="42.98643" lon="-0.24069">
        <ele>1356.5999755859</ele>
        <time>2020-07-19T08:08:41Z</time>
      </trkpt>
      <trkpt lat="42.98647" lon="-0.24056">
        <ele>1356.5999755859</ele>
        <time>2020-07-19T08:08:46Z</time>
      </trkpt>
      <trkpt lat="42.9865" lon="-0.24046">
        <ele>1357</ele>
        <time>2020-07-19T08:08:50Z</time>
      </trkpt>
      <trkpt lat="42.98651" lon="-0.24043">
        <ele>1357.4000244141</ele>
        <time>2020-07-19T08:08:51Z</time>
      </trkpt>
      <trkpt lat="42.98652" lon="-0.24042">
        <ele>1357.8000488281</ele>
        <time>2020-07-19T08:08:52Z</time>
      </trkpt>
      <trkpt lat="42.98653" lon="-0.24039">
        <ele>1358.1999511719</ele>
        <time>2020-07-19T08:08:53Z</time>
      </trkpt>
      <trkpt lat="42.98653" lon="-0.24036">
        <ele>1358.5999755859</ele>
        <time>2020-07-19T08:08:54Z</time>
      </trkpt>
      <trkpt lat="42.98658" lon="-0.24017">
        <ele>1358.5999755859</ele>
        <time>2020-07-19T08:09:01Z</time>
      </trkpt>
      <trkpt lat="42.9866" lon="-0.24011">
        <ele>1359</ele>
        <time>2020-07-19T08:09:03Z</time>
      </trkpt>
      <trkpt lat="42.9866" lon="-0.24008">
        <ele>1359.4000244141</ele>
        <time>2020-07-19T08:09:04Z</time>
      </trkpt>
      <trkpt lat="42.9866" lon="-0.24004">
        <ele>1359.8000488281</ele>
        <time>2020-07-19T08:09:05Z</time>
      </trkpt>
      <trkpt lat="42.9866" lon="-0.24001">
        <ele>1360.1999511719</ele>
        <time>2020-07-19T08:09:06Z</time>
      </trkpt>
      <trkpt lat="42.9866" lon="-0.23998">
        <ele>1360.5999755859</ele>
        <time>2020-07-19T08:09:07Z</time>
      </trkpt>
      <trkpt lat="42.98662" lon="-0.23981">
        <ele>1360.5999755859</ele>
        <time>2020-07-19T08:09:12Z</time>
      </trkpt>
      <trkpt lat="42.98662" lon="-0.23959">
        <ele>1360.5999755859</ele>
        <time>2020-07-19T08:09:19Z</time>
      </trkpt>
      <trkpt lat="42.98663" lon="-0.23955">
        <ele>1361</ele>
        <time>2020-07-19T08:09:20Z</time>
      </trkpt>
      <trkpt lat="42.98662" lon="-0.2395">
        <ele>1361.5999755859</ele>
        <time>2020-07-19T08:09:21Z</time>
      </trkpt>
      <trkpt lat="42.98662" lon="-0.23947">
        <ele>1362</ele>
        <time>2020-07-19T08:09:22Z</time>
      </trkpt>
      <trkpt lat="42.98662" lon="-0.23943">
        <ele>1362.4000244141</ele>
        <time>2020-07-19T08:09:23Z</time>
      </trkpt>
      <trkpt lat="42.98662" lon="-0.23939">
        <ele>1362.8000488281</ele>
        <time>2020-07-19T08:09:24Z</time>
      </trkpt>
      <trkpt lat="42.98662" lon="-0.23936">
        <ele>1362.8000488281</ele>
        <time>2020-07-19T08:09:25Z</time>
      </trkpt>
      <trkpt lat="42.98658" lon="-0.23918">
        <ele>1362.8000488281</ele>
        <time>2020-07-19T08:09:30Z</time>
      </trkpt>
      <trkpt lat="42.98649" lon="-0.23895">
        <ele>1362.8000488281</ele>
        <time>2020-07-19T08:09:36Z</time>
      </trkpt>
      <trkpt lat="42.98636" lon="-0.23882">
        <ele>1362.8000488281</ele>
        <time>2020-07-19T08:09:42Z</time>
      </trkpt>
      <trkpt lat="42.9863" lon="-0.23877">
        <ele>1363.1999511719</ele>
        <time>2020-07-19T08:09:45Z</time>
      </trkpt>
      <trkpt lat="42.98628" lon="-0.23874">
        <ele>1363.5999755859</ele>
        <time>2020-07-19T08:09:46Z</time>
      </trkpt>
      <trkpt lat="42.98626" lon="-0.23872">
        <ele>1364</ele>
        <time>2020-07-19T08:09:47Z</time>
      </trkpt>
      <trkpt lat="42.98624" lon="-0.2387">
        <ele>1364.4000244141</ele>
        <time>2020-07-19T08:09:48Z</time>
      </trkpt>
      <trkpt lat="42.98622" lon="-0.23868">
        <ele>1364.8000488281</ele>
        <time>2020-07-19T08:09:49Z</time>
      </trkpt>
      <trkpt lat="42.9862" lon="-0.23866">
        <ele>1364.8000488281</ele>
        <time>2020-07-19T08:09:50Z</time>
      </trkpt>
      <trkpt lat="42.98606" lon="-0.23851">
        <ele>1364.8000488281</ele>
        <time>2020-07-19T08:09:58Z</time>
      </trkpt>
      <trkpt lat="42.98605" lon="-0.23849">
        <ele>1365.1999511719</ele>
        <time>2020-07-19T08:09:59Z</time>
      </trkpt>
      <trkpt lat="42.98602" lon="-0.23847">
        <ele>1365.8000488281</ele>
        <time>2020-07-19T08:10:00Z</time>
      </trkpt>
      <trkpt lat="42.986" lon="-0.23844">
        <ele>1366.1999511719</ele>
        <time>2020-07-19T08:10:01Z</time>
      </trkpt>
      <trkpt lat="42.98598" lon="-0.23841">
        <ele>1366.5999755859</ele>
        <time>2020-07-19T08:10:02Z</time>
      </trkpt>
      <trkpt lat="42.98596" lon="-0.23837">
        <ele>1367</ele>
        <time>2020-07-19T08:10:03Z</time>
      </trkpt>
      <trkpt lat="42.98593" lon="-0.23831">
        <ele>1367</ele>
        <time>2020-07-19T08:10:05Z</time>
      </trkpt>
      <trkpt lat="42.98582" lon="-0.23804">
        <ele>1367</ele>
        <time>2020-07-19T08:10:13Z</time>
      </trkpt>
      <trkpt lat="42.98577" lon="-0.23782">
        <ele>1367.4000244141</ele>
        <time>2020-07-19T08:10:19Z</time>
      </trkpt>
      <trkpt lat="42.98577" lon="-0.23778">
        <ele>1367.8000488281</ele>
        <time>2020-07-19T08:10:20Z</time>
      </trkpt>
      <trkpt lat="42.98576" lon="-0.23775">
        <ele>1368.1999511719</ele>
        <time>2020-07-19T08:10:21Z</time>
      </trkpt>
      <trkpt lat="42.98575" lon="-0.23772">
        <ele>1368.5999755859</ele>
        <time>2020-07-19T08:10:22Z</time>
      </trkpt>
      <trkpt lat="42.98574" lon="-0.23769">
        <ele>1369.1999511719</ele>
        <time>2020-07-19T08:10:23Z</time>
      </trkpt>
      <trkpt lat="42.98573" lon="-0.23763">
        <ele>1369.1999511719</ele>
        <time>2020-07-19T08:10:25Z</time>
      </trkpt>
      <trkpt lat="42.98566" lon="-0.23742">
        <ele>1369.1999511719</ele>
        <time>2020-07-19T08:10:31Z</time>
      </trkpt>
      <trkpt lat="42.98564" lon="-0.23735">
        <ele>1369.5999755859</ele>
        <time>2020-07-19T08:10:33Z</time>
      </trkpt>
      <trkpt lat="42.98563" lon="-0.23731">
        <ele>1370</ele>
        <time>2020-07-19T08:10:34Z</time>
      </trkpt>
      <trkpt lat="42.98563" lon="-0.23728">
        <ele>1370.8000488281</ele>
        <time>2020-07-19T08:10:35Z</time>
      </trkpt>
      <trkpt lat="42.98562" lon="-0.23724">
        <ele>1371.1999511719</ele>
        <time>2020-07-19T08:10:36Z</time>
      </trkpt>
      <trkpt lat="42.98559" lon="-0.23704">
        <ele>1371.1999511719</ele>
        <time>2020-07-19T08:10:42Z</time>
      </trkpt>
      <trkpt lat="42.98558" lon="-0.23698">
        <ele>1371.5999755859</ele>
        <time>2020-07-19T08:10:44Z</time>
      </trkpt>
      <trkpt lat="42.98558" lon="-0.23694">
        <ele>1372</ele>
        <time>2020-07-19T08:10:45Z</time>
      </trkpt>
      <trkpt lat="42.98557" lon="-0.23691">
        <ele>1372.4000244141</ele>
        <time>2020-07-19T08:10:46Z</time>
      </trkpt>
      <trkpt lat="42.98557" lon="-0.23688">
        <ele>1373</ele>
        <time>2020-07-19T08:10:47Z</time>
      </trkpt>
      <trkpt lat="42.98556" lon="-0.23685">
        <ele>1373.4000244141</ele>
        <time>2020-07-19T08:10:48Z</time>
      </trkpt>
      <trkpt lat="42.98556" lon="-0.23676">
        <ele>1373.8000488281</ele>
        <time>2020-07-19T08:10:51Z</time>
      </trkpt>
      <trkpt lat="42.98556" lon="-0.23673">
        <ele>1374.1999511719</ele>
        <time>2020-07-19T08:10:52Z</time>
      </trkpt>
      <trkpt lat="42.98556" lon="-0.23671">
        <ele>1374.5999755859</ele>
        <time>2020-07-19T08:10:53Z</time>
      </trkpt>
      <trkpt lat="42.98556" lon="-0.23669">
        <ele>1375</ele>
        <time>2020-07-19T08:10:54Z</time>
      </trkpt>
      <trkpt lat="42.98556" lon="-0.23665">
        <ele>1375.4000244141</ele>
        <time>2020-07-19T08:10:55Z</time>
      </trkpt>
      <trkpt lat="42.98556" lon="-0.23655">
        <ele>1375.4000244141</ele>
        <time>2020-07-19T08:10:58Z</time>
      </trkpt>
      <trkpt lat="42.98556" lon="-0.23651">
        <ele>1375.8000488281</ele>
        <time>2020-07-19T08:10:59Z</time>
      </trkpt>
      <trkpt lat="42.98557" lon="-0.23647">
        <ele>1376.1999511719</ele>
        <time>2020-07-19T08:11:00Z</time>
      </trkpt>
      <trkpt lat="42.98557" lon="-0.23644">
        <ele>1376.8000488281</ele>
        <time>2020-07-19T08:11:01Z</time>
      </trkpt>
      <trkpt lat="42.98556" lon="-0.23641">
        <ele>1377.1999511719</ele>
        <time>2020-07-19T08:11:02Z</time>
      </trkpt>
      <trkpt lat="42.98556" lon="-0.23637">
        <ele>1377.5999755859</ele>
        <time>2020-07-19T08:11:03Z</time>
      </trkpt>
      <trkpt lat="42.98555" lon="-0.23635">
        <ele>1377.5999755859</ele>
        <time>2020-07-19T08:11:04Z</time>
      </trkpt>
      <trkpt lat="42.98552" lon="-0.23618">
        <ele>1377.5999755859</ele>
        <time>2020-07-19T08:11:09Z</time>
      </trkpt>
      <trkpt lat="42.9855" lon="-0.23605">
        <ele>1378</ele>
        <time>2020-07-19T08:11:13Z</time>
      </trkpt>
      <trkpt lat="42.9855" lon="-0.23602">
        <ele>1378.4000244141</ele>
        <time>2020-07-19T08:11:14Z</time>
      </trkpt>
      <trkpt lat="42.98549" lon="-0.23599">
        <ele>1378.8000488281</ele>
        <time>2020-07-19T08:11:15Z</time>
      </trkpt>
      <trkpt lat="42.98549" lon="-0.23596">
        <ele>1379.4000244141</ele>
        <time>2020-07-19T08:11:16Z</time>
      </trkpt>
      <trkpt lat="42.98549" lon="-0.23593">
        <ele>1379.8000488281</ele>
        <time>2020-07-19T08:11:17Z</time>
      </trkpt>
      <trkpt lat="42.9855" lon="-0.23578">
        <ele>1379.8000488281</ele>
        <time>2020-07-19T08:11:22Z</time>
      </trkpt>
      <trkpt lat="42.9855" lon="-0.23573">
        <ele>1380.5999755859</ele>
        <time>2020-07-19T08:11:24Z</time>
      </trkpt>
      <trkpt lat="42.98551" lon="-0.2357">
        <ele>1381</ele>
        <time>2020-07-19T08:11:25Z</time>
      </trkpt>
      <trkpt lat="42.98551" lon="-0.23568">
        <ele>1381.5999755859</ele>
        <time>2020-07-19T08:11:26Z</time>
      </trkpt>
      <trkpt lat="42.98551" lon="-0.23565">
        <ele>1382</ele>
        <time>2020-07-19T08:11:27Z</time>
      </trkpt>
      <trkpt lat="42.98552" lon="-0.2356">
        <ele>1382</ele>
        <time>2020-07-19T08:11:29Z</time>
      </trkpt>
      <trkpt lat="42.98551" lon="-0.23543">
        <ele>1382</ele>
        <time>2020-07-19T08:11:35Z</time>
      </trkpt>
      <trkpt lat="42.9855" lon="-0.23536">
        <ele>1382.4000244141</ele>
        <time>2020-07-19T08:11:37Z</time>
      </trkpt>
      <trkpt lat="42.9855" lon="-0.23534">
        <ele>1382.8000488281</ele>
        <time>2020-07-19T08:11:38Z</time>
      </trkpt>
      <trkpt lat="42.9855" lon="-0.2353">
        <ele>1383.1999511719</ele>
        <time>2020-07-19T08:11:39Z</time>
      </trkpt>
      <trkpt lat="42.9855" lon="-0.23527">
        <ele>1383.5999755859</ele>
        <time>2020-07-19T08:11:40Z</time>
      </trkpt>
      <trkpt lat="42.98551" lon="-0.23523">
        <ele>1384</ele>
        <time>2020-07-19T08:11:41Z</time>
      </trkpt>
      <trkpt lat="42.98557" lon="-0.23508">
        <ele>1384</ele>
        <time>2020-07-19T08:11:46Z</time>
      </trkpt>
      <trkpt lat="42.98566" lon="-0.23495">
        <ele>1384</ele>
        <time>2020-07-19T08:11:52Z</time>
      </trkpt>
      <trkpt lat="42.98568" lon="-0.23489">
        <ele>1384.4000244141</ele>
        <time>2020-07-19T08:11:55Z</time>
      </trkpt>
      <trkpt lat="42.98569" lon="-0.23486">
        <ele>1384.8000488281</ele>
        <time>2020-07-19T08:11:56Z</time>
      </trkpt>
      <trkpt lat="42.98569" lon="-0.23483">
        <ele>1385.4000244141</ele>
        <time>2020-07-19T08:11:57Z</time>
      </trkpt>
      <trkpt lat="42.98569" lon="-0.2348">
        <ele>1385.8000488281</ele>
        <time>2020-07-19T08:11:58Z</time>
      </trkpt>
      <trkpt lat="42.9857" lon="-0.23477">
        <ele>1386.1999511719</ele>
        <time>2020-07-19T08:11:59Z</time>
      </trkpt>
      <trkpt lat="42.98575" lon="-0.23459">
        <ele>1386.1999511719</ele>
        <time>2020-07-19T08:12:05Z</time>
      </trkpt>
      <trkpt lat="42.98577" lon="-0.23456">
        <ele>1386.5999755859</ele>
        <time>2020-07-19T08:12:06Z</time>
      </trkpt>
      <trkpt lat="42.98578" lon="-0.23453">
        <ele>1387</ele>
        <time>2020-07-19T08:12:07Z</time>
      </trkpt>
      <trkpt lat="42.98578" lon="-0.2345">
        <ele>1387.4000244141</ele>
        <time>2020-07-19T08:12:08Z</time>
      </trkpt>
      <trkpt lat="42.98579" lon="-0.23446">
        <ele>1387.8000488281</ele>
        <time>2020-07-19T08:12:09Z</time>
      </trkpt>
      <trkpt lat="42.9858" lon="-0.23443">
        <ele>1388.1999511719</ele>
        <time>2020-07-19T08:12:10Z</time>
      </trkpt>
      <trkpt lat="42.98582" lon="-0.23435">
        <ele>1388.1999511719</ele>
        <time>2020-07-19T08:12:13Z</time>
      </trkpt>
      <trkpt lat="42.98585" lon="-0.23419">
        <ele>1388.5999755859</ele>
        <time>2020-07-19T08:12:18Z</time>
      </trkpt>
      <trkpt lat="42.98585" lon="-0.23416">
        <ele>1389</ele>
        <time>2020-07-19T08:12:19Z</time>
      </trkpt>
      <trkpt lat="42.98586" lon="-0.23413">
        <ele>1389.4000244141</ele>
        <time>2020-07-19T08:12:20Z</time>
      </trkpt>
      <trkpt lat="42.98586" lon="-0.2341">
        <ele>1389.8000488281</ele>
        <time>2020-07-19T08:12:21Z</time>
      </trkpt>
      <trkpt lat="42.98586" lon="-0.23407">
        <ele>1390.1999511719</ele>
        <time>2020-07-19T08:12:22Z</time>
      </trkpt>
      <trkpt lat="42.98586" lon="-0.23393">
        <ele>1390.1999511719</ele>
        <time>2020-07-19T08:12:27Z</time>
      </trkpt>
      <trkpt lat="42.98586" lon="-0.23384">
        <ele>1390.8000488281</ele>
        <time>2020-07-19T08:12:30Z</time>
      </trkpt>
      <trkpt lat="42.98587" lon="-0.23381">
        <ele>1391.1999511719</ele>
        <time>2020-07-19T08:12:31Z</time>
      </trkpt>
      <trkpt lat="42.98587" lon="-0.23378">
        <ele>1391.5999755859</ele>
        <time>2020-07-19T08:12:32Z</time>
      </trkpt>
      <trkpt lat="42.98587" lon="-0.23375">
        <ele>1392.1999511719</ele>
        <time>2020-07-19T08:12:33Z</time>
      </trkpt>
      <trkpt lat="42.98587" lon="-0.23373">
        <ele>1392.5999755859</ele>
        <time>2020-07-19T08:12:34Z</time>
      </trkpt>
      <trkpt lat="42.98587" lon="-0.23355">
        <ele>1392.5999755859</ele>
        <time>2020-07-19T08:12:40Z</time>
      </trkpt>
      <trkpt lat="42.98585" lon="-0.23348">
        <ele>1393</ele>
        <time>2020-07-19T08:12:42Z</time>
      </trkpt>
      <trkpt lat="42.98584" lon="-0.23345">
        <ele>1393.4000244141</ele>
        <time>2020-07-19T08:12:43Z</time>
      </trkpt>
      <trkpt lat="42.98583" lon="-0.23342">
        <ele>1393.8000488281</ele>
        <time>2020-07-19T08:12:44Z</time>
      </trkpt>
      <trkpt lat="42.98582" lon="-0.23339">
        <ele>1394.1999511719</ele>
        <time>2020-07-19T08:12:45Z</time>
      </trkpt>
      <trkpt lat="42.98581" lon="-0.23336">
        <ele>1394.5999755859</ele>
        <time>2020-07-19T08:12:46Z</time>
      </trkpt>
      <trkpt lat="42.98577" lon="-0.23331">
        <ele>1394.5999755859</ele>
        <time>2020-07-19T08:12:48Z</time>
      </trkpt>
      <trkpt lat="42.98569" lon="-0.23312">
        <ele>1394.5999755859</ele>
        <time>2020-07-19T08:12:54Z</time>
      </trkpt>
      <trkpt lat="42.98568" lon="-0.23288">
        <ele>1394.5999755859</ele>
        <time>2020-07-19T08:13:00Z</time>
      </trkpt>
      <trkpt lat="42.98571" lon="-0.23261">
        <ele>1394.5999755859</ele>
        <time>2020-07-19T08:13:05Z</time>
      </trkpt>
      <trkpt lat="42.98576" lon="-0.23222">
        <ele>1394.5999755859</ele>
        <time>2020-07-19T08:13:11Z</time>
      </trkpt>
      <trkpt lat="42.9858" lon="-0.23189">
        <ele>1394.5999755859</ele>
        <time>2020-07-19T08:13:17Z</time>
      </trkpt>
      <trkpt lat="42.98582" lon="-0.23161">
        <ele>1394.5999755859</ele>
        <time>2020-07-19T08:13:24Z</time>
      </trkpt>
      <trkpt lat="42.98582" lon="-0.23155">
        <ele>1395</ele>
        <time>2020-07-19T08:13:26Z</time>
      </trkpt>
      <trkpt lat="42.98581" lon="-0.23151">
        <ele>1395.4000244141</ele>
        <time>2020-07-19T08:13:27Z</time>
      </trkpt>
      <trkpt lat="42.98581" lon="-0.23147">
        <ele>1396.4000244141</ele>
        <time>2020-07-19T08:13:28Z</time>
      </trkpt>
      <trkpt lat="42.98581" lon="-0.23144">
        <ele>1396.8000488281</ele>
        <time>2020-07-19T08:13:29Z</time>
      </trkpt>
      <trkpt lat="42.98581" lon="-0.2314">
        <ele>1396.8000488281</ele>
        <time>2020-07-19T08:13:30Z</time>
      </trkpt>
      <trkpt lat="42.9858" lon="-0.2312">
        <ele>1397.1999511719</ele>
        <time>2020-07-19T08:13:36Z</time>
      </trkpt>
      <trkpt lat="42.9858" lon="-0.23117">
        <ele>1397.5999755859</ele>
        <time>2020-07-19T08:13:37Z</time>
      </trkpt>
      <trkpt lat="42.9858" lon="-0.23115">
        <ele>1398</ele>
        <time>2020-07-19T08:13:38Z</time>
      </trkpt>
      <trkpt lat="42.9858" lon="-0.23112">
        <ele>1398.4000244141</ele>
        <time>2020-07-19T08:13:39Z</time>
      </trkpt>
      <trkpt lat="42.98579" lon="-0.23109">
        <ele>1398.8000488281</ele>
        <time>2020-07-19T08:13:40Z</time>
      </trkpt>
      <trkpt lat="42.98578" lon="-0.23097">
        <ele>1398.8000488281</ele>
        <time>2020-07-19T08:13:44Z</time>
      </trkpt>
      <trkpt lat="42.98577" lon="-0.23091">
        <ele>1399.1999511719</ele>
        <time>2020-07-19T08:13:46Z</time>
      </trkpt>
      <trkpt lat="42.98577" lon="-0.23089">
        <ele>1399.5999755859</ele>
        <time>2020-07-19T08:13:47Z</time>
      </trkpt>
      <trkpt lat="42.98576" lon="-0.23087">
        <ele>1400</ele>
        <time>2020-07-19T08:13:48Z</time>
      </trkpt>
      <trkpt lat="42.98575" lon="-0.23084">
        <ele>1400.4000244141</ele>
        <time>2020-07-19T08:13:49Z</time>
      </trkpt>
      <trkpt lat="42.98575" lon="-0.23081">
        <ele>1400.8000488281</ele>
        <time>2020-07-19T08:13:50Z</time>
      </trkpt>
      <trkpt lat="42.9857" lon="-0.2306">
        <ele>1401.1999511719</ele>
        <time>2020-07-19T08:13:57Z</time>
      </trkpt>
      <trkpt lat="42.98568" lon="-0.23057">
        <ele>1401.8000488281</ele>
        <time>2020-07-19T08:13:58Z</time>
      </trkpt>
      <trkpt lat="42.98567" lon="-0.23055">
        <ele>1402.1999511719</ele>
        <time>2020-07-19T08:13:59Z</time>
      </trkpt>
      <trkpt lat="42.98566" lon="-0.23052">
        <ele>1402.5999755859</ele>
        <time>2020-07-19T08:14:00Z</time>
      </trkpt>
      <trkpt lat="42.98566" lon="-0.23049">
        <ele>1403</ele>
        <time>2020-07-19T08:14:01Z</time>
      </trkpt>
      <trkpt lat="42.98564" lon="-0.23043">
        <ele>1403</ele>
        <time>2020-07-19T08:14:03Z</time>
      </trkpt>
      <trkpt lat="42.98559" lon="-0.23028">
        <ele>1403</ele>
        <time>2020-07-19T08:14:09Z</time>
      </trkpt>
      <trkpt lat="42.98557" lon="-0.23025">
        <ele>1403.4000244141</ele>
        <time>2020-07-19T08:14:10Z</time>
      </trkpt>
      <trkpt lat="42.98555" lon="-0.23022">
        <ele>1403.8000488281</ele>
        <time>2020-07-19T08:14:11Z</time>
      </trkpt>
      <trkpt lat="42.98554" lon="-0.23019">
        <ele>1404.1999511719</ele>
        <time>2020-07-19T08:14:12Z</time>
      </trkpt>
      <trkpt lat="42.98552" lon="-0.23017">
        <ele>1404.5999755859</ele>
        <time>2020-07-19T08:14:13Z</time>
      </trkpt>
      <trkpt lat="42.9855" lon="-0.23015">
        <ele>1405.1999511719</ele>
        <time>2020-07-19T08:14:14Z</time>
      </trkpt>
      <trkpt lat="42.98546" lon="-0.23011">
        <ele>1405.1999511719</ele>
        <time>2020-07-19T08:14:16Z</time>
      </trkpt>
      <trkpt lat="42.98537" lon="-0.23001">
        <ele>1405.1999511719</ele>
        <time>2020-07-19T08:14:22Z</time>
      </trkpt>
      <trkpt lat="42.98535" lon="-0.22996">
        <ele>1405.5999755859</ele>
        <time>2020-07-19T08:14:24Z</time>
      </trkpt>
      <trkpt lat="42.98533" lon="-0.22994">
        <ele>1406</ele>
        <time>2020-07-19T08:14:25Z</time>
      </trkpt>
      <trkpt lat="42.98532" lon="-0.22992">
        <ele>1406.4000244141</ele>
        <time>2020-07-19T08:14:26Z</time>
      </trkpt>
      <trkpt lat="42.98532" lon="-0.2299">
        <ele>1406.8000488281</ele>
        <time>2020-07-19T08:14:27Z</time>
      </trkpt>
      <trkpt lat="42.98531" lon="-0.22988">
        <ele>1407.1999511719</ele>
        <time>2020-07-19T08:14:28Z</time>
      </trkpt>
      <trkpt lat="42.9853" lon="-0.22985">
        <ele>1407.1999511719</ele>
        <time>2020-07-19T08:14:29Z</time>
      </trkpt>
      <trkpt lat="42.98526" lon="-0.22973">
        <ele>1407.5999755859</ele>
        <time>2020-07-19T08:14:34Z</time>
      </trkpt>
      <trkpt lat="42.98525" lon="-0.2297">
        <ele>1408</ele>
        <time>2020-07-19T08:14:35Z</time>
      </trkpt>
      <trkpt lat="42.98525" lon="-0.22967">
        <ele>1408.5999755859</ele>
        <time>2020-07-19T08:14:36Z</time>
      </trkpt>
      <trkpt lat="42.98524" lon="-0.22964">
        <ele>1409</ele>
        <time>2020-07-19T08:14:37Z</time>
      </trkpt>
      <trkpt lat="42.98524" lon="-0.22962">
        <ele>1409.4000244141</ele>
        <time>2020-07-19T08:14:38Z</time>
      </trkpt>
      <trkpt lat="42.98521" lon="-0.2295">
        <ele>1409.4000244141</ele>
        <time>2020-07-19T08:14:43Z</time>
      </trkpt>
      <trkpt lat="42.98521" lon="-0.22947">
        <ele>1409.8000488281</ele>
        <time>2020-07-19T08:14:44Z</time>
      </trkpt>
      <trkpt lat="42.9852" lon="-0.22944">
        <ele>1410.1999511719</ele>
        <time>2020-07-19T08:14:45Z</time>
      </trkpt>
      <trkpt lat="42.98519" lon="-0.22942">
        <ele>1410.5999755859</ele>
        <time>2020-07-19T08:14:46Z</time>
      </trkpt>
      <trkpt lat="42.98519" lon="-0.22939">
        <ele>1411.1999511719</ele>
        <time>2020-07-19T08:14:47Z</time>
      </trkpt>
      <trkpt lat="42.98519" lon="-0.22936">
        <ele>1411.5999755859</ele>
        <time>2020-07-19T08:14:48Z</time>
      </trkpt>
      <trkpt lat="42.98519" lon="-0.22934">
        <ele>1411.5999755859</ele>
        <time>2020-07-19T08:14:49Z</time>
      </trkpt>
      <trkpt lat="42.98522" lon="-0.22918">
        <ele>1411.5999755859</ele>
        <time>2020-07-19T08:14:55Z</time>
      </trkpt>
      <trkpt lat="42.98525" lon="-0.229">
        <ele>1412</ele>
        <time>2020-07-19T08:15:01Z</time>
      </trkpt>
      <trkpt lat="42.98526" lon="-0.22898">
        <ele>1412.4000244141</ele>
        <time>2020-07-19T08:15:02Z</time>
      </trkpt>
      <trkpt lat="42.98526" lon="-0.22895">
        <ele>1412.8000488281</ele>
        <time>2020-07-19T08:15:03Z</time>
      </trkpt>
      <trkpt lat="42.98527" lon="-0.22892">
        <ele>1413.1999511719</ele>
        <time>2020-07-19T08:15:04Z</time>
      </trkpt>
      <trkpt lat="42.98528" lon="-0.2289">
        <ele>1413.5999755859</ele>
        <time>2020-07-19T08:15:05Z</time>
      </trkpt>
      <trkpt lat="42.98534" lon="-0.2288">
        <ele>1413.5999755859</ele>
        <time>2020-07-19T08:15:09Z</time>
      </trkpt>
      <trkpt lat="42.9855" lon="-0.22863">
        <ele>1413.5999755859</ele>
        <time>2020-07-19T08:15:16Z</time>
      </trkpt>
      <trkpt lat="42.98573" lon="-0.22845">
        <ele>1413.5999755859</ele>
        <time>2020-07-19T08:15:24Z</time>
      </trkpt>
      <trkpt lat="42.98582" lon="-0.2284">
        <ele>1414</ele>
        <time>2020-07-19T08:15:27Z</time>
      </trkpt>
      <trkpt lat="42.98585" lon="-0.22838">
        <ele>1414.4000244141</ele>
        <time>2020-07-19T08:15:28Z</time>
      </trkpt>
      <trkpt lat="42.98588" lon="-0.22837">
        <ele>1414.8000488281</ele>
        <time>2020-07-19T08:15:29Z</time>
      </trkpt>
      <trkpt lat="42.98592" lon="-0.22836">
        <ele>1415.1999511719</ele>
        <time>2020-07-19T08:15:30Z</time>
      </trkpt>
      <trkpt lat="42.98594" lon="-0.22835">
        <ele>1415.5999755859</ele>
        <time>2020-07-19T08:15:31Z</time>
      </trkpt>
      <trkpt lat="42.98612" lon="-0.22829">
        <ele>1415.5999755859</ele>
        <time>2020-07-19T08:15:37Z</time>
      </trkpt>
      <trkpt lat="42.98627" lon="-0.22824">
        <ele>1415.5999755859</ele>
        <time>2020-07-19T08:15:43Z</time>
      </trkpt>
      <trkpt lat="42.98641" lon="-0.22824">
        <ele>1416</ele>
        <time>2020-07-19T08:15:48Z</time>
      </trkpt>
      <trkpt lat="42.98644" lon="-0.22825">
        <ele>1416.4000244141</ele>
        <time>2020-07-19T08:15:49Z</time>
      </trkpt>
      <trkpt lat="42.98646" lon="-0.22825">
        <ele>1416.8000488281</ele>
        <time>2020-07-19T08:15:50Z</time>
      </trkpt>
      <trkpt lat="42.98649" lon="-0.22825">
        <ele>1417.4000244141</ele>
        <time>2020-07-19T08:15:51Z</time>
      </trkpt>
      <trkpt lat="42.98652" lon="-0.22825">
        <ele>1417.8000488281</ele>
        <time>2020-07-19T08:15:52Z</time>
      </trkpt>
      <trkpt lat="42.98668" lon="-0.22824">
        <ele>1417.8000488281</ele>
        <time>2020-07-19T08:15:58Z</time>
      </trkpt>
      <trkpt lat="42.98689" lon="-0.22817">
        <ele>1417.8000488281</ele>
        <time>2020-07-19T08:16:05Z</time>
      </trkpt>
      <trkpt lat="42.987" lon="-0.22801">
        <ele>1417.8000488281</ele>
        <time>2020-07-19T08:16:10Z</time>
      </trkpt>
      <trkpt lat="42.98707" lon="-0.22779">
        <ele>1417.8000488281</ele>
        <time>2020-07-19T08:16:15Z</time>
      </trkpt>
      <trkpt lat="42.9872" lon="-0.22767">
        <ele>1417.8000488281</ele>
        <time>2020-07-19T08:16:19Z</time>
      </trkpt>
      <trkpt lat="42.98736" lon="-0.22756">
        <ele>1417.8000488281</ele>
        <time>2020-07-19T08:16:23Z</time>
      </trkpt>
      <trkpt lat="42.98745" lon="-0.22754">
        <ele>1417.8000488281</ele>
        <time>2020-07-19T08:16:25Z</time>
      </trkpt>
      <trkpt lat="42.98765" lon="-0.22749">
        <ele>1417.8000488281</ele>
        <time>2020-07-19T08:16:30Z</time>
      </trkpt>
      <trkpt lat="42.9877" lon="-0.22747">
        <ele>1417.8000488281</ele>
        <time>2020-07-19T08:16:31Z</time>
      </trkpt>
      <trkpt lat="42.9879" lon="-0.22738">
        <ele>1417.8000488281</ele>
        <time>2020-07-19T08:16:36Z</time>
      </trkpt>
      <trkpt lat="42.98794" lon="-0.22736">
        <ele>1417.8000488281</ele>
        <time>2020-07-19T08:16:37Z</time>
      </trkpt>
      <trkpt lat="42.9882" lon="-0.2272">
        <ele>1417.8000488281</ele>
        <time>2020-07-19T08:16:43Z</time>
      </trkpt>
      <trkpt lat="42.98829" lon="-0.22717">
        <ele>1417.8000488281</ele>
        <time>2020-07-19T08:16:45Z</time>
      </trkpt>
      <trkpt lat="42.98845" lon="-0.22707">
        <ele>1417.8000488281</ele>
        <time>2020-07-19T08:16:49Z</time>
      </trkpt>
      <trkpt lat="42.98849" lon="-0.22705">
        <ele>1417.8000488281</ele>
        <time>2020-07-19T08:16:50Z</time>
      </trkpt>
      <trkpt lat="42.98858" lon="-0.22702">
        <ele>1417.8000488281</ele>
        <time>2020-07-19T08:16:52Z</time>
      </trkpt>
      <trkpt lat="42.98872" lon="-0.22698">
        <ele>1417.8000488281</ele>
        <time>2020-07-19T08:16:55Z</time>
      </trkpt>
      <trkpt lat="42.98913" lon="-0.22683">
        <ele>1417.8000488281</ele>
        <time>2020-07-19T08:17:03Z</time>
      </trkpt>
      <trkpt lat="42.98928" lon="-0.22676">
        <ele>1417.4000244141</ele>
        <time>2020-07-19T08:17:06Z</time>
      </trkpt>
      <trkpt lat="42.98933" lon="-0.22674">
        <ele>1417</ele>
        <time>2020-07-19T08:17:07Z</time>
      </trkpt>
      <trkpt lat="42.98938" lon="-0.22673">
        <ele>1416.5999755859</ele>
        <time>2020-07-19T08:17:08Z</time>
      </trkpt>
      <trkpt lat="42.98942" lon="-0.22672">
        <ele>1416.1999511719</ele>
        <time>2020-07-19T08:17:09Z</time>
      </trkpt>
      <trkpt lat="42.98947" lon="-0.22672">
        <ele>1415.8000488281</ele>
        <time>2020-07-19T08:17:10Z</time>
      </trkpt>
      <trkpt lat="42.98952" lon="-0.22673">
        <ele>1415.8000488281</ele>
        <time>2020-07-19T08:17:11Z</time>
      </trkpt>
      <trkpt lat="42.98967" lon="-0.22676">
        <ele>1415.8000488281</ele>
        <time>2020-07-19T08:17:14Z</time>
      </trkpt>
      <trkpt lat="42.98973" lon="-0.22678">
        <ele>1415.8000488281</ele>
        <time>2020-07-19T08:17:15Z</time>
      </trkpt>
      <trkpt lat="42.98995" lon="-0.22692">
        <ele>1415.8000488281</ele>
        <time>2020-07-19T08:17:19Z</time>
      </trkpt>
      <trkpt lat="42.99005" lon="-0.227">
        <ele>1415.1999511719</ele>
        <time>2020-07-19T08:17:21Z</time>
      </trkpt>
      <trkpt lat="42.9901" lon="-0.22704">
        <ele>1414.8000488281</ele>
        <time>2020-07-19T08:17:22Z</time>
      </trkpt>
      <trkpt lat="42.99016" lon="-0.22707">
        <ele>1414.4000244141</ele>
        <time>2020-07-19T08:17:23Z</time>
      </trkpt>
      <trkpt lat="42.99022" lon="-0.2271">
        <ele>1414</ele>
        <time>2020-07-19T08:17:24Z</time>
      </trkpt>
      <trkpt lat="42.99027" lon="-0.22712">
        <ele>1413.4000244141</ele>
        <time>2020-07-19T08:17:25Z</time>
      </trkpt>
      <trkpt lat="42.9904" lon="-0.22716">
        <ele>1413.4000244141</ele>
        <time>2020-07-19T08:17:27Z</time>
      </trkpt>
      <trkpt lat="42.99046" lon="-0.22717">
        <ele>1413</ele>
        <time>2020-07-19T08:17:28Z</time>
      </trkpt>
      <trkpt lat="42.99053" lon="-0.22716">
        <ele>1412.5999755859</ele>
        <time>2020-07-19T08:17:29Z</time>
      </trkpt>
      <trkpt lat="42.99059" lon="-0.22714">
        <ele>1412</ele>
        <time>2020-07-19T08:17:30Z</time>
      </trkpt>
      <trkpt lat="42.99065" lon="-0.22712">
        <ele>1411.5999755859</ele>
        <time>2020-07-19T08:17:31Z</time>
      </trkpt>
      <trkpt lat="42.99071" lon="-0.22708">
        <ele>1411.1999511719</ele>
        <time>2020-07-19T08:17:32Z</time>
      </trkpt>
      <trkpt lat="42.99076" lon="-0.22704">
        <ele>1411.1999511719</ele>
        <time>2020-07-19T08:17:33Z</time>
      </trkpt>
      <trkpt lat="42.99105" lon="-0.22679">
        <ele>1411.1999511719</ele>
        <time>2020-07-19T08:17:39Z</time>
      </trkpt>
      <trkpt lat="42.99113" lon="-0.22672">
        <ele>1411.1999511719</ele>
        <time>2020-07-19T08:17:41Z</time>
      </trkpt>
      <trkpt lat="42.9912" lon="-0.22665">
        <ele>1411.1999511719</ele>
        <time>2020-07-19T08:17:43Z</time>
      </trkpt>
      <trkpt lat="42.99123" lon="-0.22662">
        <ele>1411.1999511719</ele>
        <time>2020-07-19T08:17:44Z</time>
      </trkpt>
      <trkpt lat="42.99134" lon="-0.22647">
        <ele>1411.1999511719</ele>
        <time>2020-07-19T08:17:49Z</time>
      </trkpt>
      <trkpt lat="42.99143" lon="-0.22635">
        <ele>1411.1999511719</ele>
        <time>2020-07-19T08:17:56Z</time>
      </trkpt>
      <trkpt lat="42.99146" lon="-0.22628">
        <ele>1411.1999511719</ele>
        <time>2020-07-19T08:18:01Z</time>
      </trkpt>
      <trkpt lat="42.99147" lon="-0.22628">
        <ele>1411.1999511719</ele>
        <time>2020-07-19T08:18:09Z</time>
      </trkpt>
      <trkpt lat="42.99147" lon="-0.22628">
        <ele>1411.1999511719</ele>
        <time>2020-07-19T08:18:18Z</time>
      </trkpt>
      <trkpt lat="42.99147" lon="-0.22628">
        <ele>1411.1999511719</ele>
        <time>2020-07-19T08:18:28Z</time>
      </trkpt>
      <trkpt lat="42.99147" lon="-0.22628">
        <ele>1411.1999511719</ele>
        <time>2020-07-19T08:18:41Z</time>
      </trkpt>
      <trkpt lat="42.99147" lon="-0.22627">
        <ele>1411.1999511719</ele>
        <time>2020-07-19T08:18:54Z</time>
      </trkpt>
      <trkpt lat="42.99147" lon="-0.22627">
        <ele>1411.1999511719</ele>
        <time>2020-07-19T08:19:09Z</time>
      </trkpt>
      <trkpt lat="42.99147" lon="-0.22627">
        <ele>1411.1999511719</ele>
        <time>2020-07-19T08:19:24Z</time>
      </trkpt>
      <trkpt lat="42.99147" lon="-0.22627">
        <ele>1411.1999511719</ele>
        <time>2020-07-19T08:19:35Z</time>
      </trkpt>
      <trkpt lat="42.99147" lon="-0.22627">
        <ele>1411.1999511719</ele>
        <time>2020-07-19T08:19:45Z</time>
      </trkpt>
      <trkpt lat="42.99147" lon="-0.22627">
        <ele>1411.1999511719</ele>
        <time>2020-07-19T08:19:59Z</time>
      </trkpt>
      <trkpt lat="42.99147" lon="-0.22624">
        <ele>1411.1999511719</ele>
        <time>2020-07-19T08:20:03Z</time>
      </trkpt>
      <trkpt lat="42.99147" lon="-0.22621">
        <ele>1411.1999511719</ele>
        <time>2020-07-19T08:20:05Z</time>
      </trkpt>
      <trkpt lat="42.99149" lon="-0.22609">
        <ele>1411.1999511719</ele>
        <time>2020-07-19T08:20:10Z</time>
      </trkpt>
      <trkpt lat="42.99149" lon="-0.22589">
        <ele>1411.5999755859</ele>
        <time>2020-07-19T08:20:16Z</time>
      </trkpt>
      <trkpt lat="42.99148" lon="-0.22585">
        <ele>1412</ele>
        <time>2020-07-19T08:20:17Z</time>
      </trkpt>
      <trkpt lat="42.99147" lon="-0.22581">
        <ele>1412.4000244141</ele>
        <time>2020-07-19T08:20:18Z</time>
      </trkpt>
      <trkpt lat="42.99145" lon="-0.22577">
        <ele>1412.8000488281</ele>
        <time>2020-07-19T08:20:19Z</time>
      </trkpt>
      <trkpt lat="42.99143" lon="-0.22574">
        <ele>1413.1999511719</ele>
        <time>2020-07-19T08:20:20Z</time>
      </trkpt>
      <trkpt lat="42.99141" lon="-0.2257">
        <ele>1413.1999511719</ele>
        <time>2020-07-19T08:20:21Z</time>
      </trkpt>
      <trkpt lat="42.99128" lon="-0.22548">
        <ele>1413.1999511719</ele>
        <time>2020-07-19T08:20:28Z</time>
      </trkpt>
      <trkpt lat="42.99112" lon="-0.22527">
        <ele>1413.1999511719</ele>
        <time>2020-07-19T08:20:35Z</time>
      </trkpt>
      <trkpt lat="42.99101" lon="-0.225">
        <ele>1413.1999511719</ele>
        <time>2020-07-19T08:20:41Z</time>
      </trkpt>
      <trkpt lat="42.99095" lon="-0.22471">
        <ele>1413.1999511719</ele>
        <time>2020-07-19T08:20:46Z</time>
      </trkpt>
      <trkpt lat="42.99093" lon="-0.2246">
        <ele>1413.1999511719</ele>
        <time>2020-07-19T08:20:48Z</time>
      </trkpt>
      <trkpt lat="42.99087" lon="-0.22446">
        <ele>1413.1999511719</ele>
        <time>2020-07-19T08:20:51Z</time>
      </trkpt>
      <trkpt lat="42.99082" lon="-0.22431">
        <ele>1413.5999755859</ele>
        <time>2020-07-19T08:20:55Z</time>
      </trkpt>
      <trkpt lat="42.99081" lon="-0.22427">
        <ele>1414</ele>
        <time>2020-07-19T08:20:56Z</time>
      </trkpt>
      <trkpt lat="42.9908" lon="-0.22423">
        <ele>1414.4000244141</ele>
        <time>2020-07-19T08:20:57Z</time>
      </trkpt>
      <trkpt lat="42.99079" lon="-0.22419">
        <ele>1414.8000488281</ele>
        <time>2020-07-19T08:20:58Z</time>
      </trkpt>
      <trkpt lat="42.99078" lon="-0.22416">
        <ele>1415.1999511719</ele>
        <time>2020-07-19T08:20:59Z</time>
      </trkpt>
      <trkpt lat="42.99068" lon="-0.22384">
        <ele>1415.1999511719</ele>
        <time>2020-07-19T08:21:06Z</time>
      </trkpt>
      <trkpt lat="42.9906" lon="-0.2236">
        <ele>1415.1999511719</ele>
        <time>2020-07-19T08:21:11Z</time>
      </trkpt>
      <trkpt lat="42.99049" lon="-0.22333">
        <ele>1415.1999511719</ele>
        <time>2020-07-19T08:21:17Z</time>
      </trkpt>
      <trkpt lat="42.99038" lon="-0.22312">
        <ele>1415.1999511719</ele>
        <time>2020-07-19T08:21:22Z</time>
      </trkpt>
      <trkpt lat="42.99021" lon="-0.2229">
        <ele>1415.1999511719</ele>
        <time>2020-07-19T08:21:27Z</time>
      </trkpt>
      <trkpt lat="42.99017" lon="-0.22287">
        <ele>1415.1999511719</ele>
        <time>2020-07-19T08:21:28Z</time>
      </trkpt>
      <trkpt lat="42.98992" lon="-0.22263">
        <ele>1415.1999511719</ele>
        <time>2020-07-19T08:21:34Z</time>
      </trkpt>
      <trkpt lat="42.98971" lon="-0.22231">
        <ele>1415.1999511719</ele>
        <time>2020-07-19T08:21:40Z</time>
      </trkpt>
      <trkpt lat="42.98967" lon="-0.22227">
        <ele>1415.1999511719</ele>
        <time>2020-07-19T08:21:41Z</time>
      </trkpt>
      <trkpt lat="42.98949" lon="-0.22208">
        <ele>1415.1999511719</ele>
        <time>2020-07-19T08:21:45Z</time>
      </trkpt>
      <trkpt lat="42.98917" lon="-0.2218">
        <ele>1415.1999511719</ele>
        <time>2020-07-19T08:21:52Z</time>
      </trkpt>
      <trkpt lat="42.98894" lon="-0.22179">
        <ele>1415.1999511719</ele>
        <time>2020-07-19T08:21:56Z</time>
      </trkpt>
      <trkpt lat="42.98888" lon="-0.22178">
        <ele>1415.1999511719</ele>
        <time>2020-07-19T08:21:57Z</time>
      </trkpt>
      <trkpt lat="42.9888" lon="-0.22171">
        <ele>1415.1999511719</ele>
        <time>2020-07-19T08:21:59Z</time>
      </trkpt>
      <trkpt lat="42.98874" lon="-0.22158">
        <ele>1415.1999511719</ele>
        <time>2020-07-19T08:22:01Z</time>
      </trkpt>
      <trkpt lat="42.98871" lon="-0.22151">
        <ele>1415.1999511719</ele>
        <time>2020-07-19T08:22:02Z</time>
      </trkpt>
      <trkpt lat="42.98869" lon="-0.22144">
        <ele>1415.1999511719</ele>
        <time>2020-07-19T08:22:03Z</time>
      </trkpt>
      <trkpt lat="42.98863" lon="-0.22122">
        <ele>1415.1999511719</ele>
        <time>2020-07-19T08:22:06Z</time>
      </trkpt>
      <trkpt lat="42.98861" lon="-0.22114">
        <ele>1415.1999511719</ele>
        <time>2020-07-19T08:22:07Z</time>
      </trkpt>
      <trkpt lat="42.98859" lon="-0.2209">
        <ele>1415.1999511719</ele>
        <time>2020-07-19T08:22:10Z</time>
      </trkpt>
      <trkpt lat="42.98857" lon="-0.22047">
        <ele>1415.1999511719</ele>
        <time>2020-07-19T08:22:16Z</time>
      </trkpt>
      <trkpt lat="42.98857" lon="-0.22026">
        <ele>1415.1999511719</ele>
        <time>2020-07-19T08:22:19Z</time>
      </trkpt>
      <trkpt lat="42.9886" lon="-0.22013">
        <ele>1415.1999511719</ele>
        <time>2020-07-19T08:22:21Z</time>
      </trkpt>
      <trkpt lat="42.98861" lon="-0.22005">
        <ele>1415.1999511719</ele>
        <time>2020-07-19T08:22:22Z</time>
      </trkpt>
      <trkpt lat="42.98869" lon="-0.21965">
        <ele>1415.1999511719</ele>
        <time>2020-07-19T08:22:27Z</time>
      </trkpt>
      <trkpt lat="42.98876" lon="-0.21924">
        <ele>1414.8000488281</ele>
        <time>2020-07-19T08:22:31Z</time>
      </trkpt>
      <trkpt lat="42.98879" lon="-0.21914">
        <ele>1414.4000244141</ele>
        <time>2020-07-19T08:22:32Z</time>
      </trkpt>
      <trkpt lat="42.98882" lon="-0.21903">
        <ele>1413.4000244141</ele>
        <time>2020-07-19T08:22:33Z</time>
      </trkpt>
      <trkpt lat="42.98885" lon="-0.21893">
        <ele>1413</ele>
        <time>2020-07-19T08:22:34Z</time>
      </trkpt>
      <trkpt lat="42.98891" lon="-0.21873">
        <ele>1412.5999755859</ele>
        <time>2020-07-19T08:22:36Z</time>
      </trkpt>
      <trkpt lat="42.98894" lon="-0.21862">
        <ele>1412.1999511719</ele>
        <time>2020-07-19T08:22:37Z</time>
      </trkpt>
      <trkpt lat="42.98894" lon="-0.21852">
        <ele>1411.8000488281</ele>
        <time>2020-07-19T08:22:38Z</time>
      </trkpt>
      <trkpt lat="42.98894" lon="-0.21841">
        <ele>1411</ele>
        <time>2020-07-19T08:22:39Z</time>
      </trkpt>
      <trkpt lat="42.98893" lon="-0.21831">
        <ele>1410.4000244141</ele>
        <time>2020-07-19T08:22:40Z</time>
      </trkpt>
      <trkpt lat="42.98891" lon="-0.21821">
        <ele>1409.8000488281</ele>
        <time>2020-07-19T08:22:41Z</time>
      </trkpt>
      <trkpt lat="42.9889" lon="-0.21811">
        <ele>1409.1999511719</ele>
        <time>2020-07-19T08:22:42Z</time>
      </trkpt>
      <trkpt lat="42.98889" lon="-0.218">
        <ele>1408.4000244141</ele>
        <time>2020-07-19T08:22:43Z</time>
      </trkpt>
      <trkpt lat="42.98887" lon="-0.21767">
        <ele>1408</ele>
        <time>2020-07-19T08:22:46Z</time>
      </trkpt>
      <trkpt lat="42.98887" lon="-0.21756">
        <ele>1407.4000244141</ele>
        <time>2020-07-19T08:22:47Z</time>
      </trkpt>
      <trkpt lat="42.98888" lon="-0.21745">
        <ele>1407</ele>
        <time>2020-07-19T08:22:48Z</time>
      </trkpt>
      <trkpt lat="42.98888" lon="-0.21734">
        <ele>1406.5999755859</ele>
        <time>2020-07-19T08:22:49Z</time>
      </trkpt>
      <trkpt lat="42.98887" lon="-0.21724">
        <ele>1406</ele>
        <time>2020-07-19T08:22:50Z</time>
      </trkpt>
      <trkpt lat="42.98885" lon="-0.21713">
        <ele>1405.4000244141</ele>
        <time>2020-07-19T08:22:51Z</time>
      </trkpt>
      <trkpt lat="42.98882" lon="-0.21702">
        <ele>1404.8000488281</ele>
        <time>2020-07-19T08:22:52Z</time>
      </trkpt>
      <trkpt lat="42.98879" lon="-0.21692">
        <ele>1404.1999511719</ele>
        <time>2020-07-19T08:22:53Z</time>
      </trkpt>
      <trkpt lat="42.98876" lon="-0.21681">
        <ele>1403.5999755859</ele>
        <time>2020-07-19T08:22:54Z</time>
      </trkpt>
      <trkpt lat="42.98872" lon="-0.21672">
        <ele>1403</ele>
        <time>2020-07-19T08:22:55Z</time>
      </trkpt>
      <trkpt lat="42.98868" lon="-0.21664">
        <ele>1402.5999755859</ele>
        <time>2020-07-19T08:22:56Z</time>
      </trkpt>
      <trkpt lat="42.98862" lon="-0.21657">
        <ele>1402</ele>
        <time>2020-07-19T08:22:57Z</time>
      </trkpt>
      <trkpt lat="42.98856" lon="-0.21654">
        <ele>1401.4000244141</ele>
        <time>2020-07-19T08:22:58Z</time>
      </trkpt>
      <trkpt lat="42.98836" lon="-0.21657">
        <ele>1401.4000244141</ele>
        <time>2020-07-19T08:23:01Z</time>
      </trkpt>
      <trkpt lat="42.98829" lon="-0.21661">
        <ele>1400.8000488281</ele>
        <time>2020-07-19T08:23:02Z</time>
      </trkpt>
      <trkpt lat="42.98821" lon="-0.21665">
        <ele>1400.4000244141</ele>
        <time>2020-07-19T08:23:03Z</time>
      </trkpt>
      <trkpt lat="42.98814" lon="-0.21669">
        <ele>1399.8000488281</ele>
        <time>2020-07-19T08:23:04Z</time>
      </trkpt>
      <trkpt lat="42.98807" lon="-0.21672">
        <ele>1399.4000244141</ele>
        <time>2020-07-19T08:23:05Z</time>
      </trkpt>
      <trkpt lat="42.98799" lon="-0.21675">
        <ele>1398.8000488281</ele>
        <time>2020-07-19T08:23:06Z</time>
      </trkpt>
      <trkpt lat="42.98784" lon="-0.21679">
        <ele>1398.4000244141</ele>
        <time>2020-07-19T08:23:08Z</time>
      </trkpt>
      <trkpt lat="42.98777" lon="-0.21679">
        <ele>1397.8000488281</ele>
        <time>2020-07-19T08:23:09Z</time>
      </trkpt>
      <trkpt lat="42.98771" lon="-0.21679">
        <ele>1397.4000244141</ele>
        <time>2020-07-19T08:23:10Z</time>
      </trkpt>
      <trkpt lat="42.98765" lon="-0.21678">
        <ele>1396.8000488281</ele>
        <time>2020-07-19T08:23:11Z</time>
      </trkpt>
      <trkpt lat="42.98759" lon="-0.21678">
        <ele>1396.1999511719</ele>
        <time>2020-07-19T08:23:12Z</time>
      </trkpt>
      <trkpt lat="42.98752" lon="-0.21677">
        <ele>1395.5999755859</ele>
        <time>2020-07-19T08:23:13Z</time>
      </trkpt>
      <trkpt lat="42.98745" lon="-0.21676">
        <ele>1395.1999511719</ele>
        <time>2020-07-19T08:23:14Z</time>
      </trkpt>
      <trkpt lat="42.98737" lon="-0.21674">
        <ele>1394.5999755859</ele>
        <time>2020-07-19T08:23:15Z</time>
      </trkpt>
      <trkpt lat="42.9873" lon="-0.21671">
        <ele>1394</ele>
        <time>2020-07-19T08:23:16Z</time>
      </trkpt>
      <trkpt lat="42.98715" lon="-0.21664">
        <ele>1393.5999755859</ele>
        <time>2020-07-19T08:23:18Z</time>
      </trkpt>
      <trkpt lat="42.98707" lon="-0.21661">
        <ele>1393.1999511719</ele>
        <time>2020-07-19T08:23:19Z</time>
      </trkpt>
      <trkpt lat="42.98699" lon="-0.21657">
        <ele>1392.5999755859</ele>
        <time>2020-07-19T08:23:20Z</time>
      </trkpt>
      <trkpt lat="42.98691" lon="-0.21656">
        <ele>1392</ele>
        <time>2020-07-19T08:23:21Z</time>
      </trkpt>
      <trkpt lat="42.98682" lon="-0.21655">
        <ele>1391.5999755859</ele>
        <time>2020-07-19T08:23:22Z</time>
      </trkpt>
      <trkpt lat="42.98673" lon="-0.21656">
        <ele>1390.4000244141</ele>
        <time>2020-07-19T08:23:23Z</time>
      </trkpt>
      <trkpt lat="42.98664" lon="-0.21658">
        <ele>1389.5999755859</ele>
        <time>2020-07-19T08:23:24Z</time>
      </trkpt>
      <trkpt lat="42.98656" lon="-0.21661">
        <ele>1389</ele>
        <time>2020-07-19T08:23:25Z</time>
      </trkpt>
      <trkpt lat="42.98648" lon="-0.21664">
        <ele>1388.4000244141</ele>
        <time>2020-07-19T08:23:26Z</time>
      </trkpt>
      <trkpt lat="42.98642" lon="-0.21667">
        <ele>1387.8000488281</ele>
        <time>2020-07-19T08:23:27Z</time>
      </trkpt>
      <trkpt lat="42.98635" lon="-0.21668">
        <ele>1387</ele>
        <time>2020-07-19T08:23:28Z</time>
      </trkpt>
      <trkpt lat="42.98625" lon="-0.21665">
        <ele>1386.5999755859</ele>
        <time>2020-07-19T08:23:30Z</time>
      </trkpt>
      <trkpt lat="42.98621" lon="-0.21661">
        <ele>1386.1999511719</ele>
        <time>2020-07-19T08:23:31Z</time>
      </trkpt>
      <trkpt lat="42.98619" lon="-0.21658">
        <ele>1385.8000488281</ele>
        <time>2020-07-19T08:23:32Z</time>
      </trkpt>
      <trkpt lat="42.9862" lon="-0.21652">
        <ele>1385.4000244141</ele>
        <time>2020-07-19T08:23:33Z</time>
      </trkpt>
      <trkpt lat="42.98624" lon="-0.21648">
        <ele>1385</ele>
        <time>2020-07-19T08:23:34Z</time>
      </trkpt>
      <trkpt lat="42.98628" lon="-0.21646">
        <ele>1384.5999755859</ele>
        <time>2020-07-19T08:23:35Z</time>
      </trkpt>
      <trkpt lat="42.98633" lon="-0.21645">
        <ele>1384.1999511719</ele>
        <time>2020-07-19T08:23:36Z</time>
      </trkpt>
      <trkpt lat="42.98638" lon="-0.21644">
        <ele>1383.8000488281</ele>
        <time>2020-07-19T08:23:37Z</time>
      </trkpt>
      <trkpt lat="42.98643" lon="-0.21642">
        <ele>1383.4000244141</ele>
        <time>2020-07-19T08:23:38Z</time>
      </trkpt>
      <trkpt lat="42.98649" lon="-0.2164">
        <ele>1383</ele>
        <time>2020-07-19T08:23:39Z</time>
      </trkpt>
      <trkpt lat="42.98661" lon="-0.21635">
        <ele>1383</ele>
        <time>2020-07-19T08:23:41Z</time>
      </trkpt>
      <trkpt lat="42.98674" lon="-0.21631">
        <ele>1383</ele>
        <time>2020-07-19T08:23:43Z</time>
      </trkpt>
      <trkpt lat="42.98691" lon="-0.21632">
        <ele>1383</ele>
        <time>2020-07-19T08:23:46Z</time>
      </trkpt>
      <trkpt lat="42.98696" lon="-0.21633">
        <ele>1383</ele>
        <time>2020-07-19T08:23:47Z</time>
      </trkpt>
      <trkpt lat="42.98718" lon="-0.2164">
        <ele>1383</ele>
        <time>2020-07-19T08:23:51Z</time>
      </trkpt>
      <trkpt lat="42.98739" lon="-0.21645">
        <ele>1383</ele>
        <time>2020-07-19T08:23:54Z</time>
      </trkpt>
      <trkpt lat="42.98747" lon="-0.21645">
        <ele>1383</ele>
        <time>2020-07-19T08:23:55Z</time>
      </trkpt>
      <trkpt lat="42.98764" lon="-0.21642">
        <ele>1382.4000244141</ele>
        <time>2020-07-19T08:23:57Z</time>
      </trkpt>
      <trkpt lat="42.98772" lon="-0.21639">
        <ele>1382</ele>
        <time>2020-07-19T08:23:58Z</time>
      </trkpt>
      <trkpt lat="42.9878" lon="-0.21636">
        <ele>1381.5999755859</ele>
        <time>2020-07-19T08:23:59Z</time>
      </trkpt>
      <trkpt lat="42.98789" lon="-0.21633">
        <ele>1381.1999511719</ele>
        <time>2020-07-19T08:24:00Z</time>
      </trkpt>
      <trkpt lat="42.98797" lon="-0.21628">
        <ele>1380.5999755859</ele>
        <time>2020-07-19T08:24:01Z</time>
      </trkpt>
      <trkpt lat="42.98811" lon="-0.21617">
        <ele>1380.1999511719</ele>
        <time>2020-07-19T08:24:03Z</time>
      </trkpt>
      <trkpt lat="42.98817" lon="-0.21613">
        <ele>1379.8000488281</ele>
        <time>2020-07-19T08:24:04Z</time>
      </trkpt>
      <trkpt lat="42.98823" lon="-0.21608">
        <ele>1379.1999511719</ele>
        <time>2020-07-19T08:24:05Z</time>
      </trkpt>
      <trkpt lat="42.98829" lon="-0.21603">
        <ele>1378.8000488281</ele>
        <time>2020-07-19T08:24:06Z</time>
      </trkpt>
      <trkpt lat="42.98835" lon="-0.21596">
        <ele>1378.1999511719</ele>
        <time>2020-07-19T08:24:07Z</time>
      </trkpt>
      <trkpt lat="42.9884" lon="-0.21589">
        <ele>1378.1999511719</ele>
        <time>2020-07-19T08:24:08Z</time>
      </trkpt>
      <trkpt lat="42.98845" lon="-0.21583">
        <ele>1377.8000488281</ele>
        <time>2020-07-19T08:24:09Z</time>
      </trkpt>
      <trkpt lat="42.98851" lon="-0.21578">
        <ele>1377.4000244141</ele>
        <time>2020-07-19T08:24:10Z</time>
      </trkpt>
      <trkpt lat="42.98857" lon="-0.21574">
        <ele>1377</ele>
        <time>2020-07-19T08:24:11Z</time>
      </trkpt>
      <trkpt lat="42.98864" lon="-0.21569">
        <ele>1376.5999755859</ele>
        <time>2020-07-19T08:24:12Z</time>
      </trkpt>
      <trkpt lat="42.9887" lon="-0.21564">
        <ele>1375.4000244141</ele>
        <time>2020-07-19T08:24:13Z</time>
      </trkpt>
      <trkpt lat="42.98876" lon="-0.21556">
        <ele>1374.8000488281</ele>
        <time>2020-07-19T08:24:14Z</time>
      </trkpt>
      <trkpt lat="42.98881" lon="-0.21545">
        <ele>1374.1999511719</ele>
        <time>2020-07-19T08:24:15Z</time>
      </trkpt>
      <trkpt lat="42.98886" lon="-0.21533">
        <ele>1373.5999755859</ele>
        <time>2020-07-19T08:24:16Z</time>
      </trkpt>
      <trkpt lat="42.98889" lon="-0.21522">
        <ele>1373</ele>
        <time>2020-07-19T08:24:17Z</time>
      </trkpt>
      <trkpt lat="42.98892" lon="-0.2151">
        <ele>1372.1999511719</ele>
        <time>2020-07-19T08:24:18Z</time>
      </trkpt>
      <trkpt lat="42.98896" lon="-0.21499">
        <ele>1371.5999755859</ele>
        <time>2020-07-19T08:24:19Z</time>
      </trkpt>
      <trkpt lat="42.98899" lon="-0.21488">
        <ele>1371</ele>
        <time>2020-07-19T08:24:20Z</time>
      </trkpt>
      <trkpt lat="42.98903" lon="-0.21477">
        <ele>1370.4000244141</ele>
        <time>2020-07-19T08:24:21Z</time>
      </trkpt>
      <trkpt lat="42.98908" lon="-0.21468">
        <ele>1369.8000488281</ele>
        <time>2020-07-19T08:24:22Z</time>
      </trkpt>
      <trkpt lat="42.98914" lon="-0.21458">
        <ele>1369.1999511719</ele>
        <time>2020-07-19T08:24:23Z</time>
      </trkpt>
      <trkpt lat="42.98922" lon="-0.21437">
        <ele>1368.8000488281</ele>
        <time>2020-07-19T08:24:25Z</time>
      </trkpt>
      <trkpt lat="42.98924" lon="-0.21425">
        <ele>1368.4000244141</ele>
        <time>2020-07-19T08:24:26Z</time>
      </trkpt>
      <trkpt lat="42.98927" lon="-0.21414">
        <ele>1368</ele>
        <time>2020-07-19T08:24:27Z</time>
      </trkpt>
      <trkpt lat="42.9893" lon="-0.21402">
        <ele>1367.5999755859</ele>
        <time>2020-07-19T08:24:28Z</time>
      </trkpt>
      <trkpt lat="42.98934" lon="-0.21392">
        <ele>1367.1999511719</ele>
        <time>2020-07-19T08:24:29Z</time>
      </trkpt>
      <trkpt lat="42.98938" lon="-0.21384">
        <ele>1366.8000488281</ele>
        <time>2020-07-19T08:24:30Z</time>
      </trkpt>
      <trkpt lat="42.98945" lon="-0.21377">
        <ele>1366.1999511719</ele>
        <time>2020-07-19T08:24:31Z</time>
      </trkpt>
      <trkpt lat="42.98952" lon="-0.21374">
        <ele>1365.5999755859</ele>
        <time>2020-07-19T08:24:32Z</time>
      </trkpt>
      <trkpt lat="42.9896" lon="-0.21371">
        <ele>1365.1999511719</ele>
        <time>2020-07-19T08:24:33Z</time>
      </trkpt>
      <trkpt lat="42.98968" lon="-0.21369">
        <ele>1364.5999755859</ele>
        <time>2020-07-19T08:24:34Z</time>
      </trkpt>
      <trkpt lat="42.98976" lon="-0.21367">
        <ele>1364.1999511719</ele>
        <time>2020-07-19T08:24:35Z</time>
      </trkpt>
      <trkpt lat="42.98984" lon="-0.21364">
        <ele>1363.5999755859</ele>
        <time>2020-07-19T08:24:36Z</time>
      </trkpt>
      <trkpt lat="42.9899" lon="-0.21358">
        <ele>1362.1999511719</ele>
        <time>2020-07-19T08:24:37Z</time>
      </trkpt>
      <trkpt lat="42.98997" lon="-0.21349">
        <ele>1361.5999755859</ele>
        <time>2020-07-19T08:24:38Z</time>
      </trkpt>
      <trkpt lat="42.99002" lon="-0.2134">
        <ele>1361</ele>
        <time>2020-07-19T08:24:39Z</time>
      </trkpt>
      <trkpt lat="42.99006" lon="-0.21328">
        <ele>1360.1999511719</ele>
        <time>2020-07-19T08:24:40Z</time>
      </trkpt>
      <trkpt lat="42.99009" lon="-0.21315">
        <ele>1359.5999755859</ele>
        <time>2020-07-19T08:24:41Z</time>
      </trkpt>
      <trkpt lat="42.99011" lon="-0.21302">
        <ele>1358.8000488281</ele>
        <time>2020-07-19T08:24:42Z</time>
      </trkpt>
      <trkpt lat="42.99013" lon="-0.21289">
        <ele>1358</ele>
        <time>2020-07-19T08:24:43Z</time>
      </trkpt>
      <trkpt lat="42.99016" lon="-0.21277">
        <ele>1357.1999511719</ele>
        <time>2020-07-19T08:24:44Z</time>
      </trkpt>
      <trkpt lat="42.9902" lon="-0.21266">
        <ele>1356.5999755859</ele>
        <time>2020-07-19T08:24:45Z</time>
      </trkpt>
      <trkpt lat="42.99023" lon="-0.21255">
        <ele>1355.8000488281</ele>
        <time>2020-07-19T08:24:46Z</time>
      </trkpt>
      <trkpt lat="42.99031" lon="-0.21236">
        <ele>1355.4000244141</ele>
        <time>2020-07-19T08:24:48Z</time>
      </trkpt>
      <trkpt lat="42.99036" lon="-0.21229">
        <ele>1355</ele>
        <time>2020-07-19T08:24:49Z</time>
      </trkpt>
      <trkpt lat="42.99041" lon="-0.21222">
        <ele>1354.5999755859</ele>
        <time>2020-07-19T08:24:50Z</time>
      </trkpt>
      <trkpt lat="42.99045" lon="-0.21215">
        <ele>1354</ele>
        <time>2020-07-19T08:24:51Z</time>
      </trkpt>
      <trkpt lat="42.9905" lon="-0.21207">
        <ele>1353.5999755859</ele>
        <time>2020-07-19T08:24:52Z</time>
      </trkpt>
      <trkpt lat="42.99066" lon="-0.21179">
        <ele>1353.5999755859</ele>
        <time>2020-07-19T08:24:55Z</time>
      </trkpt>
      <trkpt lat="42.99072" lon="-0.2117">
        <ele>1353.1999511719</ele>
        <time>2020-07-19T08:24:56Z</time>
      </trkpt>
      <trkpt lat="42.99078" lon="-0.21163">
        <ele>1352.5999755859</ele>
        <time>2020-07-19T08:24:57Z</time>
      </trkpt>
      <trkpt lat="42.99084" lon="-0.21157">
        <ele>1352.1999511719</ele>
        <time>2020-07-19T08:24:58Z</time>
      </trkpt>
      <trkpt lat="42.99089" lon="-0.2115">
        <ele>1351.4000244141</ele>
        <time>2020-07-19T08:24:59Z</time>
      </trkpt>
      <trkpt lat="42.99094" lon="-0.21143">
        <ele>1350.8000488281</ele>
        <time>2020-07-19T08:25:00Z</time>
      </trkpt>
      <trkpt lat="42.991" lon="-0.21135">
        <ele>1350</ele>
        <time>2020-07-19T08:25:01Z</time>
      </trkpt>
      <trkpt lat="42.99104" lon="-0.21126">
        <ele>1348.4000244141</ele>
        <time>2020-07-19T08:25:02Z</time>
      </trkpt>
      <trkpt lat="42.99106" lon="-0.21114">
        <ele>1347.8000488281</ele>
        <time>2020-07-19T08:25:03Z</time>
      </trkpt>
      <trkpt lat="42.99107" lon="-0.21104">
        <ele>1347</ele>
        <time>2020-07-19T08:25:04Z</time>
      </trkpt>
      <trkpt lat="42.99108" lon="-0.21095">
        <ele>1346.1999511719</ele>
        <time>2020-07-19T08:25:05Z</time>
      </trkpt>
      <trkpt lat="42.99109" lon="-0.21083">
        <ele>1345.5999755859</ele>
        <time>2020-07-19T08:25:06Z</time>
      </trkpt>
      <trkpt lat="42.99111" lon="-0.21069">
        <ele>1344.8000488281</ele>
        <time>2020-07-19T08:25:07Z</time>
      </trkpt>
      <trkpt lat="42.99112" lon="-0.21055">
        <ele>1344.1999511719</ele>
        <time>2020-07-19T08:25:08Z</time>
      </trkpt>
      <trkpt lat="42.99114" lon="-0.21042">
        <ele>1343.5999755859</ele>
        <time>2020-07-19T08:25:09Z</time>
      </trkpt>
      <trkpt lat="42.99115" lon="-0.2103">
        <ele>1343</ele>
        <time>2020-07-19T08:25:10Z</time>
      </trkpt>
      <trkpt lat="42.99116" lon="-0.21019">
        <ele>1342.5999755859</ele>
        <time>2020-07-19T08:25:11Z</time>
      </trkpt>
      <trkpt lat="42.99116" lon="-0.21008">
        <ele>1341.8000488281</ele>
        <time>2020-07-19T08:25:12Z</time>
      </trkpt>
      <trkpt lat="42.99116" lon="-0.20997">
        <ele>1341.1999511719</ele>
        <time>2020-07-19T08:25:13Z</time>
      </trkpt>
      <trkpt lat="42.99115" lon="-0.20988">
        <ele>1340.5999755859</ele>
        <time>2020-07-19T08:25:14Z</time>
      </trkpt>
      <trkpt lat="42.99112" lon="-0.20982">
        <ele>1339.8000488281</ele>
        <time>2020-07-19T08:25:15Z</time>
      </trkpt>
      <trkpt lat="42.9911" lon="-0.20974">
        <ele>1339</ele>
        <time>2020-07-19T08:25:16Z</time>
      </trkpt>
      <trkpt lat="42.99106" lon="-0.20967">
        <ele>1338</ele>
        <time>2020-07-19T08:25:17Z</time>
      </trkpt>
      <trkpt lat="42.99102" lon="-0.20963">
        <ele>1337</ele>
        <time>2020-07-19T08:25:18Z</time>
      </trkpt>
      <trkpt lat="42.99098" lon="-0.20959">
        <ele>1336</ele>
        <time>2020-07-19T08:25:19Z</time>
      </trkpt>
      <trkpt lat="42.99094" lon="-0.20954">
        <ele>1335.1999511719</ele>
        <time>2020-07-19T08:25:20Z</time>
      </trkpt>
      <trkpt lat="42.99088" lon="-0.20948">
        <ele>1334</ele>
        <time>2020-07-19T08:25:21Z</time>
      </trkpt>
      <trkpt lat="42.99084" lon="-0.20943">
        <ele>1332.8000488281</ele>
        <time>2020-07-19T08:25:22Z</time>
      </trkpt>
      <trkpt lat="42.99074" lon="-0.2093">
        <ele>1331.5999755859</ele>
        <time>2020-07-19T08:25:23Z</time>
      </trkpt>
      <trkpt lat="42.99067" lon="-0.20919">
        <ele>1330.4000244141</ele>
        <time>2020-07-19T08:25:24Z</time>
      </trkpt>
      <trkpt lat="42.99059" lon="-0.20906">
        <ele>1329.1999511719</ele>
        <time>2020-07-19T08:25:25Z</time>
      </trkpt>
      <trkpt lat="42.99051" lon="-0.20891">
        <ele>1328</ele>
        <time>2020-07-19T08:25:26Z</time>
      </trkpt>
      <trkpt lat="42.99044" lon="-0.20876">
        <ele>1325.4000244141</ele>
        <time>2020-07-19T08:25:27Z</time>
      </trkpt>
      <trkpt lat="42.99038" lon="-0.20864">
        <ele>1324.1999511719</ele>
        <time>2020-07-19T08:25:28Z</time>
      </trkpt>
      <trkpt lat="42.99033" lon="-0.20854">
        <ele>1323</ele>
        <time>2020-07-19T08:25:29Z</time>
      </trkpt>
      <trkpt lat="42.99029" lon="-0.20844">
        <ele>1321.8000488281</ele>
        <time>2020-07-19T08:25:30Z</time>
      </trkpt>
      <trkpt lat="42.99024" lon="-0.20835">
        <ele>1320.4000244141</ele>
        <time>2020-07-19T08:25:31Z</time>
      </trkpt>
      <trkpt lat="42.99021" lon="-0.20826">
        <ele>1319</ele>
        <time>2020-07-19T08:25:32Z</time>
      </trkpt>
      <trkpt lat="42.99018" lon="-0.20817">
        <ele>1317.8000488281</ele>
        <time>2020-07-19T08:25:33Z</time>
      </trkpt>
      <trkpt lat="42.99016" lon="-0.20809">
        <ele>1316.5999755859</ele>
        <time>2020-07-19T08:25:34Z</time>
      </trkpt>
      <trkpt lat="42.99014" lon="-0.20801">
        <ele>1315.4000244141</ele>
        <time>2020-07-19T08:25:35Z</time>
      </trkpt>
      <trkpt lat="42.99012" lon="-0.20793">
        <ele>1314.4000244141</ele>
        <time>2020-07-19T08:25:36Z</time>
      </trkpt>
      <trkpt lat="42.9901" lon="-0.20785">
        <ele>1313.1999511719</ele>
        <time>2020-07-19T08:25:37Z</time>
      </trkpt>
      <trkpt lat="42.99009" lon="-0.20777">
        <ele>1312.1999511719</ele>
        <time>2020-07-19T08:25:38Z</time>
      </trkpt>
      <trkpt lat="42.99007" lon="-0.20769">
        <ele>1311</ele>
        <time>2020-07-19T08:25:39Z</time>
      </trkpt>
      <trkpt lat="42.99005" lon="-0.2076">
        <ele>1310</ele>
        <time>2020-07-19T08:25:40Z</time>
      </trkpt>
      <trkpt lat="42.99002" lon="-0.20752">
        <ele>1308.8000488281</ele>
        <time>2020-07-19T08:25:41Z</time>
      </trkpt>
      <trkpt lat="42.99002" lon="-0.20741">
        <ele>1307.8000488281</ele>
        <time>2020-07-19T08:25:42Z</time>
      </trkpt>
      <trkpt lat="42.99005" lon="-0.20727">
        <ele>1306.5999755859</ele>
        <time>2020-07-19T08:25:43Z</time>
      </trkpt>
      <trkpt lat="42.99008" lon="-0.20713">
        <ele>1305.4000244141</ele>
        <time>2020-07-19T08:25:44Z</time>
      </trkpt>
      <trkpt lat="42.99016" lon="-0.20695">
        <ele>1304.4000244141</ele>
        <time>2020-07-19T08:25:45Z</time>
      </trkpt>
      <trkpt lat="42.99022" lon="-0.20681">
        <ele>1303.1999511719</ele>
        <time>2020-07-19T08:25:46Z</time>
      </trkpt>
      <trkpt lat="42.99027" lon="-0.20668">
        <ele>1302</ele>
        <time>2020-07-19T08:25:47Z</time>
      </trkpt>
      <trkpt lat="42.99029" lon="-0.20658">
        <ele>1301</ele>
        <time>2020-07-19T08:25:48Z</time>
      </trkpt>
      <trkpt lat="42.99032" lon="-0.20655">
        <ele>1299.8000488281</ele>
        <time>2020-07-19T08:25:49Z</time>
      </trkpt>
      <trkpt lat="42.99033" lon="-0.2065">
        <ele>1298.8000488281</ele>
        <time>2020-07-19T08:25:50Z</time>
      </trkpt>
      <trkpt lat="42.99037" lon="-0.20649">
        <ele>1297.8000488281</ele>
        <time>2020-07-19T08:25:51Z</time>
      </trkpt>
      <trkpt lat="42.9904" lon="-0.20649">
        <ele>1295.8000488281</ele>
        <time>2020-07-19T08:25:52Z</time>
      </trkpt>
      <trkpt lat="42.99044" lon="-0.20649">
        <ele>1294.8000488281</ele>
        <time>2020-07-19T08:25:53Z</time>
      </trkpt>
      <trkpt lat="42.99059" lon="-0.20649">
        <ele>1294.4000244141</ele>
        <time>2020-07-19T08:25:56Z</time>
      </trkpt>
      <trkpt lat="42.99065" lon="-0.20644">
        <ele>1293.8000488281</ele>
        <time>2020-07-19T08:25:57Z</time>
      </trkpt>
      <trkpt lat="42.9907" lon="-0.20641">
        <ele>1293.4000244141</ele>
        <time>2020-07-19T08:25:58Z</time>
      </trkpt>
      <trkpt lat="42.99075" lon="-0.20636">
        <ele>1293</ele>
        <time>2020-07-19T08:25:59Z</time>
      </trkpt>
      <trkpt lat="42.9908" lon="-0.20631">
        <ele>1292.4000244141</ele>
        <time>2020-07-19T08:26:00Z</time>
      </trkpt>
      <trkpt lat="42.99085" lon="-0.20625">
        <ele>1292</ele>
        <time>2020-07-19T08:26:01Z</time>
      </trkpt>
      <trkpt lat="42.99088" lon="-0.20619">
        <ele>1291.5999755859</ele>
        <time>2020-07-19T08:26:02Z</time>
      </trkpt>
      <trkpt lat="42.99092" lon="-0.20613">
        <ele>1291.1999511719</ele>
        <time>2020-07-19T08:26:03Z</time>
      </trkpt>
      <trkpt lat="42.99093" lon="-0.20606">
        <ele>1290.8000488281</ele>
        <time>2020-07-19T08:26:04Z</time>
      </trkpt>
      <trkpt lat="42.99095" lon="-0.206">
        <ele>1290.4000244141</ele>
        <time>2020-07-19T08:26:05Z</time>
      </trkpt>
      <trkpt lat="42.99097" lon="-0.20595">
        <ele>1290</ele>
        <time>2020-07-19T08:26:06Z</time>
      </trkpt>
      <trkpt lat="42.99097" lon="-0.20586">
        <ele>1289.5999755859</ele>
        <time>2020-07-19T08:26:07Z</time>
      </trkpt>
      <trkpt lat="42.99097" lon="-0.20577">
        <ele>1289.1999511719</ele>
        <time>2020-07-19T08:26:08Z</time>
      </trkpt>
      <trkpt lat="42.99096" lon="-0.20568">
        <ele>1288.5999755859</ele>
        <time>2020-07-19T08:26:09Z</time>
      </trkpt>
      <trkpt lat="42.99096" lon="-0.20557">
        <ele>1288</ele>
        <time>2020-07-19T08:26:10Z</time>
      </trkpt>
      <trkpt lat="42.99096" lon="-0.20545">
        <ele>1287.4000244141</ele>
        <time>2020-07-19T08:26:11Z</time>
      </trkpt>
      <trkpt lat="42.99094" lon="-0.20531">
        <ele>1286.4000244141</ele>
        <time>2020-07-19T08:26:12Z</time>
      </trkpt>
      <trkpt lat="42.99094" lon="-0.20517">
        <ele>1285.5999755859</ele>
        <time>2020-07-19T08:26:13Z</time>
      </trkpt>
      <trkpt lat="42.99093" lon="-0.20504">
        <ele>1284.5999755859</ele>
        <time>2020-07-19T08:26:14Z</time>
      </trkpt>
      <trkpt lat="42.99093" lon="-0.20493">
        <ele>1283.8000488281</ele>
        <time>2020-07-19T08:26:15Z</time>
      </trkpt>
      <trkpt lat="42.99093" lon="-0.20482">
        <ele>1282.8000488281</ele>
        <time>2020-07-19T08:26:16Z</time>
      </trkpt>
      <trkpt lat="42.99095" lon="-0.20471">
        <ele>1280.8000488281</ele>
        <time>2020-07-19T08:26:17Z</time>
      </trkpt>
      <trkpt lat="42.99098" lon="-0.20461">
        <ele>1279.8000488281</ele>
        <time>2020-07-19T08:26:18Z</time>
      </trkpt>
      <trkpt lat="42.99102" lon="-0.2045">
        <ele>1278.5999755859</ele>
        <time>2020-07-19T08:26:19Z</time>
      </trkpt>
      <trkpt lat="42.99106" lon="-0.2044">
        <ele>1277.5999755859</ele>
        <time>2020-07-19T08:26:20Z</time>
      </trkpt>
      <trkpt lat="42.9911" lon="-0.20429">
        <ele>1276.5999755859</ele>
        <time>2020-07-19T08:26:21Z</time>
      </trkpt>
      <trkpt lat="42.99113" lon="-0.20418">
        <ele>1275.5999755859</ele>
        <time>2020-07-19T08:26:22Z</time>
      </trkpt>
      <trkpt lat="42.99117" lon="-0.20408">
        <ele>1274.5999755859</ele>
        <time>2020-07-19T08:26:23Z</time>
      </trkpt>
      <trkpt lat="42.99118" lon="-0.20396">
        <ele>1273.4000244141</ele>
        <time>2020-07-19T08:26:24Z</time>
      </trkpt>
      <trkpt lat="42.9912" lon="-0.20382">
        <ele>1272.1999511719</ele>
        <time>2020-07-19T08:26:25Z</time>
      </trkpt>
      <trkpt lat="42.99123" lon="-0.20371">
        <ele>1271.1999511719</ele>
        <time>2020-07-19T08:26:26Z</time>
      </trkpt>
      <trkpt lat="42.99124" lon="-0.20359">
        <ele>1270</ele>
        <time>2020-07-19T08:26:27Z</time>
      </trkpt>
      <trkpt lat="42.99126" lon="-0.20349">
        <ele>1269</ele>
        <time>2020-07-19T08:26:28Z</time>
      </trkpt>
      <trkpt lat="42.99127" lon="-0.20339">
        <ele>1267.8000488281</ele>
        <time>2020-07-19T08:26:29Z</time>
      </trkpt>
      <trkpt lat="42.99128" lon="-0.2033">
        <ele>1266.8000488281</ele>
        <time>2020-07-19T08:26:30Z</time>
      </trkpt>
      <trkpt lat="42.99129" lon="-0.20321">
        <ele>1265.8000488281</ele>
        <time>2020-07-19T08:26:31Z</time>
      </trkpt>
      <trkpt lat="42.99129" lon="-0.20313">
        <ele>1265</ele>
        <time>2020-07-19T08:26:32Z</time>
      </trkpt>
      <trkpt lat="42.99127" lon="-0.20307">
        <ele>1264</ele>
        <time>2020-07-19T08:26:33Z</time>
      </trkpt>
      <trkpt lat="42.99126" lon="-0.20304">
        <ele>1263.1999511719</ele>
        <time>2020-07-19T08:26:34Z</time>
      </trkpt>
      <trkpt lat="42.99126" lon="-0.20302">
        <ele>1262.4000244141</ele>
        <time>2020-07-19T08:26:35Z</time>
      </trkpt>
      <trkpt lat="42.99127" lon="-0.203">
        <ele>1261.5999755859</ele>
        <time>2020-07-19T08:26:36Z</time>
      </trkpt>
      <trkpt lat="42.99128" lon="-0.203">
        <ele>1260.8000488281</ele>
        <time>2020-07-19T08:26:37Z</time>
      </trkpt>
      <trkpt lat="42.9913" lon="-0.20299">
        <ele>1260.4000244141</ele>
        <time>2020-07-19T08:26:38Z</time>
      </trkpt>
      <trkpt lat="42.99131" lon="-0.20301">
        <ele>1260</ele>
        <time>2020-07-19T08:26:39Z</time>
      </trkpt>
      <trkpt lat="42.99131" lon="-0.20303">
        <ele>1259.5999755859</ele>
        <time>2020-07-19T08:26:40Z</time>
      </trkpt>
      <trkpt lat="42.99131" lon="-0.20305">
        <ele>1258.5999755859</ele>
        <time>2020-07-19T08:26:41Z</time>
      </trkpt>
      <trkpt lat="42.99131" lon="-0.20304">
        <ele>1258.5999755859</ele>
        <time>2020-07-19T08:26:43Z</time>
      </trkpt>
      <trkpt lat="42.99131" lon="-0.20304">
        <ele>1258.5999755859</ele>
        <time>2020-07-19T08:26:53Z</time>
      </trkpt>
      <trkpt lat="42.99131" lon="-0.20304">
        <ele>1258.5999755859</ele>
        <time>2020-07-19T08:27:02Z</time>
      </trkpt>
      <trkpt lat="42.9913" lon="-0.20305">
        <ele>1258.5999755859</ele>
        <time>2020-07-19T08:27:15Z</time>
      </trkpt>
      <trkpt lat="42.99131" lon="-0.20311">
        <ele>1258.5999755859</ele>
        <time>2020-07-19T08:27:21Z</time>
      </trkpt>
      <trkpt lat="42.99131" lon="-0.20311">
        <ele>1258.5999755859</ele>
        <time>2020-07-19T08:27:30Z</time>
      </trkpt>
      <trkpt lat="42.99131" lon="-0.20311">
        <ele>1258.5999755859</ele>
        <time>2020-07-19T08:27:42Z</time>
      </trkpt>
      <trkpt lat="42.99131" lon="-0.20311">
        <ele>1258.5999755859</ele>
        <time>2020-07-19T08:27:52Z</time>
      </trkpt>
      <trkpt lat="42.99131" lon="-0.20311">
        <ele>1258.5999755859</ele>
        <time>2020-07-19T08:28:06Z</time>
      </trkpt>
      <trkpt lat="42.99131" lon="-0.20311">
        <ele>1258.5999755859</ele>
        <time>2020-07-19T08:28:18Z</time>
      </trkpt>
      <trkpt lat="42.99131" lon="-0.20311">
        <ele>1258.5999755859</ele>
        <time>2020-07-19T08:28:30Z</time>
      </trkpt>
      <trkpt lat="42.99131" lon="-0.20311">
        <ele>1258.5999755859</ele>
        <time>2020-07-19T08:28:45Z</time>
      </trkpt>
      <trkpt lat="42.99131" lon="-0.20311">
        <ele>1258.5999755859</ele>
        <time>2020-07-19T08:28:56Z</time>
      </trkpt>
      <trkpt lat="42.99131" lon="-0.20311">
        <ele>1258.5999755859</ele>
        <time>2020-07-19T08:29:09Z</time>
      </trkpt>
      <trkpt lat="42.9913" lon="-0.20312">
        <ele>1258.5999755859</ele>
        <time>2020-07-19T08:29:14Z</time>
      </trkpt>
      <trkpt lat="42.99129" lon="-0.20313">
        <ele>1258.5999755859</ele>
        <time>2020-07-19T08:29:15Z</time>
      </trkpt>
      <trkpt lat="42.99126" lon="-0.20311">
        <ele>1258.5999755859</ele>
        <time>2020-07-19T08:29:18Z</time>
      </trkpt>
      <trkpt lat="42.99123" lon="-0.20308">
        <ele>1258.5999755859</ele>
        <time>2020-07-19T08:29:20Z</time>
      </trkpt>
      <trkpt lat="42.99123" lon="-0.20305">
        <ele>1258.5999755859</ele>
        <time>2020-07-19T08:29:21Z</time>
      </trkpt>
      <trkpt lat="42.99125" lon="-0.20304">
        <ele>1258.5999755859</ele>
        <time>2020-07-19T08:29:24Z</time>
      </trkpt>
      <trkpt lat="42.99127" lon="-0.20305">
        <ele>1258.5999755859</ele>
        <time>2020-07-19T08:29:25Z</time>
      </trkpt>
      <trkpt lat="42.99128" lon="-0.20312">
        <ele>1258.5999755859</ele>
        <time>2020-07-19T08:29:28Z</time>
      </trkpt>
      <trkpt lat="42.99125" lon="-0.20326">
        <ele>1258.5999755859</ele>
        <time>2020-07-19T08:29:34Z</time>
      </trkpt>
      <trkpt lat="42.99123" lon="-0.20336">
        <ele>1259</ele>
        <time>2020-07-19T08:29:39Z</time>
      </trkpt>
      <trkpt lat="42.99124" lon="-0.20339">
        <ele>1259.4000244141</ele>
        <time>2020-07-19T08:29:40Z</time>
      </trkpt>
      <trkpt lat="42.99124" lon="-0.2034">
        <ele>1259.8000488281</ele>
        <time>2020-07-19T08:29:41Z</time>
      </trkpt>
      <trkpt lat="42.99126" lon="-0.20342">
        <ele>1260.1999511719</ele>
        <time>2020-07-19T08:29:42Z</time>
      </trkpt>
      <trkpt lat="42.99127" lon="-0.20343">
        <ele>1260.8000488281</ele>
        <time>2020-07-19T08:29:43Z</time>
      </trkpt>
      <trkpt lat="42.9913" lon="-0.20346">
        <ele>1260.8000488281</ele>
        <time>2020-07-19T08:29:45Z</time>
      </trkpt>
      <trkpt lat="42.99135" lon="-0.20346">
        <ele>1260.8000488281</ele>
        <time>2020-07-19T08:29:48Z</time>
      </trkpt>
      <trkpt lat="42.99141" lon="-0.20347">
        <ele>1260.8000488281</ele>
        <time>2020-07-19T08:29:51Z</time>
      </trkpt>
      <trkpt lat="42.99158" lon="-0.20346">
        <ele>1260.8000488281</ele>
        <time>2020-07-19T08:29:59Z</time>
      </trkpt>
      <trkpt lat="42.9916" lon="-0.20347">
        <ele>1261.1999511719</ele>
        <time>2020-07-19T08:30:00Z</time>
      </trkpt>
      <trkpt lat="42.99162" lon="-0.20348">
        <ele>1261.5999755859</ele>
        <time>2020-07-19T08:30:01Z</time>
      </trkpt>
      <trkpt lat="42.99164" lon="-0.20349">
        <ele>1262</ele>
        <time>2020-07-19T08:30:02Z</time>
      </trkpt>
      <trkpt lat="42.99164" lon="-0.20351">
        <ele>1262.4000244141</ele>
        <time>2020-07-19T08:30:03Z</time>
      </trkpt>
      <trkpt lat="42.99165" lon="-0.20353">
        <ele>1262.8000488281</ele>
        <time>2020-07-19T08:30:04Z</time>
      </trkpt>
      <trkpt lat="42.99171" lon="-0.20366">
        <ele>1262.8000488281</ele>
        <time>2020-07-19T08:30:11Z</time>
      </trkpt>
      <trkpt lat="42.99174" lon="-0.2037">
        <ele>1263.1999511719</ele>
        <time>2020-07-19T08:30:13Z</time>
      </trkpt>
      <trkpt lat="42.99176" lon="-0.20371">
        <ele>1263.5999755859</ele>
        <time>2020-07-19T08:30:14Z</time>
      </trkpt>
      <trkpt lat="42.99177" lon="-0.20373">
        <ele>1264</ele>
        <time>2020-07-19T08:30:15Z</time>
      </trkpt>
      <trkpt lat="42.99178" lon="-0.20374">
        <ele>1264.4000244141</ele>
        <time>2020-07-19T08:30:16Z</time>
      </trkpt>
      <trkpt lat="42.9918" lon="-0.20375">
        <ele>1264.8000488281</ele>
        <time>2020-07-19T08:30:17Z</time>
      </trkpt>
      <trkpt lat="42.99183" lon="-0.20378">
        <ele>1264.8000488281</ele>
        <time>2020-07-19T08:30:19Z</time>
      </trkpt>
      <trkpt lat="42.9919" lon="-0.20387">
        <ele>1265.1999511719</ele>
        <time>2020-07-19T08:30:23Z</time>
      </trkpt>
      <trkpt lat="42.99191" lon="-0.20389">
        <ele>1266.1999511719</ele>
        <time>2020-07-19T08:30:24Z</time>
      </trkpt>
      <trkpt lat="42.99193" lon="-0.20391">
        <ele>1266.5999755859</ele>
        <time>2020-07-19T08:30:25Z</time>
      </trkpt>
      <trkpt lat="42.99195" lon="-0.20392">
        <ele>1267</ele>
        <time>2020-07-19T08:30:26Z</time>
      </trkpt>
      <trkpt lat="42.99205" lon="-0.20397">
        <ele>1267</ele>
        <time>2020-07-19T08:30:31Z</time>
      </trkpt>
      <trkpt lat="42.9921" lon="-0.20401">
        <ele>1267.4000244141</ele>
        <time>2020-07-19T08:30:34Z</time>
      </trkpt>
      <trkpt lat="42.99212" lon="-0.20402">
        <ele>1267.8000488281</ele>
        <time>2020-07-19T08:30:35Z</time>
      </trkpt>
      <trkpt lat="42.99214" lon="-0.20403">
        <ele>1268.1999511719</ele>
        <time>2020-07-19T08:30:36Z</time>
      </trkpt>
      <trkpt lat="42.99216" lon="-0.20405">
        <ele>1268.5999755859</ele>
        <time>2020-07-19T08:30:37Z</time>
      </trkpt>
      <trkpt lat="42.99217" lon="-0.20405">
        <ele>1269</ele>
        <time>2020-07-19T08:30:38Z</time>
      </trkpt>
      <trkpt lat="42.99225" lon="-0.20413">
        <ele>1269.4000244141</ele>
        <time>2020-07-19T08:30:43Z</time>
      </trkpt>
      <trkpt lat="42.99226" lon="-0.20415">
        <ele>1269.8000488281</ele>
        <time>2020-07-19T08:30:44Z</time>
      </trkpt>
      <trkpt lat="42.99228" lon="-0.20416">
        <ele>1270.1999511719</ele>
        <time>2020-07-19T08:30:45Z</time>
      </trkpt>
      <trkpt lat="42.9923" lon="-0.20417">
        <ele>1270.5999755859</ele>
        <time>2020-07-19T08:30:46Z</time>
      </trkpt>
      <trkpt lat="42.99232" lon="-0.20419">
        <ele>1271</ele>
        <time>2020-07-19T08:30:47Z</time>
      </trkpt>
      <trkpt lat="42.99242" lon="-0.20426">
        <ele>1271.4000244141</ele>
        <time>2020-07-19T08:30:52Z</time>
      </trkpt>
      <trkpt lat="42.99244" lon="-0.20427">
        <ele>1272</ele>
        <time>2020-07-19T08:30:53Z</time>
      </trkpt>
      <trkpt lat="42.99245" lon="-0.20429">
        <ele>1272.4000244141</ele>
        <time>2020-07-19T08:30:54Z</time>
      </trkpt>
      <trkpt lat="42.99247" lon="-0.2043">
        <ele>1272.8000488281</ele>
        <time>2020-07-19T08:30:55Z</time>
      </trkpt>
      <trkpt lat="42.99248" lon="-0.20432">
        <ele>1273.1999511719</ele>
        <time>2020-07-19T08:30:56Z</time>
      </trkpt>
      <trkpt lat="42.99253" lon="-0.20436">
        <ele>1273.1999511719</ele>
        <time>2020-07-19T08:30:59Z</time>
      </trkpt>
      <trkpt lat="42.99258" lon="-0.20443">
        <ele>1273.5999755859</ele>
        <time>2020-07-19T08:31:02Z</time>
      </trkpt>
      <trkpt lat="42.99259" lon="-0.20445">
        <ele>1274</ele>
        <time>2020-07-19T08:31:03Z</time>
      </trkpt>
      <trkpt lat="42.99261" lon="-0.20447">
        <ele>1274.4000244141</ele>
        <time>2020-07-19T08:31:04Z</time>
      </trkpt>
      <trkpt lat="42.99263" lon="-0.20449">
        <ele>1274.8000488281</ele>
        <time>2020-07-19T08:31:05Z</time>
      </trkpt>
      <trkpt lat="42.99265" lon="-0.20451">
        <ele>1275.1999511719</ele>
        <time>2020-07-19T08:31:06Z</time>
      </trkpt>
      <trkpt lat="42.99276" lon="-0.20462">
        <ele>1275.1999511719</ele>
        <time>2020-07-19T08:31:12Z</time>
      </trkpt>
      <trkpt lat="42.99288" lon="-0.2047">
        <ele>1275.1999511719</ele>
        <time>2020-07-19T08:31:19Z</time>
      </trkpt>
      <trkpt lat="42.9929" lon="-0.20471">
        <ele>1275.5999755859</ele>
        <time>2020-07-19T08:31:20Z</time>
      </trkpt>
      <trkpt lat="42.99292" lon="-0.20471">
        <ele>1276</ele>
        <time>2020-07-19T08:31:21Z</time>
      </trkpt>
      <trkpt lat="42.99294" lon="-0.20472">
        <ele>1276.5999755859</ele>
        <time>2020-07-19T08:31:22Z</time>
      </trkpt>
      <trkpt lat="42.99295" lon="-0.20472">
        <ele>1277</ele>
        <time>2020-07-19T08:31:23Z</time>
      </trkpt>
      <trkpt lat="42.99297" lon="-0.20472">
        <ele>1277.4000244141</ele>
        <time>2020-07-19T08:31:24Z</time>
      </trkpt>
      <trkpt lat="42.99299" lon="-0.20473">
        <ele>1277.4000244141</ele>
        <time>2020-07-19T08:31:25Z</time>
      </trkpt>
      <trkpt lat="42.99307" lon="-0.20473">
        <ele>1277.8000488281</ele>
        <time>2020-07-19T08:31:29Z</time>
      </trkpt>
      <trkpt lat="42.99308" lon="-0.20473">
        <ele>1278.1999511719</ele>
        <time>2020-07-19T08:31:30Z</time>
      </trkpt>
      <trkpt lat="42.99311" lon="-0.20474">
        <ele>1278.5999755859</ele>
        <time>2020-07-19T08:31:31Z</time>
      </trkpt>
      <trkpt lat="42.99313" lon="-0.20474">
        <ele>1279.1999511719</ele>
        <time>2020-07-19T08:31:32Z</time>
      </trkpt>
      <trkpt lat="42.99315" lon="-0.20474">
        <ele>1279.5999755859</ele>
        <time>2020-07-19T08:31:33Z</time>
      </trkpt>
      <trkpt lat="42.99326" lon="-0.20473">
        <ele>1279.5999755859</ele>
        <time>2020-07-19T08:31:38Z</time>
      </trkpt>
      <trkpt lat="42.99346" lon="-0.2047">
        <ele>1279.5999755859</ele>
        <time>2020-07-19T08:31:44Z</time>
      </trkpt>
      <trkpt lat="42.99361" lon="-0.20479">
        <ele>1279.5999755859</ele>
        <time>2020-07-19T08:31:48Z</time>
      </trkpt>
      <trkpt lat="42.99381" lon="-0.20504">
        <ele>1279.5999755859</ele>
        <time>2020-07-19T08:31:54Z</time>
      </trkpt>
      <trkpt lat="42.99386" lon="-0.20514">
        <ele>1279.5999755859</ele>
        <time>2020-07-19T08:31:56Z</time>
      </trkpt>
      <trkpt lat="42.99392" lon="-0.20528">
        <ele>1279.5999755859</ele>
        <time>2020-07-19T08:31:59Z</time>
      </trkpt>
      <trkpt lat="42.99394" lon="-0.20533">
        <ele>1279.5999755859</ele>
        <time>2020-07-19T08:32:00Z</time>
      </trkpt>
      <trkpt lat="42.99409" lon="-0.20564">
        <ele>1279.5999755859</ele>
        <time>2020-07-19T08:32:07Z</time>
      </trkpt>
      <trkpt lat="42.99425" lon="-0.2058">
        <ele>1279.5999755859</ele>
        <time>2020-07-19T08:32:12Z</time>
      </trkpt>
      <trkpt lat="42.9945" lon="-0.206">
        <ele>1279.5999755859</ele>
        <time>2020-07-19T08:32:19Z</time>
      </trkpt>
      <trkpt lat="42.9947" lon="-0.20608">
        <ele>1280</ele>
        <time>2020-07-19T08:32:25Z</time>
      </trkpt>
      <trkpt lat="42.99473" lon="-0.20609">
        <ele>1280.4000244141</ele>
        <time>2020-07-19T08:32:26Z</time>
      </trkpt>
      <trkpt lat="42.99482" lon="-0.20611">
        <ele>1281.5999755859</ele>
        <time>2020-07-19T08:32:27Z</time>
      </trkpt>
      <trkpt lat="42.9949" lon="-0.20609">
        <ele>1281.5999755859</ele>
        <time>2020-07-19T08:32:32Z</time>
      </trkpt>
      <trkpt lat="42.99497" lon="-0.20607">
        <ele>1282</ele>
        <time>2020-07-19T08:32:34Z</time>
      </trkpt>
      <trkpt lat="42.99499" lon="-0.20606">
        <ele>1282.4000244141</ele>
        <time>2020-07-19T08:32:35Z</time>
      </trkpt>
      <trkpt lat="42.99503" lon="-0.20605">
        <ele>1282.8000488281</ele>
        <time>2020-07-19T08:32:36Z</time>
      </trkpt>
      <trkpt lat="42.99506" lon="-0.20603">
        <ele>1283.1999511719</ele>
        <time>2020-07-19T08:32:37Z</time>
      </trkpt>
      <trkpt lat="42.9951" lon="-0.20601">
        <ele>1283.5999755859</ele>
        <time>2020-07-19T08:32:38Z</time>
      </trkpt>
      <trkpt lat="42.99528" lon="-0.20594">
        <ele>1283.5999755859</ele>
        <time>2020-07-19T08:32:43Z</time>
      </trkpt>
      <trkpt lat="42.99539" lon="-0.20582">
        <ele>1284</ele>
        <time>2020-07-19T08:32:47Z</time>
      </trkpt>
      <trkpt lat="42.99541" lon="-0.20579">
        <ele>1284.4000244141</ele>
        <time>2020-07-19T08:32:48Z</time>
      </trkpt>
      <trkpt lat="42.99543" lon="-0.20575">
        <ele>1284.8000488281</ele>
        <time>2020-07-19T08:32:49Z</time>
      </trkpt>
      <trkpt lat="42.99545" lon="-0.20571">
        <ele>1285.1999511719</ele>
        <time>2020-07-19T08:32:50Z</time>
      </trkpt>
      <trkpt lat="42.99547" lon="-0.20568">
        <ele>1285.8000488281</ele>
        <time>2020-07-19T08:32:51Z</time>
      </trkpt>
      <trkpt lat="42.99552" lon="-0.2056">
        <ele>1285.8000488281</ele>
        <time>2020-07-19T08:32:53Z</time>
      </trkpt>
      <trkpt lat="42.9956" lon="-0.20535">
        <ele>1285.8000488281</ele>
        <time>2020-07-19T08:32:58Z</time>
      </trkpt>
      <trkpt lat="42.99572" lon="-0.20514">
        <ele>1285.8000488281</ele>
        <time>2020-07-19T08:33:03Z</time>
      </trkpt>
      <trkpt lat="42.99591" lon="-0.20498">
        <ele>1285.8000488281</ele>
        <time>2020-07-19T08:33:07Z</time>
      </trkpt>
      <trkpt lat="42.99601" lon="-0.20487">
        <ele>1285.1999511719</ele>
        <time>2020-07-19T08:33:09Z</time>
      </trkpt>
      <trkpt lat="42.99607" lon="-0.20483">
        <ele>1284.8000488281</ele>
        <time>2020-07-19T08:33:10Z</time>
      </trkpt>
      <trkpt lat="42.99613" lon="-0.20478">
        <ele>1284.4000244141</ele>
        <time>2020-07-19T08:33:11Z</time>
      </trkpt>
      <trkpt lat="42.99618" lon="-0.20473">
        <ele>1284</ele>
        <time>2020-07-19T08:33:12Z</time>
      </trkpt>
      <trkpt lat="42.99624" lon="-0.20468">
        <ele>1283.4000244141</ele>
        <time>2020-07-19T08:33:13Z</time>
      </trkpt>
      <trkpt lat="42.99634" lon="-0.20457">
        <ele>1283.4000244141</ele>
        <time>2020-07-19T08:33:15Z</time>
      </trkpt>
      <trkpt lat="42.99646" lon="-0.20438">
        <ele>1283</ele>
        <time>2020-07-19T08:33:18Z</time>
      </trkpt>
      <trkpt lat="42.99651" lon="-0.20435">
        <ele>1282.5999755859</ele>
        <time>2020-07-19T08:33:19Z</time>
      </trkpt>
      <trkpt lat="42.99657" lon="-0.20435">
        <ele>1282.1999511719</ele>
        <time>2020-07-19T08:33:20Z</time>
      </trkpt>
      <trkpt lat="42.99662" lon="-0.20436">
        <ele>1281.8000488281</ele>
        <time>2020-07-19T08:33:21Z</time>
      </trkpt>
      <trkpt lat="42.99667" lon="-0.20439">
        <ele>1281.4000244141</ele>
        <time>2020-07-19T08:33:22Z</time>
      </trkpt>
      <trkpt lat="42.99671" lon="-0.20441">
        <ele>1281.4000244141</ele>
        <time>2020-07-19T08:33:23Z</time>
      </trkpt>
      <trkpt lat="42.99674" lon="-0.20445">
        <ele>1281.4000244141</ele>
        <time>2020-07-19T08:33:24Z</time>
      </trkpt>
      <trkpt lat="42.99689" lon="-0.20457">
        <ele>1281.4000244141</ele>
        <time>2020-07-19T08:33:29Z</time>
      </trkpt>
      <trkpt lat="42.99696" lon="-0.20463">
        <ele>1281.4000244141</ele>
        <time>2020-07-19T08:33:31Z</time>
      </trkpt>
      <trkpt lat="42.99703" lon="-0.20471">
        <ele>1281</ele>
        <time>2020-07-19T08:33:33Z</time>
      </trkpt>
      <trkpt lat="42.99709" lon="-0.20474">
        <ele>1280.5999755859</ele>
        <time>2020-07-19T08:33:34Z</time>
      </trkpt>
      <trkpt lat="42.99716" lon="-0.20478">
        <ele>1280.1999511719</ele>
        <time>2020-07-19T08:33:35Z</time>
      </trkpt>
      <trkpt lat="42.99723" lon="-0.20483">
        <ele>1279.8000488281</ele>
        <time>2020-07-19T08:33:36Z</time>
      </trkpt>
      <trkpt lat="42.99729" lon="-0.20486">
        <ele>1279.1999511719</ele>
        <time>2020-07-19T08:33:37Z</time>
      </trkpt>
      <trkpt lat="42.99739" lon="-0.20492">
        <ele>1279.1999511719</ele>
        <time>2020-07-19T08:33:39Z</time>
      </trkpt>
      <trkpt lat="42.99745" lon="-0.20494">
        <ele>1279.1999511719</ele>
        <time>2020-07-19T08:33:40Z</time>
      </trkpt>
      <trkpt lat="42.99769" lon="-0.20499">
        <ele>1279.1999511719</ele>
        <time>2020-07-19T08:33:44Z</time>
      </trkpt>
      <trkpt lat="42.99784" lon="-0.20506">
        <ele>1279.1999511719</ele>
        <time>2020-07-19T08:33:47Z</time>
      </trkpt>
      <trkpt lat="42.99794" lon="-0.20511">
        <ele>1279.1999511719</ele>
        <time>2020-07-19T08:33:49Z</time>
      </trkpt>
      <trkpt lat="42.99803" lon="-0.20515">
        <ele>1279.1999511719</ele>
        <time>2020-07-19T08:33:51Z</time>
      </trkpt>
      <trkpt lat="42.99817" lon="-0.20519">
        <ele>1279.1999511719</ele>
        <time>2020-07-19T08:33:54Z</time>
      </trkpt>
      <trkpt lat="42.99822" lon="-0.2052">
        <ele>1279.1999511719</ele>
        <time>2020-07-19T08:33:55Z</time>
      </trkpt>
      <trkpt lat="42.99851" lon="-0.20522">
        <ele>1279.8000488281</ele>
        <time>2020-07-19T08:34:02Z</time>
      </trkpt>
      <trkpt lat="42.99853" lon="-0.2052">
        <ele>1280.1999511719</ele>
        <time>2020-07-19T08:34:03Z</time>
      </trkpt>
      <trkpt lat="42.99856" lon="-0.20518">
        <ele>1280.5999755859</ele>
        <time>2020-07-19T08:34:04Z</time>
      </trkpt>
      <trkpt lat="42.99865" lon="-0.20511">
        <ele>1281.1999511719</ele>
        <time>2020-07-19T08:34:05Z</time>
      </trkpt>
      <trkpt lat="42.99872" lon="-0.20505">
        <ele>1281.5999755859</ele>
        <time>2020-07-19T08:34:06Z</time>
      </trkpt>
      <trkpt lat="42.99878" lon="-0.205">
        <ele>1281.5999755859</ele>
        <time>2020-07-19T08:34:07Z</time>
      </trkpt>
      <trkpt lat="42.99883" lon="-0.20499">
        <ele>1281.5999755859</ele>
        <time>2020-07-19T08:34:08Z</time>
      </trkpt>
      <trkpt lat="42.99893" lon="-0.20503">
        <ele>1281.5999755859</ele>
        <time>2020-07-19T08:34:10Z</time>
      </trkpt>
      <trkpt lat="42.99899" lon="-0.20518">
        <ele>1281.5999755859</ele>
        <time>2020-07-19T08:34:13Z</time>
      </trkpt>
      <trkpt lat="42.99895" lon="-0.20532">
        <ele>1281.5999755859</ele>
        <time>2020-07-19T08:34:16Z</time>
      </trkpt>
      <trkpt lat="42.99894" lon="-0.20537">
        <ele>1282</ele>
        <time>2020-07-19T08:34:17Z</time>
      </trkpt>
      <trkpt lat="42.99893" lon="-0.20542">
        <ele>1282.4000244141</ele>
        <time>2020-07-19T08:34:18Z</time>
      </trkpt>
      <trkpt lat="42.99891" lon="-0.20547">
        <ele>1282.8000488281</ele>
        <time>2020-07-19T08:34:19Z</time>
      </trkpt>
      <trkpt lat="42.99891" lon="-0.20552">
        <ele>1283.1999511719</ele>
        <time>2020-07-19T08:34:20Z</time>
      </trkpt>
      <trkpt lat="42.9989" lon="-0.20557">
        <ele>1283.5999755859</ele>
        <time>2020-07-19T08:34:21Z</time>
      </trkpt>
      <trkpt lat="42.99886" lon="-0.20592">
        <ele>1283.5999755859</ele>
        <time>2020-07-19T08:34:27Z</time>
      </trkpt>
      <trkpt lat="42.99877" lon="-0.20637">
        <ele>1283.5999755859</ele>
        <time>2020-07-19T08:34:33Z</time>
      </trkpt>
      <trkpt lat="42.99866" lon="-0.20694">
        <ele>1283.1999511719</ele>
        <time>2020-07-19T08:34:39Z</time>
      </trkpt>
      <trkpt lat="42.99868" lon="-0.20705">
        <ele>1282.8000488281</ele>
        <time>2020-07-19T08:34:40Z</time>
      </trkpt>
      <trkpt lat="42.9987" lon="-0.20716">
        <ele>1282.1999511719</ele>
        <time>2020-07-19T08:34:41Z</time>
      </trkpt>
      <trkpt lat="42.99871" lon="-0.20727">
        <ele>1281.8000488281</ele>
        <time>2020-07-19T08:34:42Z</time>
      </trkpt>
      <trkpt lat="42.99873" lon="-0.20737">
        <ele>1281.4000244141</ele>
        <time>2020-07-19T08:34:43Z</time>
      </trkpt>
      <trkpt lat="42.99873" lon="-0.20748">
        <ele>1281.4000244141</ele>
        <time>2020-07-19T08:34:44Z</time>
      </trkpt>
      <trkpt lat="42.99872" lon="-0.20758">
        <ele>1281</ele>
        <time>2020-07-19T08:34:45Z</time>
      </trkpt>
      <trkpt lat="42.99871" lon="-0.20768">
        <ele>1280.5999755859</ele>
        <time>2020-07-19T08:34:46Z</time>
      </trkpt>
      <trkpt lat="42.99871" lon="-0.20778">
        <ele>1280.1999511719</ele>
        <time>2020-07-19T08:34:47Z</time>
      </trkpt>
      <trkpt lat="42.99871" lon="-0.20788">
        <ele>1279.8000488281</ele>
        <time>2020-07-19T08:34:48Z</time>
      </trkpt>
      <trkpt lat="42.99871" lon="-0.20797">
        <ele>1279.4000244141</ele>
        <time>2020-07-19T08:34:49Z</time>
      </trkpt>
      <trkpt lat="42.99872" lon="-0.20831">
        <ele>1279.4000244141</ele>
        <time>2020-07-19T08:34:53Z</time>
      </trkpt>
      <trkpt lat="42.99873" lon="-0.20863">
        <ele>1279.4000244141</ele>
        <time>2020-07-19T08:34:57Z</time>
      </trkpt>
      <trkpt lat="42.99876" lon="-0.20877">
        <ele>1279.8000488281</ele>
        <time>2020-07-19T08:34:59Z</time>
      </trkpt>
      <trkpt lat="42.99877" lon="-0.20884">
        <ele>1280.1999511719</ele>
        <time>2020-07-19T08:35:00Z</time>
      </trkpt>
      <trkpt lat="42.99877" lon="-0.20889">
        <ele>1280.5999755859</ele>
        <time>2020-07-19T08:35:01Z</time>
      </trkpt>
      <trkpt lat="42.99878" lon="-0.20894">
        <ele>1281</ele>
        <time>2020-07-19T08:35:02Z</time>
      </trkpt>
      <trkpt lat="42.9988" lon="-0.20899">
        <ele>1281.4000244141</ele>
        <time>2020-07-19T08:35:03Z</time>
      </trkpt>
      <trkpt lat="42.99881" lon="-0.20903">
        <ele>1281.8000488281</ele>
        <time>2020-07-19T08:35:04Z</time>
      </trkpt>
      <trkpt lat="42.99882" lon="-0.20907">
        <ele>1282.1999511719</ele>
        <time>2020-07-19T08:35:05Z</time>
      </trkpt>
      <trkpt lat="42.99884" lon="-0.20911">
        <ele>1282.5999755859</ele>
        <time>2020-07-19T08:35:06Z</time>
      </trkpt>
      <trkpt lat="42.99885" lon="-0.20914">
        <ele>1283.1999511719</ele>
        <time>2020-07-19T08:35:07Z</time>
      </trkpt>
      <trkpt lat="42.99886" lon="-0.20917">
        <ele>1283.5999755859</ele>
        <time>2020-07-19T08:35:08Z</time>
      </trkpt>
      <trkpt lat="42.99889" lon="-0.20923">
        <ele>1284</ele>
        <time>2020-07-19T08:35:10Z</time>
      </trkpt>
      <trkpt lat="42.99891" lon="-0.20925">
        <ele>1284.4000244141</ele>
        <time>2020-07-19T08:35:11Z</time>
      </trkpt>
      <trkpt lat="42.99892" lon="-0.20928">
        <ele>1285</ele>
        <time>2020-07-19T08:35:12Z</time>
      </trkpt>
      <trkpt lat="42.99894" lon="-0.20931">
        <ele>1285.4000244141</ele>
        <time>2020-07-19T08:35:13Z</time>
      </trkpt>
      <trkpt lat="42.99895" lon="-0.20934">
        <ele>1285.8000488281</ele>
        <time>2020-07-19T08:35:14Z</time>
      </trkpt>
      <trkpt lat="42.99898" lon="-0.20942">
        <ele>1285.8000488281</ele>
        <time>2020-07-19T08:35:17Z</time>
      </trkpt>
      <trkpt lat="42.99898" lon="-0.20945">
        <ele>1286.1999511719</ele>
        <time>2020-07-19T08:35:18Z</time>
      </trkpt>
      <trkpt lat="42.99898" lon="-0.20948">
        <ele>1286.8000488281</ele>
        <time>2020-07-19T08:35:19Z</time>
      </trkpt>
      <trkpt lat="42.99898" lon="-0.20951">
        <ele>1287.1999511719</ele>
        <time>2020-07-19T08:35:20Z</time>
      </trkpt>
      <trkpt lat="42.99898" lon="-0.20955">
        <ele>1288</ele>
        <time>2020-07-19T08:35:21Z</time>
      </trkpt>
      <trkpt lat="42.99895" lon="-0.20962">
        <ele>1288</ele>
        <time>2020-07-19T08:35:23Z</time>
      </trkpt>
      <trkpt lat="42.99881" lon="-0.20983">
        <ele>1288</ele>
        <time>2020-07-19T08:35:29Z</time>
      </trkpt>
      <trkpt lat="42.99857" lon="-0.21013">
        <ele>1288</ele>
        <time>2020-07-19T08:35:37Z</time>
      </trkpt>
      <trkpt lat="42.99835" lon="-0.21032">
        <ele>1288</ele>
        <time>2020-07-19T08:35:43Z</time>
      </trkpt>
      <trkpt lat="42.99809" lon="-0.21045">
        <ele>1288</ele>
        <time>2020-07-19T08:35:49Z</time>
      </trkpt>
      <trkpt lat="42.99789" lon="-0.21054">
        <ele>1288.4000244141</ele>
        <time>2020-07-19T08:35:55Z</time>
      </trkpt>
      <trkpt lat="42.99787" lon="-0.21055">
        <ele>1289</ele>
        <time>2020-07-19T08:35:56Z</time>
      </trkpt>
      <trkpt lat="42.99784" lon="-0.21056">
        <ele>1289.4000244141</ele>
        <time>2020-07-19T08:35:57Z</time>
      </trkpt>
      <trkpt lat="42.99782" lon="-0.21057">
        <ele>1289.8000488281</ele>
        <time>2020-07-19T08:35:58Z</time>
      </trkpt>
      <trkpt lat="42.9978" lon="-0.21058">
        <ele>1290.1999511719</ele>
        <time>2020-07-19T08:35:59Z</time>
      </trkpt>
      <trkpt lat="42.99772" lon="-0.21061">
        <ele>1290.1999511719</ele>
        <time>2020-07-19T08:36:02Z</time>
      </trkpt>
      <trkpt lat="42.99759" lon="-0.21065">
        <ele>1290.5999755859</ele>
        <time>2020-07-19T08:36:07Z</time>
      </trkpt>
      <trkpt lat="42.99757" lon="-0.21065">
        <ele>1291</ele>
        <time>2020-07-19T08:36:08Z</time>
      </trkpt>
      <trkpt lat="42.99755" lon="-0.21066">
        <ele>1291.4000244141</ele>
        <time>2020-07-19T08:36:09Z</time>
      </trkpt>
      <trkpt lat="42.99752" lon="-0.21067">
        <ele>1292.1999511719</ele>
        <time>2020-07-19T08:36:10Z</time>
      </trkpt>
      <trkpt lat="42.99741" lon="-0.21071">
        <ele>1292.1999511719</ele>
        <time>2020-07-19T08:36:15Z</time>
      </trkpt>
      <trkpt lat="42.99736" lon="-0.21074">
        <ele>1292.1999511719</ele>
        <time>2020-07-19T08:36:17Z</time>
      </trkpt>
      <trkpt lat="42.99729" lon="-0.2108">
        <ele>1292.5999755859</ele>
        <time>2020-07-19T08:36:20Z</time>
      </trkpt>
      <trkpt lat="42.99726" lon="-0.21082">
        <ele>1293</ele>
        <time>2020-07-19T08:36:21Z</time>
      </trkpt>
      <trkpt lat="42.99724" lon="-0.21084">
        <ele>1293.4000244141</ele>
        <time>2020-07-19T08:36:22Z</time>
      </trkpt>
      <trkpt lat="42.99722" lon="-0.21086">
        <ele>1294</ele>
        <time>2020-07-19T08:36:23Z</time>
      </trkpt>
      <trkpt lat="42.99719" lon="-0.21088">
        <ele>1294.4000244141</ele>
        <time>2020-07-19T08:36:24Z</time>
      </trkpt>
      <trkpt lat="42.99713" lon="-0.21095">
        <ele>1294.4000244141</ele>
        <time>2020-07-19T08:36:27Z</time>
      </trkpt>
      <trkpt lat="42.99704" lon="-0.21105">
        <ele>1294.8000488281</ele>
        <time>2020-07-19T08:36:31Z</time>
      </trkpt>
      <trkpt lat="42.99701" lon="-0.21107">
        <ele>1295.1999511719</ele>
        <time>2020-07-19T08:36:32Z</time>
      </trkpt>
      <trkpt lat="42.99699" lon="-0.2111">
        <ele>1295.5999755859</ele>
        <time>2020-07-19T08:36:33Z</time>
      </trkpt>
      <trkpt lat="42.99697" lon="-0.21113">
        <ele>1296</ele>
        <time>2020-07-19T08:36:34Z</time>
      </trkpt>
      <trkpt lat="42.99694" lon="-0.21117">
        <ele>1296.4000244141</ele>
        <time>2020-07-19T08:36:35Z</time>
      </trkpt>
      <trkpt lat="42.99687" lon="-0.2113">
        <ele>1296.4000244141</ele>
        <time>2020-07-19T08:36:38Z</time>
      </trkpt>
      <trkpt lat="42.99684" lon="-0.21135">
        <ele>1296.4000244141</ele>
        <time>2020-07-19T08:36:39Z</time>
      </trkpt>
      <trkpt lat="42.99676" lon="-0.2115">
        <ele>1296.4000244141</ele>
        <time>2020-07-19T08:36:42Z</time>
      </trkpt>
      <trkpt lat="42.99667" lon="-0.21163">
        <ele>1296.4000244141</ele>
        <time>2020-07-19T08:36:45Z</time>
      </trkpt>
      <trkpt lat="42.99651" lon="-0.21175">
        <ele>1296.4000244141</ele>
        <time>2020-07-19T08:36:50Z</time>
      </trkpt>
      <trkpt lat="42.99634" lon="-0.21181">
        <ele>1296.4000244141</ele>
        <time>2020-07-19T08:36:55Z</time>
      </trkpt>
      <trkpt lat="42.99627" lon="-0.21183">
        <ele>1296.8000488281</ele>
        <time>2020-07-19T08:36:57Z</time>
      </trkpt>
      <trkpt lat="42.99623" lon="-0.21184">
        <ele>1297.1999511719</ele>
        <time>2020-07-19T08:36:58Z</time>
      </trkpt>
      <trkpt lat="42.9962" lon="-0.21184">
        <ele>1297.8000488281</ele>
        <time>2020-07-19T08:36:59Z</time>
      </trkpt>
      <trkpt lat="42.99616" lon="-0.21184">
        <ele>1298.1999511719</ele>
        <time>2020-07-19T08:37:00Z</time>
      </trkpt>
      <trkpt lat="42.99613" lon="-0.21184">
        <ele>1298.5999755859</ele>
        <time>2020-07-19T08:37:01Z</time>
      </trkpt>
      <trkpt lat="42.996" lon="-0.21182">
        <ele>1299</ele>
        <time>2020-07-19T08:37:05Z</time>
      </trkpt>
      <trkpt lat="42.99597" lon="-0.21182">
        <ele>1299.4000244141</ele>
        <time>2020-07-19T08:37:06Z</time>
      </trkpt>
      <trkpt lat="42.99593" lon="-0.21181">
        <ele>1299.8000488281</ele>
        <time>2020-07-19T08:37:07Z</time>
      </trkpt>
      <trkpt lat="42.9959" lon="-0.2118">
        <ele>1300.4000244141</ele>
        <time>2020-07-19T08:37:08Z</time>
      </trkpt>
      <trkpt lat="42.99587" lon="-0.21179">
        <ele>1300.8000488281</ele>
        <time>2020-07-19T08:37:09Z</time>
      </trkpt>
      <trkpt lat="42.99571" lon="-0.21175">
        <ele>1301.1999511719</ele>
        <time>2020-07-19T08:37:14Z</time>
      </trkpt>
      <trkpt lat="42.99567" lon="-0.21174">
        <ele>1301.5999755859</ele>
        <time>2020-07-19T08:37:15Z</time>
      </trkpt>
      <trkpt lat="42.99563" lon="-0.21173">
        <ele>1302</ele>
        <time>2020-07-19T08:37:16Z</time>
      </trkpt>
      <trkpt lat="42.9956" lon="-0.21173">
        <ele>1302.4000244141</ele>
        <time>2020-07-19T08:37:17Z</time>
      </trkpt>
      <trkpt lat="42.99556" lon="-0.21172">
        <ele>1302.8000488281</ele>
        <time>2020-07-19T08:37:18Z</time>
      </trkpt>
      <trkpt lat="42.99553" lon="-0.21171">
        <ele>1302.8000488281</ele>
        <time>2020-07-19T08:37:19Z</time>
      </trkpt>
      <trkpt lat="42.99533" lon="-0.21165">
        <ele>1303.8000488281</ele>
        <time>2020-07-19T08:37:25Z</time>
      </trkpt>
      <trkpt lat="42.9953" lon="-0.21165">
        <ele>1304.1999511719</ele>
        <time>2020-07-19T08:37:26Z</time>
      </trkpt>
      <trkpt lat="42.99527" lon="-0.21164">
        <ele>1304.5999755859</ele>
        <time>2020-07-19T08:37:27Z</time>
      </trkpt>
      <trkpt lat="42.99524" lon="-0.21163">
        <ele>1305</ele>
        <time>2020-07-19T08:37:28Z</time>
      </trkpt>
      <trkpt lat="42.99505" lon="-0.21156">
        <ele>1305.4000244141</ele>
        <time>2020-07-19T08:37:35Z</time>
      </trkpt>
      <trkpt lat="42.99502" lon="-0.21155">
        <ele>1305.8000488281</ele>
        <time>2020-07-19T08:37:36Z</time>
      </trkpt>
      <trkpt lat="42.995" lon="-0.21153">
        <ele>1306.4000244141</ele>
        <time>2020-07-19T08:37:37Z</time>
      </trkpt>
      <trkpt lat="42.99498" lon="-0.21152">
        <ele>1306.8000488281</ele>
        <time>2020-07-19T08:37:38Z</time>
      </trkpt>
      <trkpt lat="42.99496" lon="-0.2115">
        <ele>1307.1999511719</ele>
        <time>2020-07-19T08:37:39Z</time>
      </trkpt>
      <trkpt lat="42.99492" lon="-0.21145">
        <ele>1307.5999755859</ele>
        <time>2020-07-19T08:37:42Z</time>
      </trkpt>
      <trkpt lat="42.9949" lon="-0.21143">
        <ele>1308</ele>
        <time>2020-07-19T08:37:43Z</time>
      </trkpt>
      <trkpt lat="42.99489" lon="-0.21141">
        <ele>1308.4000244141</ele>
        <time>2020-07-19T08:37:44Z</time>
      </trkpt>
      <trkpt lat="42.99487" lon="-0.21139">
        <ele>1308.8000488281</ele>
        <time>2020-07-19T08:37:45Z</time>
      </trkpt>
      <trkpt lat="42.99485" lon="-0.21138">
        <ele>1309.1999511719</ele>
        <time>2020-07-19T08:37:46Z</time>
      </trkpt>
      <trkpt lat="42.99482" lon="-0.21134">
        <ele>1309.1999511719</ele>
        <time>2020-07-19T08:37:48Z</time>
      </trkpt>
      <trkpt lat="42.99479" lon="-0.21131">
        <ele>1309.8000488281</ele>
        <time>2020-07-19T08:37:50Z</time>
      </trkpt>
      <trkpt lat="42.99477" lon="-0.2113">
        <ele>1310.1999511719</ele>
        <time>2020-07-19T08:37:51Z</time>
      </trkpt>
      <trkpt lat="42.99475" lon="-0.21129">
        <ele>1310.5999755859</ele>
        <time>2020-07-19T08:37:52Z</time>
      </trkpt>
      <trkpt lat="42.99473" lon="-0.21129">
        <ele>1311</ele>
        <time>2020-07-19T08:37:53Z</time>
      </trkpt>
      <trkpt lat="42.99471" lon="-0.21128">
        <ele>1311.4000244141</ele>
        <time>2020-07-19T08:37:54Z</time>
      </trkpt>
      <trkpt lat="42.9947" lon="-0.21128">
        <ele>1311.4000244141</ele>
        <time>2020-07-19T08:37:55Z</time>
      </trkpt>
      <trkpt lat="42.99462" lon="-0.21125">
        <ele>1311.4000244141</ele>
        <time>2020-07-19T08:38:01Z</time>
      </trkpt>
      <trkpt lat="42.99451" lon="-0.21126">
        <ele>1311.8000488281</ele>
        <time>2020-07-19T08:38:07Z</time>
      </trkpt>
      <trkpt lat="42.99449" lon="-0.21127">
        <ele>1312.1999511719</ele>
        <time>2020-07-19T08:38:08Z</time>
      </trkpt>
      <trkpt lat="42.99447" lon="-0.21127">
        <ele>1312.5999755859</ele>
        <time>2020-07-19T08:38:09Z</time>
      </trkpt>
      <trkpt lat="42.99445" lon="-0.21128">
        <ele>1313</ele>
        <time>2020-07-19T08:38:10Z</time>
      </trkpt>
      <trkpt lat="42.99443" lon="-0.21128">
        <ele>1313.4000244141</ele>
        <time>2020-07-19T08:38:11Z</time>
      </trkpt>
      <trkpt lat="42.99438" lon="-0.21128">
        <ele>1313.4000244141</ele>
        <time>2020-07-19T08:38:14Z</time>
      </trkpt>
      <trkpt lat="42.99426" lon="-0.21129">
        <ele>1313.4000244141</ele>
        <time>2020-07-19T08:38:20Z</time>
      </trkpt>
      <trkpt lat="42.99409" lon="-0.21132">
        <ele>1313.4000244141</ele>
        <time>2020-07-19T08:38:25Z</time>
      </trkpt>
      <trkpt lat="42.99405" lon="-0.21133">
        <ele>1313.4000244141</ele>
        <time>2020-07-19T08:38:26Z</time>
      </trkpt>
      <trkpt lat="42.99389" lon="-0.21133">
        <ele>1313</ele>
        <time>2020-07-19T08:38:29Z</time>
      </trkpt>
      <trkpt lat="42.99384" lon="-0.21132">
        <ele>1312.5999755859</ele>
        <time>2020-07-19T08:38:30Z</time>
      </trkpt>
      <trkpt lat="42.99378" lon="-0.21132">
        <ele>1312.1999511719</ele>
        <time>2020-07-19T08:38:31Z</time>
      </trkpt>
      <trkpt lat="42.99373" lon="-0.21132">
        <ele>1311.8000488281</ele>
        <time>2020-07-19T08:38:32Z</time>
      </trkpt>
      <trkpt lat="42.99367" lon="-0.21132">
        <ele>1311.4000244141</ele>
        <time>2020-07-19T08:38:33Z</time>
      </trkpt>
      <trkpt lat="42.99354" lon="-0.21132">
        <ele>1311</ele>
        <time>2020-07-19T08:38:35Z</time>
      </trkpt>
      <trkpt lat="42.99347" lon="-0.21131">
        <ele>1310.4000244141</ele>
        <time>2020-07-19T08:38:36Z</time>
      </trkpt>
      <trkpt lat="42.99339" lon="-0.21131">
        <ele>1310</ele>
        <time>2020-07-19T08:38:37Z</time>
      </trkpt>
      <trkpt lat="42.99332" lon="-0.21129">
        <ele>1309.5999755859</ele>
        <time>2020-07-19T08:38:38Z</time>
      </trkpt>
      <trkpt lat="42.99325" lon="-0.21128">
        <ele>1308.5999755859</ele>
        <time>2020-07-19T08:38:39Z</time>
      </trkpt>
      <trkpt lat="42.99318" lon="-0.21126">
        <ele>1308.1999511719</ele>
        <time>2020-07-19T08:38:40Z</time>
      </trkpt>
      <trkpt lat="42.99312" lon="-0.21126">
        <ele>1307.8000488281</ele>
        <time>2020-07-19T08:38:41Z</time>
      </trkpt>
      <trkpt lat="42.99305" lon="-0.21125">
        <ele>1307.1999511719</ele>
        <time>2020-07-19T08:38:42Z</time>
      </trkpt>
      <trkpt lat="42.99298" lon="-0.21125">
        <ele>1306.8000488281</ele>
        <time>2020-07-19T08:38:43Z</time>
      </trkpt>
      <trkpt lat="42.99291" lon="-0.21126">
        <ele>1306.8000488281</ele>
        <time>2020-07-19T08:38:44Z</time>
      </trkpt>
      <trkpt lat="42.99263" lon="-0.21129">
        <ele>1306.4000244141</ele>
        <time>2020-07-19T08:38:48Z</time>
      </trkpt>
      <trkpt lat="42.99258" lon="-0.2113">
        <ele>1306</ele>
        <time>2020-07-19T08:38:49Z</time>
      </trkpt>
      <trkpt lat="42.99253" lon="-0.2113">
        <ele>1305.4000244141</ele>
        <time>2020-07-19T08:38:50Z</time>
      </trkpt>
      <trkpt lat="42.99248" lon="-0.21128">
        <ele>1305</ele>
        <time>2020-07-19T08:38:51Z</time>
      </trkpt>
      <trkpt lat="42.99244" lon="-0.21127">
        <ele>1304.5999755859</ele>
        <time>2020-07-19T08:38:52Z</time>
      </trkpt>
      <trkpt lat="42.99242" lon="-0.21127">
        <ele>1304.5999755859</ele>
        <time>2020-07-19T08:38:53Z</time>
      </trkpt>
      <trkpt lat="42.99235" lon="-0.21133">
        <ele>1304.5999755859</ele>
        <time>2020-07-19T08:38:57Z</time>
      </trkpt>
      <trkpt lat="42.99231" lon="-0.21137">
        <ele>1304.5999755859</ele>
        <time>2020-07-19T08:38:59Z</time>
      </trkpt>
      <trkpt lat="42.99226" lon="-0.21145">
        <ele>1304.5999755859</ele>
        <time>2020-07-19T08:39:02Z</time>
      </trkpt>
      <trkpt lat="42.99218" lon="-0.2116">
        <ele>1304.5999755859</ele>
        <time>2020-07-19T08:39:07Z</time>
      </trkpt>
      <trkpt lat="42.99216" lon="-0.21166">
        <ele>1304.5999755859</ele>
        <time>2020-07-19T08:39:09Z</time>
      </trkpt>
      <trkpt lat="42.99215" lon="-0.21169">
        <ele>1305</ele>
        <time>2020-07-19T08:39:10Z</time>
      </trkpt>
      <trkpt lat="42.99214" lon="-0.21172">
        <ele>1305.4000244141</ele>
        <time>2020-07-19T08:39:11Z</time>
      </trkpt>
      <trkpt lat="42.99213" lon="-0.21174">
        <ele>1305.8000488281</ele>
        <time>2020-07-19T08:39:12Z</time>
      </trkpt>
      <trkpt lat="42.99212" lon="-0.21177">
        <ele>1306.1999511719</ele>
        <time>2020-07-19T08:39:13Z</time>
      </trkpt>
      <trkpt lat="42.99211" lon="-0.2118">
        <ele>1306.5999755859</ele>
        <time>2020-07-19T08:39:14Z</time>
      </trkpt>
      <trkpt lat="42.99202" lon="-0.21189">
        <ele>1306.5999755859</ele>
        <time>2020-07-19T08:39:17Z</time>
      </trkpt>
      <trkpt lat="42.99187" lon="-0.21202">
        <ele>1307.1999511719</ele>
        <time>2020-07-19T08:39:23Z</time>
      </trkpt>
      <trkpt lat="42.99185" lon="-0.21205">
        <ele>1307.5999755859</ele>
        <time>2020-07-19T08:39:24Z</time>
      </trkpt>
      <trkpt lat="42.99182" lon="-0.21208">
        <ele>1308</ele>
        <time>2020-07-19T08:39:25Z</time>
      </trkpt>
      <trkpt lat="42.9918" lon="-0.2121">
        <ele>1308.4000244141</ele>
        <time>2020-07-19T08:39:26Z</time>
      </trkpt>
      <trkpt lat="42.99178" lon="-0.21212">
        <ele>1308.8000488281</ele>
        <time>2020-07-19T08:39:27Z</time>
      </trkpt>
      <trkpt lat="42.99173" lon="-0.21222">
        <ele>1308.8000488281</ele>
        <time>2020-07-19T08:39:30Z</time>
      </trkpt>
      <trkpt lat="42.99164" lon="-0.21239">
        <ele>1309.1999511719</ele>
        <time>2020-07-19T08:39:35Z</time>
      </trkpt>
      <trkpt lat="42.99162" lon="-0.21243">
        <ele>1309.5999755859</ele>
        <time>2020-07-19T08:39:36Z</time>
      </trkpt>
      <trkpt lat="42.9916" lon="-0.21246">
        <ele>1310</ele>
        <time>2020-07-19T08:39:37Z</time>
      </trkpt>
      <trkpt lat="42.99159" lon="-0.21249">
        <ele>1310.4000244141</ele>
        <time>2020-07-19T08:39:38Z</time>
      </trkpt>
      <trkpt lat="42.99157" lon="-0.21251">
        <ele>1310.8000488281</ele>
        <time>2020-07-19T08:39:39Z</time>
      </trkpt>
      <trkpt lat="42.9915" lon="-0.21263">
        <ele>1310.8000488281</ele>
        <time>2020-07-19T08:39:43Z</time>
      </trkpt>
      <trkpt lat="42.99136" lon="-0.21286">
        <ele>1310.8000488281</ele>
        <time>2020-07-19T08:39:49Z</time>
      </trkpt>
      <trkpt lat="42.9913" lon="-0.21303">
        <ele>1310.8000488281</ele>
        <time>2020-07-19T08:39:52Z</time>
      </trkpt>
      <trkpt lat="42.99127" lon="-0.21317">
        <ele>1310.8000488281</ele>
        <time>2020-07-19T08:39:54Z</time>
      </trkpt>
      <trkpt lat="42.9912" lon="-0.21358">
        <ele>1310.8000488281</ele>
        <time>2020-07-19T08:39:59Z</time>
      </trkpt>
      <trkpt lat="42.99115" lon="-0.21388">
        <ele>1310.4000244141</ele>
        <time>2020-07-19T08:40:02Z</time>
      </trkpt>
      <trkpt lat="42.99113" lon="-0.21398">
        <ele>1310</ele>
        <time>2020-07-19T08:40:03Z</time>
      </trkpt>
      <trkpt lat="42.9911" lon="-0.21409">
        <ele>1309.5999755859</ele>
        <time>2020-07-19T08:40:04Z</time>
      </trkpt>
      <trkpt lat="42.99108" lon="-0.21419">
        <ele>1309.1999511719</ele>
        <time>2020-07-19T08:40:05Z</time>
      </trkpt>
      <trkpt lat="42.99106" lon="-0.21429">
        <ele>1308.5999755859</ele>
        <time>2020-07-19T08:40:06Z</time>
      </trkpt>
      <trkpt lat="42.99104" lon="-0.21438">
        <ele>1308</ele>
        <time>2020-07-19T08:40:07Z</time>
      </trkpt>
      <trkpt lat="42.99102" lon="-0.21446">
        <ele>1307.4000244141</ele>
        <time>2020-07-19T08:40:08Z</time>
      </trkpt>
      <trkpt lat="42.991" lon="-0.21453">
        <ele>1306.8000488281</ele>
        <time>2020-07-19T08:40:09Z</time>
      </trkpt>
      <trkpt lat="42.99098" lon="-0.2146">
        <ele>1306.1999511719</ele>
        <time>2020-07-19T08:40:10Z</time>
      </trkpt>
      <trkpt lat="42.99096" lon="-0.21466">
        <ele>1305.5999755859</ele>
        <time>2020-07-19T08:40:11Z</time>
      </trkpt>
      <trkpt lat="42.99094" lon="-0.21471">
        <ele>1305</ele>
        <time>2020-07-19T08:40:12Z</time>
      </trkpt>
      <trkpt lat="42.99092" lon="-0.21476">
        <ele>1304.4000244141</ele>
        <time>2020-07-19T08:40:13Z</time>
      </trkpt>
      <trkpt lat="42.99092" lon="-0.21481">
        <ele>1303.8000488281</ele>
        <time>2020-07-19T08:40:14Z</time>
      </trkpt>
      <trkpt lat="42.99091" lon="-0.21491">
        <ele>1303.8000488281</ele>
        <time>2020-07-19T08:40:16Z</time>
      </trkpt>
      <trkpt lat="42.99089" lon="-0.21504">
        <ele>1303</ele>
        <time>2020-07-19T08:40:18Z</time>
      </trkpt>
      <trkpt lat="42.99089" lon="-0.21511">
        <ele>1302.5999755859</ele>
        <time>2020-07-19T08:40:19Z</time>
      </trkpt>
      <trkpt lat="42.99088" lon="-0.21517">
        <ele>1302.1999511719</ele>
        <time>2020-07-19T08:40:20Z</time>
      </trkpt>
      <trkpt lat="42.99088" lon="-0.21524">
        <ele>1301.8000488281</ele>
        <time>2020-07-19T08:40:21Z</time>
      </trkpt>
      <trkpt lat="42.99087" lon="-0.21547">
        <ele>1301.1999511719</ele>
        <time>2020-07-19T08:40:24Z</time>
      </trkpt>
      <trkpt lat="42.99087" lon="-0.21554">
        <ele>1300.8000488281</ele>
        <time>2020-07-19T08:40:25Z</time>
      </trkpt>
      <trkpt lat="42.99087" lon="-0.21562">
        <ele>1300.4000244141</ele>
        <time>2020-07-19T08:40:26Z</time>
      </trkpt>
      <trkpt lat="42.99087" lon="-0.2157">
        <ele>1300</ele>
        <time>2020-07-19T08:40:27Z</time>
      </trkpt>
      <trkpt lat="42.99087" lon="-0.21579">
        <ele>1299.5999755859</ele>
        <time>2020-07-19T08:40:28Z</time>
      </trkpt>
      <trkpt lat="42.99087" lon="-0.21606">
        <ele>1299</ele>
        <time>2020-07-19T08:40:31Z</time>
      </trkpt>
      <trkpt lat="42.99087" lon="-0.21614">
        <ele>1298.5999755859</ele>
        <time>2020-07-19T08:40:32Z</time>
      </trkpt>
      <trkpt lat="42.99087" lon="-0.21624">
        <ele>1298.1999511719</ele>
        <time>2020-07-19T08:40:33Z</time>
      </trkpt>
      <trkpt lat="42.99087" lon="-0.21633">
        <ele>1297.5999755859</ele>
        <time>2020-07-19T08:40:34Z</time>
      </trkpt>
      <trkpt lat="42.99087" lon="-0.21642">
        <ele>1297.1999511719</ele>
        <time>2020-07-19T08:40:35Z</time>
      </trkpt>
      <trkpt lat="42.99087" lon="-0.21652">
        <ele>1296.5999755859</ele>
        <time>2020-07-19T08:40:36Z</time>
      </trkpt>
      <trkpt lat="42.99087" lon="-0.21662">
        <ele>1296.1999511719</ele>
        <time>2020-07-19T08:40:37Z</time>
      </trkpt>
      <trkpt lat="42.99087" lon="-0.21671">
        <ele>1295.5999755859</ele>
        <time>2020-07-19T08:40:38Z</time>
      </trkpt>
      <trkpt lat="42.99086" lon="-0.21679">
        <ele>1295.1999511719</ele>
        <time>2020-07-19T08:40:39Z</time>
      </trkpt>
      <trkpt lat="42.99085" lon="-0.21685">
        <ele>1294.5999755859</ele>
        <time>2020-07-19T08:40:40Z</time>
      </trkpt>
      <trkpt lat="42.99086" lon="-0.21691">
        <ele>1294.1999511719</ele>
        <time>2020-07-19T08:40:41Z</time>
      </trkpt>
      <trkpt lat="42.99087" lon="-0.21694">
        <ele>1293.5999755859</ele>
        <time>2020-07-19T08:40:42Z</time>
      </trkpt>
      <trkpt lat="42.99089" lon="-0.21694">
        <ele>1292.5999755859</ele>
        <time>2020-07-19T08:40:43Z</time>
      </trkpt>
      <trkpt lat="42.99091" lon="-0.21692">
        <ele>1292.5999755859</ele>
        <time>2020-07-19T08:40:44Z</time>
      </trkpt>
      <trkpt lat="42.99093" lon="-0.21688">
        <ele>1292.1999511719</ele>
        <time>2020-07-19T08:40:45Z</time>
      </trkpt>
      <trkpt lat="42.99094" lon="-0.21683">
        <ele>1291.8000488281</ele>
        <time>2020-07-19T08:40:46Z</time>
      </trkpt>
      <trkpt lat="42.99094" lon="-0.21677">
        <ele>1291.4000244141</ele>
        <time>2020-07-19T08:40:47Z</time>
      </trkpt>
      <trkpt lat="42.99095" lon="-0.21671">
        <ele>1291</ele>
        <time>2020-07-19T08:40:48Z</time>
      </trkpt>
      <trkpt lat="42.99096" lon="-0.21664">
        <ele>1290.4000244141</ele>
        <time>2020-07-19T08:40:49Z</time>
      </trkpt>
      <trkpt lat="42.99097" lon="-0.21656">
        <ele>1290</ele>
        <time>2020-07-19T08:40:50Z</time>
      </trkpt>
      <trkpt lat="42.99098" lon="-0.21647">
        <ele>1289.5999755859</ele>
        <time>2020-07-19T08:40:51Z</time>
      </trkpt>
      <trkpt lat="42.99099" lon="-0.21637">
        <ele>1289.1999511719</ele>
        <time>2020-07-19T08:40:52Z</time>
      </trkpt>
      <trkpt lat="42.99101" lon="-0.21628">
        <ele>1288.8000488281</ele>
        <time>2020-07-19T08:40:53Z</time>
      </trkpt>
      <trkpt lat="42.99102" lon="-0.21619">
        <ele>1288.4000244141</ele>
        <time>2020-07-19T08:40:54Z</time>
      </trkpt>
      <trkpt lat="42.99103" lon="-0.21611">
        <ele>1288</ele>
        <time>2020-07-19T08:40:55Z</time>
      </trkpt>
      <trkpt lat="42.99103" lon="-0.21604">
        <ele>1287.4000244141</ele>
        <time>2020-07-19T08:40:56Z</time>
      </trkpt>
      <trkpt lat="42.99104" lon="-0.21599">
        <ele>1287</ele>
        <time>2020-07-19T08:40:57Z</time>
      </trkpt>
      <trkpt lat="42.99106" lon="-0.21596">
        <ele>1286.5999755859</ele>
        <time>2020-07-19T08:40:58Z</time>
      </trkpt>
      <trkpt lat="42.99109" lon="-0.21596">
        <ele>1286.1999511719</ele>
        <time>2020-07-19T08:40:59Z</time>
      </trkpt>
      <trkpt lat="42.99112" lon="-0.21598">
        <ele>1285.8000488281</ele>
        <time>2020-07-19T08:41:00Z</time>
      </trkpt>
      <trkpt lat="42.99113" lon="-0.21601">
        <ele>1285.4000244141</ele>
        <time>2020-07-19T08:41:01Z</time>
      </trkpt>
      <trkpt lat="42.99114" lon="-0.21606">
        <ele>1285</ele>
        <time>2020-07-19T08:41:02Z</time>
      </trkpt>
      <trkpt lat="42.99113" lon="-0.21612">
        <ele>1284.5999755859</ele>
        <time>2020-07-19T08:41:03Z</time>
      </trkpt>
      <trkpt lat="42.99113" lon="-0.21619">
        <ele>1284</ele>
        <time>2020-07-19T08:41:04Z</time>
      </trkpt>
      <trkpt lat="42.99113" lon="-0.21626">
        <ele>1284</ele>
        <time>2020-07-19T08:41:05Z</time>
      </trkpt>
      <trkpt lat="42.99113" lon="-0.21634">
        <ele>1284</ele>
        <time>2020-07-19T08:41:06Z</time>
      </trkpt>
      <trkpt lat="42.99113" lon="-0.21654">
        <ele>1283.1999511719</ele>
        <time>2020-07-19T08:41:08Z</time>
      </trkpt>
      <trkpt lat="42.99112" lon="-0.21664">
        <ele>1282.5999755859</ele>
        <time>2020-07-19T08:41:09Z</time>
      </trkpt>
      <trkpt lat="42.99112" lon="-0.21674">
        <ele>1282.1999511719</ele>
        <time>2020-07-19T08:41:10Z</time>
      </trkpt>
      <trkpt lat="42.99112" lon="-0.21683">
        <ele>1281.5999755859</ele>
        <time>2020-07-19T08:41:11Z</time>
      </trkpt>
      <trkpt lat="42.99112" lon="-0.21693">
        <ele>1281.1999511719</ele>
        <time>2020-07-19T08:41:12Z</time>
      </trkpt>
      <trkpt lat="42.99111" lon="-0.21702">
        <ele>1280.8000488281</ele>
        <time>2020-07-19T08:41:13Z</time>
      </trkpt>
      <trkpt lat="42.9911" lon="-0.21711">
        <ele>1280.4000244141</ele>
        <time>2020-07-19T08:41:14Z</time>
      </trkpt>
      <trkpt lat="42.99109" lon="-0.21719">
        <ele>1280</ele>
        <time>2020-07-19T08:41:15Z</time>
      </trkpt>
      <trkpt lat="42.99109" lon="-0.21727">
        <ele>1279.5999755859</ele>
        <time>2020-07-19T08:41:16Z</time>
      </trkpt>
      <trkpt lat="42.99106" lon="-0.21751">
        <ele>1279.5999755859</ele>
        <time>2020-07-19T08:41:19Z</time>
      </trkpt>
      <trkpt lat="42.99108" lon="-0.21765">
        <ele>1279.5999755859</ele>
        <time>2020-07-19T08:41:21Z</time>
      </trkpt>
      <trkpt lat="42.9911" lon="-0.2177">
        <ele>1279.5999755859</ele>
        <time>2020-07-19T08:41:23Z</time>
      </trkpt>
      <trkpt lat="42.99113" lon="-0.21768">
        <ele>1279.5999755859</ele>
        <time>2020-07-19T08:41:24Z</time>
      </trkpt>
      <trkpt lat="42.9912" lon="-0.21761">
        <ele>1279.5999755859</ele>
        <time>2020-07-19T08:41:26Z</time>
      </trkpt>
      <trkpt lat="42.99129" lon="-0.21751">
        <ele>1279.5999755859</ele>
        <time>2020-07-19T08:41:28Z</time>
      </trkpt>
      <trkpt lat="42.99139" lon="-0.21743">
        <ele>1279.5999755859</ele>
        <time>2020-07-19T08:41:30Z</time>
      </trkpt>
      <trkpt lat="42.99158" lon="-0.21735">
        <ele>1279.5999755859</ele>
        <time>2020-07-19T08:41:35Z</time>
      </trkpt>
      <trkpt lat="42.99175" lon="-0.21731">
        <ele>1279.5999755859</ele>
        <time>2020-07-19T08:41:42Z</time>
      </trkpt>
      <trkpt lat="42.9918" lon="-0.2173">
        <ele>1280</ele>
        <time>2020-07-19T08:41:44Z</time>
      </trkpt>
      <trkpt lat="42.99182" lon="-0.2173">
        <ele>1280.4000244141</ele>
        <time>2020-07-19T08:41:45Z</time>
      </trkpt>
      <trkpt lat="42.99184" lon="-0.2173">
        <ele>1280.8000488281</ele>
        <time>2020-07-19T08:41:46Z</time>
      </trkpt>
      <trkpt lat="42.99187" lon="-0.21731">
        <ele>1281.1999511719</ele>
        <time>2020-07-19T08:41:47Z</time>
      </trkpt>
      <trkpt lat="42.99189" lon="-0.21731">
        <ele>1281.5999755859</ele>
        <time>2020-07-19T08:41:48Z</time>
      </trkpt>
      <trkpt lat="42.99197" lon="-0.21732">
        <ele>1282</ele>
        <time>2020-07-19T08:41:52Z</time>
      </trkpt>
      <trkpt lat="42.99199" lon="-0.21733">
        <ele>1282.4000244141</ele>
        <time>2020-07-19T08:41:53Z</time>
      </trkpt>
      <trkpt lat="42.99201" lon="-0.21733">
        <ele>1282.8000488281</ele>
        <time>2020-07-19T08:41:54Z</time>
      </trkpt>
      <trkpt lat="42.99202" lon="-0.21735">
        <ele>1283.1999511719</ele>
        <time>2020-07-19T08:41:55Z</time>
      </trkpt>
      <trkpt lat="42.99204" lon="-0.21735">
        <ele>1283.5999755859</ele>
        <time>2020-07-19T08:41:56Z</time>
      </trkpt>
      <trkpt lat="42.99209" lon="-0.21741">
        <ele>1283.5999755859</ele>
        <time>2020-07-19T08:41:59Z</time>
      </trkpt>
      <trkpt lat="42.99211" lon="-0.21743">
        <ele>1284.1999511719</ele>
        <time>2020-07-19T08:42:00Z</time>
      </trkpt>
      <trkpt lat="42.99212" lon="-0.21745">
        <ele>1284.5999755859</ele>
        <time>2020-07-19T08:42:01Z</time>
      </trkpt>
      <trkpt lat="42.99213" lon="-0.21746">
        <ele>1285</ele>
        <time>2020-07-19T08:42:02Z</time>
      </trkpt>
      <trkpt lat="42.99215" lon="-0.21748">
        <ele>1285.4000244141</ele>
        <time>2020-07-19T08:42:03Z</time>
      </trkpt>
      <trkpt lat="42.99216" lon="-0.2175">
        <ele>1285.8000488281</ele>
        <time>2020-07-19T08:42:04Z</time>
      </trkpt>
      <trkpt lat="42.99219" lon="-0.21755">
        <ele>1285.8000488281</ele>
        <time>2020-07-19T08:42:06Z</time>
      </trkpt>
      <trkpt lat="42.99231" lon="-0.21763">
        <ele>1285.8000488281</ele>
        <time>2020-07-19T08:42:10Z</time>
      </trkpt>
      <trkpt lat="42.99245" lon="-0.21765">
        <ele>1285.8000488281</ele>
        <time>2020-07-19T08:42:15Z</time>
      </trkpt>
      <trkpt lat="42.99262" lon="-0.21767">
        <ele>1285.8000488281</ele>
        <time>2020-07-19T08:42:22Z</time>
      </trkpt>
      <trkpt lat="42.99273" lon="-0.21769">
        <ele>1286.1999511719</ele>
        <time>2020-07-19T08:42:27Z</time>
      </trkpt>
      <trkpt lat="42.99275" lon="-0.2177">
        <ele>1286.8000488281</ele>
        <time>2020-07-19T08:42:28Z</time>
      </trkpt>
      <trkpt lat="42.99277" lon="-0.21769">
        <ele>1287.1999511719</ele>
        <time>2020-07-19T08:42:29Z</time>
      </trkpt>
      <trkpt lat="42.99278" lon="-0.2177">
        <ele>1287.5999755859</ele>
        <time>2020-07-19T08:42:30Z</time>
      </trkpt>
      <trkpt lat="42.9928" lon="-0.21771">
        <ele>1288</ele>
        <time>2020-07-19T08:42:31Z</time>
      </trkpt>
      <trkpt lat="42.9929" lon="-0.21773">
        <ele>1288</ele>
        <time>2020-07-19T08:42:36Z</time>
      </trkpt>
      <trkpt lat="42.99294" lon="-0.21776">
        <ele>1288.4000244141</ele>
        <time>2020-07-19T08:42:38Z</time>
      </trkpt>
      <trkpt lat="42.99296" lon="-0.21777">
        <ele>1288.8000488281</ele>
        <time>2020-07-19T08:42:39Z</time>
      </trkpt>
      <trkpt lat="42.99298" lon="-0.21778">
        <ele>1289.1999511719</ele>
        <time>2020-07-19T08:42:40Z</time>
      </trkpt>
      <trkpt lat="42.993" lon="-0.2178">
        <ele>1289.5999755859</ele>
        <time>2020-07-19T08:42:41Z</time>
      </trkpt>
      <trkpt lat="42.99302" lon="-0.21781">
        <ele>1290.1999511719</ele>
        <time>2020-07-19T08:42:42Z</time>
      </trkpt>
      <trkpt lat="42.9931" lon="-0.21792">
        <ele>1290.1999511719</ele>
        <time>2020-07-19T08:42:49Z</time>
      </trkpt>
      <trkpt lat="42.99313" lon="-0.21794">
        <ele>1290.5999755859</ele>
        <time>2020-07-19T08:42:50Z</time>
      </trkpt>
      <trkpt lat="42.99314" lon="-0.21795">
        <ele>1291</ele>
        <time>2020-07-19T08:42:51Z</time>
      </trkpt>
      <trkpt lat="42.99316" lon="-0.21796">
        <ele>1291.4000244141</ele>
        <time>2020-07-19T08:42:52Z</time>
      </trkpt>
      <trkpt lat="42.99319" lon="-0.21797">
        <ele>1291.8000488281</ele>
        <time>2020-07-19T08:42:53Z</time>
      </trkpt>
      <trkpt lat="42.9932" lon="-0.21798">
        <ele>1292.4000244141</ele>
        <time>2020-07-19T08:42:54Z</time>
      </trkpt>
      <trkpt lat="42.99322" lon="-0.21799">
        <ele>1292.4000244141</ele>
        <time>2020-07-19T08:42:55Z</time>
      </trkpt>
      <trkpt lat="42.99337" lon="-0.21802">
        <ele>1292.4000244141</ele>
        <time>2020-07-19T08:43:01Z</time>
      </trkpt>
      <trkpt lat="42.99338" lon="-0.21803">
        <ele>1292.8000488281</ele>
        <time>2020-07-19T08:43:02Z</time>
      </trkpt>
      <trkpt lat="42.99341" lon="-0.21804">
        <ele>1293.1999511719</ele>
        <time>2020-07-19T08:43:03Z</time>
      </trkpt>
      <trkpt lat="42.99343" lon="-0.21805">
        <ele>1293.5999755859</ele>
        <time>2020-07-19T08:43:04Z</time>
      </trkpt>
      <trkpt lat="42.99344" lon="-0.21807">
        <ele>1294</ele>
        <time>2020-07-19T08:43:05Z</time>
      </trkpt>
      <trkpt lat="42.99346" lon="-0.21808">
        <ele>1294.4000244141</ele>
        <time>2020-07-19T08:43:06Z</time>
      </trkpt>
      <trkpt lat="42.99347" lon="-0.2181">
        <ele>1294.4000244141</ele>
        <time>2020-07-19T08:43:07Z</time>
      </trkpt>
      <trkpt lat="42.99352" lon="-0.21824">
        <ele>1294.4000244141</ele>
        <time>2020-07-19T08:43:13Z</time>
      </trkpt>
      <trkpt lat="42.9935" lon="-0.21834">
        <ele>1294.8000488281</ele>
        <time>2020-07-19T08:43:17Z</time>
      </trkpt>
      <trkpt lat="42.9935" lon="-0.21836">
        <ele>1295.4000244141</ele>
        <time>2020-07-19T08:43:18Z</time>
      </trkpt>
      <trkpt lat="42.99349" lon="-0.21838">
        <ele>1295.8000488281</ele>
        <time>2020-07-19T08:43:19Z</time>
      </trkpt>
      <trkpt lat="42.99348" lon="-0.21841">
        <ele>1296.1999511719</ele>
        <time>2020-07-19T08:43:20Z</time>
      </trkpt>
      <trkpt lat="42.99347" lon="-0.21843">
        <ele>1296.5999755859</ele>
        <time>2020-07-19T08:43:21Z</time>
      </trkpt>
      <trkpt lat="42.99344" lon="-0.21852">
        <ele>1296.5999755859</ele>
        <time>2020-07-19T08:43:25Z</time>
      </trkpt>
      <trkpt lat="42.99341" lon="-0.21866">
        <ele>1297</ele>
        <time>2020-07-19T08:43:31Z</time>
      </trkpt>
      <trkpt lat="42.99341" lon="-0.21868">
        <ele>1297.4000244141</ele>
        <time>2020-07-19T08:43:32Z</time>
      </trkpt>
      <trkpt lat="42.9934" lon="-0.21871">
        <ele>1297.8000488281</ele>
        <time>2020-07-19T08:43:33Z</time>
      </trkpt>
      <trkpt lat="42.99339" lon="-0.21873">
        <ele>1298.1999511719</ele>
        <time>2020-07-19T08:43:34Z</time>
      </trkpt>
      <trkpt lat="42.99338" lon="-0.21875">
        <ele>1298.5999755859</ele>
        <time>2020-07-19T08:43:35Z</time>
      </trkpt>
      <trkpt lat="42.99337" lon="-0.21882">
        <ele>1298.5999755859</ele>
        <time>2020-07-19T08:43:38Z</time>
      </trkpt>
      <trkpt lat="42.99333" lon="-0.21896">
        <ele>1299</ele>
        <time>2020-07-19T08:43:44Z</time>
      </trkpt>
      <trkpt lat="42.99332" lon="-0.21898">
        <ele>1299.5999755859</ele>
        <time>2020-07-19T08:43:45Z</time>
      </trkpt>
      <trkpt lat="42.99332" lon="-0.21901">
        <ele>1300</ele>
        <time>2020-07-19T08:43:46Z</time>
      </trkpt>
      <trkpt lat="42.99332" lon="-0.21903">
        <ele>1300.4000244141</ele>
        <time>2020-07-19T08:43:47Z</time>
      </trkpt>
      <trkpt lat="42.99331" lon="-0.21906">
        <ele>1300.8000488281</ele>
        <time>2020-07-19T08:43:48Z</time>
      </trkpt>
      <trkpt lat="42.9933" lon="-0.21913">
        <ele>1300.8000488281</ele>
        <time>2020-07-19T08:43:51Z</time>
      </trkpt>
      <trkpt lat="42.99326" lon="-0.21928">
        <ele>1301.1999511719</ele>
        <time>2020-07-19T08:43:57Z</time>
      </trkpt>
      <trkpt lat="42.99325" lon="-0.21931">
        <ele>1301.5999755859</ele>
        <time>2020-07-19T08:43:58Z</time>
      </trkpt>
      <trkpt lat="42.99324" lon="-0.21933">
        <ele>1302</ele>
        <time>2020-07-19T08:43:59Z</time>
      </trkpt>
      <trkpt lat="42.99324" lon="-0.21935">
        <ele>1302.4000244141</ele>
        <time>2020-07-19T08:44:00Z</time>
      </trkpt>
      <trkpt lat="42.99323" lon="-0.21937">
        <ele>1302.8000488281</ele>
        <time>2020-07-19T08:44:01Z</time>
      </trkpt>
      <trkpt lat="42.99321" lon="-0.21947">
        <ele>1302.8000488281</ele>
        <time>2020-07-19T08:44:05Z</time>
      </trkpt>
      <trkpt lat="42.99316" lon="-0.21961">
        <ele>1303.1999511719</ele>
        <time>2020-07-19T08:44:11Z</time>
      </trkpt>
      <trkpt lat="42.99316" lon="-0.21963">
        <ele>1303.5999755859</ele>
        <time>2020-07-19T08:44:12Z</time>
      </trkpt>
      <trkpt lat="42.99315" lon="-0.21965">
        <ele>1304.1999511719</ele>
        <time>2020-07-19T08:44:13Z</time>
      </trkpt>
      <trkpt lat="42.99315" lon="-0.21968">
        <ele>1304.5999755859</ele>
        <time>2020-07-19T08:44:14Z</time>
      </trkpt>
      <trkpt lat="42.99314" lon="-0.2197">
        <ele>1305</ele>
        <time>2020-07-19T08:44:15Z</time>
      </trkpt>
      <trkpt lat="42.99311" lon="-0.21978">
        <ele>1305</ele>
        <time>2020-07-19T08:44:19Z</time>
      </trkpt>
      <trkpt lat="42.99308" lon="-0.21989">
        <ele>1305.4000244141</ele>
        <time>2020-07-19T08:44:24Z</time>
      </trkpt>
      <trkpt lat="42.99308" lon="-0.21992">
        <ele>1306.1999511719</ele>
        <time>2020-07-19T08:44:25Z</time>
      </trkpt>
      <trkpt lat="42.99307" lon="-0.21994">
        <ele>1306.5999755859</ele>
        <time>2020-07-19T08:44:26Z</time>
      </trkpt>
      <trkpt lat="42.99307" lon="-0.21996">
        <ele>1307.1999511719</ele>
        <time>2020-07-19T08:44:27Z</time>
      </trkpt>
      <trkpt lat="42.99302" lon="-0.22008">
        <ele>1307.1999511719</ele>
        <time>2020-07-19T08:44:33Z</time>
      </trkpt>
      <trkpt lat="42.993" lon="-0.22014">
        <ele>1307.5999755859</ele>
        <time>2020-07-19T08:44:36Z</time>
      </trkpt>
      <trkpt lat="42.993" lon="-0.22017">
        <ele>1308</ele>
        <time>2020-07-19T08:44:37Z</time>
      </trkpt>
      <trkpt lat="42.99299" lon="-0.22019">
        <ele>1308.4000244141</ele>
        <time>2020-07-19T08:44:38Z</time>
      </trkpt>
      <trkpt lat="42.99298" lon="-0.22021">
        <ele>1308.8000488281</ele>
        <time>2020-07-19T08:44:39Z</time>
      </trkpt>
      <trkpt lat="42.99297" lon="-0.22023">
        <ele>1309.1999511719</ele>
        <time>2020-07-19T08:44:40Z</time>
      </trkpt>
      <trkpt lat="42.99294" lon="-0.22031">
        <ele>1309.1999511719</ele>
        <time>2020-07-19T08:44:44Z</time>
      </trkpt>
      <trkpt lat="42.99292" lon="-0.22032">
        <ele>1309.1999511719</ele>
        <time>2020-07-19T08:44:45Z</time>
      </trkpt>
      <trkpt lat="42.99285" lon="-0.2203">
        <ele>1309.1999511719</ele>
        <time>2020-07-19T08:44:50Z</time>
      </trkpt>
      <trkpt lat="42.99285" lon="-0.22029">
        <ele>1309.5999755859</ele>
        <time>2020-07-19T08:44:51Z</time>
      </trkpt>
      <trkpt lat="42.99284" lon="-0.22026">
        <ele>1310</ele>
        <time>2020-07-19T08:44:52Z</time>
      </trkpt>
      <trkpt lat="42.99285" lon="-0.22024">
        <ele>1310.4000244141</ele>
        <time>2020-07-19T08:44:53Z</time>
      </trkpt>
      <trkpt lat="42.99285" lon="-0.22022">
        <ele>1310.8000488281</ele>
        <time>2020-07-19T08:44:54Z</time>
      </trkpt>
      <trkpt lat="42.99285" lon="-0.2202">
        <ele>1311.1999511719</ele>
        <time>2020-07-19T08:44:55Z</time>
      </trkpt>
      <trkpt lat="42.99286" lon="-0.22004">
        <ele>1311.1999511719</ele>
        <time>2020-07-19T08:45:02Z</time>
      </trkpt>
      <trkpt lat="42.99284" lon="-0.21988">
        <ele>1311.1999511719</ele>
        <time>2020-07-19T08:45:08Z</time>
      </trkpt>
      <trkpt lat="42.99284" lon="-0.21969">
        <ele>1312</ele>
        <time>2020-07-19T08:45:15Z</time>
      </trkpt>
      <trkpt lat="42.99284" lon="-0.21966">
        <ele>1312.5999755859</ele>
        <time>2020-07-19T08:45:16Z</time>
      </trkpt>
      <trkpt lat="42.99284" lon="-0.21963">
        <ele>1313</ele>
        <time>2020-07-19T08:45:17Z</time>
      </trkpt>
      <trkpt lat="42.99284" lon="-0.2196">
        <ele>1313.4000244141</ele>
        <time>2020-07-19T08:45:18Z</time>
      </trkpt>
      <trkpt lat="42.99283" lon="-0.21952">
        <ele>1313.4000244141</ele>
        <time>2020-07-19T08:45:21Z</time>
      </trkpt>
      <trkpt lat="42.99281" lon="-0.21937">
        <ele>1313.4000244141</ele>
        <time>2020-07-19T08:45:27Z</time>
      </trkpt>
      <trkpt lat="42.9928" lon="-0.21919">
        <ele>1313.4000244141</ele>
        <time>2020-07-19T08:45:35Z</time>
      </trkpt>
      <trkpt lat="42.99281" lon="-0.21916">
        <ele>1313.8000488281</ele>
        <time>2020-07-19T08:45:37Z</time>
      </trkpt>
      <trkpt lat="42.99281" lon="-0.21914">
        <ele>1314.1999511719</ele>
        <time>2020-07-19T08:45:38Z</time>
      </trkpt>
      <trkpt lat="42.99282" lon="-0.21912">
        <ele>1314.5999755859</ele>
        <time>2020-07-19T08:45:39Z</time>
      </trkpt>
      <trkpt lat="42.99282" lon="-0.21909">
        <ele>1315.4000244141</ele>
        <time>2020-07-19T08:45:40Z</time>
      </trkpt>
      <trkpt lat="42.99281" lon="-0.21905">
        <ele>1315.4000244141</ele>
        <time>2020-07-19T08:45:42Z</time>
      </trkpt>
      <trkpt lat="42.9928" lon="-0.21901">
        <ele>1315.4000244141</ele>
        <time>2020-07-19T08:45:44Z</time>
      </trkpt>
      <trkpt lat="42.99276" lon="-0.21898">
        <ele>1315.4000244141</ele>
        <time>2020-07-19T08:45:48Z</time>
      </trkpt>
      <trkpt lat="42.99275" lon="-0.21899">
        <ele>1315.4000244141</ele>
        <time>2020-07-19T08:45:49Z</time>
      </trkpt>
      <trkpt lat="42.99272" lon="-0.21907">
        <ele>1315.4000244141</ele>
        <time>2020-07-19T08:45:55Z</time>
      </trkpt>
      <trkpt lat="42.99272" lon="-0.21908">
        <ele>1315.8000488281</ele>
        <time>2020-07-19T08:45:56Z</time>
      </trkpt>
      <trkpt lat="42.99273" lon="-0.2191">
        <ele>1316.4000244141</ele>
        <time>2020-07-19T08:45:57Z</time>
      </trkpt>
      <trkpt lat="42.99273" lon="-0.21912">
        <ele>1316.8000488281</ele>
        <time>2020-07-19T08:45:58Z</time>
      </trkpt>
      <trkpt lat="42.99273" lon="-0.21914">
        <ele>1317.1999511719</ele>
        <time>2020-07-19T08:45:59Z</time>
      </trkpt>
      <trkpt lat="42.99273" lon="-0.21915">
        <ele>1317.5999755859</ele>
        <time>2020-07-19T08:46:00Z</time>
      </trkpt>
      <trkpt lat="42.99269" lon="-0.21926">
        <ele>1317.5999755859</ele>
        <time>2020-07-19T08:46:06Z</time>
      </trkpt>
      <trkpt lat="42.99269" lon="-0.2193">
        <ele>1317.5999755859</ele>
        <time>2020-07-19T08:46:08Z</time>
      </trkpt>
      <trkpt lat="42.99268" lon="-0.21933">
        <ele>1318</ele>
        <time>2020-07-19T08:46:10Z</time>
      </trkpt>
      <trkpt lat="42.99268" lon="-0.21935">
        <ele>1318.4000244141</ele>
        <time>2020-07-19T08:46:11Z</time>
      </trkpt>
      <trkpt lat="42.99268" lon="-0.21937">
        <ele>1318.8000488281</ele>
        <time>2020-07-19T08:46:12Z</time>
      </trkpt>
      <trkpt lat="42.99267" lon="-0.21939">
        <ele>1319.1999511719</ele>
        <time>2020-07-19T08:46:13Z</time>
      </trkpt>
      <trkpt lat="42.99267" lon="-0.21941">
        <ele>1319.5999755859</ele>
        <time>2020-07-19T08:46:14Z</time>
      </trkpt>
      <trkpt lat="42.99264" lon="-0.21945">
        <ele>1319.5999755859</ele>
        <time>2020-07-19T08:46:17Z</time>
      </trkpt>
      <trkpt lat="42.99261" lon="-0.21957">
        <ele>1319.5999755859</ele>
        <time>2020-07-19T08:46:23Z</time>
      </trkpt>
      <trkpt lat="42.9926" lon="-0.2196">
        <ele>1320</ele>
        <time>2020-07-19T08:46:25Z</time>
      </trkpt>
      <trkpt lat="42.99259" lon="-0.21962">
        <ele>1320.4000244141</ele>
        <time>2020-07-19T08:46:26Z</time>
      </trkpt>
      <trkpt lat="42.99259" lon="-0.21964">
        <ele>1320.8000488281</ele>
        <time>2020-07-19T08:46:27Z</time>
      </trkpt>
      <trkpt lat="42.99258" lon="-0.21966">
        <ele>1321.1999511719</ele>
        <time>2020-07-19T08:46:28Z</time>
      </trkpt>
      <trkpt lat="42.99257" lon="-0.21969">
        <ele>1321.5999755859</ele>
        <time>2020-07-19T08:46:29Z</time>
      </trkpt>
      <trkpt lat="42.99255" lon="-0.21973">
        <ele>1321.5999755859</ele>
        <time>2020-07-19T08:46:31Z</time>
      </trkpt>
      <trkpt lat="42.9925" lon="-0.21985">
        <ele>1321.5999755859</ele>
        <time>2020-07-19T08:46:37Z</time>
      </trkpt>
      <trkpt lat="42.99247" lon="-0.21994">
        <ele>1321.5999755859</ele>
        <time>2020-07-19T08:46:41Z</time>
      </trkpt>
      <trkpt lat="42.99244" lon="-0.21997">
        <ele>1321.5999755859</ele>
        <time>2020-07-19T08:46:43Z</time>
      </trkpt>
      <trkpt lat="42.99242" lon="-0.21998">
        <ele>1322.1999511719</ele>
        <time>2020-07-19T08:46:44Z</time>
      </trkpt>
      <trkpt lat="42.9924" lon="-0.21999">
        <ele>1322.5999755859</ele>
        <time>2020-07-19T08:46:45Z</time>
      </trkpt>
      <trkpt lat="42.99239" lon="-0.22001">
        <ele>1323</ele>
        <time>2020-07-19T08:46:46Z</time>
      </trkpt>
      <trkpt lat="42.99237" lon="-0.22002">
        <ele>1323.4000244141</ele>
        <time>2020-07-19T08:46:47Z</time>
      </trkpt>
      <trkpt lat="42.99236" lon="-0.22004">
        <ele>1323.8000488281</ele>
        <time>2020-07-19T08:46:48Z</time>
      </trkpt>
      <trkpt lat="42.99235" lon="-0.22006">
        <ele>1323.8000488281</ele>
        <time>2020-07-19T08:46:49Z</time>
      </trkpt>
      <trkpt lat="42.99228" lon="-0.22018">
        <ele>1323.8000488281</ele>
        <time>2020-07-19T08:46:55Z</time>
      </trkpt>
      <trkpt lat="42.99225" lon="-0.22028">
        <ele>1323.8000488281</ele>
        <time>2020-07-19T08:47:01Z</time>
      </trkpt>
      <trkpt lat="42.99224" lon="-0.2203">
        <ele>1324.1999511719</ele>
        <time>2020-07-19T08:47:02Z</time>
      </trkpt>
      <trkpt lat="42.99223" lon="-0.22032">
        <ele>1324.5999755859</ele>
        <time>2020-07-19T08:47:03Z</time>
      </trkpt>
      <trkpt lat="42.99223" lon="-0.22035">
        <ele>1325</ele>
        <time>2020-07-19T08:47:04Z</time>
      </trkpt>
      <trkpt lat="42.99222" lon="-0.22037">
        <ele>1325.4000244141</ele>
        <time>2020-07-19T08:47:05Z</time>
      </trkpt>
      <trkpt lat="42.9922" lon="-0.22039">
        <ele>1325.8000488281</ele>
        <time>2020-07-19T08:47:06Z</time>
      </trkpt>
      <trkpt lat="42.99218" lon="-0.22042">
        <ele>1325.8000488281</ele>
        <time>2020-07-19T08:47:07Z</time>
      </trkpt>
      <trkpt lat="42.99217" lon="-0.22044">
        <ele>1325.8000488281</ele>
        <time>2020-07-19T08:47:08Z</time>
      </trkpt>
      <trkpt lat="42.99213" lon="-0.22051">
        <ele>1325.8000488281</ele>
        <time>2020-07-19T08:47:12Z</time>
      </trkpt>
      <trkpt lat="42.99212" lon="-0.22053">
        <ele>1325.8000488281</ele>
        <time>2020-07-19T08:47:13Z</time>
      </trkpt>
      <trkpt lat="42.99211" lon="-0.22057">
        <ele>1326.1999511719</ele>
        <time>2020-07-19T08:47:15Z</time>
      </trkpt>
      <trkpt lat="42.99211" lon="-0.22059">
        <ele>1326.5999755859</ele>
        <time>2020-07-19T08:47:16Z</time>
      </trkpt>
      <trkpt lat="42.99211" lon="-0.2206">
        <ele>1327.4000244141</ele>
        <time>2020-07-19T08:47:17Z</time>
      </trkpt>
      <trkpt lat="42.99211" lon="-0.22062">
        <ele>1327.8000488281</ele>
        <time>2020-07-19T08:47:18Z</time>
      </trkpt>
      <trkpt lat="42.99211" lon="-0.22064">
        <ele>1327.8000488281</ele>
        <time>2020-07-19T08:47:19Z</time>
      </trkpt>
      <trkpt lat="42.99211" lon="-0.22074">
        <ele>1328.1999511719</ele>
        <time>2020-07-19T08:47:24Z</time>
      </trkpt>
      <trkpt lat="42.99212" lon="-0.22076">
        <ele>1328.5999755859</ele>
        <time>2020-07-19T08:47:25Z</time>
      </trkpt>
      <trkpt lat="42.99212" lon="-0.22078">
        <ele>1329</ele>
        <time>2020-07-19T08:47:26Z</time>
      </trkpt>
      <trkpt lat="42.99213" lon="-0.2208">
        <ele>1329.4000244141</ele>
        <time>2020-07-19T08:47:27Z</time>
      </trkpt>
      <trkpt lat="42.99213" lon="-0.22083">
        <ele>1329.8000488281</ele>
        <time>2020-07-19T08:47:28Z</time>
      </trkpt>
      <trkpt lat="42.99215" lon="-0.22095">
        <ele>1329.8000488281</ele>
        <time>2020-07-19T08:47:33Z</time>
      </trkpt>
      <trkpt lat="42.99216" lon="-0.22104">
        <ele>1330.4000244141</ele>
        <time>2020-07-19T08:47:37Z</time>
      </trkpt>
      <trkpt lat="42.99216" lon="-0.22106">
        <ele>1330.8000488281</ele>
        <time>2020-07-19T08:47:38Z</time>
      </trkpt>
      <trkpt lat="42.99217" lon="-0.22109">
        <ele>1331.1999511719</ele>
        <time>2020-07-19T08:47:39Z</time>
      </trkpt>
      <trkpt lat="42.99217" lon="-0.22111">
        <ele>1331.5999755859</ele>
        <time>2020-07-19T08:47:40Z</time>
      </trkpt>
      <trkpt lat="42.99218" lon="-0.22114">
        <ele>1332</ele>
        <time>2020-07-19T08:47:41Z</time>
      </trkpt>
      <trkpt lat="42.9922" lon="-0.22127">
        <ele>1332</ele>
        <time>2020-07-19T08:47:46Z</time>
      </trkpt>
      <trkpt lat="42.99222" lon="-0.22148">
        <ele>1332</ele>
        <time>2020-07-19T08:47:54Z</time>
      </trkpt>
      <trkpt lat="42.99222" lon="-0.2215">
        <ele>1332.4000244141</ele>
        <time>2020-07-19T08:47:55Z</time>
      </trkpt>
      <trkpt lat="42.99222" lon="-0.22152">
        <ele>1332.8000488281</ele>
        <time>2020-07-19T08:47:56Z</time>
      </trkpt>
      <trkpt lat="42.99221" lon="-0.22154">
        <ele>1333.1999511719</ele>
        <time>2020-07-19T08:47:57Z</time>
      </trkpt>
      <trkpt lat="42.9922" lon="-0.22156">
        <ele>1333.5999755859</ele>
        <time>2020-07-19T08:47:58Z</time>
      </trkpt>
      <trkpt lat="42.99219" lon="-0.22157">
        <ele>1334</ele>
        <time>2020-07-19T08:47:59Z</time>
      </trkpt>
      <trkpt lat="42.99217" lon="-0.22157">
        <ele>1334</ele>
        <time>2020-07-19T08:48:00Z</time>
      </trkpt>
      <trkpt lat="42.99212" lon="-0.22151">
        <ele>1334</ele>
        <time>2020-07-19T08:48:04Z</time>
      </trkpt>
      <trkpt lat="42.99211" lon="-0.22147">
        <ele>1334</ele>
        <time>2020-07-19T08:48:06Z</time>
      </trkpt>
      <trkpt lat="42.99209" lon="-0.22137">
        <ele>1334</ele>
        <time>2020-07-19T08:48:10Z</time>
      </trkpt>
      <trkpt lat="42.99205" lon="-0.22122">
        <ele>1334</ele>
        <time>2020-07-19T08:48:16Z</time>
      </trkpt>
      <trkpt lat="42.99202" lon="-0.22116">
        <ele>1334.4000244141</ele>
        <time>2020-07-19T08:48:19Z</time>
      </trkpt>
      <trkpt lat="42.99201" lon="-0.22115">
        <ele>1334.8000488281</ele>
        <time>2020-07-19T08:48:20Z</time>
      </trkpt>
      <trkpt lat="42.992" lon="-0.22113">
        <ele>1335.1999511719</ele>
        <time>2020-07-19T08:48:21Z</time>
      </trkpt>
      <trkpt lat="42.99199" lon="-0.22111">
        <ele>1335.8000488281</ele>
        <time>2020-07-19T08:48:22Z</time>
      </trkpt>
      <trkpt lat="42.99198" lon="-0.22109">
        <ele>1336.1999511719</ele>
        <time>2020-07-19T08:48:23Z</time>
      </trkpt>
      <trkpt lat="42.99191" lon="-0.22098">
        <ele>1336.1999511719</ele>
        <time>2020-07-19T08:48:29Z</time>
      </trkpt>
      <trkpt lat="42.99181" lon="-0.22088">
        <ele>1336.1999511719</ele>
        <time>2020-07-19T08:48:35Z</time>
      </trkpt>
      <trkpt lat="42.99172" lon="-0.22076">
        <ele>1336.1999511719</ele>
        <time>2020-07-19T08:48:41Z</time>
      </trkpt>
      <trkpt lat="42.99161" lon="-0.22061">
        <ele>1336.1999511719</ele>
        <time>2020-07-19T08:48:48Z</time>
      </trkpt>
      <trkpt lat="42.9915" lon="-0.22052">
        <ele>1336.1999511719</ele>
        <time>2020-07-19T08:48:55Z</time>
      </trkpt>
      <trkpt lat="42.99147" lon="-0.22049">
        <ele>1336.5999755859</ele>
        <time>2020-07-19T08:48:57Z</time>
      </trkpt>
      <trkpt lat="42.99146" lon="-0.22048">
        <ele>1337</ele>
        <time>2020-07-19T08:48:58Z</time>
      </trkpt>
      <trkpt lat="42.99145" lon="-0.22047">
        <ele>1337.4000244141</ele>
        <time>2020-07-19T08:48:59Z</time>
      </trkpt>
      <trkpt lat="42.99143" lon="-0.22045">
        <ele>1337.8000488281</ele>
        <time>2020-07-19T08:49:00Z</time>
      </trkpt>
      <trkpt lat="42.99141" lon="-0.22044">
        <ele>1338.1999511719</ele>
        <time>2020-07-19T08:49:01Z</time>
      </trkpt>
      <trkpt lat="42.9914" lon="-0.22043">
        <ele>1338.1999511719</ele>
        <time>2020-07-19T08:49:02Z</time>
      </trkpt>
      <trkpt lat="42.99137" lon="-0.22041">
        <ele>1338.1999511719</ele>
        <time>2020-07-19T08:49:05Z</time>
      </trkpt>
      <trkpt lat="42.99133" lon="-0.22039">
        <ele>1338.1999511719</ele>
        <time>2020-07-19T08:49:08Z</time>
      </trkpt>
      <trkpt lat="42.99119" lon="-0.22031">
        <ele>1338.1999511719</ele>
        <time>2020-07-19T08:49:15Z</time>
      </trkpt>
      <trkpt lat="42.99105" lon="-0.2203">
        <ele>1338.1999511719</ele>
        <time>2020-07-19T08:49:19Z</time>
      </trkpt>
      <trkpt lat="42.99094" lon="-0.22029">
        <ele>1338.1999511719</ele>
        <time>2020-07-19T08:49:23Z</time>
      </trkpt>
      <trkpt lat="42.99088" lon="-0.22032">
        <ele>1338.5999755859</ele>
        <time>2020-07-19T08:49:28Z</time>
      </trkpt>
      <trkpt lat="42.99088" lon="-0.22034">
        <ele>1339</ele>
        <time>2020-07-19T08:49:29Z</time>
      </trkpt>
      <trkpt lat="42.99087" lon="-0.22036">
        <ele>1339.4000244141</ele>
        <time>2020-07-19T08:49:30Z</time>
      </trkpt>
      <trkpt lat="42.99087" lon="-0.22038">
        <ele>1339.8000488281</ele>
        <time>2020-07-19T08:49:31Z</time>
      </trkpt>
      <trkpt lat="42.99088" lon="-0.2204">
        <ele>1340.4000244141</ele>
        <time>2020-07-19T08:49:32Z</time>
      </trkpt>
      <trkpt lat="42.99089" lon="-0.22046">
        <ele>1340.8000488281</ele>
        <time>2020-07-19T08:49:35Z</time>
      </trkpt>
      <trkpt lat="42.9909" lon="-0.22048">
        <ele>1341.1999511719</ele>
        <time>2020-07-19T08:49:36Z</time>
      </trkpt>
      <trkpt lat="42.99091" lon="-0.22049">
        <ele>1341.5999755859</ele>
        <time>2020-07-19T08:49:37Z</time>
      </trkpt>
      <trkpt lat="42.99092" lon="-0.22051">
        <ele>1342</ele>
        <time>2020-07-19T08:49:38Z</time>
      </trkpt>
      <trkpt lat="42.99093" lon="-0.22053">
        <ele>1342.4000244141</ele>
        <time>2020-07-19T08:49:39Z</time>
      </trkpt>
      <trkpt lat="42.99094" lon="-0.22056">
        <ele>1342.4000244141</ele>
        <time>2020-07-19T08:49:41Z</time>
      </trkpt>
      <trkpt lat="42.99095" lon="-0.2206">
        <ele>1342.8000488281</ele>
        <time>2020-07-19T08:49:43Z</time>
      </trkpt>
      <trkpt lat="42.99096" lon="-0.22061">
        <ele>1343.1999511719</ele>
        <time>2020-07-19T08:49:44Z</time>
      </trkpt>
      <trkpt lat="42.99097" lon="-0.22063">
        <ele>1343.5999755859</ele>
        <time>2020-07-19T08:49:45Z</time>
      </trkpt>
      <trkpt lat="42.99098" lon="-0.22064">
        <ele>1344.4000244141</ele>
        <time>2020-07-19T08:49:46Z</time>
      </trkpt>
      <trkpt lat="42.991" lon="-0.22069">
        <ele>1344.4000244141</ele>
        <time>2020-07-19T08:49:48Z</time>
      </trkpt>
      <trkpt lat="42.99104" lon="-0.22084">
        <ele>1345</ele>
        <time>2020-07-19T08:49:55Z</time>
      </trkpt>
      <trkpt lat="42.99104" lon="-0.22086">
        <ele>1345.4000244141</ele>
        <time>2020-07-19T08:49:56Z</time>
      </trkpt>
      <trkpt lat="42.99104" lon="-0.22088">
        <ele>1345.8000488281</ele>
        <time>2020-07-19T08:49:57Z</time>
      </trkpt>
      <trkpt lat="42.99105" lon="-0.2209">
        <ele>1346.1999511719</ele>
        <time>2020-07-19T08:49:58Z</time>
      </trkpt>
      <trkpt lat="42.99105" lon="-0.22092">
        <ele>1346.5999755859</ele>
        <time>2020-07-19T08:49:59Z</time>
      </trkpt>
      <trkpt lat="42.99106" lon="-0.22099">
        <ele>1346.5999755859</ele>
        <time>2020-07-19T08:50:02Z</time>
      </trkpt>
      <trkpt lat="42.99108" lon="-0.22107">
        <ele>1347</ele>
        <time>2020-07-19T08:50:06Z</time>
      </trkpt>
      <trkpt lat="42.99108" lon="-0.22109">
        <ele>1347.4000244141</ele>
        <time>2020-07-19T08:50:07Z</time>
      </trkpt>
      <trkpt lat="42.99108" lon="-0.22111">
        <ele>1347.8000488281</ele>
        <time>2020-07-19T08:50:08Z</time>
      </trkpt>
      <trkpt lat="42.99108" lon="-0.22114">
        <ele>1348.4000244141</ele>
        <time>2020-07-19T08:50:09Z</time>
      </trkpt>
      <trkpt lat="42.99108" lon="-0.22116">
        <ele>1348.8000488281</ele>
        <time>2020-07-19T08:50:10Z</time>
      </trkpt>
      <trkpt lat="42.99112" lon="-0.22131">
        <ele>1348.8000488281</ele>
        <time>2020-07-19T08:50:17Z</time>
      </trkpt>
      <trkpt lat="42.99113" lon="-0.22134">
        <ele>1349.1999511719</ele>
        <time>2020-07-19T08:50:19Z</time>
      </trkpt>
      <trkpt lat="42.99114" lon="-0.22135">
        <ele>1349.5999755859</ele>
        <time>2020-07-19T08:50:20Z</time>
      </trkpt>
      <trkpt lat="42.99115" lon="-0.22137">
        <ele>1350</ele>
        <time>2020-07-19T08:50:21Z</time>
      </trkpt>
      <trkpt lat="42.99116" lon="-0.22139">
        <ele>1350.4000244141</ele>
        <time>2020-07-19T08:50:22Z</time>
      </trkpt>
      <trkpt lat="42.99117" lon="-0.2214">
        <ele>1350.8000488281</ele>
        <time>2020-07-19T08:50:23Z</time>
      </trkpt>
      <trkpt lat="42.99119" lon="-0.22143">
        <ele>1350.8000488281</ele>
        <time>2020-07-19T08:50:25Z</time>
      </trkpt>
      <trkpt lat="42.99124" lon="-0.22155">
        <ele>1351.1999511719</ele>
        <time>2020-07-19T08:50:33Z</time>
      </trkpt>
      <trkpt lat="42.99125" lon="-0.22157">
        <ele>1351.5999755859</ele>
        <time>2020-07-19T08:50:34Z</time>
      </trkpt>
      <trkpt lat="42.99126" lon="-0.22159">
        <ele>1352.5999755859</ele>
        <time>2020-07-19T08:50:35Z</time>
      </trkpt>
      <trkpt lat="42.99126" lon="-0.2216">
        <ele>1353</ele>
        <time>2020-07-19T08:50:36Z</time>
      </trkpt>
      <trkpt lat="42.9913" lon="-0.22169">
        <ele>1353.4000244141</ele>
        <time>2020-07-19T08:50:41Z</time>
      </trkpt>
      <trkpt lat="42.99131" lon="-0.2217">
        <ele>1353.8000488281</ele>
        <time>2020-07-19T08:50:42Z</time>
      </trkpt>
      <trkpt lat="42.99132" lon="-0.22171">
        <ele>1354.1999511719</ele>
        <time>2020-07-19T08:50:43Z</time>
      </trkpt>
      <trkpt lat="42.99132" lon="-0.22173">
        <ele>1354.5999755859</ele>
        <time>2020-07-19T08:50:44Z</time>
      </trkpt>
      <trkpt lat="42.99133" lon="-0.22175">
        <ele>1355</ele>
        <time>2020-07-19T08:50:45Z</time>
      </trkpt>
      <trkpt lat="42.99136" lon="-0.22182">
        <ele>1355</ele>
        <time>2020-07-19T08:50:50Z</time>
      </trkpt>
      <trkpt lat="42.99137" lon="-0.22185">
        <ele>1355.4000244141</ele>
        <time>2020-07-19T08:50:52Z</time>
      </trkpt>
      <trkpt lat="42.99137" lon="-0.22187">
        <ele>1355.8000488281</ele>
        <time>2020-07-19T08:50:53Z</time>
      </trkpt>
      <trkpt lat="42.99138" lon="-0.22189">
        <ele>1356.1999511719</ele>
        <time>2020-07-19T08:50:54Z</time>
      </trkpt>
      <trkpt lat="42.99138" lon="-0.22191">
        <ele>1356.5999755859</ele>
        <time>2020-07-19T08:50:55Z</time>
      </trkpt>
      <trkpt lat="42.99138" lon="-0.22193">
        <ele>1357.1999511719</ele>
        <time>2020-07-19T08:50:56Z</time>
      </trkpt>
      <trkpt lat="42.99139" lon="-0.22197">
        <ele>1357.1999511719</ele>
        <time>2020-07-19T08:50:58Z</time>
      </trkpt>
      <trkpt lat="42.9914" lon="-0.22204">
        <ele>1357.5999755859</ele>
        <time>2020-07-19T08:51:02Z</time>
      </trkpt>
      <trkpt lat="42.9914" lon="-0.22206">
        <ele>1358</ele>
        <time>2020-07-19T08:51:03Z</time>
      </trkpt>
      <trkpt lat="42.99141" lon="-0.22208">
        <ele>1358.4000244141</ele>
        <time>2020-07-19T08:51:04Z</time>
      </trkpt>
      <trkpt lat="42.99141" lon="-0.2221">
        <ele>1358.8000488281</ele>
        <time>2020-07-19T08:51:05Z</time>
      </trkpt>
      <trkpt lat="42.99142" lon="-0.22211">
        <ele>1359.1999511719</ele>
        <time>2020-07-19T08:51:06Z</time>
      </trkpt>
      <trkpt lat="42.99143" lon="-0.22219">
        <ele>1359.1999511719</ele>
        <time>2020-07-19T08:51:10Z</time>
      </trkpt>
      <trkpt lat="42.99143" lon="-0.2222">
        <ele>1359.1999511719</ele>
        <time>2020-07-19T08:51:11Z</time>
      </trkpt>
      <trkpt lat="42.99143" lon="-0.22224">
        <ele>1359.5999755859</ele>
        <time>2020-07-19T08:51:13Z</time>
      </trkpt>
      <trkpt lat="42.99143" lon="-0.22226">
        <ele>1360</ele>
        <time>2020-07-19T08:51:14Z</time>
      </trkpt>
      <trkpt lat="42.99141" lon="-0.22228">
        <ele>1360.4000244141</ele>
        <time>2020-07-19T08:51:15Z</time>
      </trkpt>
      <trkpt lat="42.9914" lon="-0.2223">
        <ele>1360.8000488281</ele>
        <time>2020-07-19T08:51:16Z</time>
      </trkpt>
      <trkpt lat="42.99139" lon="-0.22231">
        <ele>1361.1999511719</ele>
        <time>2020-07-19T08:51:17Z</time>
      </trkpt>
      <trkpt lat="42.99133" lon="-0.2223">
        <ele>1361.1999511719</ele>
        <time>2020-07-19T08:51:21Z</time>
      </trkpt>
      <trkpt lat="42.99124" lon="-0.22224">
        <ele>1361.5999755859</ele>
        <time>2020-07-19T08:51:27Z</time>
      </trkpt>
      <trkpt lat="42.99123" lon="-0.22222">
        <ele>1362</ele>
        <time>2020-07-19T08:51:28Z</time>
      </trkpt>
      <trkpt lat="42.99121" lon="-0.22221">
        <ele>1362.4000244141</ele>
        <time>2020-07-19T08:51:29Z</time>
      </trkpt>
      <trkpt lat="42.9912" lon="-0.2222">
        <ele>1362.8000488281</ele>
        <time>2020-07-19T08:51:30Z</time>
      </trkpt>
      <trkpt lat="42.99118" lon="-0.22219">
        <ele>1363.1999511719</ele>
        <time>2020-07-19T08:51:31Z</time>
      </trkpt>
      <trkpt lat="42.9911" lon="-0.22215">
        <ele>1363.1999511719</ele>
        <time>2020-07-19T08:51:36Z</time>
      </trkpt>
      <trkpt lat="42.99103" lon="-0.22206">
        <ele>1363.1999511719</ele>
        <time>2020-07-19T08:51:42Z</time>
      </trkpt>
      <trkpt lat="42.99098" lon="-0.22199">
        <ele>1363.5999755859</ele>
        <time>2020-07-19T08:51:47Z</time>
      </trkpt>
      <trkpt lat="42.99097" lon="-0.22198">
        <ele>1364</ele>
        <time>2020-07-19T08:51:48Z</time>
      </trkpt>
      <trkpt lat="42.99095" lon="-0.22198">
        <ele>1364.4000244141</ele>
        <time>2020-07-19T08:51:49Z</time>
      </trkpt>
      <trkpt lat="42.99094" lon="-0.22198">
        <ele>1365.4000244141</ele>
        <time>2020-07-19T08:51:50Z</time>
      </trkpt>
      <trkpt lat="42.99093" lon="-0.22199">
        <ele>1365.4000244141</ele>
        <time>2020-07-19T08:51:51Z</time>
      </trkpt>
      <trkpt lat="42.99092" lon="-0.22201">
        <ele>1365.4000244141</ele>
        <time>2020-07-19T08:51:52Z</time>
      </trkpt>
      <trkpt lat="42.99092" lon="-0.22203">
        <ele>1365.4000244141</ele>
        <time>2020-07-19T08:51:53Z</time>
      </trkpt>
      <trkpt lat="42.99094" lon="-0.22212">
        <ele>1365.8000488281</ele>
        <time>2020-07-19T08:51:58Z</time>
      </trkpt>
      <trkpt lat="42.99095" lon="-0.22214">
        <ele>1366.1999511719</ele>
        <time>2020-07-19T08:51:59Z</time>
      </trkpt>
      <trkpt lat="42.99096" lon="-0.22216">
        <ele>1366.5999755859</ele>
        <time>2020-07-19T08:52:00Z</time>
      </trkpt>
      <trkpt lat="42.99097" lon="-0.22218">
        <ele>1367</ele>
        <time>2020-07-19T08:52:01Z</time>
      </trkpt>
      <trkpt lat="42.99098" lon="-0.22219">
        <ele>1367.4000244141</ele>
        <time>2020-07-19T08:52:02Z</time>
      </trkpt>
      <trkpt lat="42.99101" lon="-0.2223">
        <ele>1367.4000244141</ele>
        <time>2020-07-19T08:52:08Z</time>
      </trkpt>
      <trkpt lat="42.99101" lon="-0.22233">
        <ele>1368</ele>
        <time>2020-07-19T08:52:10Z</time>
      </trkpt>
      <trkpt lat="42.99102" lon="-0.22234">
        <ele>1368.4000244141</ele>
        <time>2020-07-19T08:52:11Z</time>
      </trkpt>
      <trkpt lat="42.99102" lon="-0.22236">
        <ele>1368.8000488281</ele>
        <time>2020-07-19T08:52:12Z</time>
      </trkpt>
      <trkpt lat="42.99103" lon="-0.22238">
        <ele>1369.1999511719</ele>
        <time>2020-07-19T08:52:13Z</time>
      </trkpt>
      <trkpt lat="42.99103" lon="-0.2224">
        <ele>1369.8000488281</ele>
        <time>2020-07-19T08:52:14Z</time>
      </trkpt>
      <trkpt lat="42.99103" lon="-0.22242">
        <ele>1369.8000488281</ele>
        <time>2020-07-19T08:52:15Z</time>
      </trkpt>
      <trkpt lat="42.99106" lon="-0.22254">
        <ele>1370.1999511719</ele>
        <time>2020-07-19T08:52:22Z</time>
      </trkpt>
      <trkpt lat="42.99106" lon="-0.22256">
        <ele>1370.5999755859</ele>
        <time>2020-07-19T08:52:23Z</time>
      </trkpt>
      <trkpt lat="42.99106" lon="-0.22258">
        <ele>1371</ele>
        <time>2020-07-19T08:52:24Z</time>
      </trkpt>
      <trkpt lat="42.99107" lon="-0.22259">
        <ele>1371.4000244141</ele>
        <time>2020-07-19T08:52:25Z</time>
      </trkpt>
      <trkpt lat="42.99107" lon="-0.22261">
        <ele>1371.8000488281</ele>
        <time>2020-07-19T08:52:26Z</time>
      </trkpt>
      <trkpt lat="42.99108" lon="-0.22264">
        <ele>1371.8000488281</ele>
        <time>2020-07-19T08:52:28Z</time>
      </trkpt>
      <trkpt lat="42.99111" lon="-0.22274">
        <ele>1371.8000488281</ele>
        <time>2020-07-19T08:52:34Z</time>
      </trkpt>
      <trkpt lat="42.99112" lon="-0.22276">
        <ele>1372.1999511719</ele>
        <time>2020-07-19T08:52:35Z</time>
      </trkpt>
      <trkpt lat="42.99112" lon="-0.22277">
        <ele>1372.5999755859</ele>
        <time>2020-07-19T08:52:36Z</time>
      </trkpt>
      <trkpt lat="42.99113" lon="-0.22279">
        <ele>1373</ele>
        <time>2020-07-19T08:52:37Z</time>
      </trkpt>
      <trkpt lat="42.99113" lon="-0.2228">
        <ele>1373.4000244141</ele>
        <time>2020-07-19T08:52:38Z</time>
      </trkpt>
      <trkpt lat="42.99114" lon="-0.22282">
        <ele>1373.8000488281</ele>
        <time>2020-07-19T08:52:39Z</time>
      </trkpt>
      <trkpt lat="42.99115" lon="-0.22286">
        <ele>1373.8000488281</ele>
        <time>2020-07-19T08:52:42Z</time>
      </trkpt>
      <trkpt lat="42.99117" lon="-0.22291">
        <ele>1374.1999511719</ele>
        <time>2020-07-19T08:52:45Z</time>
      </trkpt>
      <trkpt lat="42.99118" lon="-0.22293">
        <ele>1374.5999755859</ele>
        <time>2020-07-19T08:52:46Z</time>
      </trkpt>
      <trkpt lat="42.99118" lon="-0.22295">
        <ele>1375</ele>
        <time>2020-07-19T08:52:47Z</time>
      </trkpt>
      <trkpt lat="42.99119" lon="-0.22297">
        <ele>1375.4000244141</ele>
        <time>2020-07-19T08:52:48Z</time>
      </trkpt>
      <trkpt lat="42.99119" lon="-0.22298">
        <ele>1375.8000488281</ele>
        <time>2020-07-19T08:52:49Z</time>
      </trkpt>
      <trkpt lat="42.9912" lon="-0.223">
        <ele>1375.8000488281</ele>
        <time>2020-07-19T08:52:50Z</time>
      </trkpt>
      <trkpt lat="42.99121" lon="-0.2231">
        <ele>1376.4000244141</ele>
        <time>2020-07-19T08:52:56Z</time>
      </trkpt>
      <trkpt lat="42.99121" lon="-0.22311">
        <ele>1376.8000488281</ele>
        <time>2020-07-19T08:52:57Z</time>
      </trkpt>
      <trkpt lat="42.99121" lon="-0.22313">
        <ele>1377.1999511719</ele>
        <time>2020-07-19T08:52:58Z</time>
      </trkpt>
      <trkpt lat="42.99122" lon="-0.22314">
        <ele>1377.5999755859</ele>
        <time>2020-07-19T08:52:59Z</time>
      </trkpt>
      <trkpt lat="42.99122" lon="-0.22316">
        <ele>1378</ele>
        <time>2020-07-19T08:53:00Z</time>
      </trkpt>
      <trkpt lat="42.99122" lon="-0.22326">
        <ele>1378</ele>
        <time>2020-07-19T08:53:05Z</time>
      </trkpt>
      <trkpt lat="42.99123" lon="-0.22329">
        <ele>1378.4000244141</ele>
        <time>2020-07-19T08:53:07Z</time>
      </trkpt>
      <trkpt lat="42.99123" lon="-0.22331">
        <ele>1378.8000488281</ele>
        <time>2020-07-19T08:53:08Z</time>
      </trkpt>
      <trkpt lat="42.99123" lon="-0.22333">
        <ele>1379.1999511719</ele>
        <time>2020-07-19T08:53:09Z</time>
      </trkpt>
      <trkpt lat="42.99124" lon="-0.22334">
        <ele>1379.5999755859</ele>
        <time>2020-07-19T08:53:10Z</time>
      </trkpt>
      <trkpt lat="42.99124" lon="-0.22336">
        <ele>1380</ele>
        <time>2020-07-19T08:53:11Z</time>
      </trkpt>
      <trkpt lat="42.99124" lon="-0.22339">
        <ele>1380</ele>
        <time>2020-07-19T08:53:13Z</time>
      </trkpt>
      <trkpt lat="42.99125" lon="-0.2235">
        <ele>1380.4000244141</ele>
        <time>2020-07-19T08:53:19Z</time>
      </trkpt>
      <trkpt lat="42.99126" lon="-0.22353">
        <ele>1380.8000488281</ele>
        <time>2020-07-19T08:53:20Z</time>
      </trkpt>
      <trkpt lat="42.99126" lon="-0.22355">
        <ele>1381.1999511719</ele>
        <time>2020-07-19T08:53:21Z</time>
      </trkpt>
      <trkpt lat="42.99126" lon="-0.22356">
        <ele>1381.5999755859</ele>
        <time>2020-07-19T08:53:22Z</time>
      </trkpt>
      <trkpt lat="42.99126" lon="-0.22358">
        <ele>1382</ele>
        <time>2020-07-19T08:53:23Z</time>
      </trkpt>
      <trkpt lat="42.99127" lon="-0.22366">
        <ele>1382</ele>
        <time>2020-07-19T08:53:27Z</time>
      </trkpt>
      <trkpt lat="42.99128" lon="-0.22376">
        <ele>1382.5999755859</ele>
        <time>2020-07-19T08:53:32Z</time>
      </trkpt>
      <trkpt lat="42.99128" lon="-0.22378">
        <ele>1383</ele>
        <time>2020-07-19T08:53:33Z</time>
      </trkpt>
      <trkpt lat="42.99129" lon="-0.2238">
        <ele>1383.4000244141</ele>
        <time>2020-07-19T08:53:34Z</time>
      </trkpt>
      <trkpt lat="42.99129" lon="-0.22381">
        <ele>1383.8000488281</ele>
        <time>2020-07-19T08:53:35Z</time>
      </trkpt>
      <trkpt lat="42.9913" lon="-0.22382">
        <ele>1384.1999511719</ele>
        <time>2020-07-19T08:53:36Z</time>
      </trkpt>
      <trkpt lat="42.9913" lon="-0.22391">
        <ele>1384.1999511719</ele>
        <time>2020-07-19T08:53:41Z</time>
      </trkpt>
      <trkpt lat="42.9913" lon="-0.22392">
        <ele>1384.5999755859</ele>
        <time>2020-07-19T08:53:42Z</time>
      </trkpt>
      <trkpt lat="42.99131" lon="-0.22394">
        <ele>1385</ele>
        <time>2020-07-19T08:53:43Z</time>
      </trkpt>
      <trkpt lat="42.99131" lon="-0.22396">
        <ele>1385.4000244141</ele>
        <time>2020-07-19T08:53:44Z</time>
      </trkpt>
      <trkpt lat="42.99131" lon="-0.22397">
        <ele>1385.8000488281</ele>
        <time>2020-07-19T08:53:45Z</time>
      </trkpt>
      <trkpt lat="42.99131" lon="-0.22399">
        <ele>1386.4000244141</ele>
        <time>2020-07-19T08:53:46Z</time>
      </trkpt>
      <trkpt lat="42.99132" lon="-0.22403">
        <ele>1386.4000244141</ele>
        <time>2020-07-19T08:53:48Z</time>
      </trkpt>
      <trkpt lat="42.99132" lon="-0.22411">
        <ele>1386.8000488281</ele>
        <time>2020-07-19T08:53:53Z</time>
      </trkpt>
      <trkpt lat="42.99132" lon="-0.22413">
        <ele>1387.1999511719</ele>
        <time>2020-07-19T08:53:54Z</time>
      </trkpt>
      <trkpt lat="42.99132" lon="-0.22414">
        <ele>1387.5999755859</ele>
        <time>2020-07-19T08:53:55Z</time>
      </trkpt>
      <trkpt lat="42.99132" lon="-0.22416">
        <ele>1388</ele>
        <time>2020-07-19T08:53:56Z</time>
      </trkpt>
      <trkpt lat="42.99132" lon="-0.22418">
        <ele>1388.4000244141</ele>
        <time>2020-07-19T08:53:57Z</time>
      </trkpt>
      <trkpt lat="42.99132" lon="-0.22426">
        <ele>1388.4000244141</ele>
        <time>2020-07-19T08:54:02Z</time>
      </trkpt>
      <trkpt lat="42.99134" lon="-0.22432">
        <ele>1388.8000488281</ele>
        <time>2020-07-19T08:54:06Z</time>
      </trkpt>
      <trkpt lat="42.99134" lon="-0.22433">
        <ele>1389.1999511719</ele>
        <time>2020-07-19T08:54:07Z</time>
      </trkpt>
      <trkpt lat="42.99134" lon="-0.22435">
        <ele>1389.5999755859</ele>
        <time>2020-07-19T08:54:08Z</time>
      </trkpt>
      <trkpt lat="42.99134" lon="-0.22437">
        <ele>1390.1999511719</ele>
        <time>2020-07-19T08:54:09Z</time>
      </trkpt>
      <trkpt lat="42.99134" lon="-0.22439">
        <ele>1390.5999755859</ele>
        <time>2020-07-19T08:54:10Z</time>
      </trkpt>
      <trkpt lat="42.99134" lon="-0.22443">
        <ele>1390.5999755859</ele>
        <time>2020-07-19T08:54:12Z</time>
      </trkpt>
      <trkpt lat="42.99134" lon="-0.22447">
        <ele>1390.5999755859</ele>
        <time>2020-07-19T08:54:14Z</time>
      </trkpt>
      <trkpt lat="42.99135" lon="-0.22453">
        <ele>1391</ele>
        <time>2020-07-19T08:54:18Z</time>
      </trkpt>
      <trkpt lat="42.99136" lon="-0.22455">
        <ele>1391.4000244141</ele>
        <time>2020-07-19T08:54:19Z</time>
      </trkpt>
      <trkpt lat="42.99136" lon="-0.22457">
        <ele>1391.8000488281</ele>
        <time>2020-07-19T08:54:20Z</time>
      </trkpt>
      <trkpt lat="42.99136" lon="-0.22458">
        <ele>1392.1999511719</ele>
        <time>2020-07-19T08:54:21Z</time>
      </trkpt>
      <trkpt lat="42.99137" lon="-0.2246">
        <ele>1392.5999755859</ele>
        <time>2020-07-19T08:54:22Z</time>
      </trkpt>
      <trkpt lat="42.99137" lon="-0.22463">
        <ele>1392.5999755859</ele>
        <time>2020-07-19T08:54:24Z</time>
      </trkpt>
      <trkpt lat="42.99139" lon="-0.2247">
        <ele>1392.5999755859</ele>
        <time>2020-07-19T08:54:28Z</time>
      </trkpt>
      <trkpt lat="42.99139" lon="-0.22474">
        <ele>1393</ele>
        <time>2020-07-19T08:54:30Z</time>
      </trkpt>
      <trkpt lat="42.99139" lon="-0.22476">
        <ele>1393.4000244141</ele>
        <time>2020-07-19T08:54:31Z</time>
      </trkpt>
      <trkpt lat="42.99139" lon="-0.22478">
        <ele>1394</ele>
        <time>2020-07-19T08:54:32Z</time>
      </trkpt>
      <trkpt lat="42.99139" lon="-0.2248">
        <ele>1394.4000244141</ele>
        <time>2020-07-19T08:54:33Z</time>
      </trkpt>
      <trkpt lat="42.99139" lon="-0.22482">
        <ele>1394.8000488281</ele>
        <time>2020-07-19T08:54:34Z</time>
      </trkpt>
      <trkpt lat="42.99139" lon="-0.22484">
        <ele>1394.8000488281</ele>
        <time>2020-07-19T08:54:35Z</time>
      </trkpt>
      <trkpt lat="42.99139" lon="-0.22489">
        <ele>1394.8000488281</ele>
        <time>2020-07-19T08:54:38Z</time>
      </trkpt>
      <trkpt lat="42.9914" lon="-0.22494">
        <ele>1394.8000488281</ele>
        <time>2020-07-19T08:54:41Z</time>
      </trkpt>
      <trkpt lat="42.99141" lon="-0.225">
        <ele>1395.1999511719</ele>
        <time>2020-07-19T08:54:44Z</time>
      </trkpt>
      <trkpt lat="42.99142" lon="-0.22502">
        <ele>1395.5999755859</ele>
        <time>2020-07-19T08:54:45Z</time>
      </trkpt>
      <trkpt lat="42.99142" lon="-0.22504">
        <ele>1396</ele>
        <time>2020-07-19T08:54:46Z</time>
      </trkpt>
      <trkpt lat="42.99143" lon="-0.22505">
        <ele>1396.4000244141</ele>
        <time>2020-07-19T08:54:47Z</time>
      </trkpt>
      <trkpt lat="42.99143" lon="-0.22507">
        <ele>1396.8000488281</ele>
        <time>2020-07-19T08:54:48Z</time>
      </trkpt>
      <trkpt lat="42.99144" lon="-0.22516">
        <ele>1396.8000488281</ele>
        <time>2020-07-19T08:54:53Z</time>
      </trkpt>
      <trkpt lat="42.99145" lon="-0.22519">
        <ele>1397.1999511719</ele>
        <time>2020-07-19T08:54:55Z</time>
      </trkpt>
      <trkpt lat="42.99146" lon="-0.2252">
        <ele>1397.5999755859</ele>
        <time>2020-07-19T08:54:56Z</time>
      </trkpt>
      <trkpt lat="42.99146" lon="-0.22522">
        <ele>1398</ele>
        <time>2020-07-19T08:54:57Z</time>
      </trkpt>
      <trkpt lat="42.99147" lon="-0.22523">
        <ele>1398.4000244141</ele>
        <time>2020-07-19T08:54:58Z</time>
      </trkpt>
      <trkpt lat="42.99147" lon="-0.22525">
        <ele>1398.8000488281</ele>
        <time>2020-07-19T08:54:59Z</time>
      </trkpt>
      <trkpt lat="42.99148" lon="-0.22528">
        <ele>1398.8000488281</ele>
        <time>2020-07-19T08:55:01Z</time>
      </trkpt>
      <trkpt lat="42.9915" lon="-0.22539">
        <ele>1399.1999511719</ele>
        <time>2020-07-19T08:55:07Z</time>
      </trkpt>
      <trkpt lat="42.9915" lon="-0.22541">
        <ele>1400.1999511719</ele>
        <time>2020-07-19T08:55:08Z</time>
      </trkpt>
      <trkpt lat="42.9915" lon="-0.22543">
        <ele>1400.5999755859</ele>
        <time>2020-07-19T08:55:09Z</time>
      </trkpt>
      <trkpt lat="42.99151" lon="-0.22545">
        <ele>1401</ele>
        <time>2020-07-19T08:55:10Z</time>
      </trkpt>
      <trkpt lat="42.99152" lon="-0.22546">
        <ele>1401</ele>
        <time>2020-07-19T08:55:11Z</time>
      </trkpt>
      <trkpt lat="42.99154" lon="-0.22552">
        <ele>1401</ele>
        <time>2020-07-19T08:55:15Z</time>
      </trkpt>
      <trkpt lat="42.9916" lon="-0.22561">
        <ele>1401</ele>
        <time>2020-07-19T08:55:20Z</time>
      </trkpt>
      <trkpt lat="42.99162" lon="-0.22564">
        <ele>1401.4000244141</ele>
        <time>2020-07-19T08:55:23Z</time>
      </trkpt>
      <trkpt lat="42.99163" lon="-0.22566">
        <ele>1401.8000488281</ele>
        <time>2020-07-19T08:55:24Z</time>
      </trkpt>
      <trkpt lat="42.99163" lon="-0.22567">
        <ele>1402.4000244141</ele>
        <time>2020-07-19T08:55:25Z</time>
      </trkpt>
      <trkpt lat="42.99164" lon="-0.22568">
        <ele>1402.8000488281</ele>
        <time>2020-07-19T08:55:26Z</time>
      </trkpt>
      <trkpt lat="42.99164" lon="-0.22569">
        <ele>1403.1999511719</ele>
        <time>2020-07-19T08:55:27Z</time>
      </trkpt>
      <trkpt lat="42.99165" lon="-0.22572">
        <ele>1403.1999511719</ele>
        <time>2020-07-19T08:55:29Z</time>
      </trkpt>
      <trkpt lat="42.99165" lon="-0.22573">
        <ele>1403.5999755859</ele>
        <time>2020-07-19T08:55:30Z</time>
      </trkpt>
      <trkpt lat="42.99166" lon="-0.22574">
        <ele>1404</ele>
        <time>2020-07-19T08:55:31Z</time>
      </trkpt>
      <trkpt lat="42.99166" lon="-0.22576">
        <ele>1404.8000488281</ele>
        <time>2020-07-19T08:55:32Z</time>
      </trkpt>
      <trkpt lat="42.99167" lon="-0.22577">
        <ele>1405.1999511719</ele>
        <time>2020-07-19T08:55:33Z</time>
      </trkpt>
      <trkpt lat="42.99167" lon="-0.2258">
        <ele>1405.1999511719</ele>
        <time>2020-07-19T08:55:35Z</time>
      </trkpt>
      <trkpt lat="42.99169" lon="-0.22583">
        <ele>1405.5999755859</ele>
        <time>2020-07-19T08:55:38Z</time>
      </trkpt>
      <trkpt lat="42.99169" lon="-0.22585">
        <ele>1406</ele>
        <time>2020-07-19T08:55:39Z</time>
      </trkpt>
      <trkpt lat="42.99169" lon="-0.22587">
        <ele>1406.5999755859</ele>
        <time>2020-07-19T08:55:40Z</time>
      </trkpt>
      <trkpt lat="42.99168" lon="-0.22589">
        <ele>1407</ele>
        <time>2020-07-19T08:55:41Z</time>
      </trkpt>
      <trkpt lat="42.99168" lon="-0.2259">
        <ele>1407.4000244141</ele>
        <time>2020-07-19T08:55:42Z</time>
      </trkpt>
      <trkpt lat="42.99168" lon="-0.22595">
        <ele>1407.4000244141</ele>
        <time>2020-07-19T08:55:45Z</time>
      </trkpt>
      <trkpt lat="42.99165" lon="-0.226">
        <ele>1407.4000244141</ele>
        <time>2020-07-19T08:55:48Z</time>
      </trkpt>
      <trkpt lat="42.99163" lon="-0.22605">
        <ele>1407.4000244141</ele>
        <time>2020-07-19T08:55:50Z</time>
      </trkpt>
      <trkpt lat="42.9916" lon="-0.22612">
        <ele>1407.4000244141</ele>
        <time>2020-07-19T08:55:54Z</time>
      </trkpt>
      <trkpt lat="42.99155" lon="-0.22623">
        <ele>1407.8000488281</ele>
        <time>2020-07-19T08:56:01Z</time>
      </trkpt>
      <trkpt lat="42.99154" lon="-0.22623">
        <ele>1408.1999511719</ele>
        <time>2020-07-19T08:56:02Z</time>
      </trkpt>
      <trkpt lat="42.99153" lon="-0.22624">
        <ele>1408.5999755859</ele>
        <time>2020-07-19T08:56:03Z</time>
      </trkpt>
      <trkpt lat="42.99152" lon="-0.22626">
        <ele>1409</ele>
        <time>2020-07-19T08:56:04Z</time>
      </trkpt>
      <trkpt lat="42.99151" lon="-0.22627">
        <ele>1409.4000244141</ele>
        <time>2020-07-19T08:56:05Z</time>
      </trkpt>
      <trkpt lat="42.99148" lon="-0.22629">
        <ele>1409.4000244141</ele>
        <time>2020-07-19T08:56:08Z</time>
      </trkpt>
      <trkpt lat="42.99146" lon="-0.22629">
        <ele>1409.4000244141</ele>
        <time>2020-07-19T08:56:10Z</time>
      </trkpt>
      <trkpt lat="42.99146" lon="-0.22629">
        <ele>1409.4000244141</ele>
        <time>2020-07-19T08:56:13Z</time>
      </trkpt>
      <trkpt lat="42.99146" lon="-0.22629">
        <ele>1409.4000244141</ele>
        <time>2020-07-19T08:56:23Z</time>
      </trkpt>
      <trkpt lat="42.99146" lon="-0.2263">
        <ele>1409.4000244141</ele>
        <time>2020-07-19T08:56:29Z</time>
      </trkpt>
      <trkpt lat="42.99146" lon="-0.2263">
        <ele>1409.4000244141</ele>
        <time>2020-07-19T08:56:41Z</time>
      </trkpt>
      <trkpt lat="42.99146" lon="-0.2263">
        <ele>1409.4000244141</ele>
        <time>2020-07-19T08:56:46Z</time>
      </trkpt>
      <trkpt lat="42.99146" lon="-0.2263">
        <ele>1409.4000244141</ele>
        <time>2020-07-19T08:56:59Z</time>
      </trkpt>
      <trkpt lat="42.99146" lon="-0.2263">
        <ele>1409.4000244141</ele>
        <time>2020-07-19T08:57:07Z</time>
      </trkpt>
      <trkpt lat="42.99146" lon="-0.2263">
        <ele>1409.4000244141</ele>
        <time>2020-07-19T08:57:16Z</time>
      </trkpt>
      <trkpt lat="42.99143" lon="-0.22632">
        <ele>1409.4000244141</ele>
        <time>2020-07-19T08:57:22Z</time>
      </trkpt>
      <trkpt lat="42.99136" lon="-0.22642">
        <ele>1409.4000244141</ele>
        <time>2020-07-19T08:57:27Z</time>
      </trkpt>
      <trkpt lat="42.99119" lon="-0.22663">
        <ele>1409.4000244141</ele>
        <time>2020-07-19T08:57:33Z</time>
      </trkpt>
      <trkpt lat="42.99094" lon="-0.22687">
        <ele>1409.4000244141</ele>
        <time>2020-07-19T08:57:40Z</time>
      </trkpt>
      <trkpt lat="42.99074" lon="-0.22704">
        <ele>1409.4000244141</ele>
        <time>2020-07-19T08:57:46Z</time>
      </trkpt>
      <trkpt lat="42.99067" lon="-0.22709">
        <ele>1409.4000244141</ele>
        <time>2020-07-19T08:57:48Z</time>
      </trkpt>
      <trkpt lat="42.99053" lon="-0.22716">
        <ele>1409.4000244141</ele>
        <time>2020-07-19T08:57:52Z</time>
      </trkpt>
      <trkpt lat="42.99034" lon="-0.22714">
        <ele>1409.4000244141</ele>
        <time>2020-07-19T08:57:57Z</time>
      </trkpt>
      <trkpt lat="42.99017" lon="-0.22705">
        <ele>1409.4000244141</ele>
        <time>2020-07-19T08:58:03Z</time>
      </trkpt>
      <trkpt lat="42.99001" lon="-0.22694">
        <ele>1409.8000488281</ele>
        <time>2020-07-19T08:58:09Z</time>
      </trkpt>
      <trkpt lat="42.98999" lon="-0.22692">
        <ele>1410.1999511719</ele>
        <time>2020-07-19T08:58:10Z</time>
      </trkpt>
      <trkpt lat="42.98997" lon="-0.2269">
        <ele>1410.5999755859</ele>
        <time>2020-07-19T08:58:11Z</time>
      </trkpt>
      <trkpt lat="42.98995" lon="-0.22689">
        <ele>1411</ele>
        <time>2020-07-19T08:58:12Z</time>
      </trkpt>
      <trkpt lat="42.98993" lon="-0.22688">
        <ele>1411.5999755859</ele>
        <time>2020-07-19T08:58:13Z</time>
      </trkpt>
      <trkpt lat="42.98985" lon="-0.22682">
        <ele>1411.5999755859</ele>
        <time>2020-07-19T08:58:16Z</time>
      </trkpt>
      <trkpt lat="42.98965" lon="-0.22674">
        <ele>1412</ele>
        <time>2020-07-19T08:58:23Z</time>
      </trkpt>
      <trkpt lat="42.98962" lon="-0.22673">
        <ele>1412.4000244141</ele>
        <time>2020-07-19T08:58:24Z</time>
      </trkpt>
      <trkpt lat="42.98959" lon="-0.22672">
        <ele>1412.8000488281</ele>
        <time>2020-07-19T08:58:25Z</time>
      </trkpt>
      <trkpt lat="42.98957" lon="-0.22671">
        <ele>1413.5999755859</ele>
        <time>2020-07-19T08:58:26Z</time>
      </trkpt>
      <trkpt lat="42.98951" lon="-0.2267">
        <ele>1413.5999755859</ele>
        <time>2020-07-19T08:58:28Z</time>
      </trkpt>
      <trkpt lat="42.9893" lon="-0.22673">
        <ele>1413.5999755859</ele>
        <time>2020-07-19T08:58:35Z</time>
      </trkpt>
      <trkpt lat="42.98911" lon="-0.22682">
        <ele>1413.5999755859</ele>
        <time>2020-07-19T08:58:41Z</time>
      </trkpt>
      <trkpt lat="42.98892" lon="-0.22689">
        <ele>1413.5999755859</ele>
        <time>2020-07-19T08:58:47Z</time>
      </trkpt>
      <trkpt lat="42.98884" lon="-0.22692">
        <ele>1414</ele>
        <time>2020-07-19T08:58:50Z</time>
      </trkpt>
      <trkpt lat="42.9888" lon="-0.22693">
        <ele>1414.4000244141</ele>
        <time>2020-07-19T08:58:51Z</time>
      </trkpt>
      <trkpt lat="42.98877" lon="-0.22694">
        <ele>1414.8000488281</ele>
        <time>2020-07-19T08:58:52Z</time>
      </trkpt>
      <trkpt lat="42.98874" lon="-0.22694">
        <ele>1415.1999511719</ele>
        <time>2020-07-19T08:58:53Z</time>
      </trkpt>
      <trkpt lat="42.98871" lon="-0.22695">
        <ele>1415.5999755859</ele>
        <time>2020-07-19T08:58:54Z</time>
      </trkpt>
      <trkpt lat="42.98848" lon="-0.22703">
        <ele>1415.5999755859</ele>
        <time>2020-07-19T08:59:01Z</time>
      </trkpt>
      <trkpt lat="42.9883" lon="-0.22711">
        <ele>1415.5999755859</ele>
        <time>2020-07-19T08:59:06Z</time>
      </trkpt>
      <trkpt lat="42.9881" lon="-0.22721">
        <ele>1415.5999755859</ele>
        <time>2020-07-19T08:59:12Z</time>
      </trkpt>
      <trkpt lat="42.98792" lon="-0.22734">
        <ele>1415.5999755859</ele>
        <time>2020-07-19T08:59:18Z</time>
      </trkpt>
      <trkpt lat="42.98789" lon="-0.22736">
        <ele>1416</ele>
        <time>2020-07-19T08:59:19Z</time>
      </trkpt>
      <trkpt lat="42.98786" lon="-0.22738">
        <ele>1416.4000244141</ele>
        <time>2020-07-19T08:59:20Z</time>
      </trkpt>
      <trkpt lat="42.98783" lon="-0.2274">
        <ele>1416.8000488281</ele>
        <time>2020-07-19T08:59:21Z</time>
      </trkpt>
      <trkpt lat="42.9878" lon="-0.22742">
        <ele>1417.1999511719</ele>
        <time>2020-07-19T08:59:22Z</time>
      </trkpt>
      <trkpt lat="42.98777" lon="-0.22743">
        <ele>1417.5999755859</ele>
        <time>2020-07-19T08:59:23Z</time>
      </trkpt>
      <trkpt lat="42.98767" lon="-0.22746">
        <ele>1417.5999755859</ele>
        <time>2020-07-19T08:59:26Z</time>
      </trkpt>
      <trkpt lat="42.98746" lon="-0.22752">
        <ele>1417.5999755859</ele>
        <time>2020-07-19T08:59:32Z</time>
      </trkpt>
      <trkpt lat="42.98742" lon="-0.22753">
        <ele>1417.5999755859</ele>
        <time>2020-07-19T08:59:33Z</time>
      </trkpt>
      <trkpt lat="42.98729" lon="-0.22759">
        <ele>1417.5999755859</ele>
        <time>2020-07-19T08:59:37Z</time>
      </trkpt>
      <trkpt lat="42.98712" lon="-0.22773">
        <ele>1417.5999755859</ele>
        <time>2020-07-19T08:59:43Z</time>
      </trkpt>
      <trkpt lat="42.98702" lon="-0.22793">
        <ele>1417.5999755859</ele>
        <time>2020-07-19T08:59:48Z</time>
      </trkpt>
      <trkpt lat="42.98695" lon="-0.22807">
        <ele>1417.5999755859</ele>
        <time>2020-07-19T08:59:51Z</time>
      </trkpt>
      <trkpt lat="42.98685" lon="-0.22817">
        <ele>1417.5999755859</ele>
        <time>2020-07-19T08:59:54Z</time>
      </trkpt>
      <trkpt lat="42.98682" lon="-0.22819">
        <ele>1417.5999755859</ele>
        <time>2020-07-19T08:59:55Z</time>
      </trkpt>
      <trkpt lat="42.98662" lon="-0.22824">
        <ele>1417.5999755859</ele>
        <time>2020-07-19T09:00:00Z</time>
      </trkpt>
      <trkpt lat="42.9863" lon="-0.22823">
        <ele>1417.5999755859</ele>
        <time>2020-07-19T09:00:07Z</time>
      </trkpt>
      <trkpt lat="42.98619" lon="-0.22824">
        <ele>1417.5999755859</ele>
        <time>2020-07-19T09:00:09Z</time>
      </trkpt>
      <trkpt lat="42.98601" lon="-0.2283">
        <ele>1417.5999755859</ele>
        <time>2020-07-19T09:00:12Z</time>
      </trkpt>
      <trkpt lat="42.98562" lon="-0.22849">
        <ele>1417.5999755859</ele>
        <time>2020-07-19T09:00:19Z</time>
      </trkpt>
      <trkpt lat="42.98542" lon="-0.22866">
        <ele>1417.1999511719</ele>
        <time>2020-07-19T09:00:23Z</time>
      </trkpt>
      <trkpt lat="42.98538" lon="-0.2287">
        <ele>1416.8000488281</ele>
        <time>2020-07-19T09:00:24Z</time>
      </trkpt>
      <trkpt lat="42.98534" lon="-0.22875">
        <ele>1416.4000244141</ele>
        <time>2020-07-19T09:00:25Z</time>
      </trkpt>
      <trkpt lat="42.9853" lon="-0.22881">
        <ele>1416</ele>
        <time>2020-07-19T09:00:26Z</time>
      </trkpt>
      <trkpt lat="42.98527" lon="-0.22887">
        <ele>1415.5999755859</ele>
        <time>2020-07-19T09:00:27Z</time>
      </trkpt>
      <trkpt lat="42.98524" lon="-0.22894">
        <ele>1415.5999755859</ele>
        <time>2020-07-19T09:00:28Z</time>
      </trkpt>
      <trkpt lat="42.9852" lon="-0.22919">
        <ele>1415.5999755859</ele>
        <time>2020-07-19T09:00:31Z</time>
      </trkpt>
      <trkpt lat="42.98519" lon="-0.22928">
        <ele>1415.5999755859</ele>
        <time>2020-07-19T09:00:32Z</time>
      </trkpt>
      <trkpt lat="42.98519" lon="-0.22937">
        <ele>1415.5999755859</ele>
        <time>2020-07-19T09:00:33Z</time>
      </trkpt>
      <trkpt lat="42.98522" lon="-0.22955">
        <ele>1415.1999511719</ele>
        <time>2020-07-19T09:00:35Z</time>
      </trkpt>
      <trkpt lat="42.98524" lon="-0.22964">
        <ele>1414.5999755859</ele>
        <time>2020-07-19T09:00:36Z</time>
      </trkpt>
      <trkpt lat="42.98526" lon="-0.22974">
        <ele>1414.1999511719</ele>
        <time>2020-07-19T09:00:37Z</time>
      </trkpt>
      <trkpt lat="42.98528" lon="-0.22983">
        <ele>1413.8000488281</ele>
        <time>2020-07-19T09:00:38Z</time>
      </trkpt>
      <trkpt lat="42.98532" lon="-0.22992">
        <ele>1413.1999511719</ele>
        <time>2020-07-19T09:00:39Z</time>
      </trkpt>
      <trkpt lat="42.98536" lon="-0.22999">
        <ele>1412.5999755859</ele>
        <time>2020-07-19T09:00:40Z</time>
      </trkpt>
      <trkpt lat="42.98541" lon="-0.23006">
        <ele>1412</ele>
        <time>2020-07-19T09:00:41Z</time>
      </trkpt>
      <trkpt lat="42.98545" lon="-0.23012">
        <ele>1411.5999755859</ele>
        <time>2020-07-19T09:00:42Z</time>
      </trkpt>
      <trkpt lat="42.9855" lon="-0.23018">
        <ele>1411</ele>
        <time>2020-07-19T09:00:43Z</time>
      </trkpt>
      <trkpt lat="42.98555" lon="-0.23025">
        <ele>1410.4000244141</ele>
        <time>2020-07-19T09:00:44Z</time>
      </trkpt>
      <trkpt lat="42.98559" lon="-0.23033">
        <ele>1410</ele>
        <time>2020-07-19T09:00:45Z</time>
      </trkpt>
      <trkpt lat="42.98562" lon="-0.23042">
        <ele>1409.4000244141</ele>
        <time>2020-07-19T09:00:46Z</time>
      </trkpt>
      <trkpt lat="42.98565" lon="-0.23051">
        <ele>1408.8000488281</ele>
        <time>2020-07-19T09:00:47Z</time>
      </trkpt>
      <trkpt lat="42.98567" lon="-0.23061">
        <ele>1408.4000244141</ele>
        <time>2020-07-19T09:00:48Z</time>
      </trkpt>
      <trkpt lat="42.98571" lon="-0.2307">
        <ele>1407.8000488281</ele>
        <time>2020-07-19T09:00:49Z</time>
      </trkpt>
      <trkpt lat="42.98574" lon="-0.2308">
        <ele>1407.4000244141</ele>
        <time>2020-07-19T09:00:50Z</time>
      </trkpt>
      <trkpt lat="42.98575" lon="-0.2309">
        <ele>1406.8000488281</ele>
        <time>2020-07-19T09:00:51Z</time>
      </trkpt>
      <trkpt lat="42.98576" lon="-0.23101">
        <ele>1406.4000244141</ele>
        <time>2020-07-19T09:00:52Z</time>
      </trkpt>
      <trkpt lat="42.98578" lon="-0.23112">
        <ele>1405.8000488281</ele>
        <time>2020-07-19T09:00:53Z</time>
      </trkpt>
      <trkpt lat="42.98579" lon="-0.23123">
        <ele>1404.8000488281</ele>
        <time>2020-07-19T09:00:54Z</time>
      </trkpt>
      <trkpt lat="42.98581" lon="-0.23134">
        <ele>1404.1999511719</ele>
        <time>2020-07-19T09:00:55Z</time>
      </trkpt>
      <trkpt lat="42.98581" lon="-0.23146">
        <ele>1403.5999755859</ele>
        <time>2020-07-19T09:00:56Z</time>
      </trkpt>
      <trkpt lat="42.98582" lon="-0.23158">
        <ele>1403</ele>
        <time>2020-07-19T09:00:57Z</time>
      </trkpt>
      <trkpt lat="42.98581" lon="-0.2317">
        <ele>1402.4000244141</ele>
        <time>2020-07-19T09:00:58Z</time>
      </trkpt>
      <trkpt lat="42.9858" lon="-0.23182">
        <ele>1401.8000488281</ele>
        <time>2020-07-19T09:00:59Z</time>
      </trkpt>
      <trkpt lat="42.98579" lon="-0.23196">
        <ele>1401</ele>
        <time>2020-07-19T09:01:00Z</time>
      </trkpt>
      <trkpt lat="42.98578" lon="-0.23209">
        <ele>1400.4000244141</ele>
        <time>2020-07-19T09:01:01Z</time>
      </trkpt>
      <trkpt lat="42.98576" lon="-0.23222">
        <ele>1399.5999755859</ele>
        <time>2020-07-19T09:01:02Z</time>
      </trkpt>
      <trkpt lat="42.98575" lon="-0.23234">
        <ele>1399</ele>
        <time>2020-07-19T09:01:03Z</time>
      </trkpt>
      <trkpt lat="42.98573" lon="-0.23245">
        <ele>1398.1999511719</ele>
        <time>2020-07-19T09:01:04Z</time>
      </trkpt>
      <trkpt lat="42.98572" lon="-0.23256">
        <ele>1397.5999755859</ele>
        <time>2020-07-19T09:01:05Z</time>
      </trkpt>
      <trkpt lat="42.9857" lon="-0.23266">
        <ele>1396.8000488281</ele>
        <time>2020-07-19T09:01:06Z</time>
      </trkpt>
      <trkpt lat="42.98567" lon="-0.23292">
        <ele>1396.8000488281</ele>
        <time>2020-07-19T09:01:09Z</time>
      </trkpt>
      <trkpt lat="42.98569" lon="-0.23314">
        <ele>1396.8000488281</ele>
        <time>2020-07-19T09:01:12Z</time>
      </trkpt>
      <trkpt lat="42.98571" lon="-0.23321">
        <ele>1396.8000488281</ele>
        <time>2020-07-19T09:01:13Z</time>
      </trkpt>
      <trkpt lat="42.98583" lon="-0.23338">
        <ele>1396.8000488281</ele>
        <time>2020-07-19T09:01:16Z</time>
      </trkpt>
      <trkpt lat="42.98586" lon="-0.23345">
        <ele>1396.8000488281</ele>
        <time>2020-07-19T09:01:17Z</time>
      </trkpt>
      <trkpt lat="42.98589" lon="-0.2337">
        <ele>1396.8000488281</ele>
        <time>2020-07-19T09:01:20Z</time>
      </trkpt>
      <trkpt lat="42.98587" lon="-0.23398">
        <ele>1396.4000244141</ele>
        <time>2020-07-19T09:01:23Z</time>
      </trkpt>
      <trkpt lat="42.98587" lon="-0.23408">
        <ele>1396</ele>
        <time>2020-07-19T09:01:24Z</time>
      </trkpt>
      <trkpt lat="42.98586" lon="-0.23419">
        <ele>1395.5999755859</ele>
        <time>2020-07-19T09:01:25Z</time>
      </trkpt>
      <trkpt lat="42.98586" lon="-0.23429">
        <ele>1395.1999511719</ele>
        <time>2020-07-19T09:01:26Z</time>
      </trkpt>
      <trkpt lat="42.98584" lon="-0.2344">
        <ele>1394.5999755859</ele>
        <time>2020-07-19T09:01:27Z</time>
      </trkpt>
      <trkpt lat="42.98582" lon="-0.23451">
        <ele>1394</ele>
        <time>2020-07-19T09:01:28Z</time>
      </trkpt>
      <trkpt lat="42.98578" lon="-0.23461">
        <ele>1393.4000244141</ele>
        <time>2020-07-19T09:01:29Z</time>
      </trkpt>
      <trkpt lat="42.98575" lon="-0.23471">
        <ele>1393</ele>
        <time>2020-07-19T09:01:30Z</time>
      </trkpt>
      <trkpt lat="42.98572" lon="-0.23481">
        <ele>1392.4000244141</ele>
        <time>2020-07-19T09:01:31Z</time>
      </trkpt>
      <trkpt lat="42.98569" lon="-0.2349">
        <ele>1391.8000488281</ele>
        <time>2020-07-19T09:01:32Z</time>
      </trkpt>
      <trkpt lat="42.98565" lon="-0.235">
        <ele>1391.1999511719</ele>
        <time>2020-07-19T09:01:33Z</time>
      </trkpt>
      <trkpt lat="42.98561" lon="-0.23508">
        <ele>1390.5999755859</ele>
        <time>2020-07-19T09:01:34Z</time>
      </trkpt>
      <trkpt lat="42.98555" lon="-0.23517">
        <ele>1390</ele>
        <time>2020-07-19T09:01:35Z</time>
      </trkpt>
      <trkpt lat="42.98552" lon="-0.23526">
        <ele>1389.4000244141</ele>
        <time>2020-07-19T09:01:36Z</time>
      </trkpt>
      <trkpt lat="42.98551" lon="-0.23536">
        <ele>1388.8000488281</ele>
        <time>2020-07-19T09:01:37Z</time>
      </trkpt>
      <trkpt lat="42.98552" lon="-0.23546">
        <ele>1388.1999511719</ele>
        <time>2020-07-19T09:01:38Z</time>
      </trkpt>
      <trkpt lat="42.98553" lon="-0.23555">
        <ele>1387.5999755859</ele>
        <time>2020-07-19T09:01:39Z</time>
      </trkpt>
      <trkpt lat="42.98553" lon="-0.23566">
        <ele>1387</ele>
        <time>2020-07-19T09:01:40Z</time>
      </trkpt>
      <trkpt lat="42.98552" lon="-0.23577">
        <ele>1386.5999755859</ele>
        <time>2020-07-19T09:01:41Z</time>
      </trkpt>
      <trkpt lat="42.98551" lon="-0.23588">
        <ele>1386</ele>
        <time>2020-07-19T09:01:42Z</time>
      </trkpt>
      <trkpt lat="42.98551" lon="-0.23599">
        <ele>1385</ele>
        <time>2020-07-19T09:01:43Z</time>
      </trkpt>
      <trkpt lat="42.98552" lon="-0.23611">
        <ele>1384.5999755859</ele>
        <time>2020-07-19T09:01:44Z</time>
      </trkpt>
      <trkpt lat="42.98554" lon="-0.23622">
        <ele>1384.1999511719</ele>
        <time>2020-07-19T09:01:45Z</time>
      </trkpt>
      <trkpt lat="42.98557" lon="-0.23634">
        <ele>1383.8000488281</ele>
        <time>2020-07-19T09:01:46Z</time>
      </trkpt>
      <trkpt lat="42.98559" lon="-0.23644">
        <ele>1383.1999511719</ele>
        <time>2020-07-19T09:01:47Z</time>
      </trkpt>
      <trkpt lat="42.98561" lon="-0.23655">
        <ele>1382.5999755859</ele>
        <time>2020-07-19T09:01:48Z</time>
      </trkpt>
      <trkpt lat="42.98561" lon="-0.23665">
        <ele>1382</ele>
        <time>2020-07-19T09:01:49Z</time>
      </trkpt>
      <trkpt lat="42.9856" lon="-0.23676">
        <ele>1381.4000244141</ele>
        <time>2020-07-19T09:01:50Z</time>
      </trkpt>
      <trkpt lat="42.9856" lon="-0.23688">
        <ele>1380.8000488281</ele>
        <time>2020-07-19T09:01:51Z</time>
      </trkpt>
      <trkpt lat="42.98561" lon="-0.237">
        <ele>1380.1999511719</ele>
        <time>2020-07-19T09:01:52Z</time>
      </trkpt>
      <trkpt lat="42.98563" lon="-0.23713">
        <ele>1379.5999755859</ele>
        <time>2020-07-19T09:01:53Z</time>
      </trkpt>
      <trkpt lat="42.98565" lon="-0.23726">
        <ele>1378.8000488281</ele>
        <time>2020-07-19T09:01:54Z</time>
      </trkpt>
      <trkpt lat="42.98568" lon="-0.2374">
        <ele>1378</ele>
        <time>2020-07-19T09:01:55Z</time>
      </trkpt>
      <trkpt lat="42.98571" lon="-0.23751">
        <ele>1377.1999511719</ele>
        <time>2020-07-19T09:01:56Z</time>
      </trkpt>
      <trkpt lat="42.98574" lon="-0.23763">
        <ele>1376.4000244141</ele>
        <time>2020-07-19T09:01:57Z</time>
      </trkpt>
      <trkpt lat="42.98577" lon="-0.23775">
        <ele>1375.5999755859</ele>
        <time>2020-07-19T09:01:58Z</time>
      </trkpt>
      <trkpt lat="42.9858" lon="-0.23788">
        <ele>1374.5999755859</ele>
        <time>2020-07-19T09:01:59Z</time>
      </trkpt>
      <trkpt lat="42.98582" lon="-0.23801">
        <ele>1373.8000488281</ele>
        <time>2020-07-19T09:02:00Z</time>
      </trkpt>
      <trkpt lat="42.98585" lon="-0.23813">
        <ele>1373</ele>
        <time>2020-07-19T09:02:01Z</time>
      </trkpt>
      <trkpt lat="42.98589" lon="-0.23824">
        <ele>1372.5999755859</ele>
        <time>2020-07-19T09:02:02Z</time>
      </trkpt>
      <trkpt lat="42.98594" lon="-0.23835">
        <ele>1372</ele>
        <time>2020-07-19T09:02:03Z</time>
      </trkpt>
      <trkpt lat="42.98599" lon="-0.23845">
        <ele>1371.5999755859</ele>
        <time>2020-07-19T09:02:04Z</time>
      </trkpt>
      <trkpt lat="42.98604" lon="-0.23853">
        <ele>1371.1999511719</ele>
        <time>2020-07-19T09:02:05Z</time>
      </trkpt>
      <trkpt lat="42.9861" lon="-0.2386">
        <ele>1370.8000488281</ele>
        <time>2020-07-19T09:02:06Z</time>
      </trkpt>
      <trkpt lat="42.98616" lon="-0.23866">
        <ele>1370.1999511719</ele>
        <time>2020-07-19T09:02:07Z</time>
      </trkpt>
      <trkpt lat="42.98622" lon="-0.23872">
        <ele>1369</ele>
        <time>2020-07-19T09:02:08Z</time>
      </trkpt>
      <trkpt lat="42.98628" lon="-0.23878">
        <ele>1368.5999755859</ele>
        <time>2020-07-19T09:02:09Z</time>
      </trkpt>
      <trkpt lat="42.98636" lon="-0.23884">
        <ele>1368</ele>
        <time>2020-07-19T09:02:10Z</time>
      </trkpt>
      <trkpt lat="42.9865" lon="-0.23898">
        <ele>1367.4000244141</ele>
        <time>2020-07-19T09:02:12Z</time>
      </trkpt>
      <trkpt lat="42.98655" lon="-0.23907">
        <ele>1367</ele>
        <time>2020-07-19T09:02:13Z</time>
      </trkpt>
      <trkpt lat="42.98658" lon="-0.23918">
        <ele>1366.4000244141</ele>
        <time>2020-07-19T09:02:14Z</time>
      </trkpt>
      <trkpt lat="42.9866" lon="-0.23928">
        <ele>1366</ele>
        <time>2020-07-19T09:02:15Z</time>
      </trkpt>
      <trkpt lat="42.98661" lon="-0.23938">
        <ele>1365.4000244141</ele>
        <time>2020-07-19T09:02:16Z</time>
      </trkpt>
      <trkpt lat="42.98662" lon="-0.23948">
        <ele>1365.4000244141</ele>
        <time>2020-07-19T09:02:17Z</time>
      </trkpt>
      <trkpt lat="42.9866" lon="-0.23996">
        <ele>1365</ele>
        <time>2020-07-19T09:02:22Z</time>
      </trkpt>
      <trkpt lat="42.9866" lon="-0.24006">
        <ele>1364.5999755859</ele>
        <time>2020-07-19T09:02:23Z</time>
      </trkpt>
      <trkpt lat="42.98659" lon="-0.24015">
        <ele>1364</ele>
        <time>2020-07-19T09:02:24Z</time>
      </trkpt>
      <trkpt lat="42.98657" lon="-0.24024">
        <ele>1363.5999755859</ele>
        <time>2020-07-19T09:02:25Z</time>
      </trkpt>
      <trkpt lat="42.98656" lon="-0.24033">
        <ele>1363</ele>
        <time>2020-07-19T09:02:26Z</time>
      </trkpt>
      <trkpt lat="42.98654" lon="-0.24042">
        <ele>1363</ele>
        <time>2020-07-19T09:02:27Z</time>
      </trkpt>
      <trkpt lat="42.98652" lon="-0.24052">
        <ele>1362.5999755859</ele>
        <time>2020-07-19T09:02:28Z</time>
      </trkpt>
      <trkpt lat="42.98649" lon="-0.24061">
        <ele>1362.1999511719</ele>
        <time>2020-07-19T09:02:29Z</time>
      </trkpt>
      <trkpt lat="42.98647" lon="-0.24072">
        <ele>1361.8000488281</ele>
        <time>2020-07-19T09:02:30Z</time>
      </trkpt>
      <trkpt lat="42.98644" lon="-0.24082">
        <ele>1361.4000244141</ele>
        <time>2020-07-19T09:02:31Z</time>
      </trkpt>
      <trkpt lat="42.98641" lon="-0.24093">
        <ele>1361</ele>
        <time>2020-07-19T09:02:32Z</time>
      </trkpt>
      <trkpt lat="42.98639" lon="-0.24103">
        <ele>1359.8000488281</ele>
        <time>2020-07-19T09:02:33Z</time>
      </trkpt>
      <trkpt lat="42.98637" lon="-0.24115">
        <ele>1359.4000244141</ele>
        <time>2020-07-19T09:02:34Z</time>
      </trkpt>
      <trkpt lat="42.98636" lon="-0.24126">
        <ele>1358.8000488281</ele>
        <time>2020-07-19T09:02:35Z</time>
      </trkpt>
      <trkpt lat="42.98635" lon="-0.24139">
        <ele>1358.1999511719</ele>
        <time>2020-07-19T09:02:36Z</time>
      </trkpt>
      <trkpt lat="42.98634" lon="-0.24151">
        <ele>1357.4000244141</ele>
        <time>2020-07-19T09:02:37Z</time>
      </trkpt>
      <trkpt lat="42.98634" lon="-0.24162">
        <ele>1356.8000488281</ele>
        <time>2020-07-19T09:02:38Z</time>
      </trkpt>
      <trkpt lat="42.98633" lon="-0.24173">
        <ele>1356.1999511719</ele>
        <time>2020-07-19T09:02:39Z</time>
      </trkpt>
      <trkpt lat="42.98632" lon="-0.24184">
        <ele>1355.4000244141</ele>
        <time>2020-07-19T09:02:40Z</time>
      </trkpt>
      <trkpt lat="42.9863" lon="-0.24195">
        <ele>1354.8000488281</ele>
        <time>2020-07-19T09:02:41Z</time>
      </trkpt>
      <trkpt lat="42.98628" lon="-0.24205">
        <ele>1354</ele>
        <time>2020-07-19T09:02:42Z</time>
      </trkpt>
      <trkpt lat="42.98627" lon="-0.24216">
        <ele>1353.4000244141</ele>
        <time>2020-07-19T09:02:43Z</time>
      </trkpt>
      <trkpt lat="42.98626" lon="-0.24226">
        <ele>1352.5999755859</ele>
        <time>2020-07-19T09:02:44Z</time>
      </trkpt>
      <trkpt lat="42.98625" lon="-0.24237">
        <ele>1352</ele>
        <time>2020-07-19T09:02:45Z</time>
      </trkpt>
      <trkpt lat="42.98626" lon="-0.24249">
        <ele>1351.1999511719</ele>
        <time>2020-07-19T09:02:46Z</time>
      </trkpt>
      <trkpt lat="42.98627" lon="-0.24261">
        <ele>1350.4000244141</ele>
        <time>2020-07-19T09:02:47Z</time>
      </trkpt>
      <trkpt lat="42.98627" lon="-0.24273">
        <ele>1349.8000488281</ele>
        <time>2020-07-19T09:02:48Z</time>
      </trkpt>
      <trkpt lat="42.98627" lon="-0.24284">
        <ele>1349</ele>
        <time>2020-07-19T09:02:49Z</time>
      </trkpt>
      <trkpt lat="42.98625" lon="-0.24296">
        <ele>1348.4000244141</ele>
        <time>2020-07-19T09:02:50Z</time>
      </trkpt>
      <trkpt lat="42.98624" lon="-0.24308">
        <ele>1348</ele>
        <time>2020-07-19T09:02:51Z</time>
      </trkpt>
      <trkpt lat="42.98623" lon="-0.24321">
        <ele>1347.4000244141</ele>
        <time>2020-07-19T09:02:52Z</time>
      </trkpt>
      <trkpt lat="42.98622" lon="-0.24334">
        <ele>1346.5999755859</ele>
        <time>2020-07-19T09:02:53Z</time>
      </trkpt>
      <trkpt lat="42.98621" lon="-0.24347">
        <ele>1346</ele>
        <time>2020-07-19T09:02:54Z</time>
      </trkpt>
      <trkpt lat="42.98621" lon="-0.24361">
        <ele>1345.1999511719</ele>
        <time>2020-07-19T09:02:55Z</time>
      </trkpt>
      <trkpt lat="42.9862" lon="-0.24373">
        <ele>1344.5999755859</ele>
        <time>2020-07-19T09:02:56Z</time>
      </trkpt>
      <trkpt lat="42.98619" lon="-0.24385">
        <ele>1343.1999511719</ele>
        <time>2020-07-19T09:02:57Z</time>
      </trkpt>
      <trkpt lat="42.98619" lon="-0.24397">
        <ele>1342.4000244141</ele>
        <time>2020-07-19T09:02:58Z</time>
      </trkpt>
      <trkpt lat="42.98619" lon="-0.24408">
        <ele>1341.8000488281</ele>
        <time>2020-07-19T09:02:59Z</time>
      </trkpt>
      <trkpt lat="42.9862" lon="-0.2443">
        <ele>1341.8000488281</ele>
        <time>2020-07-19T09:03:01Z</time>
      </trkpt>
      <trkpt lat="42.98624" lon="-0.24465">
        <ele>1341.8000488281</ele>
        <time>2020-07-19T09:03:05Z</time>
      </trkpt>
      <trkpt lat="42.98627" lon="-0.2449">
        <ele>1341.8000488281</ele>
        <time>2020-07-19T09:03:09Z</time>
      </trkpt>
      <trkpt lat="42.98627" lon="-0.24495">
        <ele>1341.8000488281</ele>
        <time>2020-07-19T09:03:10Z</time>
      </trkpt>
      <trkpt lat="42.98629" lon="-0.24512">
        <ele>1341.8000488281</ele>
        <time>2020-07-19T09:03:14Z</time>
      </trkpt>
      <trkpt lat="42.9863" lon="-0.24516">
        <ele>1341.8000488281</ele>
        <time>2020-07-19T09:03:15Z</time>
      </trkpt>
      <trkpt lat="42.98632" lon="-0.24532">
        <ele>1341.8000488281</ele>
        <time>2020-07-19T09:03:19Z</time>
      </trkpt>
      <trkpt lat="42.98633" lon="-0.24539">
        <ele>1341.8000488281</ele>
        <time>2020-07-19T09:03:21Z</time>
      </trkpt>
      <trkpt lat="42.98632" lon="-0.24552">
        <ele>1341.8000488281</ele>
        <time>2020-07-19T09:03:25Z</time>
      </trkpt>
      <trkpt lat="42.98632" lon="-0.24567">
        <ele>1342.1999511719</ele>
        <time>2020-07-19T09:03:30Z</time>
      </trkpt>
      <trkpt lat="42.98631" lon="-0.2457">
        <ele>1342.5999755859</ele>
        <time>2020-07-19T09:03:31Z</time>
      </trkpt>
      <trkpt lat="42.9863" lon="-0.24572">
        <ele>1343.1999511719</ele>
        <time>2020-07-19T09:03:32Z</time>
      </trkpt>
      <trkpt lat="42.98629" lon="-0.24575">
        <ele>1343.5999755859</ele>
        <time>2020-07-19T09:03:33Z</time>
      </trkpt>
      <trkpt lat="42.98629" lon="-0.24577">
        <ele>1344</ele>
        <time>2020-07-19T09:03:34Z</time>
      </trkpt>
      <trkpt lat="42.98624" lon="-0.24585">
        <ele>1344</ele>
        <time>2020-07-19T09:03:38Z</time>
      </trkpt>
      <trkpt lat="42.98623" lon="-0.24587">
        <ele>1344</ele>
        <time>2020-07-19T09:03:39Z</time>
      </trkpt>
      <trkpt lat="42.98613" lon="-0.24594">
        <ele>1344</ele>
        <time>2020-07-19T09:03:45Z</time>
      </trkpt>
      <trkpt lat="42.98596" lon="-0.246">
        <ele>1344.4000244141</ele>
        <time>2020-07-19T09:03:53Z</time>
      </trkpt>
      <trkpt lat="42.98594" lon="-0.246">
        <ele>1344.8000488281</ele>
        <time>2020-07-19T09:03:54Z</time>
      </trkpt>
      <trkpt lat="42.98592" lon="-0.246">
        <ele>1345.1999511719</ele>
        <time>2020-07-19T09:03:55Z</time>
      </trkpt>
      <trkpt lat="42.9859" lon="-0.24601">
        <ele>1345.5999755859</ele>
        <time>2020-07-19T09:03:56Z</time>
      </trkpt>
      <trkpt lat="42.98588" lon="-0.24601">
        <ele>1346</ele>
        <time>2020-07-19T09:03:57Z</time>
      </trkpt>
      <trkpt lat="42.98583" lon="-0.24602">
        <ele>1346</ele>
        <time>2020-07-19T09:03:59Z</time>
      </trkpt>
      <trkpt lat="42.98566" lon="-0.24605">
        <ele>1346.4000244141</ele>
        <time>2020-07-19T09:04:06Z</time>
      </trkpt>
      <trkpt lat="42.98563" lon="-0.24605">
        <ele>1346.8000488281</ele>
        <time>2020-07-19T09:04:07Z</time>
      </trkpt>
      <trkpt lat="42.98561" lon="-0.24605">
        <ele>1347.4000244141</ele>
        <time>2020-07-19T09:04:08Z</time>
      </trkpt>
      <trkpt lat="42.98558" lon="-0.24605">
        <ele>1347.8000488281</ele>
        <time>2020-07-19T09:04:09Z</time>
      </trkpt>
      <trkpt lat="42.98556" lon="-0.24605">
        <ele>1348.1999511719</ele>
        <time>2020-07-19T09:04:10Z</time>
      </trkpt>
      <trkpt lat="42.98548" lon="-0.24604">
        <ele>1348.1999511719</ele>
        <time>2020-07-19T09:04:13Z</time>
      </trkpt>
      <trkpt lat="42.98533" lon="-0.24596">
        <ele>1348.1999511719</ele>
        <time>2020-07-19T09:04:20Z</time>
      </trkpt>
      <trkpt lat="42.98532" lon="-0.24594">
        <ele>1348.5999755859</ele>
        <time>2020-07-19T09:04:21Z</time>
      </trkpt>
      <trkpt lat="42.9853" lon="-0.24592">
        <ele>1349</ele>
        <time>2020-07-19T09:04:22Z</time>
      </trkpt>
      <trkpt lat="42.98528" lon="-0.2459">
        <ele>1349.4000244141</ele>
        <time>2020-07-19T09:04:23Z</time>
      </trkpt>
      <trkpt lat="42.98526" lon="-0.24588">
        <ele>1349.8000488281</ele>
        <time>2020-07-19T09:04:24Z</time>
      </trkpt>
      <trkpt lat="42.98525" lon="-0.24586">
        <ele>1350.1999511719</ele>
        <time>2020-07-19T09:04:25Z</time>
      </trkpt>
      <trkpt lat="42.98522" lon="-0.24582">
        <ele>1350.1999511719</ele>
        <time>2020-07-19T09:04:27Z</time>
      </trkpt>
      <trkpt lat="42.98516" lon="-0.24573">
        <ele>1350.8000488281</ele>
        <time>2020-07-19T09:04:32Z</time>
      </trkpt>
      <trkpt lat="42.98515" lon="-0.24571">
        <ele>1351.1999511719</ele>
        <time>2020-07-19T09:04:33Z</time>
      </trkpt>
      <trkpt lat="42.98513" lon="-0.24569">
        <ele>1351.5999755859</ele>
        <time>2020-07-19T09:04:34Z</time>
      </trkpt>
      <trkpt lat="42.98512" lon="-0.24566">
        <ele>1352</ele>
        <time>2020-07-19T09:04:35Z</time>
      </trkpt>
      <trkpt lat="42.98511" lon="-0.24564">
        <ele>1352.4000244141</ele>
        <time>2020-07-19T09:04:36Z</time>
      </trkpt>
      <trkpt lat="42.98505" lon="-0.24555">
        <ele>1352.8000488281</ele>
        <time>2020-07-19T09:04:41Z</time>
      </trkpt>
      <trkpt lat="42.98504" lon="-0.24553">
        <ele>1353.1999511719</ele>
        <time>2020-07-19T09:04:42Z</time>
      </trkpt>
      <trkpt lat="42.98502" lon="-0.24551">
        <ele>1353.5999755859</ele>
        <time>2020-07-19T09:04:43Z</time>
      </trkpt>
      <trkpt lat="42.98501" lon="-0.24549">
        <ele>1354</ele>
        <time>2020-07-19T09:04:44Z</time>
      </trkpt>
      <trkpt lat="42.985" lon="-0.24548">
        <ele>1354.4000244141</ele>
        <time>2020-07-19T09:04:45Z</time>
      </trkpt>
      <trkpt lat="42.98495" lon="-0.24542">
        <ele>1354.4000244141</ele>
        <time>2020-07-19T09:04:48Z</time>
      </trkpt>
      <trkpt lat="42.98486" lon="-0.24531">
        <ele>1354.8000488281</ele>
        <time>2020-07-19T09:04:55Z</time>
      </trkpt>
      <trkpt lat="42.98485" lon="-0.2453">
        <ele>1355.4000244141</ele>
        <time>2020-07-19T09:04:56Z</time>
      </trkpt>
      <trkpt lat="42.98483" lon="-0.24528">
        <ele>1355.8000488281</ele>
        <time>2020-07-19T09:04:57Z</time>
      </trkpt>
      <trkpt lat="42.98482" lon="-0.24527">
        <ele>1356.1999511719</ele>
        <time>2020-07-19T09:04:58Z</time>
      </trkpt>
      <trkpt lat="42.9848" lon="-0.24525">
        <ele>1356.5999755859</ele>
        <time>2020-07-19T09:04:59Z</time>
      </trkpt>
      <trkpt lat="42.98476" lon="-0.24521">
        <ele>1356.5999755859</ele>
        <time>2020-07-19T09:05:02Z</time>
      </trkpt>
      <trkpt lat="42.98466" lon="-0.24511">
        <ele>1356.5999755859</ele>
        <time>2020-07-19T09:05:08Z</time>
      </trkpt>
      <trkpt lat="42.98464" lon="-0.24509">
        <ele>1357</ele>
        <time>2020-07-19T09:05:09Z</time>
      </trkpt>
      <trkpt lat="42.98462" lon="-0.24507">
        <ele>1357.4000244141</ele>
        <time>2020-07-19T09:05:10Z</time>
      </trkpt>
      <trkpt lat="42.9846" lon="-0.24506">
        <ele>1357.8000488281</ele>
        <time>2020-07-19T09:05:11Z</time>
      </trkpt>
      <trkpt lat="42.98458" lon="-0.24504">
        <ele>1358.1999511719</ele>
        <time>2020-07-19T09:05:12Z</time>
      </trkpt>
      <trkpt lat="42.98456" lon="-0.24502">
        <ele>1358.5999755859</ele>
        <time>2020-07-19T09:05:13Z</time>
      </trkpt>
      <trkpt lat="42.98455" lon="-0.245">
        <ele>1358.5999755859</ele>
        <time>2020-07-19T09:05:14Z</time>
      </trkpt>
      <trkpt lat="42.98444" lon="-0.2449">
        <ele>1358.5999755859</ele>
        <time>2020-07-19T09:05:20Z</time>
      </trkpt>
      <trkpt lat="42.9843" lon="-0.24476">
        <ele>1358.5999755859</ele>
        <time>2020-07-19T09:05:27Z</time>
      </trkpt>
      <trkpt lat="42.98417" lon="-0.24466">
        <ele>1358.5999755859</ele>
        <time>2020-07-19T09:05:32Z</time>
      </trkpt>
      <trkpt lat="42.98409" lon="-0.24464">
        <ele>1359</ele>
        <time>2020-07-19T09:05:36Z</time>
      </trkpt>
      <trkpt lat="42.98407" lon="-0.24463">
        <ele>1359.4000244141</ele>
        <time>2020-07-19T09:05:37Z</time>
      </trkpt>
      <trkpt lat="42.98404" lon="-0.24462">
        <ele>1359.8000488281</ele>
        <time>2020-07-19T09:05:38Z</time>
      </trkpt>
      <trkpt lat="42.98402" lon="-0.2446">
        <ele>1360.1999511719</ele>
        <time>2020-07-19T09:05:39Z</time>
      </trkpt>
      <trkpt lat="42.984" lon="-0.24459">
        <ele>1360.5999755859</ele>
        <time>2020-07-19T09:05:40Z</time>
      </trkpt>
      <trkpt lat="42.9839" lon="-0.24454">
        <ele>1360.5999755859</ele>
        <time>2020-07-19T09:05:44Z</time>
      </trkpt>
      <trkpt lat="42.98376" lon="-0.24451">
        <ele>1360.5999755859</ele>
        <time>2020-07-19T09:05:49Z</time>
      </trkpt>
      <trkpt lat="42.98359" lon="-0.24446">
        <ele>1360.5999755859</ele>
        <time>2020-07-19T09:05:56Z</time>
      </trkpt>
      <trkpt lat="42.98347" lon="-0.24444">
        <ele>1361.1999511719</ele>
        <time>2020-07-19T09:06:02Z</time>
      </trkpt>
      <trkpt lat="42.98344" lon="-0.24444">
        <ele>1361.5999755859</ele>
        <time>2020-07-19T09:06:03Z</time>
      </trkpt>
      <trkpt lat="42.98342" lon="-0.24445">
        <ele>1362</ele>
        <time>2020-07-19T09:06:04Z</time>
      </trkpt>
      <trkpt lat="42.9834" lon="-0.24446">
        <ele>1362.4000244141</ele>
        <time>2020-07-19T09:06:05Z</time>
      </trkpt>
      <trkpt lat="42.98337" lon="-0.24447">
        <ele>1362.8000488281</ele>
        <time>2020-07-19T09:06:06Z</time>
      </trkpt>
      <trkpt lat="42.98327" lon="-0.24448">
        <ele>1362.8000488281</ele>
        <time>2020-07-19T09:06:10Z</time>
      </trkpt>
      <trkpt lat="42.98314" lon="-0.24439">
        <ele>1362.8000488281</ele>
        <time>2020-07-19T09:06:16Z</time>
      </trkpt>
      <trkpt lat="42.98305" lon="-0.24429">
        <ele>1362.8000488281</ele>
        <time>2020-07-19T09:06:19Z</time>
      </trkpt>
      <trkpt lat="42.98298" lon="-0.2442">
        <ele>1362.8000488281</ele>
        <time>2020-07-19T09:06:21Z</time>
      </trkpt>
      <trkpt lat="42.98287" lon="-0.24419">
        <ele>1362.8000488281</ele>
        <time>2020-07-19T09:06:24Z</time>
      </trkpt>
      <trkpt lat="42.98277" lon="-0.2443">
        <ele>1362.8000488281</ele>
        <time>2020-07-19T09:06:29Z</time>
      </trkpt>
      <trkpt lat="42.98275" lon="-0.24434">
        <ele>1362.8000488281</ele>
        <time>2020-07-19T09:06:30Z</time>
      </trkpt>
      <trkpt lat="42.9827" lon="-0.24442">
        <ele>1363.1999511719</ele>
        <time>2020-07-19T09:06:33Z</time>
      </trkpt>
      <trkpt lat="42.98268" lon="-0.24445">
        <ele>1363.5999755859</ele>
        <time>2020-07-19T09:06:34Z</time>
      </trkpt>
      <trkpt lat="42.98266" lon="-0.24448">
        <ele>1364</ele>
        <time>2020-07-19T09:06:35Z</time>
      </trkpt>
      <trkpt lat="42.98264" lon="-0.24451">
        <ele>1364.4000244141</ele>
        <time>2020-07-19T09:06:36Z</time>
      </trkpt>
      <trkpt lat="42.98262" lon="-0.24454">
        <ele>1364.8000488281</ele>
        <time>2020-07-19T09:06:37Z</time>
      </trkpt>
      <trkpt lat="42.98254" lon="-0.24464">
        <ele>1364.8000488281</ele>
        <time>2020-07-19T09:06:41Z</time>
      </trkpt>
      <trkpt lat="42.9824" lon="-0.24475">
        <ele>1364.8000488281</ele>
        <time>2020-07-19T09:06:48Z</time>
      </trkpt>
      <trkpt lat="42.98235" lon="-0.24475">
        <ele>1365.4000244141</ele>
        <time>2020-07-19T09:06:50Z</time>
      </trkpt>
      <trkpt lat="42.98232" lon="-0.24475">
        <ele>1365.8000488281</ele>
        <time>2020-07-19T09:06:51Z</time>
      </trkpt>
      <trkpt lat="42.98229" lon="-0.24475">
        <ele>1366.1999511719</ele>
        <time>2020-07-19T09:06:52Z</time>
      </trkpt>
      <trkpt lat="42.98227" lon="-0.24475">
        <ele>1366.5999755859</ele>
        <time>2020-07-19T09:06:53Z</time>
      </trkpt>
      <trkpt lat="42.98224" lon="-0.24475">
        <ele>1367</ele>
        <time>2020-07-19T09:06:54Z</time>
      </trkpt>
      <trkpt lat="42.98219" lon="-0.24475">
        <ele>1367</ele>
        <time>2020-07-19T09:06:56Z</time>
      </trkpt>
      <trkpt lat="42.98208" lon="-0.24478">
        <ele>1367</ele>
        <time>2020-07-19T09:07:01Z</time>
      </trkpt>
      <trkpt lat="42.98198" lon="-0.24482">
        <ele>1367.8000488281</ele>
        <time>2020-07-19T09:07:06Z</time>
      </trkpt>
      <trkpt lat="42.98195" lon="-0.24482">
        <ele>1368.1999511719</ele>
        <time>2020-07-19T09:07:07Z</time>
      </trkpt>
      <trkpt lat="42.98193" lon="-0.24483">
        <ele>1368.5999755859</ele>
        <time>2020-07-19T09:07:08Z</time>
      </trkpt>
      <trkpt lat="42.98191" lon="-0.24485">
        <ele>1369.1999511719</ele>
        <time>2020-07-19T09:07:09Z</time>
      </trkpt>
      <trkpt lat="42.98184" lon="-0.24487">
        <ele>1369.1999511719</ele>
        <time>2020-07-19T09:07:12Z</time>
      </trkpt>
      <trkpt lat="42.98173" lon="-0.24496">
        <ele>1369.1999511719</ele>
        <time>2020-07-19T09:07:18Z</time>
      </trkpt>
      <trkpt lat="42.98164" lon="-0.245">
        <ele>1369.5999755859</ele>
        <time>2020-07-19T09:07:22Z</time>
      </trkpt>
      <trkpt lat="42.98162" lon="-0.24502">
        <ele>1370</ele>
        <time>2020-07-19T09:07:23Z</time>
      </trkpt>
      <trkpt lat="42.9816" lon="-0.24503">
        <ele>1370.4000244141</ele>
        <time>2020-07-19T09:07:24Z</time>
      </trkpt>
      <trkpt lat="42.98158" lon="-0.24504">
        <ele>1370.8000488281</ele>
        <time>2020-07-19T09:07:25Z</time>
      </trkpt>
      <trkpt lat="42.98156" lon="-0.24505">
        <ele>1371.1999511719</ele>
        <time>2020-07-19T09:07:26Z</time>
      </trkpt>
      <trkpt lat="42.98142" lon="-0.24512">
        <ele>1371.1999511719</ele>
        <time>2020-07-19T09:07:32Z</time>
      </trkpt>
      <trkpt lat="42.98132" lon="-0.24522">
        <ele>1371.5999755859</ele>
        <time>2020-07-19T09:07:38Z</time>
      </trkpt>
      <trkpt lat="42.9813" lon="-0.24525">
        <ele>1372</ele>
        <time>2020-07-19T09:07:39Z</time>
      </trkpt>
      <trkpt lat="42.98129" lon="-0.24527">
        <ele>1372.4000244141</ele>
        <time>2020-07-19T09:07:40Z</time>
      </trkpt>
      <trkpt lat="42.98127" lon="-0.2453">
        <ele>1372.8000488281</ele>
        <time>2020-07-19T09:07:41Z</time>
      </trkpt>
      <trkpt lat="42.98126" lon="-0.24532">
        <ele>1373.4000244141</ele>
        <time>2020-07-19T09:07:42Z</time>
      </trkpt>
      <trkpt lat="42.9812" lon="-0.2454">
        <ele>1373.4000244141</ele>
        <time>2020-07-19T09:07:46Z</time>
      </trkpt>
      <trkpt lat="42.98115" lon="-0.2455">
        <ele>1373.8000488281</ele>
        <time>2020-07-19T09:07:51Z</time>
      </trkpt>
      <trkpt lat="42.98113" lon="-0.24552">
        <ele>1374.1999511719</ele>
        <time>2020-07-19T09:07:52Z</time>
      </trkpt>
      <trkpt lat="42.98112" lon="-0.24554">
        <ele>1374.5999755859</ele>
        <time>2020-07-19T09:07:53Z</time>
      </trkpt>
      <trkpt lat="42.98111" lon="-0.24557">
        <ele>1375</ele>
        <time>2020-07-19T09:07:54Z</time>
      </trkpt>
      <trkpt lat="42.9811" lon="-0.24559">
        <ele>1375.4000244141</ele>
        <time>2020-07-19T09:07:55Z</time>
      </trkpt>
      <trkpt lat="42.98106" lon="-0.24567">
        <ele>1375.4000244141</ele>
        <time>2020-07-19T09:07:59Z</time>
      </trkpt>
      <trkpt lat="42.98097" lon="-0.2458">
        <ele>1375.4000244141</ele>
        <time>2020-07-19T09:08:06Z</time>
      </trkpt>
      <trkpt lat="42.98096" lon="-0.24582">
        <ele>1375.8000488281</ele>
        <time>2020-07-19T09:08:07Z</time>
      </trkpt>
      <trkpt lat="42.98094" lon="-0.24584">
        <ele>1376.1999511719</ele>
        <time>2020-07-19T09:08:08Z</time>
      </trkpt>
      <trkpt lat="42.98092" lon="-0.24586">
        <ele>1376.5999755859</ele>
        <time>2020-07-19T09:08:09Z</time>
      </trkpt>
      <trkpt lat="42.98091" lon="-0.24589">
        <ele>1377</ele>
        <time>2020-07-19T09:08:10Z</time>
      </trkpt>
      <trkpt lat="42.98089" lon="-0.24591">
        <ele>1377.4000244141</ele>
        <time>2020-07-19T09:08:11Z</time>
      </trkpt>
      <trkpt lat="42.98085" lon="-0.24595">
        <ele>1377.4000244141</ele>
        <time>2020-07-19T09:08:13Z</time>
      </trkpt>
      <trkpt lat="42.98076" lon="-0.24611">
        <ele>1377.4000244141</ele>
        <time>2020-07-19T09:08:21Z</time>
      </trkpt>
      <trkpt lat="42.98073" lon="-0.24621">
        <ele>1377.8000488281</ele>
        <time>2020-07-19T09:08:25Z</time>
      </trkpt>
      <trkpt lat="42.98072" lon="-0.24624">
        <ele>1378.4000244141</ele>
        <time>2020-07-19T09:08:26Z</time>
      </trkpt>
      <trkpt lat="42.98071" lon="-0.24627">
        <ele>1378.8000488281</ele>
        <time>2020-07-19T09:08:27Z</time>
      </trkpt>
      <trkpt lat="42.98071" lon="-0.24629">
        <ele>1379.1999511719</ele>
        <time>2020-07-19T09:08:28Z</time>
      </trkpt>
      <trkpt lat="42.9807" lon="-0.24632">
        <ele>1379.8000488281</ele>
        <time>2020-07-19T09:08:29Z</time>
      </trkpt>
      <trkpt lat="42.98068" lon="-0.24646">
        <ele>1379.8000488281</ele>
        <time>2020-07-19T09:08:34Z</time>
      </trkpt>
      <trkpt lat="42.98068" lon="-0.24657">
        <ele>1380.1999511719</ele>
        <time>2020-07-19T09:08:38Z</time>
      </trkpt>
      <trkpt lat="42.98068" lon="-0.24659">
        <ele>1380.5999755859</ele>
        <time>2020-07-19T09:08:39Z</time>
      </trkpt>
      <trkpt lat="42.98068" lon="-0.24661">
        <ele>1381</ele>
        <time>2020-07-19T09:08:40Z</time>
      </trkpt>
      <trkpt lat="42.98067" lon="-0.24663">
        <ele>1381.4000244141</ele>
        <time>2020-07-19T09:08:41Z</time>
      </trkpt>
      <trkpt lat="42.98067" lon="-0.24665">
        <ele>1381.8000488281</ele>
        <time>2020-07-19T09:08:42Z</time>
      </trkpt>
      <trkpt lat="42.98066" lon="-0.24674">
        <ele>1381.8000488281</ele>
        <time>2020-07-19T09:08:46Z</time>
      </trkpt>
      <trkpt lat="42.98065" lon="-0.24678">
        <ele>1382.1999511719</ele>
        <time>2020-07-19T09:08:48Z</time>
      </trkpt>
      <trkpt lat="42.98065" lon="-0.2468">
        <ele>1382.8000488281</ele>
        <time>2020-07-19T09:08:49Z</time>
      </trkpt>
      <trkpt lat="42.98065" lon="-0.24682">
        <ele>1383.1999511719</ele>
        <time>2020-07-19T09:08:50Z</time>
      </trkpt>
      <trkpt lat="42.98065" lon="-0.24684">
        <ele>1383.5999755859</ele>
        <time>2020-07-19T09:08:51Z</time>
      </trkpt>
      <trkpt lat="42.98065" lon="-0.24686">
        <ele>1384</ele>
        <time>2020-07-19T09:08:52Z</time>
      </trkpt>
      <trkpt lat="42.98065" lon="-0.24696">
        <ele>1384</ele>
        <time>2020-07-19T09:08:57Z</time>
      </trkpt>
      <trkpt lat="42.98065" lon="-0.24698">
        <ele>1384.4000244141</ele>
        <time>2020-07-19T09:08:58Z</time>
      </trkpt>
      <trkpt lat="42.98065" lon="-0.247">
        <ele>1384.8000488281</ele>
        <time>2020-07-19T09:08:59Z</time>
      </trkpt>
      <trkpt lat="42.98065" lon="-0.24702">
        <ele>1385.1999511719</ele>
        <time>2020-07-19T09:09:00Z</time>
      </trkpt>
      <trkpt lat="42.98064" lon="-0.24703">
        <ele>1385.5999755859</ele>
        <time>2020-07-19T09:09:01Z</time>
      </trkpt>
      <trkpt lat="42.98062" lon="-0.24703">
        <ele>1386</ele>
        <time>2020-07-19T09:09:02Z</time>
      </trkpt>
      <trkpt lat="42.98058" lon="-0.247">
        <ele>1386</ele>
        <time>2020-07-19T09:09:06Z</time>
      </trkpt>
      <trkpt lat="42.98057" lon="-0.24696">
        <ele>1386</ele>
        <time>2020-07-19T09:09:08Z</time>
      </trkpt>
      <trkpt lat="42.98057" lon="-0.24686">
        <ele>1386</ele>
        <time>2020-07-19T09:09:13Z</time>
      </trkpt>
      <trkpt lat="42.98057" lon="-0.2468">
        <ele>1386.4000244141</ele>
        <time>2020-07-19T09:09:16Z</time>
      </trkpt>
      <trkpt lat="42.98057" lon="-0.24679">
        <ele>1386.8000488281</ele>
        <time>2020-07-19T09:09:17Z</time>
      </trkpt>
      <trkpt lat="42.98057" lon="-0.24677">
        <ele>1387.4000244141</ele>
        <time>2020-07-19T09:09:18Z</time>
      </trkpt>
      <trkpt lat="42.98057" lon="-0.24675">
        <ele>1387.8000488281</ele>
        <time>2020-07-19T09:09:19Z</time>
      </trkpt>
      <trkpt lat="42.98057" lon="-0.24673">
        <ele>1388.1999511719</ele>
        <time>2020-07-19T09:09:20Z</time>
      </trkpt>
      <trkpt lat="42.98056" lon="-0.2467">
        <ele>1388.1999511719</ele>
        <time>2020-07-19T09:09:21Z</time>
      </trkpt>
      <trkpt lat="42.98053" lon="-0.24657">
        <ele>1388.1999511719</ele>
        <time>2020-07-19T09:09:28Z</time>
      </trkpt>
      <trkpt lat="42.98052" lon="-0.24648">
        <ele>1388.5999755859</ele>
        <time>2020-07-19T09:09:32Z</time>
      </trkpt>
      <trkpt lat="42.98051" lon="-0.24646">
        <ele>1389</ele>
        <time>2020-07-19T09:09:33Z</time>
      </trkpt>
      <trkpt lat="42.98051" lon="-0.24644">
        <ele>1389.4000244141</ele>
        <time>2020-07-19T09:09:34Z</time>
      </trkpt>
      <trkpt lat="42.98051" lon="-0.24641">
        <ele>1390.1999511719</ele>
        <time>2020-07-19T09:09:35Z</time>
      </trkpt>
      <trkpt lat="42.9805" lon="-0.24628">
        <ele>1390.1999511719</ele>
        <time>2020-07-19T09:09:41Z</time>
      </trkpt>
      <trkpt lat="42.98049" lon="-0.2462">
        <ele>1390.5999755859</ele>
        <time>2020-07-19T09:09:45Z</time>
      </trkpt>
      <trkpt lat="42.98049" lon="-0.24618">
        <ele>1391</ele>
        <time>2020-07-19T09:09:46Z</time>
      </trkpt>
      <trkpt lat="42.98049" lon="-0.24615">
        <ele>1391.4000244141</ele>
        <time>2020-07-19T09:09:47Z</time>
      </trkpt>
      <trkpt lat="42.9805" lon="-0.24613">
        <ele>1391.8000488281</ele>
        <time>2020-07-19T09:09:48Z</time>
      </trkpt>
      <trkpt lat="42.9805" lon="-0.2461">
        <ele>1392.4000244141</ele>
        <time>2020-07-19T09:09:49Z</time>
      </trkpt>
      <trkpt lat="42.98051" lon="-0.24594">
        <ele>1392.4000244141</ele>
        <time>2020-07-19T09:09:55Z</time>
      </trkpt>
      <trkpt lat="42.98058" lon="-0.24572">
        <ele>1392.4000244141</ele>
        <time>2020-07-19T09:10:03Z</time>
      </trkpt>
      <trkpt lat="42.98064" lon="-0.24556">
        <ele>1392.8000488281</ele>
        <time>2020-07-19T09:10:10Z</time>
      </trkpt>
      <trkpt lat="42.98065" lon="-0.24554">
        <ele>1393.1999511719</ele>
        <time>2020-07-19T09:10:11Z</time>
      </trkpt>
      <trkpt lat="42.98066" lon="-0.24552">
        <ele>1393.5999755859</ele>
        <time>2020-07-19T09:10:12Z</time>
      </trkpt>
      <trkpt lat="42.98067" lon="-0.2455">
        <ele>1394</ele>
        <time>2020-07-19T09:10:13Z</time>
      </trkpt>
      <trkpt lat="42.98067" lon="-0.24548">
        <ele>1394.4000244141</ele>
        <time>2020-07-19T09:10:14Z</time>
      </trkpt>
      <trkpt lat="42.9807" lon="-0.24537">
        <ele>1394.4000244141</ele>
        <time>2020-07-19T09:10:19Z</time>
      </trkpt>
      <trkpt lat="42.9807" lon="-0.2453">
        <ele>1394.8000488281</ele>
        <time>2020-07-19T09:10:22Z</time>
      </trkpt>
      <trkpt lat="42.9807" lon="-0.24527">
        <ele>1395.1999511719</ele>
        <time>2020-07-19T09:10:23Z</time>
      </trkpt>
      <trkpt lat="42.98069" lon="-0.24525">
        <ele>1396</ele>
        <time>2020-07-19T09:10:24Z</time>
      </trkpt>
      <trkpt lat="42.98068" lon="-0.24522">
        <ele>1396.4000244141</ele>
        <time>2020-07-19T09:10:25Z</time>
      </trkpt>
      <trkpt lat="42.98068" lon="-0.2452">
        <ele>1396.4000244141</ele>
        <time>2020-07-19T09:10:26Z</time>
      </trkpt>
      <trkpt lat="42.98062" lon="-0.24508">
        <ele>1396.4000244141</ele>
        <time>2020-07-19T09:10:31Z</time>
      </trkpt>
      <trkpt lat="42.98059" lon="-0.24491">
        <ele>1396.4000244141</ele>
        <time>2020-07-19T09:10:37Z</time>
      </trkpt>
      <trkpt lat="42.98059" lon="-0.24487">
        <ele>1396.8000488281</ele>
        <time>2020-07-19T09:10:39Z</time>
      </trkpt>
      <trkpt lat="42.9806" lon="-0.24485">
        <ele>1397.1999511719</ele>
        <time>2020-07-19T09:10:40Z</time>
      </trkpt>
      <trkpt lat="42.98061" lon="-0.24483">
        <ele>1397.5999755859</ele>
        <time>2020-07-19T09:10:41Z</time>
      </trkpt>
      <trkpt lat="42.98062" lon="-0.2448">
        <ele>1398</ele>
        <time>2020-07-19T09:10:42Z</time>
      </trkpt>
      <trkpt lat="42.98063" lon="-0.24478">
        <ele>1398.4000244141</ele>
        <time>2020-07-19T09:10:43Z</time>
      </trkpt>
      <trkpt lat="42.98072" lon="-0.24464">
        <ele>1398.4000244141</ele>
        <time>2020-07-19T09:10:50Z</time>
      </trkpt>
      <trkpt lat="42.98081" lon="-0.24457">
        <ele>1398.8000488281</ele>
        <time>2020-07-19T09:10:56Z</time>
      </trkpt>
      <trkpt lat="42.98083" lon="-0.24456">
        <ele>1399.1999511719</ele>
        <time>2020-07-19T09:10:57Z</time>
      </trkpt>
      <trkpt lat="42.98085" lon="-0.24455">
        <ele>1399.5999755859</ele>
        <time>2020-07-19T09:10:58Z</time>
      </trkpt>
      <trkpt lat="42.98087" lon="-0.24453">
        <ele>1400</ele>
        <time>2020-07-19T09:10:59Z</time>
      </trkpt>
      <trkpt lat="42.98089" lon="-0.24452">
        <ele>1400.5999755859</ele>
        <time>2020-07-19T09:11:00Z</time>
      </trkpt>
      <trkpt lat="42.98096" lon="-0.24448">
        <ele>1400.5999755859</ele>
        <time>2020-07-19T09:11:04Z</time>
      </trkpt>
      <trkpt lat="42.98109" lon="-0.24443">
        <ele>1400.5999755859</ele>
        <time>2020-07-19T09:11:12Z</time>
      </trkpt>
      <trkpt lat="42.9811" lon="-0.24442">
        <ele>1401.4000244141</ele>
        <time>2020-07-19T09:11:13Z</time>
      </trkpt>
      <trkpt lat="42.98112" lon="-0.24442">
        <ele>1401.8000488281</ele>
        <time>2020-07-19T09:11:14Z</time>
      </trkpt>
      <trkpt lat="42.98113" lon="-0.24442">
        <ele>1402.1999511719</ele>
        <time>2020-07-19T09:11:15Z</time>
      </trkpt>
      <trkpt lat="42.98114" lon="-0.24441">
        <ele>1402.5999755859</ele>
        <time>2020-07-19T09:11:16Z</time>
      </trkpt>
      <trkpt lat="42.98118" lon="-0.24439">
        <ele>1402.5999755859</ele>
        <time>2020-07-19T09:11:19Z</time>
      </trkpt>
      <trkpt lat="42.98127" lon="-0.24433">
        <ele>1402.5999755859</ele>
        <time>2020-07-19T09:11:26Z</time>
      </trkpt>
      <trkpt lat="42.98129" lon="-0.24432">
        <ele>1403</ele>
        <time>2020-07-19T09:11:27Z</time>
      </trkpt>
      <trkpt lat="42.98131" lon="-0.24431">
        <ele>1403.4000244141</ele>
        <time>2020-07-19T09:11:28Z</time>
      </trkpt>
      <trkpt lat="42.98132" lon="-0.2443">
        <ele>1403.8000488281</ele>
        <time>2020-07-19T09:11:29Z</time>
      </trkpt>
      <trkpt lat="42.98134" lon="-0.24429">
        <ele>1404.1999511719</ele>
        <time>2020-07-19T09:11:30Z</time>
      </trkpt>
      <trkpt lat="42.98136" lon="-0.24428">
        <ele>1404.5999755859</ele>
        <time>2020-07-19T09:11:31Z</time>
      </trkpt>
      <trkpt lat="42.98145" lon="-0.24412">
        <ele>1404.5999755859</ele>
        <time>2020-07-19T09:11:39Z</time>
      </trkpt>
      <trkpt lat="42.98145" lon="-0.2441">
        <ele>1405</ele>
        <time>2020-07-19T09:11:40Z</time>
      </trkpt>
      <trkpt lat="42.98146" lon="-0.24407">
        <ele>1405.4000244141</ele>
        <time>2020-07-19T09:11:41Z</time>
      </trkpt>
      <trkpt lat="42.98146" lon="-0.24404">
        <ele>1405.8000488281</ele>
        <time>2020-07-19T09:11:42Z</time>
      </trkpt>
      <trkpt lat="42.98147" lon="-0.24401">
        <ele>1406.4000244141</ele>
        <time>2020-07-19T09:11:43Z</time>
      </trkpt>
      <trkpt lat="42.98146" lon="-0.24398">
        <ele>1406.8000488281</ele>
        <time>2020-07-19T09:11:44Z</time>
      </trkpt>
      <trkpt lat="42.98145" lon="-0.24392">
        <ele>1406.8000488281</ele>
        <time>2020-07-19T09:11:46Z</time>
      </trkpt>
      <trkpt lat="42.98147" lon="-0.24371">
        <ele>1406.8000488281</ele>
        <time>2020-07-19T09:11:53Z</time>
      </trkpt>
      <trkpt lat="42.98157" lon="-0.24357">
        <ele>1406.8000488281</ele>
        <time>2020-07-19T09:12:00Z</time>
      </trkpt>
      <trkpt lat="42.98158" lon="-0.24356">
        <ele>1407.1999511719</ele>
        <time>2020-07-19T09:12:01Z</time>
      </trkpt>
      <trkpt lat="42.9816" lon="-0.24353">
        <ele>1407.5999755859</ele>
        <time>2020-07-19T09:12:02Z</time>
      </trkpt>
      <trkpt lat="42.98161" lon="-0.24351">
        <ele>1408.4000244141</ele>
        <time>2020-07-19T09:12:03Z</time>
      </trkpt>
      <trkpt lat="42.98163" lon="-0.24349">
        <ele>1408.8000488281</ele>
        <time>2020-07-19T09:12:04Z</time>
      </trkpt>
      <trkpt lat="42.98168" lon="-0.24342">
        <ele>1408.8000488281</ele>
        <time>2020-07-19T09:12:07Z</time>
      </trkpt>
      <trkpt lat="42.98175" lon="-0.24332">
        <ele>1409.1999511719</ele>
        <time>2020-07-19T09:12:12Z</time>
      </trkpt>
      <trkpt lat="42.98177" lon="-0.24331">
        <ele>1409.5999755859</ele>
        <time>2020-07-19T09:12:13Z</time>
      </trkpt>
      <trkpt lat="42.98178" lon="-0.24329">
        <ele>1410.1999511719</ele>
        <time>2020-07-19T09:12:14Z</time>
      </trkpt>
      <trkpt lat="42.9818" lon="-0.24328">
        <ele>1410.5999755859</ele>
        <time>2020-07-19T09:12:15Z</time>
      </trkpt>
      <trkpt lat="42.98182" lon="-0.24326">
        <ele>1411</ele>
        <time>2020-07-19T09:12:16Z</time>
      </trkpt>
      <trkpt lat="42.98187" lon="-0.24323">
        <ele>1411</ele>
        <time>2020-07-19T09:12:19Z</time>
      </trkpt>
      <trkpt lat="42.98199" lon="-0.24312">
        <ele>1411</ele>
        <time>2020-07-19T09:12:26Z</time>
      </trkpt>
      <trkpt lat="42.98201" lon="-0.2431">
        <ele>1411.4000244141</ele>
        <time>2020-07-19T09:12:27Z</time>
      </trkpt>
      <trkpt lat="42.98203" lon="-0.24309">
        <ele>1411.8000488281</ele>
        <time>2020-07-19T09:12:28Z</time>
      </trkpt>
      <trkpt lat="42.98205" lon="-0.24307">
        <ele>1412.1999511719</ele>
        <time>2020-07-19T09:12:29Z</time>
      </trkpt>
      <trkpt lat="42.98207" lon="-0.24306">
        <ele>1412.5999755859</ele>
        <time>2020-07-19T09:12:30Z</time>
      </trkpt>
      <trkpt lat="42.98209" lon="-0.24304">
        <ele>1413</ele>
        <time>2020-07-19T09:12:31Z</time>
      </trkpt>
      <trkpt lat="42.98211" lon="-0.24301">
        <ele>1413</ele>
        <time>2020-07-19T09:12:32Z</time>
      </trkpt>
      <trkpt lat="42.98223" lon="-0.24283">
        <ele>1413</ele>
        <time>2020-07-19T09:12:40Z</time>
      </trkpt>
      <trkpt lat="42.98227" lon="-0.24272">
        <ele>1413.4000244141</ele>
        <time>2020-07-19T09:12:44Z</time>
      </trkpt>
      <trkpt lat="42.98228" lon="-0.24269">
        <ele>1413.8000488281</ele>
        <time>2020-07-19T09:12:45Z</time>
      </trkpt>
      <trkpt lat="42.9823" lon="-0.24266">
        <ele>1414.1999511719</ele>
        <time>2020-07-19T09:12:46Z</time>
      </trkpt>
      <trkpt lat="42.9823" lon="-0.24264">
        <ele>1414.5999755859</ele>
        <time>2020-07-19T09:12:47Z</time>
      </trkpt>
      <trkpt lat="42.98231" lon="-0.24261">
        <ele>1415</ele>
        <time>2020-07-19T09:12:48Z</time>
      </trkpt>
      <trkpt lat="42.98232" lon="-0.2425">
        <ele>1415</ele>
        <time>2020-07-19T09:12:52Z</time>
      </trkpt>
      <trkpt lat="42.98235" lon="-0.24232">
        <ele>1415.4000244141</ele>
        <time>2020-07-19T09:12:58Z</time>
      </trkpt>
      <trkpt lat="42.98236" lon="-0.24229">
        <ele>1416</ele>
        <time>2020-07-19T09:12:59Z</time>
      </trkpt>
      <trkpt lat="42.98236" lon="-0.24226">
        <ele>1416.4000244141</ele>
        <time>2020-07-19T09:13:00Z</time>
      </trkpt>
      <trkpt lat="42.98237" lon="-0.24223">
        <ele>1416.8000488281</ele>
        <time>2020-07-19T09:13:01Z</time>
      </trkpt>
      <trkpt lat="42.98237" lon="-0.2422">
        <ele>1417.1999511719</ele>
        <time>2020-07-19T09:13:02Z</time>
      </trkpt>
      <trkpt lat="42.98241" lon="-0.24209">
        <ele>1417.1999511719</ele>
        <time>2020-07-19T09:13:06Z</time>
      </trkpt>
      <trkpt lat="42.98247" lon="-0.24193">
        <ele>1417.1999511719</ele>
        <time>2020-07-19T09:13:12Z</time>
      </trkpt>
      <trkpt lat="42.98248" lon="-0.24191">
        <ele>1417.5999755859</ele>
        <time>2020-07-19T09:13:13Z</time>
      </trkpt>
      <trkpt lat="42.98249" lon="-0.24189">
        <ele>1418</ele>
        <time>2020-07-19T09:13:14Z</time>
      </trkpt>
      <trkpt lat="42.98251" lon="-0.24186">
        <ele>1418.4000244141</ele>
        <time>2020-07-19T09:13:15Z</time>
      </trkpt>
      <trkpt lat="42.98251" lon="-0.24184">
        <ele>1418.8000488281</ele>
        <time>2020-07-19T09:13:16Z</time>
      </trkpt>
      <trkpt lat="42.98253" lon="-0.24182">
        <ele>1419.1999511719</ele>
        <time>2020-07-19T09:13:17Z</time>
      </trkpt>
      <trkpt lat="42.98254" lon="-0.24177">
        <ele>1419.1999511719</ele>
        <time>2020-07-19T09:13:19Z</time>
      </trkpt>
      <trkpt lat="42.98258" lon="-0.24169">
        <ele>1419.5999755859</ele>
        <time>2020-07-19T09:13:23Z</time>
      </trkpt>
      <trkpt lat="42.98258" lon="-0.24167">
        <ele>1420</ele>
        <time>2020-07-19T09:13:24Z</time>
      </trkpt>
      <trkpt lat="42.98259" lon="-0.24165">
        <ele>1420.4000244141</ele>
        <time>2020-07-19T09:13:25Z</time>
      </trkpt>
      <trkpt lat="42.9826" lon="-0.24163">
        <ele>1420.8000488281</ele>
        <time>2020-07-19T09:13:26Z</time>
      </trkpt>
      <trkpt lat="42.98261" lon="-0.24161">
        <ele>1421.1999511719</ele>
        <time>2020-07-19T09:13:27Z</time>
      </trkpt>
      <trkpt lat="42.98265" lon="-0.24155">
        <ele>1421.1999511719</ele>
        <time>2020-07-19T09:13:30Z</time>
      </trkpt>
      <trkpt lat="42.9827" lon="-0.24145">
        <ele>1421.5999755859</ele>
        <time>2020-07-19T09:13:36Z</time>
      </trkpt>
      <trkpt lat="42.98271" lon="-0.24143">
        <ele>1422</ele>
        <time>2020-07-19T09:13:37Z</time>
      </trkpt>
      <trkpt lat="42.98271" lon="-0.24142">
        <ele>1422.4000244141</ele>
        <time>2020-07-19T09:13:38Z</time>
      </trkpt>
      <trkpt lat="42.98272" lon="-0.2414">
        <ele>1423</ele>
        <time>2020-07-19T09:13:39Z</time>
      </trkpt>
      <trkpt lat="42.98273" lon="-0.24138">
        <ele>1423.4000244141</ele>
        <time>2020-07-19T09:13:40Z</time>
      </trkpt>
      <trkpt lat="42.98273" lon="-0.24134">
        <ele>1423.4000244141</ele>
        <time>2020-07-19T09:13:43Z</time>
      </trkpt>
      <trkpt lat="42.98274" lon="-0.24132">
        <ele>1423.4000244141</ele>
        <time>2020-07-19T09:13:44Z</time>
      </trkpt>
      <trkpt lat="42.98279" lon="-0.24127">
        <ele>1423.4000244141</ele>
        <time>2020-07-19T09:13:48Z</time>
      </trkpt>
      <trkpt lat="42.9828" lon="-0.2412">
        <ele>1423.8000488281</ele>
        <time>2020-07-19T09:13:52Z</time>
      </trkpt>
      <trkpt lat="42.98279" lon="-0.24119">
        <ele>1424.1999511719</ele>
        <time>2020-07-19T09:13:53Z</time>
      </trkpt>
      <trkpt lat="42.98279" lon="-0.24118">
        <ele>1424.5999755859</ele>
        <time>2020-07-19T09:13:54Z</time>
      </trkpt>
      <trkpt lat="42.98279" lon="-0.24116">
        <ele>1425</ele>
        <time>2020-07-19T09:13:55Z</time>
      </trkpt>
      <trkpt lat="42.98278" lon="-0.24115">
        <ele>1425.4000244141</ele>
        <time>2020-07-19T09:13:56Z</time>
      </trkpt>
      <trkpt lat="42.98278" lon="-0.24115">
        <ele>1425.4000244141</ele>
        <time>2020-07-19T09:13:57Z</time>
      </trkpt>
      <trkpt lat="42.98277" lon="-0.2411">
        <ele>1425.4000244141</ele>
        <time>2020-07-19T09:14:00Z</time>
      </trkpt>
      <trkpt lat="42.98275" lon="-0.24104">
        <ele>1425.4000244141</ele>
        <time>2020-07-19T09:14:05Z</time>
      </trkpt>
      <trkpt lat="42.98275" lon="-0.24103">
        <ele>1425.4000244141</ele>
        <time>2020-07-19T09:14:06Z</time>
      </trkpt>
      <trkpt lat="42.98277" lon="-0.241">
        <ele>1425.4000244141</ele>
        <time>2020-07-19T09:14:11Z</time>
      </trkpt>
      <trkpt lat="42.98278" lon="-0.24103">
        <ele>1425.4000244141</ele>
        <time>2020-07-19T09:14:13Z</time>
      </trkpt>
      <trkpt lat="42.98279" lon="-0.24109">
        <ele>1425.4000244141</ele>
        <time>2020-07-19T09:14:16Z</time>
      </trkpt>
      <trkpt lat="42.98276" lon="-0.24114">
        <ele>1425.4000244141</ele>
        <time>2020-07-19T09:14:19Z</time>
      </trkpt>
      <trkpt lat="42.98274" lon="-0.24117">
        <ele>1425.4000244141</ele>
        <time>2020-07-19T09:14:21Z</time>
      </trkpt>
      <trkpt lat="42.98269" lon="-0.24128">
        <ele>1425.4000244141</ele>
        <time>2020-07-19T09:14:26Z</time>
      </trkpt>
      <trkpt lat="42.98264" lon="-0.24135">
        <ele>1425.4000244141</ele>
        <time>2020-07-19T09:14:29Z</time>
      </trkpt>
      <trkpt lat="42.98259" lon="-0.24144">
        <ele>1425.4000244141</ele>
        <time>2020-07-19T09:14:32Z</time>
      </trkpt>
      <trkpt lat="42.98247" lon="-0.24169">
        <ele>1425.4000244141</ele>
        <time>2020-07-19T09:14:39Z</time>
      </trkpt>
      <trkpt lat="42.98232" lon="-0.24205">
        <ele>1425.4000244141</ele>
        <time>2020-07-19T09:14:47Z</time>
      </trkpt>
      <trkpt lat="42.98218" lon="-0.24254">
        <ele>1425.4000244141</ele>
        <time>2020-07-19T09:14:55Z</time>
      </trkpt>
      <trkpt lat="42.98215" lon="-0.2426">
        <ele>1425.4000244141</ele>
        <time>2020-07-19T09:14:56Z</time>
      </trkpt>
      <trkpt lat="42.98212" lon="-0.24267">
        <ele>1425</ele>
        <time>2020-07-19T09:14:57Z</time>
      </trkpt>
      <trkpt lat="42.98208" lon="-0.24274">
        <ele>1424.4000244141</ele>
        <time>2020-07-19T09:14:58Z</time>
      </trkpt>
      <trkpt lat="42.98204" lon="-0.2428">
        <ele>1424</ele>
        <time>2020-07-19T09:14:59Z</time>
      </trkpt>
      <trkpt lat="42.98199" lon="-0.24286">
        <ele>1423.4000244141</ele>
        <time>2020-07-19T09:15:00Z</time>
      </trkpt>
      <trkpt lat="42.98194" lon="-0.24292">
        <ele>1423</ele>
        <time>2020-07-19T09:15:01Z</time>
      </trkpt>
      <trkpt lat="42.98179" lon="-0.24307">
        <ele>1423</ele>
        <time>2020-07-19T09:15:04Z</time>
      </trkpt>
      <trkpt lat="42.98168" lon="-0.24316">
        <ele>1423</ele>
        <time>2020-07-19T09:15:06Z</time>
      </trkpt>
      <trkpt lat="42.98162" lon="-0.24322">
        <ele>1422.5999755859</ele>
        <time>2020-07-19T09:15:07Z</time>
      </trkpt>
      <trkpt lat="42.98158" lon="-0.24328">
        <ele>1422.1999511719</ele>
        <time>2020-07-19T09:15:08Z</time>
      </trkpt>
      <trkpt lat="42.98153" lon="-0.24334">
        <ele>1421.8000488281</ele>
        <time>2020-07-19T09:15:09Z</time>
      </trkpt>
      <trkpt lat="42.98148" lon="-0.24339">
        <ele>1421.4000244141</ele>
        <time>2020-07-19T09:15:10Z</time>
      </trkpt>
      <trkpt lat="42.98143" lon="-0.24345">
        <ele>1421</ele>
        <time>2020-07-19T09:15:11Z</time>
      </trkpt>
      <trkpt lat="42.98121" lon="-0.24368">
        <ele>1421</ele>
        <time>2020-07-19T09:15:15Z</time>
      </trkpt>
      <trkpt lat="42.98104" lon="-0.24387">
        <ele>1420.5999755859</ele>
        <time>2020-07-19T09:15:18Z</time>
      </trkpt>
      <trkpt lat="42.98098" lon="-0.24393">
        <ele>1420.1999511719</ele>
        <time>2020-07-19T09:15:19Z</time>
      </trkpt>
      <trkpt lat="42.98092" lon="-0.24398">
        <ele>1419.8000488281</ele>
        <time>2020-07-19T09:15:20Z</time>
      </trkpt>
      <trkpt lat="42.98086" lon="-0.24402">
        <ele>1419</ele>
        <time>2020-07-19T09:15:21Z</time>
      </trkpt>
      <trkpt lat="42.98057" lon="-0.24422">
        <ele>1418.4000244141</ele>
        <time>2020-07-19T09:15:26Z</time>
      </trkpt>
      <trkpt lat="42.98052" lon="-0.24427">
        <ele>1418</ele>
        <time>2020-07-19T09:15:27Z</time>
      </trkpt>
      <trkpt lat="42.98047" lon="-0.24433">
        <ele>1417.5999755859</ele>
        <time>2020-07-19T09:15:28Z</time>
      </trkpt>
      <trkpt lat="42.98042" lon="-0.24439">
        <ele>1417.1999511719</ele>
        <time>2020-07-19T09:15:29Z</time>
      </trkpt>
      <trkpt lat="42.98038" lon="-0.24446">
        <ele>1416.8000488281</ele>
        <time>2020-07-19T09:15:30Z</time>
      </trkpt>
      <trkpt lat="42.98029" lon="-0.24459">
        <ele>1416.8000488281</ele>
        <time>2020-07-19T09:15:32Z</time>
      </trkpt>
      <trkpt lat="42.98024" lon="-0.24476">
        <ele>1416.8000488281</ele>
        <time>2020-07-19T09:15:34Z</time>
      </trkpt>
      <trkpt lat="42.98023" lon="-0.24514">
        <ele>1416.8000488281</ele>
        <time>2020-07-19T09:15:38Z</time>
      </trkpt>
      <trkpt lat="42.98024" lon="-0.24525">
        <ele>1416.4000244141</ele>
        <time>2020-07-19T09:15:39Z</time>
      </trkpt>
      <trkpt lat="42.98024" lon="-0.24535">
        <ele>1416</ele>
        <time>2020-07-19T09:15:40Z</time>
      </trkpt>
      <trkpt lat="42.98024" lon="-0.24546">
        <ele>1415.5999755859</ele>
        <time>2020-07-19T09:15:41Z</time>
      </trkpt>
      <trkpt lat="42.98023" lon="-0.24557">
        <ele>1415.1999511719</ele>
        <time>2020-07-19T09:15:42Z</time>
      </trkpt>
      <trkpt lat="42.98022" lon="-0.24568">
        <ele>1414.8000488281</ele>
        <time>2020-07-19T09:15:43Z</time>
      </trkpt>
      <trkpt lat="42.98018" lon="-0.24608">
        <ele>1414.8000488281</ele>
        <time>2020-07-19T09:15:47Z</time>
      </trkpt>
      <trkpt lat="42.98011" lon="-0.24647">
        <ele>1414.8000488281</ele>
        <time>2020-07-19T09:15:51Z</time>
      </trkpt>
      <trkpt lat="42.98008" lon="-0.24655">
        <ele>1414.4000244141</ele>
        <time>2020-07-19T09:15:52Z</time>
      </trkpt>
      <trkpt lat="42.98003" lon="-0.24663">
        <ele>1414</ele>
        <time>2020-07-19T09:15:53Z</time>
      </trkpt>
      <trkpt lat="42.97999" lon="-0.24669">
        <ele>1413.5999755859</ele>
        <time>2020-07-19T09:15:54Z</time>
      </trkpt>
      <trkpt lat="42.97993" lon="-0.24672">
        <ele>1413.1999511719</ele>
        <time>2020-07-19T09:15:55Z</time>
      </trkpt>
      <trkpt lat="42.97988" lon="-0.24675">
        <ele>1412.8000488281</ele>
        <time>2020-07-19T09:15:56Z</time>
      </trkpt>
      <trkpt lat="42.97983" lon="-0.24679">
        <ele>1412.8000488281</ele>
        <time>2020-07-19T09:15:57Z</time>
      </trkpt>
      <trkpt lat="42.9797" lon="-0.2469">
        <ele>1412.8000488281</ele>
        <time>2020-07-19T09:16:00Z</time>
      </trkpt>
      <trkpt lat="42.97945" lon="-0.24702">
        <ele>1412.8000488281</ele>
        <time>2020-07-19T09:16:05Z</time>
      </trkpt>
      <trkpt lat="42.9794" lon="-0.24703">
        <ele>1412.8000488281</ele>
        <time>2020-07-19T09:16:06Z</time>
      </trkpt>
      <trkpt lat="42.9793" lon="-0.24705">
        <ele>1412.4000244141</ele>
        <time>2020-07-19T09:16:08Z</time>
      </trkpt>
      <trkpt lat="42.97926" lon="-0.24706">
        <ele>1412</ele>
        <time>2020-07-19T09:16:09Z</time>
      </trkpt>
      <trkpt lat="42.97921" lon="-0.24708">
        <ele>1411.5999755859</ele>
        <time>2020-07-19T09:16:10Z</time>
      </trkpt>
      <trkpt lat="42.97916" lon="-0.2471">
        <ele>1410.8000488281</ele>
        <time>2020-07-19T09:16:11Z</time>
      </trkpt>
      <trkpt lat="42.979" lon="-0.24717">
        <ele>1410.8000488281</ele>
        <time>2020-07-19T09:16:14Z</time>
      </trkpt>
      <trkpt lat="42.97896" lon="-0.24721">
        <ele>1410.8000488281</ele>
        <time>2020-07-19T09:16:15Z</time>
      </trkpt>
      <trkpt lat="42.97867" lon="-0.24749">
        <ele>1410.8000488281</ele>
        <time>2020-07-19T09:16:21Z</time>
      </trkpt>
      <trkpt lat="42.97834" lon="-0.24773">
        <ele>1410.8000488281</ele>
        <time>2020-07-19T09:16:27Z</time>
      </trkpt>
      <trkpt lat="42.97817" lon="-0.24776">
        <ele>1410.4000244141</ele>
        <time>2020-07-19T09:16:30Z</time>
      </trkpt>
      <trkpt lat="42.97811" lon="-0.24775">
        <ele>1410</ele>
        <time>2020-07-19T09:16:31Z</time>
      </trkpt>
      <trkpt lat="42.97805" lon="-0.24773">
        <ele>1409.5999755859</ele>
        <time>2020-07-19T09:16:32Z</time>
      </trkpt>
      <trkpt lat="42.97798" lon="-0.24771">
        <ele>1409.1999511719</ele>
        <time>2020-07-19T09:16:33Z</time>
      </trkpt>
      <trkpt lat="42.97792" lon="-0.24768">
        <ele>1408.8000488281</ele>
        <time>2020-07-19T09:16:34Z</time>
      </trkpt>
      <trkpt lat="42.97779" lon="-0.24763">
        <ele>1408.8000488281</ele>
        <time>2020-07-19T09:16:36Z</time>
      </trkpt>
      <trkpt lat="42.97767" lon="-0.24757">
        <ele>1408.1999511719</ele>
        <time>2020-07-19T09:16:38Z</time>
      </trkpt>
      <trkpt lat="42.97761" lon="-0.24752">
        <ele>1407.8000488281</ele>
        <time>2020-07-19T09:16:39Z</time>
      </trkpt>
      <trkpt lat="42.97756" lon="-0.24746">
        <ele>1407.4000244141</ele>
        <time>2020-07-19T09:16:40Z</time>
      </trkpt>
      <trkpt lat="42.97752" lon="-0.24739">
        <ele>1407</ele>
        <time>2020-07-19T09:16:41Z</time>
      </trkpt>
      <trkpt lat="42.9775" lon="-0.24731">
        <ele>1406.4000244141</ele>
        <time>2020-07-19T09:16:42Z</time>
      </trkpt>
      <trkpt lat="42.97747" lon="-0.24723">
        <ele>1406.4000244141</ele>
        <time>2020-07-19T09:16:43Z</time>
      </trkpt>
      <trkpt lat="42.97743" lon="-0.24717">
        <ele>1406.4000244141</ele>
        <time>2020-07-19T09:16:44Z</time>
      </trkpt>
      <trkpt lat="42.97732" lon="-0.24706">
        <ele>1406.4000244141</ele>
        <time>2020-07-19T09:16:46Z</time>
      </trkpt>
      <trkpt lat="42.97714" lon="-0.24699">
        <ele>1406.4000244141</ele>
        <time>2020-07-19T09:16:49Z</time>
      </trkpt>
      <trkpt lat="42.97701" lon="-0.24694">
        <ele>1406</ele>
        <time>2020-07-19T09:16:51Z</time>
      </trkpt>
      <trkpt lat="42.97694" lon="-0.24692">
        <ele>1405.5999755859</ele>
        <time>2020-07-19T09:16:52Z</time>
      </trkpt>
      <trkpt lat="42.97687" lon="-0.24689">
        <ele>1405</ele>
        <time>2020-07-19T09:16:53Z</time>
      </trkpt>
      <trkpt lat="42.9768" lon="-0.24688">
        <ele>1404.5999755859</ele>
        <time>2020-07-19T09:16:54Z</time>
      </trkpt>
      <trkpt lat="42.97673" lon="-0.24688">
        <ele>1404.1999511719</ele>
        <time>2020-07-19T09:16:55Z</time>
      </trkpt>
      <trkpt lat="42.97653" lon="-0.24687">
        <ele>1404.1999511719</ele>
        <time>2020-07-19T09:16:58Z</time>
      </trkpt>
      <trkpt lat="42.97639" lon="-0.2469">
        <ele>1404.1999511719</ele>
        <time>2020-07-19T09:17:00Z</time>
      </trkpt>
      <trkpt lat="42.97627" lon="-0.247">
        <ele>1404.1999511719</ele>
        <time>2020-07-19T09:17:02Z</time>
      </trkpt>
      <trkpt lat="42.97622" lon="-0.24706">
        <ele>1403.5999755859</ele>
        <time>2020-07-19T09:17:03Z</time>
      </trkpt>
      <trkpt lat="42.97617" lon="-0.24712">
        <ele>1403.1999511719</ele>
        <time>2020-07-19T09:17:04Z</time>
      </trkpt>
      <trkpt lat="42.97613" lon="-0.24718">
        <ele>1402.8000488281</ele>
        <time>2020-07-19T09:17:05Z</time>
      </trkpt>
      <trkpt lat="42.97608" lon="-0.24723">
        <ele>1402.4000244141</ele>
        <time>2020-07-19T09:17:06Z</time>
      </trkpt>
      <trkpt lat="42.97603" lon="-0.24727">
        <ele>1402</ele>
        <time>2020-07-19T09:17:07Z</time>
      </trkpt>
      <trkpt lat="42.97584" lon="-0.24737">
        <ele>1402</ele>
        <time>2020-07-19T09:17:11Z</time>
      </trkpt>
      <trkpt lat="42.9758" lon="-0.24739">
        <ele>1402</ele>
        <time>2020-07-19T09:17:12Z</time>
      </trkpt>
      <trkpt lat="42.97562" lon="-0.24751">
        <ele>1402</ele>
        <time>2020-07-19T09:17:17Z</time>
      </trkpt>
      <trkpt lat="42.97545" lon="-0.24759">
        <ele>1402</ele>
        <time>2020-07-19T09:17:21Z</time>
      </trkpt>
      <trkpt lat="42.97541" lon="-0.24759">
        <ele>1402</ele>
        <time>2020-07-19T09:17:22Z</time>
      </trkpt>
      <trkpt lat="42.9753" lon="-0.24751">
        <ele>1402</ele>
        <time>2020-07-19T09:17:26Z</time>
      </trkpt>
      <trkpt lat="42.97521" lon="-0.24733">
        <ele>1402</ele>
        <time>2020-07-19T09:17:31Z</time>
      </trkpt>
      <trkpt lat="42.97512" lon="-0.24727">
        <ele>1402</ele>
        <time>2020-07-19T09:17:36Z</time>
      </trkpt>
      <trkpt lat="42.97502" lon="-0.24725">
        <ele>1402</ele>
        <time>2020-07-19T09:17:41Z</time>
      </trkpt>
      <trkpt lat="42.97495" lon="-0.24728">
        <ele>1402</ele>
        <time>2020-07-19T09:17:46Z</time>
      </trkpt>
      <trkpt lat="42.97495" lon="-0.24729">
        <ele>1402</ele>
        <time>2020-07-19T09:17:51Z</time>
      </trkpt>
      <trkpt lat="42.97491" lon="-0.2473">
        <ele>1402</ele>
        <time>2020-07-19T09:17:56Z</time>
      </trkpt>
      <trkpt lat="42.97481" lon="-0.24733">
        <ele>1402</ele>
        <time>2020-07-19T09:18:02Z</time>
      </trkpt>
      <trkpt lat="42.97467" lon="-0.24732">
        <ele>1402</ele>
        <time>2020-07-19T09:18:08Z</time>
      </trkpt>
      <trkpt lat="42.9746" lon="-0.24731">
        <ele>1402.4000244141</ele>
        <time>2020-07-19T09:18:11Z</time>
      </trkpt>
      <trkpt lat="42.97458" lon="-0.24732">
        <ele>1402.8000488281</ele>
        <time>2020-07-19T09:18:12Z</time>
      </trkpt>
      <trkpt lat="42.97456" lon="-0.24732">
        <ele>1403.1999511719</ele>
        <time>2020-07-19T09:18:13Z</time>
      </trkpt>
      <trkpt lat="42.97454" lon="-0.24733">
        <ele>1403.5999755859</ele>
        <time>2020-07-19T09:18:14Z</time>
      </trkpt>
      <trkpt lat="42.97451" lon="-0.24733">
        <ele>1404</ele>
        <time>2020-07-19T09:18:15Z</time>
      </trkpt>
      <trkpt lat="42.97436" lon="-0.24737">
        <ele>1404</ele>
        <time>2020-07-19T09:18:22Z</time>
      </trkpt>
      <trkpt lat="42.97431" lon="-0.2474">
        <ele>1404.5999755859</ele>
        <time>2020-07-19T09:18:25Z</time>
      </trkpt>
      <trkpt lat="42.97429" lon="-0.24741">
        <ele>1405</ele>
        <time>2020-07-19T09:18:26Z</time>
      </trkpt>
      <trkpt lat="42.97427" lon="-0.24743">
        <ele>1405.4000244141</ele>
        <time>2020-07-19T09:18:27Z</time>
      </trkpt>
      <trkpt lat="42.97426" lon="-0.24744">
        <ele>1405.8000488281</ele>
        <time>2020-07-19T09:18:28Z</time>
      </trkpt>
      <trkpt lat="42.97424" lon="-0.24745">
        <ele>1406.1999511719</ele>
        <time>2020-07-19T09:18:29Z</time>
      </trkpt>
      <trkpt lat="42.97418" lon="-0.24749">
        <ele>1406.1999511719</ele>
        <time>2020-07-19T09:18:33Z</time>
      </trkpt>
      <trkpt lat="42.97415" lon="-0.24752">
        <ele>1406.5999755859</ele>
        <time>2020-07-19T09:18:35Z</time>
      </trkpt>
      <trkpt lat="42.97413" lon="-0.24754">
        <ele>1407</ele>
        <time>2020-07-19T09:18:36Z</time>
      </trkpt>
      <trkpt lat="42.97411" lon="-0.24755">
        <ele>1407.4000244141</ele>
        <time>2020-07-19T09:18:37Z</time>
      </trkpt>
      <trkpt lat="42.9741" lon="-0.24756">
        <ele>1407.8000488281</ele>
        <time>2020-07-19T09:18:38Z</time>
      </trkpt>
      <trkpt lat="42.97408" lon="-0.24757">
        <ele>1408.4000244141</ele>
        <time>2020-07-19T09:18:39Z</time>
      </trkpt>
      <trkpt lat="42.97401" lon="-0.2476">
        <ele>1408.8000488281</ele>
        <time>2020-07-19T09:18:43Z</time>
      </trkpt>
      <trkpt lat="42.97399" lon="-0.2476">
        <ele>1409.1999511719</ele>
        <time>2020-07-19T09:18:44Z</time>
      </trkpt>
      <trkpt lat="42.97397" lon="-0.2476">
        <ele>1409.5999755859</ele>
        <time>2020-07-19T09:18:45Z</time>
      </trkpt>
      <trkpt lat="42.97395" lon="-0.24761">
        <ele>1410</ele>
        <time>2020-07-19T09:18:46Z</time>
      </trkpt>
      <trkpt lat="42.97393" lon="-0.24761">
        <ele>1410.4000244141</ele>
        <time>2020-07-19T09:18:47Z</time>
      </trkpt>
      <trkpt lat="42.97387" lon="-0.2476">
        <ele>1410.4000244141</ele>
        <time>2020-07-19T09:18:50Z</time>
      </trkpt>
      <trkpt lat="42.97377" lon="-0.24758">
        <ele>1410.8000488281</ele>
        <time>2020-07-19T09:18:55Z</time>
      </trkpt>
      <trkpt lat="42.97375" lon="-0.24757">
        <ele>1411.1999511719</ele>
        <time>2020-07-19T09:18:56Z</time>
      </trkpt>
      <trkpt lat="42.97373" lon="-0.24757">
        <ele>1411.5999755859</ele>
        <time>2020-07-19T09:18:57Z</time>
      </trkpt>
      <trkpt lat="42.97371" lon="-0.24756">
        <ele>1412</ele>
        <time>2020-07-19T09:18:58Z</time>
      </trkpt>
      <trkpt lat="42.97369" lon="-0.24756">
        <ele>1412.4000244141</ele>
        <time>2020-07-19T09:18:59Z</time>
      </trkpt>
      <trkpt lat="42.97361" lon="-0.24755">
        <ele>1412.4000244141</ele>
        <time>2020-07-19T09:19:03Z</time>
      </trkpt>
      <trkpt lat="42.97354" lon="-0.24756">
        <ele>1412.8000488281</ele>
        <time>2020-07-19T09:19:07Z</time>
      </trkpt>
      <trkpt lat="42.97352" lon="-0.24756">
        <ele>1413.1999511719</ele>
        <time>2020-07-19T09:19:08Z</time>
      </trkpt>
      <trkpt lat="42.97351" lon="-0.24756">
        <ele>1413.8000488281</ele>
        <time>2020-07-19T09:19:09Z</time>
      </trkpt>
      <trkpt lat="42.97349" lon="-0.24757">
        <ele>1414.1999511719</ele>
        <time>2020-07-19T09:19:10Z</time>
      </trkpt>
      <trkpt lat="42.97347" lon="-0.24758">
        <ele>1414.5999755859</ele>
        <time>2020-07-19T09:19:11Z</time>
      </trkpt>
      <trkpt lat="42.97341" lon="-0.24759">
        <ele>1414.5999755859</ele>
        <time>2020-07-19T09:19:15Z</time>
      </trkpt>
      <trkpt lat="42.97339" lon="-0.2476">
        <ele>1415</ele>
        <time>2020-07-19T09:19:16Z</time>
      </trkpt>
      <trkpt lat="42.97337" lon="-0.2476">
        <ele>1415.4000244141</ele>
        <time>2020-07-19T09:19:17Z</time>
      </trkpt>
      <trkpt lat="42.97335" lon="-0.24761">
        <ele>1415.8000488281</ele>
        <time>2020-07-19T09:19:18Z</time>
      </trkpt>
      <trkpt lat="42.97332" lon="-0.24761">
        <ele>1416.4000244141</ele>
        <time>2020-07-19T09:19:19Z</time>
      </trkpt>
      <trkpt lat="42.97331" lon="-0.24762">
        <ele>1416.8000488281</ele>
        <time>2020-07-19T09:19:20Z</time>
      </trkpt>
      <trkpt lat="42.97325" lon="-0.24764">
        <ele>1416.8000488281</ele>
        <time>2020-07-19T09:19:23Z</time>
      </trkpt>
      <trkpt lat="42.97312" lon="-0.2477">
        <ele>1416.8000488281</ele>
        <time>2020-07-19T09:19:29Z</time>
      </trkpt>
      <trkpt lat="42.97305" lon="-0.24772">
        <ele>1417.1999511719</ele>
        <time>2020-07-19T09:19:32Z</time>
      </trkpt>
      <trkpt lat="42.97303" lon="-0.24774">
        <ele>1417.5999755859</ele>
        <time>2020-07-19T09:19:33Z</time>
      </trkpt>
      <trkpt lat="42.97301" lon="-0.24775">
        <ele>1418</ele>
        <time>2020-07-19T09:19:34Z</time>
      </trkpt>
      <trkpt lat="42.97299" lon="-0.24776">
        <ele>1418.4000244141</ele>
        <time>2020-07-19T09:19:35Z</time>
      </trkpt>
      <trkpt lat="42.97297" lon="-0.24778">
        <ele>1418.8000488281</ele>
        <time>2020-07-19T09:19:36Z</time>
      </trkpt>
      <trkpt lat="42.97284" lon="-0.24793">
        <ele>1418.8000488281</ele>
        <time>2020-07-19T09:19:44Z</time>
      </trkpt>
      <trkpt lat="42.9728" lon="-0.24801">
        <ele>1419.1999511719</ele>
        <time>2020-07-19T09:19:47Z</time>
      </trkpt>
      <trkpt lat="42.97279" lon="-0.24804">
        <ele>1419.5999755859</ele>
        <time>2020-07-19T09:19:48Z</time>
      </trkpt>
      <trkpt lat="42.97278" lon="-0.24806">
        <ele>1420</ele>
        <time>2020-07-19T09:19:49Z</time>
      </trkpt>
      <trkpt lat="42.97276" lon="-0.24809">
        <ele>1420.4000244141</ele>
        <time>2020-07-19T09:19:50Z</time>
      </trkpt>
      <trkpt lat="42.97275" lon="-0.24812">
        <ele>1420.8000488281</ele>
        <time>2020-07-19T09:19:51Z</time>
      </trkpt>
      <trkpt lat="42.97266" lon="-0.24827">
        <ele>1420.8000488281</ele>
        <time>2020-07-19T09:19:57Z</time>
      </trkpt>
      <trkpt lat="42.97254" lon="-0.24851">
        <ele>1420.8000488281</ele>
        <time>2020-07-19T09:20:04Z</time>
      </trkpt>
      <trkpt lat="42.97251" lon="-0.24857">
        <ele>1421.1999511719</ele>
        <time>2020-07-19T09:20:06Z</time>
      </trkpt>
      <trkpt lat="42.9725" lon="-0.2486">
        <ele>1421.5999755859</ele>
        <time>2020-07-19T09:20:07Z</time>
      </trkpt>
      <trkpt lat="42.97248" lon="-0.24862">
        <ele>1422</ele>
        <time>2020-07-19T09:20:08Z</time>
      </trkpt>
      <trkpt lat="42.97247" lon="-0.24864">
        <ele>1422.4000244141</ele>
        <time>2020-07-19T09:20:09Z</time>
      </trkpt>
      <trkpt lat="42.97245" lon="-0.24867">
        <ele>1422.8000488281</ele>
        <time>2020-07-19T09:20:10Z</time>
      </trkpt>
      <trkpt lat="42.97244" lon="-0.24869">
        <ele>1422.8000488281</ele>
        <time>2020-07-19T09:20:11Z</time>
      </trkpt>
      <trkpt lat="42.9724" lon="-0.24874">
        <ele>1422.8000488281</ele>
        <time>2020-07-19T09:20:13Z</time>
      </trkpt>
      <trkpt lat="42.97233" lon="-0.24884">
        <ele>1422.8000488281</ele>
        <time>2020-07-19T09:20:17Z</time>
      </trkpt>
      <trkpt lat="42.9723" lon="-0.24888">
        <ele>1423.4000244141</ele>
        <time>2020-07-19T09:20:18Z</time>
      </trkpt>
      <trkpt lat="42.97227" lon="-0.24891">
        <ele>1424.1999511719</ele>
        <time>2020-07-19T09:20:19Z</time>
      </trkpt>
      <trkpt lat="42.97224" lon="-0.24895">
        <ele>1424.5999755859</ele>
        <time>2020-07-19T09:20:20Z</time>
      </trkpt>
      <trkpt lat="42.9722" lon="-0.24899">
        <ele>1425</ele>
        <time>2020-07-19T09:20:21Z</time>
      </trkpt>
      <trkpt lat="42.97216" lon="-0.24903">
        <ele>1425</ele>
        <time>2020-07-19T09:20:22Z</time>
      </trkpt>
      <trkpt lat="42.97207" lon="-0.24913">
        <ele>1425</ele>
        <time>2020-07-19T09:20:24Z</time>
      </trkpt>
      <trkpt lat="42.97202" lon="-0.24928">
        <ele>1424.5999755859</ele>
        <time>2020-07-19T09:20:26Z</time>
      </trkpt>
      <trkpt lat="42.972" lon="-0.24935">
        <ele>1424.1999511719</ele>
        <time>2020-07-19T09:20:27Z</time>
      </trkpt>
      <trkpt lat="42.97199" lon="-0.24941">
        <ele>1423.5999755859</ele>
        <time>2020-07-19T09:20:28Z</time>
      </trkpt>
      <trkpt lat="42.97198" lon="-0.24947">
        <ele>1423.1999511719</ele>
        <time>2020-07-19T09:20:29Z</time>
      </trkpt>
      <trkpt lat="42.97197" lon="-0.24952">
        <ele>1422.8000488281</ele>
        <time>2020-07-19T09:20:30Z</time>
      </trkpt>
      <trkpt lat="42.97186" lon="-0.24995">
        <ele>1422.8000488281</ele>
        <time>2020-07-19T09:20:38Z</time>
      </trkpt>
      <trkpt lat="42.97185" lon="-0.25001">
        <ele>1422.8000488281</ele>
        <time>2020-07-19T09:20:39Z</time>
      </trkpt>
      <trkpt lat="42.97185" lon="-0.25007">
        <ele>1423.1999511719</ele>
        <time>2020-07-19T09:20:40Z</time>
      </trkpt>
      <trkpt lat="42.97185" lon="-0.25014">
        <ele>1423.5999755859</ele>
        <time>2020-07-19T09:20:41Z</time>
      </trkpt>
      <trkpt lat="42.97184" lon="-0.25021">
        <ele>1424</ele>
        <time>2020-07-19T09:20:42Z</time>
      </trkpt>
      <trkpt lat="42.97184" lon="-0.25027">
        <ele>1425</ele>
        <time>2020-07-19T09:20:43Z</time>
      </trkpt>
      <trkpt lat="42.97183" lon="-0.25034">
        <ele>1425</ele>
        <time>2020-07-19T09:20:44Z</time>
      </trkpt>
      <trkpt lat="42.97181" lon="-0.25061">
        <ele>1425</ele>
        <time>2020-07-19T09:20:48Z</time>
      </trkpt>
      <trkpt lat="42.97181" lon="-0.25067">
        <ele>1425</ele>
        <time>2020-07-19T09:20:49Z</time>
      </trkpt>
      <trkpt lat="42.9718" lon="-0.25073">
        <ele>1425</ele>
        <time>2020-07-19T09:20:50Z</time>
      </trkpt>
      <trkpt lat="42.97177" lon="-0.25094">
        <ele>1425</ele>
        <time>2020-07-19T09:20:54Z</time>
      </trkpt>
      <trkpt lat="42.97171" lon="-0.25131">
        <ele>1425</ele>
        <time>2020-07-19T09:21:02Z</time>
      </trkpt>
      <trkpt lat="42.97172" lon="-0.25137">
        <ele>1425</ele>
        <time>2020-07-19T09:21:03Z</time>
      </trkpt>
      <trkpt lat="42.97177" lon="-0.25159">
        <ele>1425</ele>
        <time>2020-07-19T09:21:07Z</time>
      </trkpt>
      <trkpt lat="42.9718" lon="-0.25171">
        <ele>1425</ele>
        <time>2020-07-19T09:21:09Z</time>
      </trkpt>
      <trkpt lat="42.97185" lon="-0.25194">
        <ele>1425</ele>
        <time>2020-07-19T09:21:12Z</time>
      </trkpt>
      <trkpt lat="42.97198" lon="-0.25239">
        <ele>1425</ele>
        <time>2020-07-19T09:21:18Z</time>
      </trkpt>
      <trkpt lat="42.97203" lon="-0.25256">
        <ele>1424.4000244141</ele>
        <time>2020-07-19T09:21:20Z</time>
      </trkpt>
      <trkpt lat="42.97205" lon="-0.25265">
        <ele>1424</ele>
        <time>2020-07-19T09:21:21Z</time>
      </trkpt>
      <trkpt lat="42.97207" lon="-0.25274">
        <ele>1423.5999755859</ele>
        <time>2020-07-19T09:21:22Z</time>
      </trkpt>
      <trkpt lat="42.97208" lon="-0.25284">
        <ele>1423.1999511719</ele>
        <time>2020-07-19T09:21:23Z</time>
      </trkpt>
      <trkpt lat="42.97208" lon="-0.25293">
        <ele>1422.8000488281</ele>
        <time>2020-07-19T09:21:24Z</time>
      </trkpt>
      <trkpt lat="42.97208" lon="-0.25311">
        <ele>1422.8000488281</ele>
        <time>2020-07-19T09:21:26Z</time>
      </trkpt>
      <trkpt lat="42.97208" lon="-0.25319">
        <ele>1422.4000244141</ele>
        <time>2020-07-19T09:21:27Z</time>
      </trkpt>
      <trkpt lat="42.97207" lon="-0.25327">
        <ele>1422</ele>
        <time>2020-07-19T09:21:28Z</time>
      </trkpt>
      <trkpt lat="42.97206" lon="-0.25336">
        <ele>1421.5999755859</ele>
        <time>2020-07-19T09:21:29Z</time>
      </trkpt>
      <trkpt lat="42.97206" lon="-0.25345">
        <ele>1421.1999511719</ele>
        <time>2020-07-19T09:21:30Z</time>
      </trkpt>
      <trkpt lat="42.97205" lon="-0.25354">
        <ele>1420.8000488281</ele>
        <time>2020-07-19T09:21:31Z</time>
      </trkpt>
      <trkpt lat="42.97202" lon="-0.25384">
        <ele>1420.8000488281</ele>
        <time>2020-07-19T09:21:34Z</time>
      </trkpt>
      <trkpt lat="42.97198" lon="-0.25406">
        <ele>1420.4000244141</ele>
        <time>2020-07-19T09:21:36Z</time>
      </trkpt>
      <trkpt lat="42.97195" lon="-0.25417">
        <ele>1419.8000488281</ele>
        <time>2020-07-19T09:21:37Z</time>
      </trkpt>
      <trkpt lat="42.97191" lon="-0.25427">
        <ele>1419.4000244141</ele>
        <time>2020-07-19T09:21:38Z</time>
      </trkpt>
      <trkpt lat="42.97188" lon="-0.25438">
        <ele>1419</ele>
        <time>2020-07-19T09:21:39Z</time>
      </trkpt>
      <trkpt lat="42.97184" lon="-0.25448">
        <ele>1418.4000244141</ele>
        <time>2020-07-19T09:21:40Z</time>
      </trkpt>
      <trkpt lat="42.97179" lon="-0.25458">
        <ele>1418</ele>
        <time>2020-07-19T09:21:41Z</time>
      </trkpt>
      <trkpt lat="42.97175" lon="-0.25469">
        <ele>1417.4000244141</ele>
        <time>2020-07-19T09:21:42Z</time>
      </trkpt>
      <trkpt lat="42.97171" lon="-0.2548">
        <ele>1416.8000488281</ele>
        <time>2020-07-19T09:21:43Z</time>
      </trkpt>
      <trkpt lat="42.97167" lon="-0.25491">
        <ele>1416.1999511719</ele>
        <time>2020-07-19T09:21:44Z</time>
      </trkpt>
      <trkpt lat="42.97159" lon="-0.25513">
        <ele>1415.8000488281</ele>
        <time>2020-07-19T09:21:46Z</time>
      </trkpt>
      <trkpt lat="42.97156" lon="-0.25524">
        <ele>1415.4000244141</ele>
        <time>2020-07-19T09:21:47Z</time>
      </trkpt>
      <trkpt lat="42.97152" lon="-0.25533">
        <ele>1415</ele>
        <time>2020-07-19T09:21:48Z</time>
      </trkpt>
      <trkpt lat="42.97148" lon="-0.25543">
        <ele>1414.4000244141</ele>
        <time>2020-07-19T09:21:49Z</time>
      </trkpt>
      <trkpt lat="42.97145" lon="-0.25552">
        <ele>1414</ele>
        <time>2020-07-19T09:21:50Z</time>
      </trkpt>
      <trkpt lat="42.97137" lon="-0.2557">
        <ele>1414</ele>
        <time>2020-07-19T09:21:52Z</time>
      </trkpt>
      <trkpt lat="42.97131" lon="-0.25576">
        <ele>1414</ele>
        <time>2020-07-19T09:21:53Z</time>
      </trkpt>
      <trkpt lat="42.97125" lon="-0.25578">
        <ele>1413.5999755859</ele>
        <time>2020-07-19T09:21:54Z</time>
      </trkpt>
      <trkpt lat="42.9712" lon="-0.25582">
        <ele>1413.1999511719</ele>
        <time>2020-07-19T09:21:55Z</time>
      </trkpt>
      <trkpt lat="42.97116" lon="-0.25588">
        <ele>1412.8000488281</ele>
        <time>2020-07-19T09:21:56Z</time>
      </trkpt>
      <trkpt lat="42.97117" lon="-0.25595">
        <ele>1411.8000488281</ele>
        <time>2020-07-19T09:21:57Z</time>
      </trkpt>
      <trkpt lat="42.9712" lon="-0.256">
        <ele>1411.8000488281</ele>
        <time>2020-07-19T09:21:58Z</time>
      </trkpt>
      <trkpt lat="42.97133" lon="-0.25622">
        <ele>1411.8000488281</ele>
        <time>2020-07-19T09:22:02Z</time>
      </trkpt>
      <trkpt lat="42.97137" lon="-0.25652">
        <ele>1411.8000488281</ele>
        <time>2020-07-19T09:22:06Z</time>
      </trkpt>
      <trkpt lat="42.97137" lon="-0.25667">
        <ele>1411.8000488281</ele>
        <time>2020-07-19T09:22:08Z</time>
      </trkpt>
      <trkpt lat="42.97135" lon="-0.25687">
        <ele>1411.8000488281</ele>
        <time>2020-07-19T09:22:11Z</time>
      </trkpt>
      <trkpt lat="42.97134" lon="-0.25692">
        <ele>1411.8000488281</ele>
        <time>2020-07-19T09:22:12Z</time>
      </trkpt>
      <trkpt lat="42.9713" lon="-0.25707">
        <ele>1411.8000488281</ele>
        <time>2020-07-19T09:22:15Z</time>
      </trkpt>
      <trkpt lat="42.9713" lon="-0.25712">
        <ele>1412.1999511719</ele>
        <time>2020-07-19T09:22:16Z</time>
      </trkpt>
      <trkpt lat="42.97129" lon="-0.25716">
        <ele>1412.5999755859</ele>
        <time>2020-07-19T09:22:17Z</time>
      </trkpt>
      <trkpt lat="42.97127" lon="-0.2572">
        <ele>1413.1999511719</ele>
        <time>2020-07-19T09:22:18Z</time>
      </trkpt>
      <trkpt lat="42.97126" lon="-0.25724">
        <ele>1413.5999755859</ele>
        <time>2020-07-19T09:22:19Z</time>
      </trkpt>
      <trkpt lat="42.97124" lon="-0.25727">
        <ele>1414</ele>
        <time>2020-07-19T09:22:20Z</time>
      </trkpt>
      <trkpt lat="42.97123" lon="-0.25731">
        <ele>1414</ele>
        <time>2020-07-19T09:22:21Z</time>
      </trkpt>
      <trkpt lat="42.97122" lon="-0.25735">
        <ele>1414.8000488281</ele>
        <time>2020-07-19T09:22:22Z</time>
      </trkpt>
      <trkpt lat="42.97121" lon="-0.25739">
        <ele>1415.1999511719</ele>
        <time>2020-07-19T09:22:23Z</time>
      </trkpt>
      <trkpt lat="42.97119" lon="-0.25743">
        <ele>1415.8000488281</ele>
        <time>2020-07-19T09:22:24Z</time>
      </trkpt>
      <trkpt lat="42.97117" lon="-0.25748">
        <ele>1416.1999511719</ele>
        <time>2020-07-19T09:22:25Z</time>
      </trkpt>
      <trkpt lat="42.97115" lon="-0.25752">
        <ele>1416.1999511719</ele>
        <time>2020-07-19T09:22:26Z</time>
      </trkpt>
      <trkpt lat="42.97114" lon="-0.25757">
        <ele>1416.1999511719</ele>
        <time>2020-07-19T09:22:27Z</time>
      </trkpt>
      <trkpt lat="42.9711" lon="-0.25778">
        <ele>1416.1999511719</ele>
        <time>2020-07-19T09:22:31Z</time>
      </trkpt>
      <trkpt lat="42.9711" lon="-0.25784">
        <ele>1416.5999755859</ele>
        <time>2020-07-19T09:22:32Z</time>
      </trkpt>
      <trkpt lat="42.9711" lon="-0.25789">
        <ele>1417</ele>
        <time>2020-07-19T09:22:33Z</time>
      </trkpt>
      <trkpt lat="42.9711" lon="-0.25795">
        <ele>1417.4000244141</ele>
        <time>2020-07-19T09:22:34Z</time>
      </trkpt>
      <trkpt lat="42.97109" lon="-0.25801">
        <ele>1417.8000488281</ele>
        <time>2020-07-19T09:22:35Z</time>
      </trkpt>
      <trkpt lat="42.97109" lon="-0.25808">
        <ele>1418.1999511719</ele>
        <time>2020-07-19T09:22:36Z</time>
      </trkpt>
      <trkpt lat="42.97109" lon="-0.25816">
        <ele>1418.1999511719</ele>
        <time>2020-07-19T09:22:37Z</time>
      </trkpt>
      <trkpt lat="42.97114" lon="-0.25834">
        <ele>1418.1999511719</ele>
        <time>2020-07-19T09:22:40Z</time>
      </trkpt>
      <trkpt lat="42.97121" lon="-0.25843">
        <ele>1418.1999511719</ele>
        <time>2020-07-19T09:22:43Z</time>
      </trkpt>
      <trkpt lat="42.97126" lon="-0.25848">
        <ele>1418.1999511719</ele>
        <time>2020-07-19T09:22:45Z</time>
      </trkpt>
      <trkpt lat="42.97128" lon="-0.25851">
        <ele>1418.1999511719</ele>
        <time>2020-07-19T09:22:46Z</time>
      </trkpt>
      <trkpt lat="42.97133" lon="-0.25862">
        <ele>1418.5999755859</ele>
        <time>2020-07-19T09:22:49Z</time>
      </trkpt>
      <trkpt lat="42.97134" lon="-0.25866">
        <ele>1419</ele>
        <time>2020-07-19T09:22:50Z</time>
      </trkpt>
      <trkpt lat="42.97134" lon="-0.2587">
        <ele>1419.4000244141</ele>
        <time>2020-07-19T09:22:51Z</time>
      </trkpt>
      <trkpt lat="42.97135" lon="-0.25874">
        <ele>1419.8000488281</ele>
        <time>2020-07-19T09:22:52Z</time>
      </trkpt>
      <trkpt lat="42.97136" lon="-0.25878">
        <ele>1420.4000244141</ele>
        <time>2020-07-19T09:22:53Z</time>
      </trkpt>
      <trkpt lat="42.97141" lon="-0.25896">
        <ele>1420.4000244141</ele>
        <time>2020-07-19T09:22:58Z</time>
      </trkpt>
      <trkpt lat="42.97153" lon="-0.25914">
        <ele>1420.4000244141</ele>
        <time>2020-07-19T09:23:04Z</time>
      </trkpt>
      <trkpt lat="42.97156" lon="-0.25921">
        <ele>1420.8000488281</ele>
        <time>2020-07-19T09:23:06Z</time>
      </trkpt>
      <trkpt lat="42.97158" lon="-0.25924">
        <ele>1421.1999511719</ele>
        <time>2020-07-19T09:23:07Z</time>
      </trkpt>
      <trkpt lat="42.97159" lon="-0.25928">
        <ele>1421.5999755859</ele>
        <time>2020-07-19T09:23:08Z</time>
      </trkpt>
      <trkpt lat="42.97161" lon="-0.25932">
        <ele>1422</ele>
        <time>2020-07-19T09:23:09Z</time>
      </trkpt>
      <trkpt lat="42.97162" lon="-0.25936">
        <ele>1422.4000244141</ele>
        <time>2020-07-19T09:23:10Z</time>
      </trkpt>
      <trkpt lat="42.97169" lon="-0.25964">
        <ele>1422.4000244141</ele>
        <time>2020-07-19T09:23:17Z</time>
      </trkpt>
      <trkpt lat="42.97178" lon="-0.25984">
        <ele>1422.4000244141</ele>
        <time>2020-07-19T09:23:23Z</time>
      </trkpt>
      <trkpt lat="42.97187" lon="-0.26015">
        <ele>1422.4000244141</ele>
        <time>2020-07-19T09:23:29Z</time>
      </trkpt>
      <trkpt lat="42.97198" lon="-0.26057">
        <ele>1422</ele>
        <time>2020-07-19T09:23:34Z</time>
      </trkpt>
      <trkpt lat="42.972" lon="-0.26067">
        <ele>1421.5999755859</ele>
        <time>2020-07-19T09:23:35Z</time>
      </trkpt>
      <trkpt lat="42.97202" lon="-0.26077">
        <ele>1421.1999511719</ele>
        <time>2020-07-19T09:23:36Z</time>
      </trkpt>
      <trkpt lat="42.97203" lon="-0.26088">
        <ele>1420.1999511719</ele>
        <time>2020-07-19T09:23:37Z</time>
      </trkpt>
      <trkpt lat="42.97204" lon="-0.26099">
        <ele>1419.8000488281</ele>
        <time>2020-07-19T09:23:38Z</time>
      </trkpt>
      <trkpt lat="42.97205" lon="-0.26111">
        <ele>1419.1999511719</ele>
        <time>2020-07-19T09:23:39Z</time>
      </trkpt>
      <trkpt lat="42.97206" lon="-0.26123">
        <ele>1418.5999755859</ele>
        <time>2020-07-19T09:23:40Z</time>
      </trkpt>
      <trkpt lat="42.97207" lon="-0.26134">
        <ele>1417.8000488281</ele>
        <time>2020-07-19T09:23:41Z</time>
      </trkpt>
      <trkpt lat="42.97207" lon="-0.26146">
        <ele>1417.1999511719</ele>
        <time>2020-07-19T09:23:42Z</time>
      </trkpt>
      <trkpt lat="42.97207" lon="-0.26158">
        <ele>1416.5999755859</ele>
        <time>2020-07-19T09:23:43Z</time>
      </trkpt>
      <trkpt lat="42.97206" lon="-0.2617">
        <ele>1416</ele>
        <time>2020-07-19T09:23:44Z</time>
      </trkpt>
      <trkpt lat="42.97205" lon="-0.26183">
        <ele>1415.1999511719</ele>
        <time>2020-07-19T09:23:45Z</time>
      </trkpt>
      <trkpt lat="42.97205" lon="-0.26197">
        <ele>1414.4000244141</ele>
        <time>2020-07-19T09:23:46Z</time>
      </trkpt>
      <trkpt lat="42.97204" lon="-0.26209">
        <ele>1413.5999755859</ele>
        <time>2020-07-19T09:23:47Z</time>
      </trkpt>
      <trkpt lat="42.97203" lon="-0.26222">
        <ele>1412.8000488281</ele>
        <time>2020-07-19T09:23:48Z</time>
      </trkpt>
      <trkpt lat="42.97202" lon="-0.26235">
        <ele>1412.1999511719</ele>
        <time>2020-07-19T09:23:49Z</time>
      </trkpt>
      <trkpt lat="42.97201" lon="-0.26248">
        <ele>1411.4000244141</ele>
        <time>2020-07-19T09:23:50Z</time>
      </trkpt>
      <trkpt lat="42.97199" lon="-0.26262">
        <ele>1410.4000244141</ele>
        <time>2020-07-19T09:23:51Z</time>
      </trkpt>
      <trkpt lat="42.97198" lon="-0.26275">
        <ele>1409.5999755859</ele>
        <time>2020-07-19T09:23:52Z</time>
      </trkpt>
      <trkpt lat="42.97198" lon="-0.26287">
        <ele>1408.5999755859</ele>
        <time>2020-07-19T09:23:53Z</time>
      </trkpt>
      <trkpt lat="42.97198" lon="-0.26299">
        <ele>1407.8000488281</ele>
        <time>2020-07-19T09:23:55Z</time>
      </trkpt>
      <trkpt lat="42.97198" lon="-0.26308">
        <ele>1407</ele>
        <time>2020-07-19T09:23:56Z</time>
      </trkpt>
      <trkpt lat="42.97198" lon="-0.26319">
        <ele>1406</ele>
        <time>2020-07-19T09:23:57Z</time>
      </trkpt>
      <trkpt lat="42.97198" lon="-0.26331">
        <ele>1405.1999511719</ele>
        <time>2020-07-19T09:23:58Z</time>
      </trkpt>
      <trkpt lat="42.97199" lon="-0.26342">
        <ele>1404.4000244141</ele>
        <time>2020-07-19T09:23:59Z</time>
      </trkpt>
      <trkpt lat="42.972" lon="-0.26352">
        <ele>1403.4000244141</ele>
        <time>2020-07-19T09:24:00Z</time>
      </trkpt>
      <trkpt lat="42.972" lon="-0.26362">
        <ele>1402.5999755859</ele>
        <time>2020-07-19T09:24:01Z</time>
      </trkpt>
      <trkpt lat="42.97199" lon="-0.26371">
        <ele>1401</ele>
        <time>2020-07-19T09:24:02Z</time>
      </trkpt>
      <trkpt lat="42.972" lon="-0.26382">
        <ele>1400.1999511719</ele>
        <time>2020-07-19T09:24:03Z</time>
      </trkpt>
      <trkpt lat="42.972" lon="-0.26392">
        <ele>1399.5999755859</ele>
        <time>2020-07-19T09:24:04Z</time>
      </trkpt>
      <trkpt lat="42.97201" lon="-0.26402">
        <ele>1399</ele>
        <time>2020-07-19T09:24:05Z</time>
      </trkpt>
      <trkpt lat="42.97203" lon="-0.26412">
        <ele>1398.4000244141</ele>
        <time>2020-07-19T09:24:06Z</time>
      </trkpt>
      <trkpt lat="42.97206" lon="-0.26422">
        <ele>1397.8000488281</ele>
        <time>2020-07-19T09:24:07Z</time>
      </trkpt>
      <trkpt lat="42.9721" lon="-0.26432">
        <ele>1397</ele>
        <time>2020-07-19T09:24:08Z</time>
      </trkpt>
      <trkpt lat="42.97214" lon="-0.2644">
        <ele>1396.5999755859</ele>
        <time>2020-07-19T09:24:09Z</time>
      </trkpt>
      <trkpt lat="42.97219" lon="-0.26449">
        <ele>1396.1999511719</ele>
        <time>2020-07-19T09:24:10Z</time>
      </trkpt>
      <trkpt lat="42.97223" lon="-0.26458">
        <ele>1395.8000488281</ele>
        <time>2020-07-19T09:24:11Z</time>
      </trkpt>
      <trkpt lat="42.97227" lon="-0.26467">
        <ele>1395.1999511719</ele>
        <time>2020-07-19T09:24:12Z</time>
      </trkpt>
      <trkpt lat="42.9723" lon="-0.26478">
        <ele>1394.8000488281</ele>
        <time>2020-07-19T09:24:13Z</time>
      </trkpt>
      <trkpt lat="42.97232" lon="-0.26488">
        <ele>1394.8000488281</ele>
        <time>2020-07-19T09:24:14Z</time>
      </trkpt>
      <trkpt lat="42.97234" lon="-0.26511">
        <ele>1394.4000244141</ele>
        <time>2020-07-19T09:24:16Z</time>
      </trkpt>
      <trkpt lat="42.97234" lon="-0.26523">
        <ele>1394</ele>
        <time>2020-07-19T09:24:17Z</time>
      </trkpt>
      <trkpt lat="42.97234" lon="-0.26534">
        <ele>1393.5999755859</ele>
        <time>2020-07-19T09:24:18Z</time>
      </trkpt>
      <trkpt lat="42.97232" lon="-0.26543">
        <ele>1393.1999511719</ele>
        <time>2020-07-19T09:24:19Z</time>
      </trkpt>
      <trkpt lat="42.97229" lon="-0.2655">
        <ele>1392.5999755859</ele>
        <time>2020-07-19T09:24:20Z</time>
      </trkpt>
      <trkpt lat="42.97229" lon="-0.26558">
        <ele>1392.5999755859</ele>
        <time>2020-07-19T09:24:21Z</time>
      </trkpt>
      <trkpt lat="42.97236" lon="-0.26569">
        <ele>1392.5999755859</ele>
        <time>2020-07-19T09:24:23Z</time>
      </trkpt>
      <trkpt lat="42.97241" lon="-0.26571">
        <ele>1392.1999511719</ele>
        <time>2020-07-19T09:24:24Z</time>
      </trkpt>
      <trkpt lat="42.97246" lon="-0.26572">
        <ele>1391.8000488281</ele>
        <time>2020-07-19T09:24:25Z</time>
      </trkpt>
      <trkpt lat="42.97251" lon="-0.2657">
        <ele>1391.1999511719</ele>
        <time>2020-07-19T09:24:26Z</time>
      </trkpt>
      <trkpt lat="42.97255" lon="-0.26568">
        <ele>1390.4000244141</ele>
        <time>2020-07-19T09:24:27Z</time>
      </trkpt>
      <trkpt lat="42.97266" lon="-0.26559">
        <ele>1390.4000244141</ele>
        <time>2020-07-19T09:24:30Z</time>
      </trkpt>
      <trkpt lat="42.97267" lon="-0.26557">
        <ele>1389.8000488281</ele>
        <time>2020-07-19T09:24:31Z</time>
      </trkpt>
      <trkpt lat="42.97268" lon="-0.26556">
        <ele>1389.4000244141</ele>
        <time>2020-07-19T09:24:32Z</time>
      </trkpt>
      <trkpt lat="42.97269" lon="-0.26554">
        <ele>1389</ele>
        <time>2020-07-19T09:24:33Z</time>
      </trkpt>
      <trkpt lat="42.9727" lon="-0.26553">
        <ele>1388.5999755859</ele>
        <time>2020-07-19T09:24:34Z</time>
      </trkpt>
      <trkpt lat="42.9727" lon="-0.26553">
        <ele>1388.1999511719</ele>
        <time>2020-07-19T09:24:35Z</time>
      </trkpt>
      <trkpt lat="42.9727" lon="-0.26553">
        <ele>1388.1999511719</ele>
        <time>2020-07-19T09:24:38Z</time>
      </trkpt>
      <trkpt lat="42.9727" lon="-0.26552">
        <ele>1388.1999511719</ele>
        <time>2020-07-19T09:24:49Z</time>
      </trkpt>
      <trkpt lat="42.9727" lon="-0.26552">
        <ele>1388.1999511719</ele>
        <time>2020-07-19T09:24:57Z</time>
      </trkpt>
      <trkpt lat="42.9727" lon="-0.26552">
        <ele>1388.1999511719</ele>
        <time>2020-07-19T09:25:07Z</time>
      </trkpt>
      <trkpt lat="42.9727" lon="-0.26552">
        <ele>1388.1999511719</ele>
        <time>2020-07-19T09:25:20Z</time>
      </trkpt>
      <trkpt lat="42.9727" lon="-0.26552">
        <ele>1388.1999511719</ele>
        <time>2020-07-19T09:25:27Z</time>
      </trkpt>
      <trkpt lat="42.97272" lon="-0.26549">
        <ele>1388.1999511719</ele>
        <time>2020-07-19T09:25:29Z</time>
      </trkpt>
      <trkpt lat="42.97274" lon="-0.26543">
        <ele>1388.1999511719</ele>
        <time>2020-07-19T09:25:31Z</time>
      </trkpt>
      <trkpt lat="42.97275" lon="-0.26533">
        <ele>1388.1999511719</ele>
        <time>2020-07-19T09:25:34Z</time>
      </trkpt>
      <trkpt lat="42.97276" lon="-0.26529">
        <ele>1387.8000488281</ele>
        <time>2020-07-19T09:25:35Z</time>
      </trkpt>
      <trkpt lat="42.97277" lon="-0.26526">
        <ele>1387.4000244141</ele>
        <time>2020-07-19T09:25:36Z</time>
      </trkpt>
      <trkpt lat="42.97278" lon="-0.26522">
        <ele>1386.8000488281</ele>
        <time>2020-07-19T09:25:37Z</time>
      </trkpt>
      <trkpt lat="42.97278" lon="-0.26518">
        <ele>1386.4000244141</ele>
        <time>2020-07-19T09:25:38Z</time>
      </trkpt>
      <trkpt lat="42.9728" lon="-0.26514">
        <ele>1386</ele>
        <time>2020-07-19T09:25:39Z</time>
      </trkpt>
      <trkpt lat="42.97285" lon="-0.26508">
        <ele>1385.5999755859</ele>
        <time>2020-07-19T09:25:41Z</time>
      </trkpt>
      <trkpt lat="42.97288" lon="-0.26508">
        <ele>1385</ele>
        <time>2020-07-19T09:25:42Z</time>
      </trkpt>
      <trkpt lat="42.97292" lon="-0.2651">
        <ele>1384.5999755859</ele>
        <time>2020-07-19T09:25:43Z</time>
      </trkpt>
      <trkpt lat="42.97296" lon="-0.26511">
        <ele>1384</ele>
        <time>2020-07-19T09:25:44Z</time>
      </trkpt>
      <trkpt lat="42.97299" lon="-0.26512">
        <ele>1383.5999755859</ele>
        <time>2020-07-19T09:25:45Z</time>
      </trkpt>
      <trkpt lat="42.97304" lon="-0.26514">
        <ele>1383</ele>
        <time>2020-07-19T09:25:46Z</time>
      </trkpt>
      <trkpt lat="42.97309" lon="-0.26514">
        <ele>1382.4000244141</ele>
        <time>2020-07-19T09:25:47Z</time>
      </trkpt>
      <trkpt lat="42.97313" lon="-0.26514">
        <ele>1381.8000488281</ele>
        <time>2020-07-19T09:25:48Z</time>
      </trkpt>
      <trkpt lat="42.97318" lon="-0.26514">
        <ele>1381.1999511719</ele>
        <time>2020-07-19T09:25:49Z</time>
      </trkpt>
      <trkpt lat="42.97322" lon="-0.26514">
        <ele>1380.5999755859</ele>
        <time>2020-07-19T09:25:50Z</time>
      </trkpt>
      <trkpt lat="42.97326" lon="-0.26514">
        <ele>1379.8000488281</ele>
        <time>2020-07-19T09:25:51Z</time>
      </trkpt>
      <trkpt lat="42.9733" lon="-0.26515">
        <ele>1379.1999511719</ele>
        <time>2020-07-19T09:25:52Z</time>
      </trkpt>
      <trkpt lat="42.97333" lon="-0.26517">
        <ele>1378.8000488281</ele>
        <time>2020-07-19T09:25:53Z</time>
      </trkpt>
      <trkpt lat="42.97336" lon="-0.26521">
        <ele>1378.4000244141</ele>
        <time>2020-07-19T09:25:54Z</time>
      </trkpt>
      <trkpt lat="42.97339" lon="-0.26527">
        <ele>1378</ele>
        <time>2020-07-19T09:25:55Z</time>
      </trkpt>
      <trkpt lat="42.97341" lon="-0.26533">
        <ele>1377.5999755859</ele>
        <time>2020-07-19T09:25:56Z</time>
      </trkpt>
      <trkpt lat="42.97342" lon="-0.2654">
        <ele>1377.1999511719</ele>
        <time>2020-07-19T09:25:57Z</time>
      </trkpt>
      <trkpt lat="42.97341" lon="-0.26565">
        <ele>1376.5999755859</ele>
        <time>2020-07-19T09:26:01Z</time>
      </trkpt>
      <trkpt lat="42.97341" lon="-0.26571">
        <ele>1376.1999511719</ele>
        <time>2020-07-19T09:26:02Z</time>
      </trkpt>
      <trkpt lat="42.9734" lon="-0.26577">
        <ele>1375.8000488281</ele>
        <time>2020-07-19T09:26:03Z</time>
      </trkpt>
      <trkpt lat="42.97339" lon="-0.26583">
        <ele>1374.8000488281</ele>
        <time>2020-07-19T09:26:04Z</time>
      </trkpt>
      <trkpt lat="42.97334" lon="-0.26597">
        <ele>1374.4000244141</ele>
        <time>2020-07-19T09:26:06Z</time>
      </trkpt>
      <trkpt lat="42.97332" lon="-0.26603">
        <ele>1374</ele>
        <time>2020-07-19T09:26:07Z</time>
      </trkpt>
      <trkpt lat="42.9733" lon="-0.26609">
        <ele>1373.5999755859</ele>
        <time>2020-07-19T09:26:08Z</time>
      </trkpt>
      <trkpt lat="42.97328" lon="-0.26616">
        <ele>1373.1999511719</ele>
        <time>2020-07-19T09:26:09Z</time>
      </trkpt>
      <trkpt lat="42.97325" lon="-0.26621">
        <ele>1372.8000488281</ele>
        <time>2020-07-19T09:26:10Z</time>
      </trkpt>
      <trkpt lat="42.97323" lon="-0.26626">
        <ele>1372.1999511719</ele>
        <time>2020-07-19T09:26:11Z</time>
      </trkpt>
      <trkpt lat="42.97321" lon="-0.2663">
        <ele>1371.8000488281</ele>
        <time>2020-07-19T09:26:12Z</time>
      </trkpt>
      <trkpt lat="42.97319" lon="-0.26635">
        <ele>1371.1999511719</ele>
        <time>2020-07-19T09:26:13Z</time>
      </trkpt>
      <trkpt lat="42.97316" lon="-0.26639">
        <ele>1370.8000488281</ele>
        <time>2020-07-19T09:26:14Z</time>
      </trkpt>
      <trkpt lat="42.97313" lon="-0.26643">
        <ele>1370.4000244141</ele>
        <time>2020-07-19T09:26:15Z</time>
      </trkpt>
      <trkpt lat="42.97307" lon="-0.26653">
        <ele>1370</ele>
        <time>2020-07-19T09:26:17Z</time>
      </trkpt>
      <trkpt lat="42.97303" lon="-0.26658">
        <ele>1369.5999755859</ele>
        <time>2020-07-19T09:26:18Z</time>
      </trkpt>
      <trkpt lat="42.97299" lon="-0.26663">
        <ele>1369.1999511719</ele>
        <time>2020-07-19T09:26:19Z</time>
      </trkpt>
      <trkpt lat="42.97295" lon="-0.26667">
        <ele>1368.5999755859</ele>
        <time>2020-07-19T09:26:20Z</time>
      </trkpt>
      <trkpt lat="42.97291" lon="-0.26671">
        <ele>1368.1999511719</ele>
        <time>2020-07-19T09:26:21Z</time>
      </trkpt>
      <trkpt lat="42.97287" lon="-0.26674">
        <ele>1367.8000488281</ele>
        <time>2020-07-19T09:26:22Z</time>
      </trkpt>
      <trkpt lat="42.97283" lon="-0.26676">
        <ele>1367.1999511719</ele>
        <time>2020-07-19T09:26:23Z</time>
      </trkpt>
      <trkpt lat="42.9728" lon="-0.26679">
        <ele>1366.8000488281</ele>
        <time>2020-07-19T09:26:24Z</time>
      </trkpt>
      <trkpt lat="42.97275" lon="-0.26682">
        <ele>1366.1999511719</ele>
        <time>2020-07-19T09:26:25Z</time>
      </trkpt>
      <trkpt lat="42.97261" lon="-0.26692">
        <ele>1365.8000488281</ele>
        <time>2020-07-19T09:26:28Z</time>
      </trkpt>
      <trkpt lat="42.97257" lon="-0.26694">
        <ele>1365</ele>
        <time>2020-07-19T09:26:29Z</time>
      </trkpt>
      <trkpt lat="42.97254" lon="-0.26697">
        <ele>1364.5999755859</ele>
        <time>2020-07-19T09:26:30Z</time>
      </trkpt>
      <trkpt lat="42.9725" lon="-0.26699">
        <ele>1364.1999511719</ele>
        <time>2020-07-19T09:26:31Z</time>
      </trkpt>
      <trkpt lat="42.9724" lon="-0.26705">
        <ele>1364.1999511719</ele>
        <time>2020-07-19T09:26:34Z</time>
      </trkpt>
      <trkpt lat="42.97234" lon="-0.26709">
        <ele>1363.8000488281</ele>
        <time>2020-07-19T09:26:36Z</time>
      </trkpt>
      <trkpt lat="42.9723" lon="-0.2671">
        <ele>1363.4000244141</ele>
        <time>2020-07-19T09:26:37Z</time>
      </trkpt>
      <trkpt lat="42.97228" lon="-0.26711">
        <ele>1363</ele>
        <time>2020-07-19T09:26:38Z</time>
      </trkpt>
      <trkpt lat="42.97225" lon="-0.26712">
        <ele>1362.5999755859</ele>
        <time>2020-07-19T09:26:39Z</time>
      </trkpt>
      <trkpt lat="42.97222" lon="-0.26714">
        <ele>1362.1999511719</ele>
        <time>2020-07-19T09:26:40Z</time>
      </trkpt>
      <trkpt lat="42.97212" lon="-0.26716">
        <ele>1362.1999511719</ele>
        <time>2020-07-19T09:26:44Z</time>
      </trkpt>
      <trkpt lat="42.97206" lon="-0.26718">
        <ele>1361.8000488281</ele>
        <time>2020-07-19T09:26:46Z</time>
      </trkpt>
      <trkpt lat="42.97203" lon="-0.26719">
        <ele>1361.4000244141</ele>
        <time>2020-07-19T09:26:47Z</time>
      </trkpt>
      <trkpt lat="42.97199" lon="-0.2672">
        <ele>1361</ele>
        <time>2020-07-19T09:26:48Z</time>
      </trkpt>
      <trkpt lat="42.97196" lon="-0.26721">
        <ele>1360.4000244141</ele>
        <time>2020-07-19T09:26:49Z</time>
      </trkpt>
      <trkpt lat="42.97193" lon="-0.26721">
        <ele>1360</ele>
        <time>2020-07-19T09:26:50Z</time>
      </trkpt>
      <trkpt lat="42.97177" lon="-0.26724">
        <ele>1359.5999755859</ele>
        <time>2020-07-19T09:26:55Z</time>
      </trkpt>
      <trkpt lat="42.97174" lon="-0.26724">
        <ele>1359.1999511719</ele>
        <time>2020-07-19T09:26:56Z</time>
      </trkpt>
      <trkpt lat="42.97171" lon="-0.26724">
        <ele>1358.8000488281</ele>
        <time>2020-07-19T09:26:57Z</time>
      </trkpt>
      <trkpt lat="42.97167" lon="-0.26724">
        <ele>1358.4000244141</ele>
        <time>2020-07-19T09:26:58Z</time>
      </trkpt>
      <trkpt lat="42.97164" lon="-0.26724">
        <ele>1358</ele>
        <time>2020-07-19T09:26:59Z</time>
      </trkpt>
      <trkpt lat="42.9715" lon="-0.26722">
        <ele>1358</ele>
        <time>2020-07-19T09:27:03Z</time>
      </trkpt>
      <trkpt lat="42.97143" lon="-0.26725">
        <ele>1357.5999755859</ele>
        <time>2020-07-19T09:27:05Z</time>
      </trkpt>
      <trkpt lat="42.9714" lon="-0.26726">
        <ele>1357.1999511719</ele>
        <time>2020-07-19T09:27:06Z</time>
      </trkpt>
      <trkpt lat="42.97136" lon="-0.26726">
        <ele>1356.8000488281</ele>
        <time>2020-07-19T09:27:07Z</time>
      </trkpt>
      <trkpt lat="42.97131" lon="-0.26725">
        <ele>1356.1999511719</ele>
        <time>2020-07-19T09:27:08Z</time>
      </trkpt>
      <trkpt lat="42.97127" lon="-0.26724">
        <ele>1355.8000488281</ele>
        <time>2020-07-19T09:27:09Z</time>
      </trkpt>
      <trkpt lat="42.97114" lon="-0.26722">
        <ele>1355.8000488281</ele>
        <time>2020-07-19T09:27:12Z</time>
      </trkpt>
      <trkpt lat="42.97108" lon="-0.26716">
        <ele>1355.4000244141</ele>
        <time>2020-07-19T09:27:14Z</time>
      </trkpt>
      <trkpt lat="42.97104" lon="-0.26712">
        <ele>1355</ele>
        <time>2020-07-19T09:27:15Z</time>
      </trkpt>
      <trkpt lat="42.97102" lon="-0.26708">
        <ele>1354.5999755859</ele>
        <time>2020-07-19T09:27:16Z</time>
      </trkpt>
      <trkpt lat="42.971" lon="-0.26703">
        <ele>1354.1999511719</ele>
        <time>2020-07-19T09:27:17Z</time>
      </trkpt>
      <trkpt lat="42.97097" lon="-0.26697">
        <ele>1353.5999755859</ele>
        <time>2020-07-19T09:27:18Z</time>
      </trkpt>
      <trkpt lat="42.97096" lon="-0.26691">
        <ele>1353.5999755859</ele>
        <time>2020-07-19T09:27:19Z</time>
      </trkpt>
      <trkpt lat="42.97094" lon="-0.26685">
        <ele>1353.5999755859</ele>
        <time>2020-07-19T09:27:20Z</time>
      </trkpt>
      <trkpt lat="42.97093" lon="-0.26679">
        <ele>1353.5999755859</ele>
        <time>2020-07-19T09:27:21Z</time>
      </trkpt>
      <trkpt lat="42.97092" lon="-0.26662">
        <ele>1353.5999755859</ele>
        <time>2020-07-19T09:27:24Z</time>
      </trkpt>
      <trkpt lat="42.97085" lon="-0.26639">
        <ele>1353.5999755859</ele>
        <time>2020-07-19T09:27:29Z</time>
      </trkpt>
      <trkpt lat="42.97072" lon="-0.2662">
        <ele>1353.5999755859</ele>
        <time>2020-07-19T09:27:34Z</time>
      </trkpt>
      <trkpt lat="42.97063" lon="-0.26603">
        <ele>1353.1999511719</ele>
        <time>2020-07-19T09:27:38Z</time>
      </trkpt>
      <trkpt lat="42.97061" lon="-0.26599">
        <ele>1352.8000488281</ele>
        <time>2020-07-19T09:27:39Z</time>
      </trkpt>
      <trkpt lat="42.9706" lon="-0.26595">
        <ele>1352.4000244141</ele>
        <time>2020-07-19T09:27:40Z</time>
      </trkpt>
      <trkpt lat="42.97058" lon="-0.26592">
        <ele>1352</ele>
        <time>2020-07-19T09:27:41Z</time>
      </trkpt>
      <trkpt lat="42.97056" lon="-0.26588">
        <ele>1351.5999755859</ele>
        <time>2020-07-19T09:27:42Z</time>
      </trkpt>
      <trkpt lat="42.97051" lon="-0.26575">
        <ele>1351.5999755859</ele>
        <time>2020-07-19T09:27:46Z</time>
      </trkpt>
      <trkpt lat="42.97047" lon="-0.26556">
        <ele>1351.5999755859</ele>
        <time>2020-07-19T09:27:51Z</time>
      </trkpt>
      <trkpt lat="42.97041" lon="-0.26525">
        <ele>1351.5999755859</ele>
        <time>2020-07-19T09:27:57Z</time>
      </trkpt>
      <trkpt lat="42.9704" lon="-0.26506">
        <ele>1351.5999755859</ele>
        <time>2020-07-19T09:28:00Z</time>
      </trkpt>
      <trkpt lat="42.97035" lon="-0.26493">
        <ele>1351.5999755859</ele>
        <time>2020-07-19T09:28:02Z</time>
      </trkpt>
      <trkpt lat="42.97029" lon="-0.26483">
        <ele>1351.5999755859</ele>
        <time>2020-07-19T09:28:04Z</time>
      </trkpt>
      <trkpt lat="42.97026" lon="-0.26477">
        <ele>1351.5999755859</ele>
        <time>2020-07-19T09:28:05Z</time>
      </trkpt>
      <trkpt lat="42.9702" lon="-0.26466">
        <ele>1351.5999755859</ele>
        <time>2020-07-19T09:28:07Z</time>
      </trkpt>
      <trkpt lat="42.97016" lon="-0.26463">
        <ele>1350.8000488281</ele>
        <time>2020-07-19T09:28:08Z</time>
      </trkpt>
      <trkpt lat="42.97013" lon="-0.26461">
        <ele>1350.4000244141</ele>
        <time>2020-07-19T09:28:09Z</time>
      </trkpt>
      <trkpt lat="42.97009" lon="-0.26459">
        <ele>1350</ele>
        <time>2020-07-19T09:28:10Z</time>
      </trkpt>
      <trkpt lat="42.97005" lon="-0.26457">
        <ele>1349.5999755859</ele>
        <time>2020-07-19T09:28:11Z</time>
      </trkpt>
      <trkpt lat="42.96995" lon="-0.26449">
        <ele>1349.5999755859</ele>
        <time>2020-07-19T09:28:15Z</time>
      </trkpt>
      <trkpt lat="42.96985" lon="-0.2644">
        <ele>1350</ele>
        <time>2020-07-19T09:28:19Z</time>
      </trkpt>
      <trkpt lat="42.96982" lon="-0.26438">
        <ele>1350.4000244141</ele>
        <time>2020-07-19T09:28:20Z</time>
      </trkpt>
      <trkpt lat="42.96979" lon="-0.26437">
        <ele>1350.8000488281</ele>
        <time>2020-07-19T09:28:21Z</time>
      </trkpt>
      <trkpt lat="42.96975" lon="-0.26437">
        <ele>1351.1999511719</ele>
        <time>2020-07-19T09:28:22Z</time>
      </trkpt>
      <trkpt lat="42.96972" lon="-0.26437">
        <ele>1351.8000488281</ele>
        <time>2020-07-19T09:28:23Z</time>
      </trkpt>
      <trkpt lat="42.96969" lon="-0.26439">
        <ele>1351.8000488281</ele>
        <time>2020-07-19T09:28:24Z</time>
      </trkpt>
      <trkpt lat="42.96957" lon="-0.26448">
        <ele>1351.8000488281</ele>
        <time>2020-07-19T09:28:29Z</time>
      </trkpt>
      <trkpt lat="42.96955" lon="-0.26449">
        <ele>1352.1999511719</ele>
        <time>2020-07-19T09:28:30Z</time>
      </trkpt>
      <trkpt lat="42.96952" lon="-0.26449">
        <ele>1352.5999755859</ele>
        <time>2020-07-19T09:28:31Z</time>
      </trkpt>
      <trkpt lat="42.9695" lon="-0.2645">
        <ele>1353</ele>
        <time>2020-07-19T09:28:32Z</time>
      </trkpt>
      <trkpt lat="42.96947" lon="-0.26448">
        <ele>1353.8000488281</ele>
        <time>2020-07-19T09:28:33Z</time>
      </trkpt>
      <trkpt lat="42.96945" lon="-0.26447">
        <ele>1353.8000488281</ele>
        <time>2020-07-19T09:28:34Z</time>
      </trkpt>
      <trkpt lat="42.96938" lon="-0.26441">
        <ele>1353.8000488281</ele>
        <time>2020-07-19T09:28:37Z</time>
      </trkpt>
      <trkpt lat="42.96934" lon="-0.26435">
        <ele>1354.4000244141</ele>
        <time>2020-07-19T09:28:39Z</time>
      </trkpt>
      <trkpt lat="42.96932" lon="-0.26433">
        <ele>1354.8000488281</ele>
        <time>2020-07-19T09:28:40Z</time>
      </trkpt>
      <trkpt lat="42.9693" lon="-0.26431">
        <ele>1355.1999511719</ele>
        <time>2020-07-19T09:28:41Z</time>
      </trkpt>
      <trkpt lat="42.96928" lon="-0.26428">
        <ele>1355.5999755859</ele>
        <time>2020-07-19T09:28:42Z</time>
      </trkpt>
      <trkpt lat="42.96926" lon="-0.26428">
        <ele>1356</ele>
        <time>2020-07-19T09:28:43Z</time>
      </trkpt>
      <trkpt lat="42.96919" lon="-0.26425">
        <ele>1356</ele>
        <time>2020-07-19T09:28:46Z</time>
      </trkpt>
      <trkpt lat="42.96904" lon="-0.26425">
        <ele>1356</ele>
        <time>2020-07-19T09:28:51Z</time>
      </trkpt>
      <trkpt lat="42.96881" lon="-0.26426">
        <ele>1356</ele>
        <time>2020-07-19T09:28:58Z</time>
      </trkpt>
      <trkpt lat="42.96873" lon="-0.26427">
        <ele>1356</ele>
        <time>2020-07-19T09:29:00Z</time>
      </trkpt>
      <trkpt lat="42.96864" lon="-0.26429">
        <ele>1356</ele>
        <time>2020-07-19T09:29:02Z</time>
      </trkpt>
      <trkpt lat="42.96859" lon="-0.26431">
        <ele>1356</ele>
        <time>2020-07-19T09:29:03Z</time>
      </trkpt>
      <trkpt lat="42.96854" lon="-0.26435">
        <ele>1356</ele>
        <time>2020-07-19T09:29:04Z</time>
      </trkpt>
      <trkpt lat="42.96837" lon="-0.26448">
        <ele>1356</ele>
        <time>2020-07-19T09:29:07Z</time>
      </trkpt>
      <trkpt lat="42.96832" lon="-0.26455">
        <ele>1356</ele>
        <time>2020-07-19T09:29:08Z</time>
      </trkpt>
      <trkpt lat="42.96828" lon="-0.26462">
        <ele>1355.5999755859</ele>
        <time>2020-07-19T09:29:09Z</time>
      </trkpt>
      <trkpt lat="42.96824" lon="-0.26469">
        <ele>1355.1999511719</ele>
        <time>2020-07-19T09:29:10Z</time>
      </trkpt>
      <trkpt lat="42.9682" lon="-0.26476">
        <ele>1354.8000488281</ele>
        <time>2020-07-19T09:29:11Z</time>
      </trkpt>
      <trkpt lat="42.96815" lon="-0.26482">
        <ele>1354.1999511719</ele>
        <time>2020-07-19T09:29:12Z</time>
      </trkpt>
      <trkpt lat="42.96809" lon="-0.26485">
        <ele>1353.8000488281</ele>
        <time>2020-07-19T09:29:13Z</time>
      </trkpt>
      <trkpt lat="42.96803" lon="-0.26486">
        <ele>1353.4000244141</ele>
        <time>2020-07-19T09:29:14Z</time>
      </trkpt>
      <trkpt lat="42.96795" lon="-0.26487">
        <ele>1353</ele>
        <time>2020-07-19T09:29:15Z</time>
      </trkpt>
      <trkpt lat="42.96788" lon="-0.26489">
        <ele>1352.4000244141</ele>
        <time>2020-07-19T09:29:16Z</time>
      </trkpt>
      <trkpt lat="42.9678" lon="-0.26492">
        <ele>1352</ele>
        <time>2020-07-19T09:29:17Z</time>
      </trkpt>
      <trkpt lat="42.96773" lon="-0.26495">
        <ele>1351.4000244141</ele>
        <time>2020-07-19T09:29:18Z</time>
      </trkpt>
      <trkpt lat="42.96764" lon="-0.26498">
        <ele>1351</ele>
        <time>2020-07-19T09:29:19Z</time>
      </trkpt>
      <trkpt lat="42.96755" lon="-0.265">
        <ele>1350.4000244141</ele>
        <time>2020-07-19T09:29:20Z</time>
      </trkpt>
      <trkpt lat="42.96746" lon="-0.26502">
        <ele>1350</ele>
        <time>2020-07-19T09:29:21Z</time>
      </trkpt>
      <trkpt lat="42.96738" lon="-0.26506">
        <ele>1349</ele>
        <time>2020-07-19T09:29:22Z</time>
      </trkpt>
      <trkpt lat="42.96729" lon="-0.26509">
        <ele>1348.5999755859</ele>
        <time>2020-07-19T09:29:23Z</time>
      </trkpt>
      <trkpt lat="42.96721" lon="-0.26513">
        <ele>1348.1999511719</ele>
        <time>2020-07-19T09:29:24Z</time>
      </trkpt>
      <trkpt lat="42.96713" lon="-0.26517">
        <ele>1347.8000488281</ele>
        <time>2020-07-19T09:29:25Z</time>
      </trkpt>
      <trkpt lat="42.96705" lon="-0.26519">
        <ele>1347.1999511719</ele>
        <time>2020-07-19T09:29:26Z</time>
      </trkpt>
      <trkpt lat="42.96696" lon="-0.26521">
        <ele>1347.1999511719</ele>
        <time>2020-07-19T09:29:27Z</time>
      </trkpt>
      <trkpt lat="42.96688" lon="-0.26521">
        <ele>1347.1999511719</ele>
        <time>2020-07-19T09:29:28Z</time>
      </trkpt>
      <trkpt lat="42.96658" lon="-0.26515">
        <ele>1347.1999511719</ele>
        <time>2020-07-19T09:29:32Z</time>
      </trkpt>
      <trkpt lat="42.9663" lon="-0.26501">
        <ele>1347.1999511719</ele>
        <time>2020-07-19T09:29:36Z</time>
      </trkpt>
      <trkpt lat="42.96622" lon="-0.26497">
        <ele>1346.8000488281</ele>
        <time>2020-07-19T09:29:37Z</time>
      </trkpt>
      <trkpt lat="42.96615" lon="-0.26494">
        <ele>1346.4000244141</ele>
        <time>2020-07-19T09:29:38Z</time>
      </trkpt>
      <trkpt lat="42.96607" lon="-0.26491">
        <ele>1346</ele>
        <time>2020-07-19T09:29:39Z</time>
      </trkpt>
      <trkpt lat="42.96599" lon="-0.26488">
        <ele>1345.5999755859</ele>
        <time>2020-07-19T09:29:40Z</time>
      </trkpt>
      <trkpt lat="42.96592" lon="-0.26486">
        <ele>1345.1999511719</ele>
        <time>2020-07-19T09:29:41Z</time>
      </trkpt>
      <trkpt lat="42.96584" lon="-0.26486">
        <ele>1345.1999511719</ele>
        <time>2020-07-19T09:29:42Z</time>
      </trkpt>
      <trkpt lat="42.96556" lon="-0.26475">
        <ele>1345.1999511719</ele>
        <time>2020-07-19T09:29:46Z</time>
      </trkpt>
      <trkpt lat="42.9655" lon="-0.2647">
        <ele>1344.8000488281</ele>
        <time>2020-07-19T09:29:47Z</time>
      </trkpt>
      <trkpt lat="42.96544" lon="-0.26466">
        <ele>1344.4000244141</ele>
        <time>2020-07-19T09:29:48Z</time>
      </trkpt>
      <trkpt lat="42.96537" lon="-0.26462">
        <ele>1344</ele>
        <time>2020-07-19T09:29:49Z</time>
      </trkpt>
      <trkpt lat="42.9653" lon="-0.26461">
        <ele>1343.5999755859</ele>
        <time>2020-07-19T09:29:50Z</time>
      </trkpt>
      <trkpt lat="42.96524" lon="-0.26458">
        <ele>1343</ele>
        <time>2020-07-19T09:29:51Z</time>
      </trkpt>
      <trkpt lat="42.96514" lon="-0.26448">
        <ele>1343</ele>
        <time>2020-07-19T09:29:53Z</time>
      </trkpt>
      <trkpt lat="42.96501" lon="-0.26427">
        <ele>1343</ele>
        <time>2020-07-19T09:29:57Z</time>
      </trkpt>
      <trkpt lat="42.96493" lon="-0.26415">
        <ele>1343</ele>
        <time>2020-07-19T09:30:00Z</time>
      </trkpt>
      <trkpt lat="42.96488" lon="-0.26407">
        <ele>1343</ele>
        <time>2020-07-19T09:30:02Z</time>
      </trkpt>
      <trkpt lat="42.96483" lon="-0.26397">
        <ele>1343</ele>
        <time>2020-07-19T09:30:04Z</time>
      </trkpt>
      <trkpt lat="42.96473" lon="-0.26383">
        <ele>1343</ele>
        <time>2020-07-19T09:30:07Z</time>
      </trkpt>
      <trkpt lat="42.96453" lon="-0.26353">
        <ele>1343</ele>
        <time>2020-07-19T09:30:12Z</time>
      </trkpt>
      <trkpt lat="42.96431" lon="-0.2632">
        <ele>1342.5999755859</ele>
        <time>2020-07-19T09:30:17Z</time>
      </trkpt>
      <trkpt lat="42.96427" lon="-0.26313">
        <ele>1342.1999511719</ele>
        <time>2020-07-19T09:30:18Z</time>
      </trkpt>
      <trkpt lat="42.96423" lon="-0.26306">
        <ele>1341.8000488281</ele>
        <time>2020-07-19T09:30:19Z</time>
      </trkpt>
      <trkpt lat="42.96419" lon="-0.26299">
        <ele>1341.1999511719</ele>
        <time>2020-07-19T09:30:20Z</time>
      </trkpt>
      <trkpt lat="42.96415" lon="-0.26291">
        <ele>1340.8000488281</ele>
        <time>2020-07-19T09:30:21Z</time>
      </trkpt>
      <trkpt lat="42.96407" lon="-0.26277">
        <ele>1340.8000488281</ele>
        <time>2020-07-19T09:30:23Z</time>
      </trkpt>
      <trkpt lat="42.96402" lon="-0.26272">
        <ele>1340.8000488281</ele>
        <time>2020-07-19T09:30:24Z</time>
      </trkpt>
      <trkpt lat="42.96382" lon="-0.26265">
        <ele>1340.8000488281</ele>
        <time>2020-07-19T09:30:28Z</time>
      </trkpt>
      <trkpt lat="42.96356" lon="-0.26253">
        <ele>1340.8000488281</ele>
        <time>2020-07-19T09:30:34Z</time>
      </trkpt>
      <trkpt lat="42.96348" lon="-0.2625">
        <ele>1340.8000488281</ele>
        <time>2020-07-19T09:30:36Z</time>
      </trkpt>
      <trkpt lat="42.96337" lon="-0.26245">
        <ele>1341.1999511719</ele>
        <time>2020-07-19T09:30:39Z</time>
      </trkpt>
      <trkpt lat="42.96334" lon="-0.26244">
        <ele>1341.5999755859</ele>
        <time>2020-07-19T09:30:40Z</time>
      </trkpt>
      <trkpt lat="42.9633" lon="-0.26243">
        <ele>1342</ele>
        <time>2020-07-19T09:30:41Z</time>
      </trkpt>
      <trkpt lat="42.96326" lon="-0.26242">
        <ele>1342.5999755859</ele>
        <time>2020-07-19T09:30:42Z</time>
      </trkpt>
      <trkpt lat="42.96323" lon="-0.26241">
        <ele>1343</ele>
        <time>2020-07-19T09:30:43Z</time>
      </trkpt>
      <trkpt lat="42.9632" lon="-0.2624">
        <ele>1343.4000244141</ele>
        <time>2020-07-19T09:30:44Z</time>
      </trkpt>
      <trkpt lat="42.96317" lon="-0.26239">
        <ele>1343.8000488281</ele>
        <time>2020-07-19T09:30:45Z</time>
      </trkpt>
      <trkpt lat="42.96314" lon="-0.26238">
        <ele>1344.1999511719</ele>
        <time>2020-07-19T09:30:46Z</time>
      </trkpt>
      <trkpt lat="42.96311" lon="-0.26238">
        <ele>1344.5999755859</ele>
        <time>2020-07-19T09:30:47Z</time>
      </trkpt>
      <trkpt lat="42.96308" lon="-0.26238">
        <ele>1345</ele>
        <time>2020-07-19T09:30:48Z</time>
      </trkpt>
      <trkpt lat="42.96302" lon="-0.2624">
        <ele>1345.4000244141</ele>
        <time>2020-07-19T09:30:50Z</time>
      </trkpt>
      <trkpt lat="42.963" lon="-0.26242">
        <ele>1345.8000488281</ele>
        <time>2020-07-19T09:30:51Z</time>
      </trkpt>
      <trkpt lat="42.96297" lon="-0.26243">
        <ele>1346.1999511719</ele>
        <time>2020-07-19T09:30:52Z</time>
      </trkpt>
      <trkpt lat="42.96294" lon="-0.26245">
        <ele>1346.5999755859</ele>
        <time>2020-07-19T09:30:53Z</time>
      </trkpt>
      <trkpt lat="42.96292" lon="-0.26246">
        <ele>1347</ele>
        <time>2020-07-19T09:30:54Z</time>
      </trkpt>
      <trkpt lat="42.96287" lon="-0.2625">
        <ele>1347.4000244141</ele>
        <time>2020-07-19T09:30:56Z</time>
      </trkpt>
      <trkpt lat="42.96284" lon="-0.26251">
        <ele>1348</ele>
        <time>2020-07-19T09:30:57Z</time>
      </trkpt>
      <trkpt lat="42.96281" lon="-0.26253">
        <ele>1348.4000244141</ele>
        <time>2020-07-19T09:30:58Z</time>
      </trkpt>
      <trkpt lat="42.96279" lon="-0.26255">
        <ele>1348.8000488281</ele>
        <time>2020-07-19T09:30:59Z</time>
      </trkpt>
      <trkpt lat="42.96277" lon="-0.26257">
        <ele>1349.1999511719</ele>
        <time>2020-07-19T09:31:00Z</time>
      </trkpt>
      <trkpt lat="42.96273" lon="-0.2626">
        <ele>1349.5999755859</ele>
        <time>2020-07-19T09:31:02Z</time>
      </trkpt>
      <trkpt lat="42.96271" lon="-0.26262">
        <ele>1350</ele>
        <time>2020-07-19T09:31:03Z</time>
      </trkpt>
      <trkpt lat="42.96269" lon="-0.26263">
        <ele>1350.4000244141</ele>
        <time>2020-07-19T09:31:04Z</time>
      </trkpt>
      <trkpt lat="42.96267" lon="-0.26264">
        <ele>1351</ele>
        <time>2020-07-19T09:31:05Z</time>
      </trkpt>
      <trkpt lat="42.96264" lon="-0.26265">
        <ele>1351.4000244141</ele>
        <time>2020-07-19T09:31:06Z</time>
      </trkpt>
      <trkpt lat="42.96258" lon="-0.26267">
        <ele>1351.4000244141</ele>
        <time>2020-07-19T09:31:09Z</time>
      </trkpt>
      <trkpt lat="42.96253" lon="-0.26268">
        <ele>1351.8000488281</ele>
        <time>2020-07-19T09:31:11Z</time>
      </trkpt>
      <trkpt lat="42.96251" lon="-0.26268">
        <ele>1352.1999511719</ele>
        <time>2020-07-19T09:31:12Z</time>
      </trkpt>
      <trkpt lat="42.96248" lon="-0.26268">
        <ele>1352.5999755859</ele>
        <time>2020-07-19T09:31:13Z</time>
      </trkpt>
      <trkpt lat="42.96246" lon="-0.26269">
        <ele>1353</ele>
        <time>2020-07-19T09:31:14Z</time>
      </trkpt>
      <trkpt lat="42.96244" lon="-0.26268">
        <ele>1353.4000244141</ele>
        <time>2020-07-19T09:31:15Z</time>
      </trkpt>
      <trkpt lat="42.9624" lon="-0.26265">
        <ele>1353.4000244141</ele>
        <time>2020-07-19T09:31:17Z</time>
      </trkpt>
      <trkpt lat="42.96237" lon="-0.2626">
        <ele>1353.8000488281</ele>
        <time>2020-07-19T09:31:19Z</time>
      </trkpt>
      <trkpt lat="42.96236" lon="-0.26257">
        <ele>1354.4000244141</ele>
        <time>2020-07-19T09:31:20Z</time>
      </trkpt>
      <trkpt lat="42.96235" lon="-0.26254">
        <ele>1354.8000488281</ele>
        <time>2020-07-19T09:31:21Z</time>
      </trkpt>
      <trkpt lat="42.96234" lon="-0.2625">
        <ele>1355.1999511719</ele>
        <time>2020-07-19T09:31:22Z</time>
      </trkpt>
      <trkpt lat="42.96234" lon="-0.26246">
        <ele>1355.5999755859</ele>
        <time>2020-07-19T09:31:23Z</time>
      </trkpt>
      <trkpt lat="42.96233" lon="-0.26222">
        <ele>1355.5999755859</ele>
        <time>2020-07-19T09:31:28Z</time>
      </trkpt>
      <trkpt lat="42.96223" lon="-0.26198">
        <ele>1355.5999755859</ele>
        <time>2020-07-19T09:31:32Z</time>
      </trkpt>
      <trkpt lat="42.9622" lon="-0.26194">
        <ele>1355</ele>
        <time>2020-07-19T09:31:33Z</time>
      </trkpt>
      <trkpt lat="42.96217" lon="-0.26191">
        <ele>1354.5999755859</ele>
        <time>2020-07-19T09:31:34Z</time>
      </trkpt>
      <trkpt lat="42.96214" lon="-0.26188">
        <ele>1354</ele>
        <time>2020-07-19T09:31:35Z</time>
      </trkpt>
      <trkpt lat="42.9621" lon="-0.26186">
        <ele>1353.5999755859</ele>
        <time>2020-07-19T09:31:36Z</time>
      </trkpt>
      <trkpt lat="42.96206" lon="-0.26186">
        <ele>1353.1999511719</ele>
        <time>2020-07-19T09:31:37Z</time>
      </trkpt>
      <trkpt lat="42.96204" lon="-0.26186">
        <ele>1352.5999755859</ele>
        <time>2020-07-19T09:31:38Z</time>
      </trkpt>
      <trkpt lat="42.96201" lon="-0.26185">
        <ele>1352</ele>
        <time>2020-07-19T09:31:39Z</time>
      </trkpt>
      <trkpt lat="42.96198" lon="-0.26184">
        <ele>1351.5999755859</ele>
        <time>2020-07-19T09:31:40Z</time>
      </trkpt>
      <trkpt lat="42.96196" lon="-0.26182">
        <ele>1351</ele>
        <time>2020-07-19T09:31:41Z</time>
      </trkpt>
      <trkpt lat="42.96188" lon="-0.26171">
        <ele>1351</ele>
        <time>2020-07-19T09:31:44Z</time>
      </trkpt>
      <trkpt lat="42.96172" lon="-0.26158">
        <ele>1351</ele>
        <time>2020-07-19T09:31:50Z</time>
      </trkpt>
      <trkpt lat="42.96155" lon="-0.2616">
        <ele>1351</ele>
        <time>2020-07-19T09:31:56Z</time>
      </trkpt>
      <trkpt lat="42.96139" lon="-0.26166">
        <ele>1351</ele>
        <time>2020-07-19T09:32:01Z</time>
      </trkpt>
      <trkpt lat="42.96124" lon="-0.26173">
        <ele>1351.5999755859</ele>
        <time>2020-07-19T09:32:06Z</time>
      </trkpt>
      <trkpt lat="42.96121" lon="-0.26175">
        <ele>1352</ele>
        <time>2020-07-19T09:32:07Z</time>
      </trkpt>
      <trkpt lat="42.96117" lon="-0.26176">
        <ele>1352.4000244141</ele>
        <time>2020-07-19T09:32:08Z</time>
      </trkpt>
      <trkpt lat="42.96115" lon="-0.26177">
        <ele>1352.8000488281</ele>
        <time>2020-07-19T09:32:09Z</time>
      </trkpt>
      <trkpt lat="42.96112" lon="-0.26178">
        <ele>1353.4000244141</ele>
        <time>2020-07-19T09:32:10Z</time>
      </trkpt>
      <trkpt lat="42.961" lon="-0.26182">
        <ele>1353.8000488281</ele>
        <time>2020-07-19T09:32:14Z</time>
      </trkpt>
      <trkpt lat="42.96097" lon="-0.26183">
        <ele>1354.5999755859</ele>
        <time>2020-07-19T09:32:15Z</time>
      </trkpt>
      <trkpt lat="42.96094" lon="-0.26184">
        <ele>1355</ele>
        <time>2020-07-19T09:32:16Z</time>
      </trkpt>
      <trkpt lat="42.96092" lon="-0.26184">
        <ele>1355.4000244141</ele>
        <time>2020-07-19T09:32:17Z</time>
      </trkpt>
      <trkpt lat="42.9608" lon="-0.26188">
        <ele>1355.4000244141</ele>
        <time>2020-07-19T09:32:22Z</time>
      </trkpt>
      <trkpt lat="42.96074" lon="-0.26189">
        <ele>1355.8000488281</ele>
        <time>2020-07-19T09:32:25Z</time>
      </trkpt>
      <trkpt lat="42.96071" lon="-0.26188">
        <ele>1356.1999511719</ele>
        <time>2020-07-19T09:32:26Z</time>
      </trkpt>
      <trkpt lat="42.9607" lon="-0.26184">
        <ele>1356.5999755859</ele>
        <time>2020-07-19T09:32:27Z</time>
      </trkpt>
      <trkpt lat="42.96068" lon="-0.26182">
        <ele>1357</ele>
        <time>2020-07-19T09:32:28Z</time>
      </trkpt>
      <trkpt lat="42.96067" lon="-0.26179">
        <ele>1357.4000244141</ele>
        <time>2020-07-19T09:32:29Z</time>
      </trkpt>
      <trkpt lat="42.96065" lon="-0.26164">
        <ele>1357.4000244141</ele>
        <time>2020-07-19T09:32:33Z</time>
      </trkpt>
      <trkpt lat="42.96067" lon="-0.26146">
        <ele>1357.8000488281</ele>
        <time>2020-07-19T09:32:38Z</time>
      </trkpt>
      <trkpt lat="42.96067" lon="-0.26143">
        <ele>1358.1999511719</ele>
        <time>2020-07-19T09:32:39Z</time>
      </trkpt>
      <trkpt lat="42.96068" lon="-0.26139">
        <ele>1359</ele>
        <time>2020-07-19T09:32:40Z</time>
      </trkpt>
      <trkpt lat="42.96068" lon="-0.26136">
        <ele>1359.5999755859</ele>
        <time>2020-07-19T09:32:41Z</time>
      </trkpt>
      <trkpt lat="42.96074" lon="-0.26128">
        <ele>1359.5999755859</ele>
        <time>2020-07-19T09:32:44Z</time>
      </trkpt>
      <trkpt lat="42.96084" lon="-0.26106">
        <ele>1359.5999755859</ele>
        <time>2020-07-19T09:32:51Z</time>
      </trkpt>
      <trkpt lat="42.96089" lon="-0.26095">
        <ele>1359.5999755859</ele>
        <time>2020-07-19T09:32:55Z</time>
      </trkpt>
      <trkpt lat="42.96093" lon="-0.26094">
        <ele>1359.5999755859</ele>
        <time>2020-07-19T09:32:57Z</time>
      </trkpt>
      <trkpt lat="42.96096" lon="-0.26098">
        <ele>1359.5999755859</ele>
        <time>2020-07-19T09:33:00Z</time>
      </trkpt>
      <trkpt lat="42.96096" lon="-0.26099">
        <ele>1359.5999755859</ele>
        <time>2020-07-19T09:33:02Z</time>
      </trkpt>
      <trkpt lat="42.96097" lon="-0.26099">
        <ele>1360.5999755859</ele>
        <time>2020-07-19T09:33:07Z</time>
      </trkpt>
    </trkseg>
  </trk>
</gpx>